<?xml version="1.0" encoding="UTF-8" standalone="no" ?>
<gpx xmlns="http://www.topografix.com/GPX/1/1" xmlns:xsi="http://www.w3.org/2001/XMLSchema-instance" xsi:schemaLocation="http://www.topografix.com/GPX/1/1 http://www.topografix.com/GPX/1/1/gpx.xsd" version="1.1" creator="VisuGPX - https://www.visugpx.com">
  <metadata>
    <name>Tour en Thur prkl</name>
  </metadata>
  <trk>
    <name><![CDATA[8 mai 2023 à 06:49:41]]></name>
    <extensions>
      <line xmlns="http://www.topografix.com/GPX/gpx_style/0/2">
        <color>008800</color>
        <width>4</width>
      </line>
    </extensions>
    <trkseg>
      <trkpt lat="47.90987" lon="6.92874">
        <ele>1248</ele>
        <time>2023-05-08T04:49:42Z</time>
      </trkpt>
      <trkpt lat="47.90987" lon="6.92874">
        <ele>1248</ele>
        <time>2023-05-08T04:49:43Z</time>
      </trkpt>
      <trkpt lat="47.90983" lon="6.92872">
        <ele>1247</ele>
        <time>2023-05-08T04:49:54Z</time>
      </trkpt>
      <trkpt lat="47.90979" lon="6.92866">
        <ele>1247</ele>
        <time>2023-05-08T04:50:00Z</time>
      </trkpt>
      <trkpt lat="47.90975" lon="6.92862">
        <ele>1246</ele>
        <time>2023-05-08T04:50:05Z</time>
      </trkpt>
      <trkpt lat="47.90974" lon="6.92856">
        <ele>1245</ele>
        <time>2023-05-08T04:50:10Z</time>
      </trkpt>
      <trkpt lat="47.90969" lon="6.92849">
        <ele>1244</ele>
        <time>2023-05-08T04:50:16Z</time>
      </trkpt>
      <trkpt lat="47.90959" lon="6.9285">
        <ele>1243</ele>
        <time>2023-05-08T04:50:24Z</time>
      </trkpt>
      <trkpt lat="47.9095" lon="6.92843">
        <ele>1239</ele>
        <time>2023-05-08T04:50:37Z</time>
      </trkpt>
      <trkpt lat="47.9094" lon="6.92838">
        <ele>1236</ele>
        <time>2023-05-08T04:50:54Z</time>
      </trkpt>
      <trkpt lat="47.90935" lon="6.92838">
        <ele>1235</ele>
        <time>2023-05-08T04:51:00Z</time>
      </trkpt>
      <trkpt lat="47.9093" lon="6.92834">
        <ele>1233</ele>
        <time>2023-05-08T04:51:08Z</time>
      </trkpt>
      <trkpt lat="47.90922" lon="6.92823">
        <ele>1232</ele>
        <time>2023-05-08T04:51:19Z</time>
      </trkpt>
      <trkpt lat="47.90921" lon="6.92817">
        <ele>1232</ele>
        <time>2023-05-08T04:51:24Z</time>
      </trkpt>
      <trkpt lat="47.90918" lon="6.92812">
        <ele>1231</ele>
        <time>2023-05-08T04:51:28Z</time>
      </trkpt>
      <trkpt lat="47.90916" lon="6.92799">
        <ele>1230</ele>
        <time>2023-05-08T04:51:38Z</time>
      </trkpt>
      <trkpt lat="47.9091" lon="6.92783">
        <ele>1228</ele>
        <time>2023-05-08T04:51:50Z</time>
      </trkpt>
      <trkpt lat="47.90909" lon="6.92776">
        <ele>1228</ele>
        <time>2023-05-08T04:51:55Z</time>
      </trkpt>
      <trkpt lat="47.90903" lon="6.92765">
        <ele>1226</ele>
        <time>2023-05-08T04:52:04Z</time>
      </trkpt>
      <trkpt lat="47.90897" lon="6.92762">
        <ele>1225</ele>
        <time>2023-05-08T04:52:11Z</time>
      </trkpt>
      <trkpt lat="47.90889" lon="6.9275">
        <ele>1223</ele>
        <time>2023-05-08T04:52:23Z</time>
      </trkpt>
      <trkpt lat="47.90882" lon="6.92747">
        <ele>1221</ele>
        <time>2023-05-08T04:52:29Z</time>
      </trkpt>
      <trkpt lat="47.90877" lon="6.92746">
        <ele>1219</ele>
        <time>2023-05-08T04:52:36Z</time>
      </trkpt>
      <trkpt lat="47.90861" lon="6.9273">
        <ele>1214</ele>
        <time>2023-05-08T04:52:59Z</time>
      </trkpt>
      <trkpt lat="47.90856" lon="6.92728">
        <ele>1212</ele>
        <time>2023-05-08T04:53:07Z</time>
      </trkpt>
      <trkpt lat="47.90851" lon="6.92728">
        <ele>1211</ele>
        <time>2023-05-08T04:53:12Z</time>
      </trkpt>
      <trkpt lat="47.90847" lon="6.92723">
        <ele>1210</ele>
        <time>2023-05-08T04:53:18Z</time>
      </trkpt>
      <trkpt lat="47.90841" lon="6.92719">
        <ele>1209</ele>
        <time>2023-05-08T04:53:25Z</time>
      </trkpt>
      <trkpt lat="47.90826" lon="6.92708">
        <ele>1205</ele>
        <time>2023-05-08T04:53:41Z</time>
      </trkpt>
      <trkpt lat="47.90822" lon="6.92707">
        <ele>1204</ele>
        <time>2023-05-08T04:53:45Z</time>
      </trkpt>
      <trkpt lat="47.90814" lon="6.92703">
        <ele>1203</ele>
        <time>2023-05-08T04:53:53Z</time>
      </trkpt>
      <trkpt lat="47.90793" lon="6.92701">
        <ele>1200</ele>
        <time>2023-05-08T04:54:10Z</time>
      </trkpt>
      <trkpt lat="47.90787" lon="6.92693">
        <ele>1200</ele>
        <time>2023-05-08T04:54:18Z</time>
      </trkpt>
      <trkpt lat="47.90776" lon="6.92691">
        <ele>1199</ele>
        <time>2023-05-08T04:54:27Z</time>
      </trkpt>
      <trkpt lat="47.90762" lon="6.92684">
        <ele>1197</ele>
        <time>2023-05-08T04:54:38Z</time>
      </trkpt>
      <trkpt lat="47.90758" lon="6.92683">
        <ele>1197</ele>
        <time>2023-05-08T04:54:42Z</time>
      </trkpt>
      <trkpt lat="47.90751" lon="6.92677">
        <ele>1197</ele>
        <time>2023-05-08T04:54:51Z</time>
      </trkpt>
      <trkpt lat="47.90744" lon="6.92676">
        <ele>1197</ele>
        <time>2023-05-08T04:54:58Z</time>
      </trkpt>
      <trkpt lat="47.90735" lon="6.92672">
        <ele>1197</ele>
        <time>2023-05-08T04:55:07Z</time>
      </trkpt>
      <trkpt lat="47.90731" lon="6.92668">
        <ele>1198</ele>
        <time>2023-05-08T04:55:11Z</time>
      </trkpt>
      <trkpt lat="47.90729" lon="6.92662">
        <ele>1198</ele>
        <time>2023-05-08T04:55:15Z</time>
      </trkpt>
      <trkpt lat="47.90724" lon="6.92656">
        <ele>1199</ele>
        <time>2023-05-08T04:55:21Z</time>
      </trkpt>
      <trkpt lat="47.90719" lon="6.92652">
        <ele>1199</ele>
        <time>2023-05-08T04:55:26Z</time>
      </trkpt>
      <trkpt lat="47.90712" lon="6.92651">
        <ele>1200</ele>
        <time>2023-05-08T04:55:37Z</time>
      </trkpt>
      <trkpt lat="47.90708" lon="6.92647">
        <ele>1200</ele>
        <time>2023-05-08T04:55:41Z</time>
      </trkpt>
      <trkpt lat="47.90705" lon="6.92641">
        <ele>1200</ele>
        <time>2023-05-08T04:55:47Z</time>
      </trkpt>
      <trkpt lat="47.907" lon="6.9264">
        <ele>1200</ele>
        <time>2023-05-08T04:55:51Z</time>
      </trkpt>
      <trkpt lat="47.90693" lon="6.92632">
        <ele>1201</ele>
        <time>2023-05-08T04:56:01Z</time>
      </trkpt>
      <trkpt lat="47.90689" lon="6.9263">
        <ele>1201</ele>
        <time>2023-05-08T04:56:04Z</time>
      </trkpt>
      <trkpt lat="47.90685" lon="6.92627">
        <ele>1202</ele>
        <time>2023-05-08T04:56:09Z</time>
      </trkpt>
      <trkpt lat="47.9068" lon="6.92625">
        <ele>1202</ele>
        <time>2023-05-08T04:56:13Z</time>
      </trkpt>
      <trkpt lat="47.90676" lon="6.92621">
        <ele>1201</ele>
        <time>2023-05-08T04:56:17Z</time>
      </trkpt>
      <trkpt lat="47.90643" lon="6.92597">
        <ele>1205</ele>
        <time>2023-05-08T04:56:49Z</time>
      </trkpt>
      <trkpt lat="47.90612" lon="6.92578">
        <ele>1207</ele>
        <time>2023-05-08T04:57:18Z</time>
      </trkpt>
      <trkpt lat="47.90607" lon="6.92579">
        <ele>1207</ele>
        <time>2023-05-08T04:57:22Z</time>
      </trkpt>
      <trkpt lat="47.9061" lon="6.92572">
        <ele>1207</ele>
        <time>2023-05-08T04:57:42Z</time>
      </trkpt>
      <trkpt lat="47.90608" lon="6.92559">
        <ele>1204</ele>
        <time>2023-05-08T04:57:55Z</time>
      </trkpt>
      <trkpt lat="47.90598" lon="6.92537">
        <ele>1198</ele>
        <time>2023-05-08T04:58:16Z</time>
      </trkpt>
      <trkpt lat="47.90598" lon="6.92528">
        <ele>1196</ele>
        <time>2023-05-08T04:58:26Z</time>
      </trkpt>
      <trkpt lat="47.9059" lon="6.92501">
        <ele>1189</ele>
        <time>2023-05-08T04:58:48Z</time>
      </trkpt>
      <trkpt lat="47.90581" lon="6.92482">
        <ele>1184</ele>
        <time>2023-05-08T04:59:04Z</time>
      </trkpt>
      <trkpt lat="47.90583" lon="6.92474">
        <ele>1183</ele>
        <time>2023-05-08T04:59:08Z</time>
      </trkpt>
      <trkpt lat="47.90579" lon="6.92466">
        <ele>1181</ele>
        <time>2023-05-08T04:59:17Z</time>
      </trkpt>
      <trkpt lat="47.9058" lon="6.92449">
        <ele>1179</ele>
        <time>2023-05-08T04:59:28Z</time>
      </trkpt>
      <trkpt lat="47.9058" lon="6.92443">
        <ele>1178</ele>
        <time>2023-05-08T04:59:31Z</time>
      </trkpt>
      <trkpt lat="47.90577" lon="6.9243">
        <ele>1176</ele>
        <time>2023-05-08T04:59:39Z</time>
      </trkpt>
      <trkpt lat="47.90576" lon="6.92423">
        <ele>1175</ele>
        <time>2023-05-08T04:59:44Z</time>
      </trkpt>
      <trkpt lat="47.90571" lon="6.92413">
        <ele>1172</ele>
        <time>2023-05-08T04:59:53Z</time>
      </trkpt>
      <trkpt lat="47.90572" lon="6.92402">
        <ele>1171</ele>
        <time>2023-05-08T05:00:01Z</time>
      </trkpt>
      <trkpt lat="47.90565" lon="6.92381">
        <ele>1167</ele>
        <time>2023-05-08T05:00:18Z</time>
      </trkpt>
      <trkpt lat="47.90567" lon="6.92374">
        <ele>1166</ele>
        <time>2023-05-08T05:00:23Z</time>
      </trkpt>
      <trkpt lat="47.90563" lon="6.9237">
        <ele>1165</ele>
        <time>2023-05-08T05:00:28Z</time>
      </trkpt>
      <trkpt lat="47.90558" lon="6.92356">
        <ele>1162</ele>
        <time>2023-05-08T05:00:39Z</time>
      </trkpt>
      <trkpt lat="47.90554" lon="6.92345">
        <ele>1162</ele>
        <time>2023-05-08T05:00:45Z</time>
      </trkpt>
      <trkpt lat="47.90545" lon="6.92337">
        <ele>1164</ele>
        <time>2023-05-08T05:00:57Z</time>
      </trkpt>
      <trkpt lat="47.90542" lon="6.92331">
        <ele>1165</ele>
        <time>2023-05-08T05:01:00Z</time>
      </trkpt>
      <trkpt lat="47.90536" lon="6.92326">
        <ele>1165</ele>
        <time>2023-05-08T05:01:06Z</time>
      </trkpt>
      <trkpt lat="47.90533" lon="6.92319">
        <ele>1166</ele>
        <time>2023-05-08T05:01:14Z</time>
      </trkpt>
      <trkpt lat="47.9053" lon="6.92313">
        <ele>1167</ele>
        <time>2023-05-08T05:01:19Z</time>
      </trkpt>
      <trkpt lat="47.90527" lon="6.92306">
        <ele>1168</ele>
        <time>2023-05-08T05:01:27Z</time>
      </trkpt>
      <trkpt lat="47.90525" lon="6.92301">
        <ele>1169</ele>
        <time>2023-05-08T05:01:31Z</time>
      </trkpt>
      <trkpt lat="47.90522" lon="6.92296">
        <ele>1169</ele>
        <time>2023-05-08T05:01:34Z</time>
      </trkpt>
      <trkpt lat="47.90517" lon="6.92282">
        <ele>1169</ele>
        <time>2023-05-08T05:01:45Z</time>
      </trkpt>
      <trkpt lat="47.90515" lon="6.92273">
        <ele>1169</ele>
        <time>2023-05-08T05:01:50Z</time>
      </trkpt>
      <trkpt lat="47.90511" lon="6.9226">
        <ele>1170</ele>
        <time>2023-05-08T05:01:57Z</time>
      </trkpt>
      <trkpt lat="47.90506" lon="6.92254">
        <ele>1170</ele>
        <time>2023-05-08T05:02:05Z</time>
      </trkpt>
      <trkpt lat="47.90504" lon="6.92248">
        <ele>1171</ele>
        <time>2023-05-08T05:02:10Z</time>
      </trkpt>
      <trkpt lat="47.90503" lon="6.92241">
        <ele>1171</ele>
        <time>2023-05-08T05:02:30Z</time>
      </trkpt>
      <trkpt lat="47.90498" lon="6.92235">
        <ele>1172</ele>
        <time>2023-05-08T05:02:37Z</time>
      </trkpt>
      <trkpt lat="47.90494" lon="6.92231">
        <ele>1172</ele>
        <time>2023-05-08T05:02:42Z</time>
      </trkpt>
      <trkpt lat="47.9049" lon="6.92224">
        <ele>1173</ele>
        <time>2023-05-08T05:02:50Z</time>
      </trkpt>
      <trkpt lat="47.90483" lon="6.92213">
        <ele>1174</ele>
        <time>2023-05-08T05:03:00Z</time>
      </trkpt>
      <trkpt lat="47.9048" lon="6.92205">
        <ele>1176</ele>
        <time>2023-05-08T05:03:07Z</time>
      </trkpt>
      <trkpt lat="47.90478" lon="6.92199">
        <ele>1176</ele>
        <time>2023-05-08T05:03:11Z</time>
      </trkpt>
      <trkpt lat="47.90474" lon="6.92193">
        <ele>1176</ele>
        <time>2023-05-08T05:03:15Z</time>
      </trkpt>
      <trkpt lat="47.90465" lon="6.92186">
        <ele>1177</ele>
        <time>2023-05-08T05:03:22Z</time>
      </trkpt>
      <trkpt lat="47.9045" lon="6.92156">
        <ele>1180</ele>
        <time>2023-05-08T05:03:48Z</time>
      </trkpt>
      <trkpt lat="47.90449" lon="6.92144">
        <ele>1181</ele>
        <time>2023-05-08T05:03:57Z</time>
      </trkpt>
      <trkpt lat="47.90448" lon="6.92136">
        <ele>1181</ele>
        <time>2023-05-08T05:04:04Z</time>
      </trkpt>
      <trkpt lat="47.90447" lon="6.92122">
        <ele>1178</ele>
        <time>2023-05-08T05:04:16Z</time>
      </trkpt>
      <trkpt lat="47.90442" lon="6.9211">
        <ele>1176</ele>
        <time>2023-05-08T05:04:25Z</time>
      </trkpt>
      <trkpt lat="47.90442" lon="6.92103">
        <ele>1175</ele>
        <time>2023-05-08T05:04:29Z</time>
      </trkpt>
      <trkpt lat="47.90441" lon="6.92086">
        <ele>1173</ele>
        <time>2023-05-08T05:04:46Z</time>
      </trkpt>
      <trkpt lat="47.90438" lon="6.92081">
        <ele>1173</ele>
        <time>2023-05-08T05:04:51Z</time>
      </trkpt>
      <trkpt lat="47.90435" lon="6.92073">
        <ele>1173</ele>
        <time>2023-05-08T05:04:57Z</time>
      </trkpt>
      <trkpt lat="47.90432" lon="6.92056">
        <ele>1173</ele>
        <time>2023-05-08T05:05:07Z</time>
      </trkpt>
      <trkpt lat="47.90428" lon="6.92051">
        <ele>1173</ele>
        <time>2023-05-08T05:05:11Z</time>
      </trkpt>
      <trkpt lat="47.90422" lon="6.92039">
        <ele>1174</ele>
        <time>2023-05-08T05:05:19Z</time>
      </trkpt>
      <trkpt lat="47.9042" lon="6.92025">
        <ele>1176</ele>
        <time>2023-05-08T05:05:28Z</time>
      </trkpt>
      <trkpt lat="47.90414" lon="6.92015">
        <ele>1177</ele>
        <time>2023-05-08T05:05:36Z</time>
      </trkpt>
      <trkpt lat="47.90399" lon="6.91981">
        <ele>1182</ele>
        <time>2023-05-08T05:06:08Z</time>
      </trkpt>
      <trkpt lat="47.90388" lon="6.91965">
        <ele>1183</ele>
        <time>2023-05-08T05:06:24Z</time>
      </trkpt>
      <trkpt lat="47.90384" lon="6.91961">
        <ele>1183</ele>
        <time>2023-05-08T05:06:27Z</time>
      </trkpt>
      <trkpt lat="47.90381" lon="6.91956">
        <ele>1183</ele>
        <time>2023-05-08T05:06:31Z</time>
      </trkpt>
      <trkpt lat="47.9038" lon="6.91949">
        <ele>1183</ele>
        <time>2023-05-08T05:06:35Z</time>
      </trkpt>
      <trkpt lat="47.90374" lon="6.91935">
        <ele>1183</ele>
        <time>2023-05-08T05:06:43Z</time>
      </trkpt>
      <trkpt lat="47.90374" lon="6.91928">
        <ele>1184</ele>
        <time>2023-05-08T05:06:47Z</time>
      </trkpt>
      <trkpt lat="47.9037" lon="6.9191">
        <ele>1186</ele>
        <time>2023-05-08T05:07:00Z</time>
      </trkpt>
      <trkpt lat="47.90364" lon="6.919">
        <ele>1186</ele>
        <time>2023-05-08T05:07:07Z</time>
      </trkpt>
      <trkpt lat="47.90348" lon="6.91864">
        <ele>1188</ele>
        <time>2023-05-08T05:07:34Z</time>
      </trkpt>
      <trkpt lat="47.90347" lon="6.91858">
        <ele>1188</ele>
        <time>2023-05-08T05:07:38Z</time>
      </trkpt>
      <trkpt lat="47.90345" lon="6.91851">
        <ele>1189</ele>
        <time>2023-05-08T05:07:43Z</time>
      </trkpt>
      <trkpt lat="47.90341" lon="6.91846">
        <ele>1189</ele>
        <time>2023-05-08T05:07:47Z</time>
      </trkpt>
      <trkpt lat="47.90325" lon="6.91807">
        <ele>1193</ele>
        <time>2023-05-08T05:08:18Z</time>
      </trkpt>
      <trkpt lat="47.9031" lon="6.91773">
        <ele>1197</ele>
        <time>2023-05-08T05:08:50Z</time>
      </trkpt>
      <trkpt lat="47.90307" lon="6.91767">
        <ele>1197</ele>
        <time>2023-05-08T05:08:55Z</time>
      </trkpt>
      <trkpt lat="47.9028" lon="6.91744">
        <ele>1200</ele>
        <time>2023-05-08T05:09:25Z</time>
      </trkpt>
      <trkpt lat="47.90265" lon="6.9173">
        <ele>1203</ele>
        <time>2023-05-08T05:09:42Z</time>
      </trkpt>
      <trkpt lat="47.90239" lon="6.91708">
        <ele>1206</ele>
        <time>2023-05-08T05:10:16Z</time>
      </trkpt>
      <trkpt lat="47.90226" lon="6.91693">
        <ele>1210</ele>
        <time>2023-05-08T05:10:38Z</time>
      </trkpt>
      <trkpt lat="47.90224" lon="6.91687">
        <ele>1211</ele>
        <time>2023-05-08T05:10:44Z</time>
      </trkpt>
      <trkpt lat="47.90216" lon="6.9168">
        <ele>1213</ele>
        <time>2023-05-08T05:10:55Z</time>
      </trkpt>
      <trkpt lat="47.90213" lon="6.91674">
        <ele>1212</ele>
        <time>2023-05-08T05:11:03Z</time>
      </trkpt>
      <trkpt lat="47.9021" lon="6.91671">
        <ele>1212</ele>
        <time>2023-05-08T05:11:51Z</time>
      </trkpt>
      <trkpt lat="47.90173" lon="6.91684">
        <ele>1207</ele>
        <time>2023-05-08T05:12:25Z</time>
      </trkpt>
      <trkpt lat="47.90141" lon="6.91696">
        <ele>1199</ele>
        <time>2023-05-08T05:12:59Z</time>
      </trkpt>
      <trkpt lat="47.90137" lon="6.91699">
        <ele>1198</ele>
        <time>2023-05-08T05:13:03Z</time>
      </trkpt>
      <trkpt lat="47.90108" lon="6.91733">
        <ele>1196</ele>
        <time>2023-05-08T05:13:34Z</time>
      </trkpt>
      <trkpt lat="47.90093" lon="6.91749">
        <ele>1196</ele>
        <time>2023-05-08T05:13:51Z</time>
      </trkpt>
      <trkpt lat="47.90079" lon="6.91756">
        <ele>1195</ele>
        <time>2023-05-08T05:14:04Z</time>
      </trkpt>
      <trkpt lat="47.90065" lon="6.91757">
        <ele>1194</ele>
        <time>2023-05-08T05:14:17Z</time>
      </trkpt>
      <trkpt lat="47.90042" lon="6.91757">
        <ele>1191</ele>
        <time>2023-05-08T05:14:37Z</time>
      </trkpt>
      <trkpt lat="47.90038" lon="6.91758">
        <ele>1191</ele>
        <time>2023-05-08T05:14:42Z</time>
      </trkpt>
      <trkpt lat="47.90003" lon="6.91758">
        <ele>1187</ele>
        <time>2023-05-08T05:15:16Z</time>
      </trkpt>
      <trkpt lat="47.89989" lon="6.9176">
        <ele>1185</ele>
        <time>2023-05-08T05:15:29Z</time>
      </trkpt>
      <trkpt lat="47.89974" lon="6.9176">
        <ele>1184</ele>
        <time>2023-05-08T05:15:42Z</time>
      </trkpt>
      <trkpt lat="47.89966" lon="6.91756">
        <ele>1183</ele>
        <time>2023-05-08T05:15:58Z</time>
      </trkpt>
      <trkpt lat="47.89961" lon="6.91753">
        <ele>1183</ele>
        <time>2023-05-08T05:16:02Z</time>
      </trkpt>
      <trkpt lat="47.89956" lon="6.91751">
        <ele>1183</ele>
        <time>2023-05-08T05:16:06Z</time>
      </trkpt>
      <trkpt lat="47.89926" lon="6.91721">
        <ele>1179</ele>
        <time>2023-05-08T05:16:39Z</time>
      </trkpt>
      <trkpt lat="47.89918" lon="6.91715">
        <ele>1178</ele>
        <time>2023-05-08T05:16:48Z</time>
      </trkpt>
      <trkpt lat="47.89911" lon="6.91703">
        <ele>1176</ele>
        <time>2023-05-08T05:17:00Z</time>
      </trkpt>
      <trkpt lat="47.89881" lon="6.91685">
        <ele>1173</ele>
        <time>2023-05-08T05:18:42Z</time>
      </trkpt>
      <trkpt lat="47.89879" lon="6.91683">
        <ele>1173</ele>
        <time>2023-05-08T05:18:43Z</time>
      </trkpt>
      <trkpt lat="47.89871" lon="6.9168">
        <ele>1173</ele>
        <time>2023-05-08T05:18:52Z</time>
      </trkpt>
      <trkpt lat="47.89868" lon="6.9167">
        <ele>1171</ele>
        <time>2023-05-08T05:18:59Z</time>
      </trkpt>
      <trkpt lat="47.8986" lon="6.9166">
        <ele>1169</ele>
        <time>2023-05-08T05:19:07Z</time>
      </trkpt>
      <trkpt lat="47.89855" lon="6.91657">
        <ele>1168</ele>
        <time>2023-05-08T05:19:11Z</time>
      </trkpt>
      <trkpt lat="47.8985" lon="6.91654">
        <ele>1168</ele>
        <time>2023-05-08T05:19:15Z</time>
      </trkpt>
      <trkpt lat="47.89845" lon="6.91654">
        <ele>1168</ele>
        <time>2023-05-08T05:19:20Z</time>
      </trkpt>
      <trkpt lat="47.89842" lon="6.91647">
        <ele>1169</ele>
        <time>2023-05-08T05:19:34Z</time>
      </trkpt>
      <trkpt lat="47.89823" lon="6.9163">
        <ele>1164</ele>
        <time>2023-05-08T05:19:57Z</time>
      </trkpt>
      <trkpt lat="47.89816" lon="6.91612">
        <ele>1160</ele>
        <time>2023-05-08T05:20:13Z</time>
      </trkpt>
      <trkpt lat="47.89814" lon="6.91605">
        <ele>1159</ele>
        <time>2023-05-08T05:20:18Z</time>
      </trkpt>
      <trkpt lat="47.8981" lon="6.91599">
        <ele>1156</ele>
        <time>2023-05-08T05:20:27Z</time>
      </trkpt>
      <trkpt lat="47.89806" lon="6.91596">
        <ele>1156</ele>
        <time>2023-05-08T05:20:30Z</time>
      </trkpt>
      <trkpt lat="47.89804" lon="6.91587">
        <ele>1155</ele>
        <time>2023-05-08T05:20:35Z</time>
      </trkpt>
      <trkpt lat="47.89793" lon="6.91567">
        <ele>1151</ele>
        <time>2023-05-08T05:20:50Z</time>
      </trkpt>
      <trkpt lat="47.89787" lon="6.91561">
        <ele>1150</ele>
        <time>2023-05-08T05:20:58Z</time>
      </trkpt>
      <trkpt lat="47.89785" lon="6.91554">
        <ele>1149</ele>
        <time>2023-05-08T05:21:02Z</time>
      </trkpt>
      <trkpt lat="47.89783" lon="6.91549">
        <ele>1148</ele>
        <time>2023-05-08T05:21:05Z</time>
      </trkpt>
      <trkpt lat="47.89781" lon="6.91543">
        <ele>1146</ele>
        <time>2023-05-08T05:21:10Z</time>
      </trkpt>
      <trkpt lat="47.89777" lon="6.91533">
        <ele>1144</ele>
        <time>2023-05-08T05:21:19Z</time>
      </trkpt>
      <trkpt lat="47.89774" lon="6.91524">
        <ele>1142</ele>
        <time>2023-05-08T05:21:26Z</time>
      </trkpt>
      <trkpt lat="47.89767" lon="6.91503">
        <ele>1138</ele>
        <time>2023-05-08T05:21:40Z</time>
      </trkpt>
      <trkpt lat="47.89763" lon="6.91498">
        <ele>1138</ele>
        <time>2023-05-08T05:21:44Z</time>
      </trkpt>
      <trkpt lat="47.89759" lon="6.91493">
        <ele>1137</ele>
        <time>2023-05-08T05:21:49Z</time>
      </trkpt>
      <trkpt lat="47.8976" lon="6.91486">
        <ele>1136</ele>
        <time>2023-05-08T05:21:52Z</time>
      </trkpt>
      <trkpt lat="47.89758" lon="6.91477">
        <ele>1135</ele>
        <time>2023-05-08T05:21:57Z</time>
      </trkpt>
      <trkpt lat="47.89758" lon="6.91471">
        <ele>1134</ele>
        <time>2023-05-08T05:22:01Z</time>
      </trkpt>
      <trkpt lat="47.89754" lon="6.91462">
        <ele>1133</ele>
        <time>2023-05-08T05:22:07Z</time>
      </trkpt>
      <trkpt lat="47.89753" lon="6.91455">
        <ele>1132</ele>
        <time>2023-05-08T05:22:11Z</time>
      </trkpt>
      <trkpt lat="47.8975" lon="6.91448">
        <ele>1130</ele>
        <time>2023-05-08T05:22:16Z</time>
      </trkpt>
      <trkpt lat="47.89745" lon="6.91406">
        <ele>1123</ele>
        <time>2023-05-08T05:22:41Z</time>
      </trkpt>
      <trkpt lat="47.89747" lon="6.914">
        <ele>1122</ele>
        <time>2023-05-08T05:22:45Z</time>
      </trkpt>
      <trkpt lat="47.89745" lon="6.91386">
        <ele>1120</ele>
        <time>2023-05-08T05:22:54Z</time>
      </trkpt>
      <trkpt lat="47.89745" lon="6.91379">
        <ele>1119</ele>
        <time>2023-05-08T05:22:59Z</time>
      </trkpt>
      <trkpt lat="47.89743" lon="6.91362">
        <ele>1117</ele>
        <time>2023-05-08T05:23:11Z</time>
      </trkpt>
      <trkpt lat="47.89744" lon="6.91329">
        <ele>1111</ele>
        <time>2023-05-08T05:23:34Z</time>
      </trkpt>
      <trkpt lat="47.8974" lon="6.91303">
        <ele>1107</ele>
        <time>2023-05-08T05:23:50Z</time>
      </trkpt>
      <trkpt lat="47.8974" lon="6.91292">
        <ele>1105</ele>
        <time>2023-05-08T05:23:58Z</time>
      </trkpt>
      <trkpt lat="47.89739" lon="6.91286">
        <ele>1104</ele>
        <time>2023-05-08T05:24:01Z</time>
      </trkpt>
      <trkpt lat="47.89739" lon="6.9127">
        <ele>1101</ele>
        <time>2023-05-08T05:24:09Z</time>
      </trkpt>
      <trkpt lat="47.89736" lon="6.91264">
        <ele>1100</ele>
        <time>2023-05-08T05:24:13Z</time>
      </trkpt>
      <trkpt lat="47.89738" lon="6.91257">
        <ele>1099</ele>
        <time>2023-05-08T05:24:17Z</time>
      </trkpt>
      <trkpt lat="47.89737" lon="6.91249">
        <ele>1098</ele>
        <time>2023-05-08T05:24:23Z</time>
      </trkpt>
      <trkpt lat="47.89736" lon="6.91234">
        <ele>1094</ele>
        <time>2023-05-08T05:24:34Z</time>
      </trkpt>
      <trkpt lat="47.89733" lon="6.91229">
        <ele>1094</ele>
        <time>2023-05-08T05:24:39Z</time>
      </trkpt>
      <trkpt lat="47.89732" lon="6.91221">
        <ele>1092</ele>
        <time>2023-05-08T05:24:43Z</time>
      </trkpt>
      <trkpt lat="47.89733" lon="6.91205">
        <ele>1090</ele>
        <time>2023-05-08T05:24:51Z</time>
      </trkpt>
      <trkpt lat="47.89732" lon="6.91196">
        <ele>1089</ele>
        <time>2023-05-08T05:24:55Z</time>
      </trkpt>
      <trkpt lat="47.89736" lon="6.9119">
        <ele>1088</ele>
        <time>2023-05-08T05:24:59Z</time>
      </trkpt>
      <trkpt lat="47.89736" lon="6.91182">
        <ele>1087</ele>
        <time>2023-05-08T05:25:03Z</time>
      </trkpt>
      <trkpt lat="47.89738" lon="6.91177">
        <ele>1086</ele>
        <time>2023-05-08T05:25:07Z</time>
      </trkpt>
      <trkpt lat="47.89749" lon="6.91161">
        <ele>1083</ele>
        <time>2023-05-08T05:25:18Z</time>
      </trkpt>
      <trkpt lat="47.89753" lon="6.91144">
        <ele>1081</ele>
        <time>2023-05-08T05:25:29Z</time>
      </trkpt>
      <trkpt lat="47.89759" lon="6.91136">
        <ele>1078</ele>
        <time>2023-05-08T05:25:37Z</time>
      </trkpt>
      <trkpt lat="47.89759" lon="6.91126">
        <ele>1076</ele>
        <time>2023-05-08T05:25:43Z</time>
      </trkpt>
      <trkpt lat="47.89762" lon="6.91108">
        <ele>1072</ele>
        <time>2023-05-08T05:25:56Z</time>
      </trkpt>
      <trkpt lat="47.89762" lon="6.911">
        <ele>1071</ele>
        <time>2023-05-08T05:26:01Z</time>
      </trkpt>
      <trkpt lat="47.89764" lon="6.91094">
        <ele>1070</ele>
        <time>2023-05-08T05:26:04Z</time>
      </trkpt>
      <trkpt lat="47.8977" lon="6.91088">
        <ele>1070</ele>
        <time>2023-05-08T05:26:07Z</time>
      </trkpt>
      <trkpt lat="47.8977" lon="6.9108">
        <ele>1069</ele>
        <time>2023-05-08T05:26:10Z</time>
      </trkpt>
      <trkpt lat="47.89772" lon="6.91075">
        <ele>1068</ele>
        <time>2023-05-08T05:26:14Z</time>
      </trkpt>
      <trkpt lat="47.89771" lon="6.91068">
        <ele>1066</ele>
        <time>2023-05-08T05:26:19Z</time>
      </trkpt>
      <trkpt lat="47.89775" lon="6.91065">
        <ele>1065</ele>
        <time>2023-05-08T05:26:26Z</time>
      </trkpt>
      <trkpt lat="47.89778" lon="6.91064">
        <ele>1064</ele>
        <time>2023-05-08T05:26:43Z</time>
      </trkpt>
      <trkpt lat="47.89785" lon="6.91032">
        <ele>1059</ele>
        <time>2023-05-08T05:27:03Z</time>
      </trkpt>
      <trkpt lat="47.89786" lon="6.91018">
        <ele>1056</ele>
        <time>2023-05-08T05:27:12Z</time>
      </trkpt>
      <trkpt lat="47.89789" lon="6.91004">
        <ele>1053</ele>
        <time>2023-05-08T05:27:22Z</time>
      </trkpt>
      <trkpt lat="47.8979" lon="6.90997">
        <ele>1052</ele>
        <time>2023-05-08T05:27:25Z</time>
      </trkpt>
      <trkpt lat="47.89794" lon="6.90986">
        <ele>1050</ele>
        <time>2023-05-08T05:27:32Z</time>
      </trkpt>
      <trkpt lat="47.89793" lon="6.90979">
        <ele>1049</ele>
        <time>2023-05-08T05:27:36Z</time>
      </trkpt>
      <trkpt lat="47.8979" lon="6.90965">
        <ele>1047</ele>
        <time>2023-05-08T05:27:44Z</time>
      </trkpt>
      <trkpt lat="47.89788" lon="6.90942">
        <ele>1042</ele>
        <time>2023-05-08T05:27:59Z</time>
      </trkpt>
      <trkpt lat="47.89794" lon="6.90941">
        <ele>1041</ele>
        <time>2023-05-08T05:28:06Z</time>
      </trkpt>
      <trkpt lat="47.89798" lon="6.90936">
        <ele>1041</ele>
        <time>2023-05-08T05:28:13Z</time>
      </trkpt>
      <trkpt lat="47.89795" lon="6.90927">
        <ele>1040</ele>
        <time>2023-05-08T05:28:30Z</time>
      </trkpt>
      <trkpt lat="47.89792" lon="6.90917">
        <ele>1038</ele>
        <time>2023-05-08T05:28:38Z</time>
      </trkpt>
      <trkpt lat="47.89784" lon="6.90887">
        <ele>1033</ele>
        <time>2023-05-08T05:28:57Z</time>
      </trkpt>
      <trkpt lat="47.89785" lon="6.9087">
        <ele>1030</ele>
        <time>2023-05-08T05:29:07Z</time>
      </trkpt>
      <trkpt lat="47.89783" lon="6.90862">
        <ele>1029</ele>
        <time>2023-05-08T05:29:11Z</time>
      </trkpt>
      <trkpt lat="47.8978" lon="6.90857">
        <ele>1028</ele>
        <time>2023-05-08T05:29:14Z</time>
      </trkpt>
      <trkpt lat="47.8978" lon="6.90847">
        <ele>1026</ele>
        <time>2023-05-08T05:29:22Z</time>
      </trkpt>
      <trkpt lat="47.89779" lon="6.90841">
        <ele>1025</ele>
        <time>2023-05-08T05:29:26Z</time>
      </trkpt>
      <trkpt lat="47.89775" lon="6.90834">
        <ele>1023</ele>
        <time>2023-05-08T05:29:32Z</time>
      </trkpt>
      <trkpt lat="47.89773" lon="6.90826">
        <ele>1023</ele>
        <time>2023-05-08T05:29:36Z</time>
      </trkpt>
      <trkpt lat="47.8977" lon="6.90821">
        <ele>1022</ele>
        <time>2023-05-08T05:29:40Z</time>
      </trkpt>
      <trkpt lat="47.89769" lon="6.90815">
        <ele>1021</ele>
        <time>2023-05-08T05:29:44Z</time>
      </trkpt>
      <trkpt lat="47.89766" lon="6.90809">
        <ele>1020</ele>
        <time>2023-05-08T05:29:48Z</time>
      </trkpt>
      <trkpt lat="47.89764" lon="6.90792">
        <ele>1015</ele>
        <time>2023-05-08T05:30:03Z</time>
      </trkpt>
      <trkpt lat="47.89761" lon="6.90788">
        <ele>1014</ele>
        <time>2023-05-08T05:30:07Z</time>
      </trkpt>
      <trkpt lat="47.89758" lon="6.90781">
        <ele>1014</ele>
        <time>2023-05-08T05:30:12Z</time>
      </trkpt>
      <trkpt lat="47.89753" lon="6.90756">
        <ele>1010</ele>
        <time>2023-05-08T05:30:29Z</time>
      </trkpt>
      <trkpt lat="47.89754" lon="6.90749">
        <ele>1009</ele>
        <time>2023-05-08T05:30:33Z</time>
      </trkpt>
      <trkpt lat="47.89753" lon="6.90742">
        <ele>1008</ele>
        <time>2023-05-08T05:30:37Z</time>
      </trkpt>
      <trkpt lat="47.89747" lon="6.9073">
        <ele>1006</ele>
        <time>2023-05-08T05:30:46Z</time>
      </trkpt>
      <trkpt lat="47.89741" lon="6.90711">
        <ele>1003</ele>
        <time>2023-05-08T05:30:58Z</time>
      </trkpt>
      <trkpt lat="47.89741" lon="6.90704">
        <ele>1002</ele>
        <time>2023-05-08T05:31:02Z</time>
      </trkpt>
      <trkpt lat="47.89733" lon="6.90679">
        <ele>999</ele>
        <time>2023-05-08T05:31:17Z</time>
      </trkpt>
      <trkpt lat="47.89732" lon="6.90671">
        <ele>998</ele>
        <time>2023-05-08T05:31:22Z</time>
      </trkpt>
      <trkpt lat="47.89727" lon="6.90658">
        <ele>996</ele>
        <time>2023-05-08T05:31:32Z</time>
      </trkpt>
      <trkpt lat="47.89717" lon="6.90593">
        <ele>986</ele>
        <time>2023-05-08T05:32:08Z</time>
      </trkpt>
      <trkpt lat="47.89716" lon="6.90556">
        <ele>981</ele>
        <time>2023-05-08T05:32:28Z</time>
      </trkpt>
      <trkpt lat="47.89714" lon="6.90543">
        <ele>978</ele>
        <time>2023-05-08T05:32:36Z</time>
      </trkpt>
      <trkpt lat="47.89713" lon="6.90534">
        <ele>979</ele>
        <time>2023-05-08T05:32:43Z</time>
      </trkpt>
      <trkpt lat="47.89712" lon="6.90511">
        <ele>975</ele>
        <time>2023-05-08T05:32:56Z</time>
      </trkpt>
      <trkpt lat="47.89713" lon="6.90505">
        <ele>973</ele>
        <time>2023-05-08T05:33:00Z</time>
      </trkpt>
      <trkpt lat="47.89713" lon="6.90478">
        <ele>969</ele>
        <time>2023-05-08T05:33:18Z</time>
      </trkpt>
      <trkpt lat="47.89714" lon="6.9047">
        <ele>967</ele>
        <time>2023-05-08T05:33:24Z</time>
      </trkpt>
      <trkpt lat="47.89711" lon="6.90456">
        <ele>966</ele>
        <time>2023-05-08T05:33:31Z</time>
      </trkpt>
      <trkpt lat="47.89712" lon="6.90449">
        <ele>964</ele>
        <time>2023-05-08T05:33:37Z</time>
      </trkpt>
      <trkpt lat="47.89705" lon="6.90446">
        <ele>964</ele>
        <time>2023-05-08T05:33:50Z</time>
      </trkpt>
      <trkpt lat="47.89708" lon="6.9044">
        <ele>964</ele>
        <time>2023-05-08T05:33:56Z</time>
      </trkpt>
      <trkpt lat="47.89712" lon="6.90435">
        <ele>963</ele>
        <time>2023-05-08T05:34:01Z</time>
      </trkpt>
      <trkpt lat="47.89708" lon="6.90421">
        <ele>960</ele>
        <time>2023-05-08T05:34:13Z</time>
      </trkpt>
      <trkpt lat="47.89706" lon="6.90406">
        <ele>958</ele>
        <time>2023-05-08T05:34:22Z</time>
      </trkpt>
      <trkpt lat="47.89704" lon="6.90401">
        <ele>957</ele>
        <time>2023-05-08T05:34:26Z</time>
      </trkpt>
      <trkpt lat="47.89701" lon="6.90388">
        <ele>956</ele>
        <time>2023-05-08T05:34:32Z</time>
      </trkpt>
      <trkpt lat="47.89701" lon="6.90382">
        <ele>955</ele>
        <time>2023-05-08T05:34:36Z</time>
      </trkpt>
      <trkpt lat="47.89697" lon="6.90374">
        <ele>954</ele>
        <time>2023-05-08T05:34:41Z</time>
      </trkpt>
      <trkpt lat="47.89689" lon="6.90351">
        <ele>950</ele>
        <time>2023-05-08T05:34:58Z</time>
      </trkpt>
      <trkpt lat="47.89687" lon="6.90343">
        <ele>948</ele>
        <time>2023-05-08T05:35:05Z</time>
      </trkpt>
      <trkpt lat="47.8968" lon="6.90328">
        <ele>945</ele>
        <time>2023-05-08T05:35:16Z</time>
      </trkpt>
      <trkpt lat="47.89673" lon="6.9032">
        <ele>944</ele>
        <time>2023-05-08T05:35:24Z</time>
      </trkpt>
      <trkpt lat="47.8967" lon="6.90315">
        <ele>942</ele>
        <time>2023-05-08T05:35:28Z</time>
      </trkpt>
      <trkpt lat="47.89662" lon="6.90307">
        <ele>941</ele>
        <time>2023-05-08T05:35:36Z</time>
      </trkpt>
      <trkpt lat="47.89654" lon="6.90301">
        <ele>938</ele>
        <time>2023-05-08T05:35:45Z</time>
      </trkpt>
      <trkpt lat="47.89639" lon="6.90283">
        <ele>934</ele>
        <time>2023-05-08T05:36:03Z</time>
      </trkpt>
      <trkpt lat="47.89628" lon="6.90275">
        <ele>930</ele>
        <time>2023-05-08T05:36:15Z</time>
      </trkpt>
      <trkpt lat="47.89616" lon="6.90259">
        <ele>926</ele>
        <time>2023-05-08T05:36:29Z</time>
      </trkpt>
      <trkpt lat="47.89611" lon="6.9026">
        <ele>925</ele>
        <time>2023-05-08T05:36:33Z</time>
      </trkpt>
      <trkpt lat="47.89604" lon="6.90253">
        <ele>924</ele>
        <time>2023-05-08T05:36:42Z</time>
      </trkpt>
      <trkpt lat="47.89601" lon="6.90247">
        <ele>923</ele>
        <time>2023-05-08T05:36:46Z</time>
      </trkpt>
      <trkpt lat="47.89597" lon="6.90244">
        <ele>922</ele>
        <time>2023-05-08T05:36:49Z</time>
      </trkpt>
      <trkpt lat="47.89584" lon="6.90237">
        <ele>920</ele>
        <time>2023-05-08T05:37:01Z</time>
      </trkpt>
      <trkpt lat="47.89576" lon="6.90228">
        <ele>916</ele>
        <time>2023-05-08T05:37:14Z</time>
      </trkpt>
      <trkpt lat="47.89571" lon="6.90229">
        <ele>915</ele>
        <time>2023-05-08T05:37:19Z</time>
      </trkpt>
      <trkpt lat="47.89542" lon="6.90201">
        <ele>908</ele>
        <time>2023-05-08T05:37:52Z</time>
      </trkpt>
      <trkpt lat="47.89535" lon="6.90192">
        <ele>906</ele>
        <time>2023-05-08T05:38:00Z</time>
      </trkpt>
      <trkpt lat="47.89533" lon="6.90186">
        <ele>905</ele>
        <time>2023-05-08T05:38:05Z</time>
      </trkpt>
      <trkpt lat="47.89531" lon="6.90176">
        <ele>904</ele>
        <time>2023-05-08T05:38:13Z</time>
      </trkpt>
      <trkpt lat="47.89531" lon="6.90162">
        <ele>902</ele>
        <time>2023-05-08T05:38:21Z</time>
      </trkpt>
      <trkpt lat="47.89526" lon="6.90156">
        <ele>901</ele>
        <time>2023-05-08T05:38:26Z</time>
      </trkpt>
      <trkpt lat="47.89523" lon="6.90156">
        <ele>899</ele>
        <time>2023-05-08T05:39:35Z</time>
      </trkpt>
      <trkpt lat="47.89517" lon="6.90161">
        <ele>898</ele>
        <time>2023-05-08T05:39:42Z</time>
      </trkpt>
      <trkpt lat="47.89516" lon="6.9015">
        <ele>898</ele>
        <time>2023-05-08T05:39:48Z</time>
      </trkpt>
      <trkpt lat="47.89518" lon="6.90129">
        <ele>896</ele>
        <time>2023-05-08T05:39:58Z</time>
      </trkpt>
      <trkpt lat="47.89517" lon="6.90115">
        <ele>894</ele>
        <time>2023-05-08T05:40:06Z</time>
      </trkpt>
      <trkpt lat="47.89519" lon="6.90109">
        <ele>894</ele>
        <time>2023-05-08T05:40:09Z</time>
      </trkpt>
      <trkpt lat="47.89519" lon="6.90101">
        <ele>893</ele>
        <time>2023-05-08T05:40:12Z</time>
      </trkpt>
      <trkpt lat="47.89522" lon="6.90094">
        <ele>892</ele>
        <time>2023-05-08T05:40:16Z</time>
      </trkpt>
      <trkpt lat="47.89521" lon="6.90078">
        <ele>889</ele>
        <time>2023-05-08T05:40:29Z</time>
      </trkpt>
      <trkpt lat="47.8952" lon="6.90071">
        <ele>888</ele>
        <time>2023-05-08T05:40:34Z</time>
      </trkpt>
      <trkpt lat="47.89521" lon="6.90062">
        <ele>888</ele>
        <time>2023-05-08T05:40:38Z</time>
      </trkpt>
      <trkpt lat="47.89512" lon="6.90032">
        <ele>882</ele>
        <time>2023-05-08T05:41:00Z</time>
      </trkpt>
      <trkpt lat="47.89496" lon="6.89993">
        <ele>875</ele>
        <time>2023-05-08T05:41:26Z</time>
      </trkpt>
      <trkpt lat="47.89492" lon="6.89989">
        <ele>874</ele>
        <time>2023-05-08T05:41:31Z</time>
      </trkpt>
      <trkpt lat="47.89482" lon="6.89975">
        <ele>872</ele>
        <time>2023-05-08T05:41:42Z</time>
      </trkpt>
      <trkpt lat="47.89471" lon="6.89952">
        <ele>867</ele>
        <time>2023-05-08T05:42:01Z</time>
      </trkpt>
      <trkpt lat="47.89456" lon="6.89933">
        <ele>863</ele>
        <time>2023-05-08T05:42:19Z</time>
      </trkpt>
      <trkpt lat="47.89454" lon="6.89928">
        <ele>862</ele>
        <time>2023-05-08T05:42:23Z</time>
      </trkpt>
      <trkpt lat="47.89445" lon="6.89919">
        <ele>860</ele>
        <time>2023-05-08T05:42:30Z</time>
      </trkpt>
      <trkpt lat="47.89439" lon="6.89901">
        <ele>857</ele>
        <time>2023-05-08T05:42:42Z</time>
      </trkpt>
      <trkpt lat="47.89432" lon="6.89889">
        <ele>854</ele>
        <time>2023-05-08T05:42:52Z</time>
      </trkpt>
      <trkpt lat="47.8943" lon="6.89881">
        <ele>853</ele>
        <time>2023-05-08T05:42:58Z</time>
      </trkpt>
      <trkpt lat="47.89426" lon="6.89873">
        <ele>852</ele>
        <time>2023-05-08T05:43:04Z</time>
      </trkpt>
      <trkpt lat="47.89422" lon="6.89869">
        <ele>851</ele>
        <time>2023-05-08T05:43:08Z</time>
      </trkpt>
      <trkpt lat="47.89419" lon="6.89864">
        <ele>850</ele>
        <time>2023-05-08T05:43:12Z</time>
      </trkpt>
      <trkpt lat="47.89416" lon="6.89859">
        <ele>848</ele>
        <time>2023-05-08T05:43:17Z</time>
      </trkpt>
      <trkpt lat="47.89407" lon="6.89851">
        <ele>845</ele>
        <time>2023-05-08T05:43:26Z</time>
      </trkpt>
      <trkpt lat="47.89394" lon="6.89847">
        <ele>843</ele>
        <time>2023-05-08T05:43:38Z</time>
      </trkpt>
      <trkpt lat="47.8938" lon="6.89846">
        <ele>840</ele>
        <time>2023-05-08T05:43:51Z</time>
      </trkpt>
      <trkpt lat="47.89362" lon="6.89858">
        <ele>835</ele>
        <time>2023-05-08T05:44:11Z</time>
      </trkpt>
      <trkpt lat="47.89347" lon="6.89856">
        <ele>832</ele>
        <time>2023-05-08T05:44:22Z</time>
      </trkpt>
      <trkpt lat="47.8934" lon="6.89857">
        <ele>831</ele>
        <time>2023-05-08T05:44:29Z</time>
      </trkpt>
      <trkpt lat="47.89335" lon="6.8986">
        <ele>830</ele>
        <time>2023-05-08T05:44:33Z</time>
      </trkpt>
      <trkpt lat="47.89316" lon="6.89878">
        <ele>826</ele>
        <time>2023-05-08T05:44:53Z</time>
      </trkpt>
      <trkpt lat="47.89303" lon="6.89887">
        <ele>822</ele>
        <time>2023-05-08T05:45:02Z</time>
      </trkpt>
      <trkpt lat="47.89298" lon="6.89894">
        <ele>821</ele>
        <time>2023-05-08T05:45:09Z</time>
      </trkpt>
      <trkpt lat="47.89294" lon="6.89897">
        <ele>821</ele>
        <time>2023-05-08T05:45:13Z</time>
      </trkpt>
      <trkpt lat="47.89288" lon="6.899">
        <ele>819</ele>
        <time>2023-05-08T05:45:24Z</time>
      </trkpt>
      <trkpt lat="47.89283" lon="6.89903">
        <ele>818</ele>
        <time>2023-05-08T05:45:28Z</time>
      </trkpt>
      <trkpt lat="47.8928" lon="6.8991">
        <ele>817</ele>
        <time>2023-05-08T05:45:35Z</time>
      </trkpt>
      <trkpt lat="47.89267" lon="6.89904">
        <ele>813</ele>
        <time>2023-05-08T05:45:49Z</time>
      </trkpt>
      <trkpt lat="47.89261" lon="6.89906">
        <ele>813</ele>
        <time>2023-05-08T05:45:53Z</time>
      </trkpt>
      <trkpt lat="47.89257" lon="6.89909">
        <ele>813</ele>
        <time>2023-05-08T05:45:57Z</time>
      </trkpt>
      <trkpt lat="47.89247" lon="6.89909">
        <ele>812</ele>
        <time>2023-05-08T05:46:03Z</time>
      </trkpt>
      <trkpt lat="47.89211" lon="6.89896">
        <ele>809</ele>
        <time>2023-05-08T05:46:32Z</time>
      </trkpt>
      <trkpt lat="47.89195" lon="6.89882">
        <ele>807</ele>
        <time>2023-05-08T05:46:48Z</time>
      </trkpt>
      <trkpt lat="47.89185" lon="6.89878">
        <ele>806</ele>
        <time>2023-05-08T05:46:56Z</time>
      </trkpt>
      <trkpt lat="47.8918" lon="6.89877">
        <ele>806</ele>
        <time>2023-05-08T05:46:59Z</time>
      </trkpt>
      <trkpt lat="47.89163" lon="6.89868">
        <ele>804</ele>
        <time>2023-05-08T05:47:12Z</time>
      </trkpt>
      <trkpt lat="47.89155" lon="6.89858">
        <ele>803</ele>
        <time>2023-05-08T05:47:19Z</time>
      </trkpt>
      <trkpt lat="47.89121" lon="6.89832">
        <ele>799</ele>
        <time>2023-05-08T05:47:50Z</time>
      </trkpt>
      <trkpt lat="47.89114" lon="6.89821">
        <ele>798</ele>
        <time>2023-05-08T05:47:59Z</time>
      </trkpt>
      <trkpt lat="47.89111" lon="6.89815">
        <ele>798</ele>
        <time>2023-05-08T05:48:03Z</time>
      </trkpt>
      <trkpt lat="47.89105" lon="6.89786">
        <ele>796</ele>
        <time>2023-05-08T05:48:19Z</time>
      </trkpt>
      <trkpt lat="47.8911" lon="6.89767">
        <ele>795</ele>
        <time>2023-05-08T05:48:31Z</time>
      </trkpt>
      <trkpt lat="47.89105" lon="6.89758">
        <ele>795</ele>
        <time>2023-05-08T05:48:40Z</time>
      </trkpt>
      <trkpt lat="47.89101" lon="6.89757">
        <ele>795</ele>
        <time>2023-05-08T05:48:44Z</time>
      </trkpt>
      <trkpt lat="47.89096" lon="6.89757">
        <ele>795</ele>
        <time>2023-05-08T05:48:48Z</time>
      </trkpt>
      <trkpt lat="47.89085" lon="6.89756">
        <ele>792</ele>
        <time>2023-05-08T05:48:59Z</time>
      </trkpt>
      <trkpt lat="47.8908" lon="6.89758">
        <ele>792</ele>
        <time>2023-05-08T05:49:03Z</time>
      </trkpt>
      <trkpt lat="47.89071" lon="6.89757">
        <ele>790</ele>
        <time>2023-05-08T05:49:11Z</time>
      </trkpt>
      <trkpt lat="47.89061" lon="6.89752">
        <ele>788</ele>
        <time>2023-05-08T05:49:19Z</time>
      </trkpt>
      <trkpt lat="47.89058" lon="6.89745">
        <ele>787</ele>
        <time>2023-05-08T05:49:23Z</time>
      </trkpt>
      <trkpt lat="47.89055" lon="6.89741">
        <ele>786</ele>
        <time>2023-05-08T05:49:27Z</time>
      </trkpt>
      <trkpt lat="47.8905" lon="6.8974">
        <ele>784</ele>
        <time>2023-05-08T05:49:32Z</time>
      </trkpt>
      <trkpt lat="47.89041" lon="6.89732">
        <ele>782</ele>
        <time>2023-05-08T05:49:41Z</time>
      </trkpt>
      <trkpt lat="47.89036" lon="6.89723">
        <ele>780</ele>
        <time>2023-05-08T05:49:49Z</time>
      </trkpt>
      <trkpt lat="47.8903" lon="6.89726">
        <ele>779</ele>
        <time>2023-05-08T05:49:53Z</time>
      </trkpt>
      <trkpt lat="47.8903" lon="6.89736">
        <ele>777</ele>
        <time>2023-05-08T05:50:00Z</time>
      </trkpt>
      <trkpt lat="47.89032" lon="6.89743">
        <ele>776</ele>
        <time>2023-05-08T05:50:06Z</time>
      </trkpt>
      <trkpt lat="47.89029" lon="6.89763">
        <ele>771</ele>
        <time>2023-05-08T05:50:23Z</time>
      </trkpt>
      <trkpt lat="47.89028" lon="6.89776">
        <ele>769</ele>
        <time>2023-05-08T05:50:33Z</time>
      </trkpt>
      <trkpt lat="47.8903" lon="6.89801">
        <ele>764</ele>
        <time>2023-05-08T05:50:55Z</time>
      </trkpt>
      <trkpt lat="47.89025" lon="6.89799">
        <ele>763</ele>
        <time>2023-05-08T05:51:00Z</time>
      </trkpt>
      <trkpt lat="47.8902" lon="6.89794">
        <ele>762</ele>
        <time>2023-05-08T05:51:04Z</time>
      </trkpt>
      <trkpt lat="47.89016" lon="6.89792">
        <ele>761</ele>
        <time>2023-05-08T05:51:07Z</time>
      </trkpt>
      <trkpt lat="47.89009" lon="6.89784">
        <ele>759</ele>
        <time>2023-05-08T05:51:13Z</time>
      </trkpt>
      <trkpt lat="47.89005" lon="6.89781">
        <ele>757</ele>
        <time>2023-05-08T05:51:17Z</time>
      </trkpt>
      <trkpt lat="47.89" lon="6.89767">
        <ele>755</ele>
        <time>2023-05-08T05:51:30Z</time>
      </trkpt>
      <trkpt lat="47.88999" lon="6.89757">
        <ele>754</ele>
        <time>2023-05-08T05:51:36Z</time>
      </trkpt>
      <trkpt lat="47.89002" lon="6.89752">
        <ele>753</ele>
        <time>2023-05-08T05:51:40Z</time>
      </trkpt>
      <trkpt lat="47.88988" lon="6.89734">
        <ele>750</ele>
        <time>2023-05-08T05:52:00Z</time>
      </trkpt>
      <trkpt lat="47.88983" lon="6.89722">
        <ele>749</ele>
        <time>2023-05-08T05:52:07Z</time>
      </trkpt>
      <trkpt lat="47.88974" lon="6.89702">
        <ele>747</ele>
        <time>2023-05-08T05:52:21Z</time>
      </trkpt>
      <trkpt lat="47.88974" lon="6.89695">
        <ele>746</ele>
        <time>2023-05-08T05:52:26Z</time>
      </trkpt>
      <trkpt lat="47.88977" lon="6.89666">
        <ele>749</ele>
        <time>2023-05-08T05:52:45Z</time>
      </trkpt>
      <trkpt lat="47.88982" lon="6.89644">
        <ele>749</ele>
        <time>2023-05-08T05:53:01Z</time>
      </trkpt>
      <trkpt lat="47.8898" lon="6.89638">
        <ele>748</ele>
        <time>2023-05-08T05:53:05Z</time>
      </trkpt>
      <trkpt lat="47.88977" lon="6.89614">
        <ele>745</ele>
        <time>2023-05-08T05:53:18Z</time>
      </trkpt>
      <trkpt lat="47.88974" lon="6.89623">
        <ele>743</ele>
        <time>2023-05-08T05:53:26Z</time>
      </trkpt>
      <trkpt lat="47.88972" lon="6.89628">
        <ele>742</ele>
        <time>2023-05-08T05:53:31Z</time>
      </trkpt>
      <trkpt lat="47.8897" lon="6.89634">
        <ele>740</ele>
        <time>2023-05-08T05:53:35Z</time>
      </trkpt>
      <trkpt lat="47.88968" lon="6.89641">
        <ele>740</ele>
        <time>2023-05-08T05:53:39Z</time>
      </trkpt>
      <trkpt lat="47.88966" lon="6.89656">
        <ele>738</ele>
        <time>2023-05-08T05:53:48Z</time>
      </trkpt>
      <trkpt lat="47.88961" lon="6.89665">
        <ele>736</ele>
        <time>2023-05-08T05:53:57Z</time>
      </trkpt>
      <trkpt lat="47.88956" lon="6.8966">
        <ele>734</ele>
        <time>2023-05-08T05:54:03Z</time>
      </trkpt>
      <trkpt lat="47.8895" lon="6.89649">
        <ele>732</ele>
        <time>2023-05-08T05:54:10Z</time>
      </trkpt>
      <trkpt lat="47.88949" lon="6.8964">
        <ele>731</ele>
        <time>2023-05-08T05:54:17Z</time>
      </trkpt>
      <trkpt lat="47.88944" lon="6.89635">
        <ele>729</ele>
        <time>2023-05-08T05:54:23Z</time>
      </trkpt>
      <trkpt lat="47.88938" lon="6.89632">
        <ele>729</ele>
        <time>2023-05-08T05:54:27Z</time>
      </trkpt>
      <trkpt lat="47.88938" lon="6.89633">
        <ele>729</ele>
        <time>2023-05-08T05:54:40Z</time>
      </trkpt>
      <trkpt lat="47.88941" lon="6.8964">
        <ele>730</ele>
        <time>2023-05-08T05:54:45Z</time>
      </trkpt>
      <trkpt lat="47.88942" lon="6.89637">
        <ele>733</ele>
        <time>2023-05-08T05:55:02Z</time>
      </trkpt>
      <trkpt lat="47.88938" lon="6.89631">
        <ele>734</ele>
        <time>2023-05-08T05:55:07Z</time>
      </trkpt>
      <trkpt lat="47.88931" lon="6.89622">
        <ele>735</ele>
        <time>2023-05-08T05:55:16Z</time>
      </trkpt>
      <trkpt lat="47.88931" lon="6.89626">
        <ele>739</ele>
        <time>2023-05-08T05:55:39Z</time>
      </trkpt>
      <trkpt lat="47.88932" lon="6.89634">
        <ele>740</ele>
        <time>2023-05-08T05:55:47Z</time>
      </trkpt>
      <trkpt lat="47.88931" lon="6.89642">
        <ele>741</ele>
        <time>2023-05-08T05:55:53Z</time>
      </trkpt>
      <trkpt lat="47.88934" lon="6.89648">
        <ele>742</ele>
        <time>2023-05-08T05:55:57Z</time>
      </trkpt>
      <trkpt lat="47.88936" lon="6.89661">
        <ele>743</ele>
        <time>2023-05-08T05:56:06Z</time>
      </trkpt>
      <trkpt lat="47.88937" lon="6.8967">
        <ele>744</ele>
        <time>2023-05-08T05:56:13Z</time>
      </trkpt>
      <trkpt lat="47.88937" lon="6.89681">
        <ele>745</ele>
        <time>2023-05-08T05:56:20Z</time>
      </trkpt>
      <trkpt lat="47.88935" lon="6.89689">
        <ele>745</ele>
        <time>2023-05-08T05:56:26Z</time>
      </trkpt>
      <trkpt lat="47.88935" lon="6.89698">
        <ele>746</ele>
        <time>2023-05-08T05:56:31Z</time>
      </trkpt>
      <trkpt lat="47.88934" lon="6.89708">
        <ele>746</ele>
        <time>2023-05-08T05:56:38Z</time>
      </trkpt>
      <trkpt lat="47.88934" lon="6.89718">
        <ele>746</ele>
        <time>2023-05-08T05:56:45Z</time>
      </trkpt>
      <trkpt lat="47.88934" lon="6.89726">
        <ele>746</ele>
        <time>2023-05-08T05:56:49Z</time>
      </trkpt>
      <trkpt lat="47.88932" lon="6.89734">
        <ele>746</ele>
        <time>2023-05-08T05:56:55Z</time>
      </trkpt>
      <trkpt lat="47.88934" lon="6.89741">
        <ele>746</ele>
        <time>2023-05-08T05:56:59Z</time>
      </trkpt>
      <trkpt lat="47.88933" lon="6.89749">
        <ele>746</ele>
        <time>2023-05-08T05:57:03Z</time>
      </trkpt>
      <trkpt lat="47.88933" lon="6.89757">
        <ele>746</ele>
        <time>2023-05-08T05:57:07Z</time>
      </trkpt>
      <trkpt lat="47.88931" lon="6.89763">
        <ele>745</ele>
        <time>2023-05-08T05:57:11Z</time>
      </trkpt>
      <trkpt lat="47.8893" lon="6.89776">
        <ele>746</ele>
        <time>2023-05-08T05:57:19Z</time>
      </trkpt>
      <trkpt lat="47.88929" lon="6.89783">
        <ele>746</ele>
        <time>2023-05-08T05:57:23Z</time>
      </trkpt>
      <trkpt lat="47.8893" lon="6.89789">
        <ele>746</ele>
        <time>2023-05-08T05:57:27Z</time>
      </trkpt>
      <trkpt lat="47.88929" lon="6.89797">
        <ele>747</ele>
        <time>2023-05-08T05:57:32Z</time>
      </trkpt>
      <trkpt lat="47.88929" lon="6.89804">
        <ele>747</ele>
        <time>2023-05-08T05:57:36Z</time>
      </trkpt>
      <trkpt lat="47.88927" lon="6.89811">
        <ele>747</ele>
        <time>2023-05-08T05:57:40Z</time>
      </trkpt>
      <trkpt lat="47.88925" lon="6.89818">
        <ele>748</ele>
        <time>2023-05-08T05:57:44Z</time>
      </trkpt>
      <trkpt lat="47.88924" lon="6.89824">
        <ele>747</ele>
        <time>2023-05-08T05:57:48Z</time>
      </trkpt>
      <trkpt lat="47.88925" lon="6.89833">
        <ele>747</ele>
        <time>2023-05-08T05:57:51Z</time>
      </trkpt>
      <trkpt lat="47.88923" lon="6.89842">
        <ele>747</ele>
        <time>2023-05-08T05:57:58Z</time>
      </trkpt>
      <trkpt lat="47.88922" lon="6.89848">
        <ele>748</ele>
        <time>2023-05-08T05:58:02Z</time>
      </trkpt>
      <trkpt lat="47.88919" lon="6.89862">
        <ele>748</ele>
        <time>2023-05-08T05:58:11Z</time>
      </trkpt>
      <trkpt lat="47.88915" lon="6.89875">
        <ele>749</ele>
        <time>2023-05-08T05:58:20Z</time>
      </trkpt>
      <trkpt lat="47.88913" lon="6.89888">
        <ele>750</ele>
        <time>2023-05-08T05:58:28Z</time>
      </trkpt>
      <trkpt lat="47.88895" lon="6.89934">
        <ele>751</ele>
        <time>2023-05-08T05:58:59Z</time>
      </trkpt>
      <trkpt lat="47.88892" lon="6.89938">
        <ele>752</ele>
        <time>2023-05-08T05:59:02Z</time>
      </trkpt>
      <trkpt lat="47.88883" lon="6.89964">
        <ele>754</ele>
        <time>2023-05-08T05:59:20Z</time>
      </trkpt>
      <trkpt lat="47.88881" lon="6.89969">
        <ele>754</ele>
        <time>2023-05-08T05:59:24Z</time>
      </trkpt>
      <trkpt lat="47.88878" lon="6.89983">
        <ele>754</ele>
        <time>2023-05-08T05:59:33Z</time>
      </trkpt>
      <trkpt lat="47.88876" lon="6.89989">
        <ele>754</ele>
        <time>2023-05-08T05:59:38Z</time>
      </trkpt>
      <trkpt lat="47.88876" lon="6.89999">
        <ele>754</ele>
        <time>2023-05-08T05:59:42Z</time>
      </trkpt>
      <trkpt lat="47.88874" lon="6.90006">
        <ele>754</ele>
        <time>2023-05-08T05:59:45Z</time>
      </trkpt>
      <trkpt lat="47.88871" lon="6.90014">
        <ele>753</ele>
        <time>2023-05-08T05:59:51Z</time>
      </trkpt>
      <trkpt lat="47.88868" lon="6.90023">
        <ele>755</ele>
        <time>2023-05-08T06:00:01Z</time>
      </trkpt>
      <trkpt lat="47.88865" lon="6.90028">
        <ele>755</ele>
        <time>2023-05-08T06:00:05Z</time>
      </trkpt>
      <trkpt lat="47.88857" lon="6.90048">
        <ele>753</ele>
        <time>2023-05-08T06:00:18Z</time>
      </trkpt>
      <trkpt lat="47.88852" lon="6.90069">
        <ele>753</ele>
        <time>2023-05-08T06:00:32Z</time>
      </trkpt>
      <trkpt lat="47.88852" lon="6.90084">
        <ele>752</ele>
        <time>2023-05-08T06:00:42Z</time>
      </trkpt>
      <trkpt lat="47.88854" lon="6.9009">
        <ele>752</ele>
        <time>2023-05-08T06:00:46Z</time>
      </trkpt>
      <trkpt lat="47.88852" lon="6.90097">
        <ele>752</ele>
        <time>2023-05-08T06:00:50Z</time>
      </trkpt>
      <trkpt lat="47.8885" lon="6.90104">
        <ele>752</ele>
        <time>2023-05-08T06:00:55Z</time>
      </trkpt>
      <trkpt lat="47.88844" lon="6.90114">
        <ele>752</ele>
        <time>2023-05-08T06:01:02Z</time>
      </trkpt>
      <trkpt lat="47.88842" lon="6.9012">
        <ele>752</ele>
        <time>2023-05-08T06:01:05Z</time>
      </trkpt>
      <trkpt lat="47.88838" lon="6.90124">
        <ele>752</ele>
        <time>2023-05-08T06:01:08Z</time>
      </trkpt>
      <trkpt lat="47.88835" lon="6.90131">
        <ele>752</ele>
        <time>2023-05-08T06:01:12Z</time>
      </trkpt>
      <trkpt lat="47.88826" lon="6.90138">
        <ele>753</ele>
        <time>2023-05-08T06:01:21Z</time>
      </trkpt>
      <trkpt lat="47.88823" lon="6.90145">
        <ele>753</ele>
        <time>2023-05-08T06:01:25Z</time>
      </trkpt>
      <trkpt lat="47.88821" lon="6.90151">
        <ele>752</ele>
        <time>2023-05-08T06:01:29Z</time>
      </trkpt>
      <trkpt lat="47.88818" lon="6.90156">
        <ele>752</ele>
        <time>2023-05-08T06:01:33Z</time>
      </trkpt>
      <trkpt lat="47.88814" lon="6.9016">
        <ele>752</ele>
        <time>2023-05-08T06:01:37Z</time>
      </trkpt>
      <trkpt lat="47.8881" lon="6.90166">
        <ele>753</ele>
        <time>2023-05-08T06:01:41Z</time>
      </trkpt>
      <trkpt lat="47.88808" lon="6.90178">
        <ele>753</ele>
        <time>2023-05-08T06:01:47Z</time>
      </trkpt>
      <trkpt lat="47.88784" lon="6.90222">
        <ele>755</ele>
        <time>2023-05-08T06:02:17Z</time>
      </trkpt>
      <trkpt lat="47.8878" lon="6.90226">
        <ele>755</ele>
        <time>2023-05-08T06:02:22Z</time>
      </trkpt>
      <trkpt lat="47.88774" lon="6.90227">
        <ele>758</ele>
        <time>2023-05-08T06:02:35Z</time>
      </trkpt>
      <trkpt lat="47.88764" lon="6.90246">
        <ele>761</ele>
        <time>2023-05-08T06:02:54Z</time>
      </trkpt>
      <trkpt lat="47.88763" lon="6.90254">
        <ele>762</ele>
        <time>2023-05-08T06:03:02Z</time>
      </trkpt>
      <trkpt lat="47.88763" lon="6.9026">
        <ele>762</ele>
        <time>2023-05-08T06:03:07Z</time>
      </trkpt>
      <trkpt lat="47.88761" lon="6.90269">
        <ele>764</ele>
        <time>2023-05-08T06:03:13Z</time>
      </trkpt>
      <trkpt lat="47.8876" lon="6.90276">
        <ele>765</ele>
        <time>2023-05-08T06:03:18Z</time>
      </trkpt>
      <trkpt lat="47.88758" lon="6.90282">
        <ele>766</ele>
        <time>2023-05-08T06:03:23Z</time>
      </trkpt>
      <trkpt lat="47.88753" lon="6.90288">
        <ele>767</ele>
        <time>2023-05-08T06:03:31Z</time>
      </trkpt>
      <trkpt lat="47.8875" lon="6.90295">
        <ele>768</ele>
        <time>2023-05-08T06:03:37Z</time>
      </trkpt>
      <trkpt lat="47.88741" lon="6.90352">
        <ele>768</ele>
        <time>2023-05-08T06:04:09Z</time>
      </trkpt>
      <trkpt lat="47.88737" lon="6.90373">
        <ele>768</ele>
        <time>2023-05-08T06:04:21Z</time>
      </trkpt>
      <trkpt lat="47.88734" lon="6.90379">
        <ele>768</ele>
        <time>2023-05-08T06:04:25Z</time>
      </trkpt>
      <trkpt lat="47.88733" lon="6.90386">
        <ele>768</ele>
        <time>2023-05-08T06:04:29Z</time>
      </trkpt>
      <trkpt lat="47.88733" lon="6.90394">
        <ele>768</ele>
        <time>2023-05-08T06:04:33Z</time>
      </trkpt>
      <trkpt lat="47.88729" lon="6.90429">
        <ele>767</ele>
        <time>2023-05-08T06:04:52Z</time>
      </trkpt>
      <trkpt lat="47.88729" lon="6.90443">
        <ele>767</ele>
        <time>2023-05-08T06:05:00Z</time>
      </trkpt>
      <trkpt lat="47.88726" lon="6.90458">
        <ele>767</ele>
        <time>2023-05-08T06:05:08Z</time>
      </trkpt>
      <trkpt lat="47.88727" lon="6.90465">
        <ele>767</ele>
        <time>2023-05-08T06:05:12Z</time>
      </trkpt>
      <trkpt lat="47.88725" lon="6.90495">
        <ele>767</ele>
        <time>2023-05-08T06:05:28Z</time>
      </trkpt>
      <trkpt lat="47.88726" lon="6.90516">
        <ele>767</ele>
        <time>2023-05-08T06:05:40Z</time>
      </trkpt>
      <trkpt lat="47.88724" lon="6.90523">
        <ele>767</ele>
        <time>2023-05-08T06:05:44Z</time>
      </trkpt>
      <trkpt lat="47.88724" lon="6.90532">
        <ele>767</ele>
        <time>2023-05-08T06:05:48Z</time>
      </trkpt>
      <trkpt lat="47.88722" lon="6.90538">
        <ele>767</ele>
        <time>2023-05-08T06:05:52Z</time>
      </trkpt>
      <trkpt lat="47.88721" lon="6.90561">
        <ele>767</ele>
        <time>2023-05-08T06:06:04Z</time>
      </trkpt>
      <trkpt lat="47.88718" lon="6.90576">
        <ele>767</ele>
        <time>2023-05-08T06:06:12Z</time>
      </trkpt>
      <trkpt lat="47.88718" lon="6.90583">
        <ele>767</ele>
        <time>2023-05-08T06:06:16Z</time>
      </trkpt>
      <trkpt lat="47.88714" lon="6.90605">
        <ele>767</ele>
        <time>2023-05-08T06:06:28Z</time>
      </trkpt>
      <trkpt lat="47.88714" lon="6.90613">
        <ele>767</ele>
        <time>2023-05-08T06:06:32Z</time>
      </trkpt>
      <trkpt lat="47.88712" lon="6.90619">
        <ele>767</ele>
        <time>2023-05-08T06:06:36Z</time>
      </trkpt>
      <trkpt lat="47.88708" lon="6.90667">
        <ele>768</ele>
        <time>2023-05-08T06:07:03Z</time>
      </trkpt>
      <trkpt lat="47.88705" lon="6.90681">
        <ele>768</ele>
        <time>2023-05-08T06:07:12Z</time>
      </trkpt>
      <trkpt lat="47.88705" lon="6.90688">
        <ele>768</ele>
        <time>2023-05-08T06:07:16Z</time>
      </trkpt>
      <trkpt lat="47.88702" lon="6.90715">
        <ele>769</ele>
        <time>2023-05-08T06:07:32Z</time>
      </trkpt>
      <trkpt lat="47.88701" lon="6.90722">
        <ele>769</ele>
        <time>2023-05-08T06:07:36Z</time>
      </trkpt>
      <trkpt lat="47.88701" lon="6.90729">
        <ele>770</ele>
        <time>2023-05-08T06:07:41Z</time>
      </trkpt>
      <trkpt lat="47.88701" lon="6.90737">
        <ele>770</ele>
        <time>2023-05-08T06:07:46Z</time>
      </trkpt>
      <trkpt lat="47.887" lon="6.90745">
        <ele>770</ele>
        <time>2023-05-08T06:07:51Z</time>
      </trkpt>
      <trkpt lat="47.88695" lon="6.90758">
        <ele>770</ele>
        <time>2023-05-08T06:07:59Z</time>
      </trkpt>
      <trkpt lat="47.88694" lon="6.90766">
        <ele>771</ele>
        <time>2023-05-08T06:08:03Z</time>
      </trkpt>
      <trkpt lat="47.88679" lon="6.9081">
        <ele>772</ele>
        <time>2023-05-08T06:08:30Z</time>
      </trkpt>
      <trkpt lat="47.88678" lon="6.90817">
        <ele>773</ele>
        <time>2023-05-08T06:08:34Z</time>
      </trkpt>
      <trkpt lat="47.88676" lon="6.90823">
        <ele>773</ele>
        <time>2023-05-08T06:08:38Z</time>
      </trkpt>
      <trkpt lat="47.88672" lon="6.90835">
        <ele>774</ele>
        <time>2023-05-08T06:08:46Z</time>
      </trkpt>
      <trkpt lat="47.8867" lon="6.90842">
        <ele>774</ele>
        <time>2023-05-08T06:08:50Z</time>
      </trkpt>
      <trkpt lat="47.88665" lon="6.90854">
        <ele>775</ele>
        <time>2023-05-08T06:08:59Z</time>
      </trkpt>
      <trkpt lat="47.88662" lon="6.90874">
        <ele>776</ele>
        <time>2023-05-08T06:09:12Z</time>
      </trkpt>
      <trkpt lat="47.88651" lon="6.90901">
        <ele>777</ele>
        <time>2023-05-08T06:09:31Z</time>
      </trkpt>
      <trkpt lat="47.88647" lon="6.90904">
        <ele>777</ele>
        <time>2023-05-08T06:09:35Z</time>
      </trkpt>
      <trkpt lat="47.88644" lon="6.90909">
        <ele>777</ele>
        <time>2023-05-08T06:09:39Z</time>
      </trkpt>
      <trkpt lat="47.88643" lon="6.90915">
        <ele>778</ele>
        <time>2023-05-08T06:09:42Z</time>
      </trkpt>
      <trkpt lat="47.88638" lon="6.90918">
        <ele>778</ele>
        <time>2023-05-08T06:09:46Z</time>
      </trkpt>
      <trkpt lat="47.88632" lon="6.90928">
        <ele>778</ele>
        <time>2023-05-08T06:09:53Z</time>
      </trkpt>
      <trkpt lat="47.88629" lon="6.90932">
        <ele>778</ele>
        <time>2023-05-08T06:09:57Z</time>
      </trkpt>
      <trkpt lat="47.88626" lon="6.90937">
        <ele>779</ele>
        <time>2023-05-08T06:10:01Z</time>
      </trkpt>
      <trkpt lat="47.88622" lon="6.90942">
        <ele>779</ele>
        <time>2023-05-08T06:10:06Z</time>
      </trkpt>
      <trkpt lat="47.8862" lon="6.90949">
        <ele>779</ele>
        <time>2023-05-08T06:10:10Z</time>
      </trkpt>
      <trkpt lat="47.88604" lon="6.90982">
        <ele>781</ele>
        <time>2023-05-08T06:10:33Z</time>
      </trkpt>
      <trkpt lat="47.88599" lon="6.90996">
        <ele>782</ele>
        <time>2023-05-08T06:10:45Z</time>
      </trkpt>
      <trkpt lat="47.88597" lon="6.91005">
        <ele>783</ele>
        <time>2023-05-08T06:10:53Z</time>
      </trkpt>
      <trkpt lat="47.88592" lon="6.91018">
        <ele>783</ele>
        <time>2023-05-08T06:11:01Z</time>
      </trkpt>
      <trkpt lat="47.88589" lon="6.91023">
        <ele>784</ele>
        <time>2023-05-08T06:11:04Z</time>
      </trkpt>
      <trkpt lat="47.8859" lon="6.91031">
        <ele>784</ele>
        <time>2023-05-08T06:11:08Z</time>
      </trkpt>
      <trkpt lat="47.88585" lon="6.91044">
        <ele>785</ele>
        <time>2023-05-08T06:11:16Z</time>
      </trkpt>
      <trkpt lat="47.88578" lon="6.91065">
        <ele>786</ele>
        <time>2023-05-08T06:11:31Z</time>
      </trkpt>
      <trkpt lat="47.88573" lon="6.91076">
        <ele>786</ele>
        <time>2023-05-08T06:11:39Z</time>
      </trkpt>
      <trkpt lat="47.8857" lon="6.91081">
        <ele>786</ele>
        <time>2023-05-08T06:11:43Z</time>
      </trkpt>
      <trkpt lat="47.88562" lon="6.91112">
        <ele>788</ele>
        <time>2023-05-08T06:12:04Z</time>
      </trkpt>
      <trkpt lat="47.88562" lon="6.91118">
        <ele>788</ele>
        <time>2023-05-08T06:12:08Z</time>
      </trkpt>
      <trkpt lat="47.88564" lon="6.91125">
        <ele>788</ele>
        <time>2023-05-08T06:12:12Z</time>
      </trkpt>
      <trkpt lat="47.88564" lon="6.91166">
        <ele>789</ele>
        <time>2023-05-08T06:12:38Z</time>
      </trkpt>
      <trkpt lat="47.88566" lon="6.91179">
        <ele>789</ele>
        <time>2023-05-08T06:12:46Z</time>
      </trkpt>
      <trkpt lat="47.88565" lon="6.91194">
        <ele>788</ele>
        <time>2023-05-08T06:12:55Z</time>
      </trkpt>
      <trkpt lat="47.88562" lon="6.912">
        <ele>788</ele>
        <time>2023-05-08T06:12:59Z</time>
      </trkpt>
      <trkpt lat="47.8856" lon="6.91208">
        <ele>788</ele>
        <time>2023-05-08T06:13:03Z</time>
      </trkpt>
      <trkpt lat="47.88565" lon="6.91222">
        <ele>787</ele>
        <time>2023-05-08T06:13:12Z</time>
      </trkpt>
      <trkpt lat="47.88562" lon="6.91228">
        <ele>787</ele>
        <time>2023-05-08T06:13:16Z</time>
      </trkpt>
      <trkpt lat="47.88562" lon="6.91235">
        <ele>787</ele>
        <time>2023-05-08T06:13:20Z</time>
      </trkpt>
      <trkpt lat="47.8856" lon="6.91241">
        <ele>787</ele>
        <time>2023-05-08T06:13:24Z</time>
      </trkpt>
      <trkpt lat="47.88563" lon="6.91254">
        <ele>786</ele>
        <time>2023-05-08T06:13:34Z</time>
      </trkpt>
      <trkpt lat="47.88565" lon="6.91262">
        <ele>785</ele>
        <time>2023-05-08T06:13:39Z</time>
      </trkpt>
      <trkpt lat="47.88565" lon="6.91269">
        <ele>784</ele>
        <time>2023-05-08T06:13:43Z</time>
      </trkpt>
      <trkpt lat="47.88562" lon="6.91282">
        <ele>785</ele>
        <time>2023-05-08T06:13:52Z</time>
      </trkpt>
      <trkpt lat="47.88563" lon="6.9129">
        <ele>785</ele>
        <time>2023-05-08T06:13:57Z</time>
      </trkpt>
      <trkpt lat="47.88563" lon="6.91297">
        <ele>786</ele>
        <time>2023-05-08T06:14:01Z</time>
      </trkpt>
      <trkpt lat="47.88564" lon="6.91305">
        <ele>786</ele>
        <time>2023-05-08T06:14:06Z</time>
      </trkpt>
      <trkpt lat="47.88563" lon="6.91313">
        <ele>786</ele>
        <time>2023-05-08T06:14:12Z</time>
      </trkpt>
      <trkpt lat="47.88559" lon="6.9132">
        <ele>788</ele>
        <time>2023-05-08T06:14:21Z</time>
      </trkpt>
      <trkpt lat="47.88556" lon="6.91335">
        <ele>791</ele>
        <time>2023-05-08T06:14:35Z</time>
      </trkpt>
      <trkpt lat="47.88554" lon="6.91345">
        <ele>792</ele>
        <time>2023-05-08T06:14:42Z</time>
      </trkpt>
      <trkpt lat="47.8854" lon="6.91373">
        <ele>789</ele>
        <time>2023-05-08T06:15:04Z</time>
      </trkpt>
      <trkpt lat="47.88539" lon="6.91379">
        <ele>789</ele>
        <time>2023-05-08T06:15:08Z</time>
      </trkpt>
      <trkpt lat="47.8854" lon="6.91388">
        <ele>788</ele>
        <time>2023-05-08T06:15:14Z</time>
      </trkpt>
      <trkpt lat="47.88539" lon="6.91402">
        <ele>787</ele>
        <time>2023-05-08T06:15:23Z</time>
      </trkpt>
      <trkpt lat="47.88537" lon="6.91409">
        <ele>787</ele>
        <time>2023-05-08T06:15:28Z</time>
      </trkpt>
      <trkpt lat="47.88528" lon="6.91411">
        <ele>785</ele>
        <time>2023-05-08T06:15:37Z</time>
      </trkpt>
      <trkpt lat="47.88523" lon="6.91409">
        <ele>784</ele>
        <time>2023-05-08T06:15:41Z</time>
      </trkpt>
      <trkpt lat="47.88518" lon="6.91406">
        <ele>784</ele>
        <time>2023-05-08T06:15:45Z</time>
      </trkpt>
      <trkpt lat="47.88513" lon="6.91408">
        <ele>784</ele>
        <time>2023-05-08T06:15:52Z</time>
      </trkpt>
      <trkpt lat="47.88508" lon="6.91409">
        <ele>783</ele>
        <time>2023-05-08T06:15:58Z</time>
      </trkpt>
      <trkpt lat="47.88504" lon="6.91407">
        <ele>782</ele>
        <time>2023-05-08T06:16:03Z</time>
      </trkpt>
      <trkpt lat="47.88494" lon="6.91403">
        <ele>783</ele>
        <time>2023-05-08T06:16:14Z</time>
      </trkpt>
      <trkpt lat="47.88488" lon="6.91406">
        <ele>782</ele>
        <time>2023-05-08T06:16:18Z</time>
      </trkpt>
      <trkpt lat="47.88484" lon="6.91406">
        <ele>781</ele>
        <time>2023-05-08T06:16:21Z</time>
      </trkpt>
      <trkpt lat="47.8848" lon="6.91408">
        <ele>781</ele>
        <time>2023-05-08T06:16:26Z</time>
      </trkpt>
      <trkpt lat="47.88474" lon="6.91412">
        <ele>782</ele>
        <time>2023-05-08T06:16:33Z</time>
      </trkpt>
      <trkpt lat="47.88469" lon="6.91412">
        <ele>780</ele>
        <time>2023-05-08T06:16:41Z</time>
      </trkpt>
      <trkpt lat="47.88462" lon="6.91409">
        <ele>782</ele>
        <time>2023-05-08T06:16:52Z</time>
      </trkpt>
      <trkpt lat="47.88453" lon="6.91412">
        <ele>783</ele>
        <time>2023-05-08T06:17:04Z</time>
      </trkpt>
      <trkpt lat="47.88457" lon="6.91399">
        <ele>787</ele>
        <time>2023-05-08T06:17:24Z</time>
      </trkpt>
      <trkpt lat="47.88461" lon="6.91395">
        <ele>788</ele>
        <time>2023-05-08T06:17:32Z</time>
      </trkpt>
      <trkpt lat="47.88459" lon="6.91391">
        <ele>790</ele>
        <time>2023-05-08T06:17:53Z</time>
      </trkpt>
      <trkpt lat="47.88454" lon="6.91391">
        <ele>791</ele>
        <time>2023-05-08T06:18:00Z</time>
      </trkpt>
      <trkpt lat="47.8845" lon="6.91395">
        <ele>792</ele>
        <time>2023-05-08T06:18:04Z</time>
      </trkpt>
      <trkpt lat="47.88446" lon="6.91404">
        <ele>794</ele>
        <time>2023-05-08T06:18:14Z</time>
      </trkpt>
      <trkpt lat="47.88443" lon="6.91409">
        <ele>795</ele>
        <time>2023-05-08T06:18:18Z</time>
      </trkpt>
      <trkpt lat="47.88438" lon="6.91408">
        <ele>797</ele>
        <time>2023-05-08T06:18:26Z</time>
      </trkpt>
      <trkpt lat="47.88434" lon="6.91402">
        <ele>797</ele>
        <time>2023-05-08T06:18:31Z</time>
      </trkpt>
      <trkpt lat="47.88429" lon="6.91407">
        <ele>799</ele>
        <time>2023-05-08T06:18:51Z</time>
      </trkpt>
      <trkpt lat="47.88425" lon="6.91417">
        <ele>801</ele>
        <time>2023-05-08T06:19:07Z</time>
      </trkpt>
      <trkpt lat="47.88421" lon="6.91415">
        <ele>802</ele>
        <time>2023-05-08T06:19:15Z</time>
      </trkpt>
      <trkpt lat="47.88416" lon="6.91416">
        <ele>803</ele>
        <time>2023-05-08T06:19:21Z</time>
      </trkpt>
      <trkpt lat="47.88411" lon="6.91412">
        <ele>803</ele>
        <time>2023-05-08T06:19:26Z</time>
      </trkpt>
      <trkpt lat="47.88407" lon="6.91408">
        <ele>804</ele>
        <time>2023-05-08T06:19:31Z</time>
      </trkpt>
      <trkpt lat="47.88399" lon="6.91402">
        <ele>805</ele>
        <time>2023-05-08T06:19:40Z</time>
      </trkpt>
      <trkpt lat="47.88394" lon="6.91402">
        <ele>806</ele>
        <time>2023-05-08T06:19:44Z</time>
      </trkpt>
      <trkpt lat="47.8839" lon="6.91392">
        <ele>806</ele>
        <time>2023-05-08T06:19:52Z</time>
      </trkpt>
      <trkpt lat="47.88386" lon="6.91386">
        <ele>807</ele>
        <time>2023-05-08T06:19:58Z</time>
      </trkpt>
      <trkpt lat="47.8838" lon="6.91383">
        <ele>807</ele>
        <time>2023-05-08T06:20:03Z</time>
      </trkpt>
      <trkpt lat="47.88376" lon="6.91383">
        <ele>806</ele>
        <time>2023-05-08T06:20:07Z</time>
      </trkpt>
      <trkpt lat="47.88373" lon="6.91391">
        <ele>806</ele>
        <time>2023-05-08T06:20:14Z</time>
      </trkpt>
      <trkpt lat="47.88366" lon="6.91402">
        <ele>805</ele>
        <time>2023-05-08T06:20:21Z</time>
      </trkpt>
      <trkpt lat="47.8836" lon="6.91414">
        <ele>804</ele>
        <time>2023-05-08T06:20:29Z</time>
      </trkpt>
      <trkpt lat="47.88351" lon="6.91427">
        <ele>804</ele>
        <time>2023-05-08T06:20:42Z</time>
      </trkpt>
      <trkpt lat="47.88342" lon="6.91433">
        <ele>804</ele>
        <time>2023-05-08T06:20:50Z</time>
      </trkpt>
      <trkpt lat="47.88339" lon="6.9144">
        <ele>804</ele>
        <time>2023-05-08T06:20:55Z</time>
      </trkpt>
      <trkpt lat="47.88336" lon="6.91443">
        <ele>804</ele>
        <time>2023-05-08T06:20:59Z</time>
      </trkpt>
      <trkpt lat="47.88331" lon="6.91446">
        <ele>805</ele>
        <time>2023-05-08T06:21:03Z</time>
      </trkpt>
      <trkpt lat="47.88317" lon="6.91464">
        <ele>805</ele>
        <time>2023-05-08T06:21:21Z</time>
      </trkpt>
      <trkpt lat="47.88311" lon="6.91469">
        <ele>806</ele>
        <time>2023-05-08T06:21:29Z</time>
      </trkpt>
      <trkpt lat="47.88308" lon="6.91474">
        <ele>806</ele>
        <time>2023-05-08T06:21:34Z</time>
      </trkpt>
      <trkpt lat="47.883" lon="6.91478">
        <ele>806</ele>
        <time>2023-05-08T06:21:42Z</time>
      </trkpt>
      <trkpt lat="47.88296" lon="6.91479">
        <ele>806</ele>
        <time>2023-05-08T06:21:46Z</time>
      </trkpt>
      <trkpt lat="47.88291" lon="6.91478">
        <ele>806</ele>
        <time>2023-05-08T06:21:50Z</time>
      </trkpt>
      <trkpt lat="47.88282" lon="6.91478">
        <ele>806</ele>
        <time>2023-05-08T06:21:58Z</time>
      </trkpt>
      <trkpt lat="47.88276" lon="6.91484">
        <ele>807</ele>
        <time>2023-05-08T06:22:05Z</time>
      </trkpt>
      <trkpt lat="47.88272" lon="6.91489">
        <ele>807</ele>
        <time>2023-05-08T06:22:09Z</time>
      </trkpt>
      <trkpt lat="47.88267" lon="6.91501">
        <ele>808</ele>
        <time>2023-05-08T06:22:17Z</time>
      </trkpt>
      <trkpt lat="47.88252" lon="6.91518">
        <ele>808</ele>
        <time>2023-05-08T06:22:34Z</time>
      </trkpt>
      <trkpt lat="47.88245" lon="6.91521">
        <ele>808</ele>
        <time>2023-05-08T06:22:43Z</time>
      </trkpt>
      <trkpt lat="47.88242" lon="6.91526">
        <ele>808</ele>
        <time>2023-05-08T06:22:47Z</time>
      </trkpt>
      <trkpt lat="47.88235" lon="6.91527">
        <ele>809</ele>
        <time>2023-05-08T06:22:53Z</time>
      </trkpt>
      <trkpt lat="47.8823" lon="6.91527">
        <ele>809</ele>
        <time>2023-05-08T06:22:57Z</time>
      </trkpt>
      <trkpt lat="47.88226" lon="6.91525">
        <ele>809</ele>
        <time>2023-05-08T06:23:00Z</time>
      </trkpt>
      <trkpt lat="47.88217" lon="6.91523">
        <ele>809</ele>
        <time>2023-05-08T06:23:08Z</time>
      </trkpt>
      <trkpt lat="47.88208" lon="6.91529">
        <ele>810</ele>
        <time>2023-05-08T06:23:16Z</time>
      </trkpt>
      <trkpt lat="47.88194" lon="6.91544">
        <ele>811</ele>
        <time>2023-05-08T06:23:34Z</time>
      </trkpt>
      <trkpt lat="47.88164" lon="6.91568">
        <ele>812</ele>
        <time>2023-05-08T06:24:06Z</time>
      </trkpt>
      <trkpt lat="47.88152" lon="6.91579">
        <ele>813</ele>
        <time>2023-05-08T06:24:16Z</time>
      </trkpt>
      <trkpt lat="47.8815" lon="6.91594">
        <ele>814</ele>
        <time>2023-05-08T06:24:26Z</time>
      </trkpt>
      <trkpt lat="47.88145" lon="6.91604">
        <ele>814</ele>
        <time>2023-05-08T06:24:35Z</time>
      </trkpt>
      <trkpt lat="47.88143" lon="6.91615">
        <ele>815</ele>
        <time>2023-05-08T06:24:44Z</time>
      </trkpt>
      <trkpt lat="47.88127" lon="6.91651">
        <ele>816</ele>
        <time>2023-05-08T06:25:09Z</time>
      </trkpt>
      <trkpt lat="47.88124" lon="6.91655">
        <ele>816</ele>
        <time>2023-05-08T06:25:13Z</time>
      </trkpt>
      <trkpt lat="47.8811" lon="6.91684">
        <ele>817</ele>
        <time>2023-05-08T06:25:33Z</time>
      </trkpt>
      <trkpt lat="47.88103" lon="6.91694">
        <ele>817</ele>
        <time>2023-05-08T06:25:42Z</time>
      </trkpt>
      <trkpt lat="47.88099" lon="6.91699">
        <ele>818</ele>
        <time>2023-05-08T06:25:46Z</time>
      </trkpt>
      <trkpt lat="47.88091" lon="6.91704">
        <ele>817</ele>
        <time>2023-05-08T06:25:54Z</time>
      </trkpt>
      <trkpt lat="47.88086" lon="6.91708">
        <ele>818</ele>
        <time>2023-05-08T06:25:59Z</time>
      </trkpt>
      <trkpt lat="47.88082" lon="6.91709">
        <ele>818</ele>
        <time>2023-05-08T06:26:04Z</time>
      </trkpt>
      <trkpt lat="47.88078" lon="6.91714">
        <ele>818</ele>
        <time>2023-05-08T06:26:09Z</time>
      </trkpt>
      <trkpt lat="47.88073" lon="6.91717">
        <ele>818</ele>
        <time>2023-05-08T06:26:14Z</time>
      </trkpt>
      <trkpt lat="47.88063" lon="6.91716">
        <ele>818</ele>
        <time>2023-05-08T06:26:22Z</time>
      </trkpt>
      <trkpt lat="47.88058" lon="6.91714">
        <ele>818</ele>
        <time>2023-05-08T06:26:26Z</time>
      </trkpt>
      <trkpt lat="47.88051" lon="6.91708">
        <ele>818</ele>
        <time>2023-05-08T06:26:34Z</time>
      </trkpt>
      <trkpt lat="47.88033" lon="6.91699">
        <ele>817</ele>
        <time>2023-05-08T06:26:51Z</time>
      </trkpt>
      <trkpt lat="47.88029" lon="6.91694">
        <ele>817</ele>
        <time>2023-05-08T06:26:56Z</time>
      </trkpt>
      <trkpt lat="47.8802" lon="6.91687">
        <ele>816</ele>
        <time>2023-05-08T06:27:05Z</time>
      </trkpt>
      <trkpt lat="47.88016" lon="6.91681">
        <ele>815</ele>
        <time>2023-05-08T06:27:10Z</time>
      </trkpt>
      <trkpt lat="47.88012" lon="6.91678">
        <ele>815</ele>
        <time>2023-05-08T06:27:14Z</time>
      </trkpt>
      <trkpt lat="47.88009" lon="6.91673">
        <ele>814</ele>
        <time>2023-05-08T06:27:18Z</time>
      </trkpt>
      <trkpt lat="47.88005" lon="6.91668">
        <ele>814</ele>
        <time>2023-05-08T06:27:23Z</time>
      </trkpt>
      <trkpt lat="47.87975" lon="6.91636">
        <ele>810</ele>
        <time>2023-05-08T06:27:56Z</time>
      </trkpt>
      <trkpt lat="47.87969" lon="6.91625">
        <ele>808</ele>
        <time>2023-05-08T06:28:04Z</time>
      </trkpt>
      <trkpt lat="47.87948" lon="6.91609">
        <ele>806</ele>
        <time>2023-05-08T06:28:24Z</time>
      </trkpt>
      <trkpt lat="47.87945" lon="6.91604">
        <ele>805</ele>
        <time>2023-05-08T06:28:28Z</time>
      </trkpt>
      <trkpt lat="47.87944" lon="6.91598">
        <ele>805</ele>
        <time>2023-05-08T06:28:32Z</time>
      </trkpt>
      <trkpt lat="47.87939" lon="6.91569">
        <ele>807</ele>
        <time>2023-05-08T06:28:49Z</time>
      </trkpt>
      <trkpt lat="47.87938" lon="6.91516">
        <ele>810</ele>
        <time>2023-05-08T06:29:20Z</time>
      </trkpt>
      <trkpt lat="47.87938" lon="6.91478">
        <ele>814</ele>
        <time>2023-05-08T06:29:45Z</time>
      </trkpt>
      <trkpt lat="47.87937" lon="6.91472">
        <ele>814</ele>
        <time>2023-05-08T06:29:49Z</time>
      </trkpt>
      <trkpt lat="47.87931" lon="6.91428">
        <ele>818</ele>
        <time>2023-05-08T06:30:18Z</time>
      </trkpt>
      <trkpt lat="47.87934" lon="6.91413">
        <ele>819</ele>
        <time>2023-05-08T06:30:28Z</time>
      </trkpt>
      <trkpt lat="47.87932" lon="6.91365">
        <ele>823</ele>
        <time>2023-05-08T06:31:00Z</time>
      </trkpt>
      <trkpt lat="47.87932" lon="6.91344">
        <ele>825</ele>
        <time>2023-05-08T06:31:15Z</time>
      </trkpt>
      <trkpt lat="47.87931" lon="6.91334">
        <ele>826</ele>
        <time>2023-05-08T06:31:22Z</time>
      </trkpt>
      <trkpt lat="47.87931" lon="6.91314">
        <ele>828</ele>
        <time>2023-05-08T06:31:35Z</time>
      </trkpt>
      <trkpt lat="47.8793" lon="6.91307">
        <ele>829</ele>
        <time>2023-05-08T06:31:40Z</time>
      </trkpt>
      <trkpt lat="47.87932" lon="6.91282">
        <ele>831</ele>
        <time>2023-05-08T06:31:56Z</time>
      </trkpt>
      <trkpt lat="47.87931" lon="6.91275">
        <ele>831</ele>
        <time>2023-05-08T06:32:00Z</time>
      </trkpt>
      <trkpt lat="47.8793" lon="6.9126">
        <ele>832</ele>
        <time>2023-05-08T06:32:09Z</time>
      </trkpt>
      <trkpt lat="47.87931" lon="6.91254">
        <ele>832</ele>
        <time>2023-05-08T06:32:14Z</time>
      </trkpt>
      <trkpt lat="47.87928" lon="6.91247">
        <ele>833</ele>
        <time>2023-05-08T06:32:18Z</time>
      </trkpt>
      <trkpt lat="47.87928" lon="6.9124">
        <ele>833</ele>
        <time>2023-05-08T06:32:23Z</time>
      </trkpt>
      <trkpt lat="47.87929" lon="6.91232">
        <ele>833</ele>
        <time>2023-05-08T06:32:28Z</time>
      </trkpt>
      <trkpt lat="47.87927" lon="6.91216">
        <ele>834</ele>
        <time>2023-05-08T06:32:38Z</time>
      </trkpt>
      <trkpt lat="47.87928" lon="6.91209">
        <ele>835</ele>
        <time>2023-05-08T06:32:42Z</time>
      </trkpt>
      <trkpt lat="47.87926" lon="6.91204">
        <ele>835</ele>
        <time>2023-05-08T06:32:47Z</time>
      </trkpt>
      <trkpt lat="47.87925" lon="6.91196">
        <ele>835</ele>
        <time>2023-05-08T06:32:52Z</time>
      </trkpt>
      <trkpt lat="47.87925" lon="6.9119">
        <ele>836</ele>
        <time>2023-05-08T06:32:56Z</time>
      </trkpt>
      <trkpt lat="47.87924" lon="6.91182">
        <ele>836</ele>
        <time>2023-05-08T06:33:00Z</time>
      </trkpt>
      <trkpt lat="47.87923" lon="6.91176">
        <ele>837</ele>
        <time>2023-05-08T06:33:04Z</time>
      </trkpt>
      <trkpt lat="47.8792" lon="6.91163">
        <ele>837</ele>
        <time>2023-05-08T06:33:12Z</time>
      </trkpt>
      <trkpt lat="47.8792" lon="6.91156">
        <ele>837</ele>
        <time>2023-05-08T06:33:16Z</time>
      </trkpt>
      <trkpt lat="47.87913" lon="6.911">
        <ele>840</ele>
        <time>2023-05-08T06:33:49Z</time>
      </trkpt>
      <trkpt lat="47.87912" lon="6.91089">
        <ele>840</ele>
        <time>2023-05-08T06:33:57Z</time>
      </trkpt>
      <trkpt lat="47.879" lon="6.91058">
        <ele>841</ele>
        <time>2023-05-08T06:34:19Z</time>
      </trkpt>
      <trkpt lat="47.87898" lon="6.91038">
        <ele>842</ele>
        <time>2023-05-08T06:34:32Z</time>
      </trkpt>
      <trkpt lat="47.87896" lon="6.91031">
        <ele>842</ele>
        <time>2023-05-08T06:34:37Z</time>
      </trkpt>
      <trkpt lat="47.87893" lon="6.91025">
        <ele>843</ele>
        <time>2023-05-08T06:34:42Z</time>
      </trkpt>
      <trkpt lat="47.87888" lon="6.91021">
        <ele>843</ele>
        <time>2023-05-08T06:34:48Z</time>
      </trkpt>
      <trkpt lat="47.87874" lon="6.91016">
        <ele>843</ele>
        <time>2023-05-08T06:34:59Z</time>
      </trkpt>
      <trkpt lat="47.87851" lon="6.91016">
        <ele>843</ele>
        <time>2023-05-08T06:35:18Z</time>
      </trkpt>
      <trkpt lat="47.87832" lon="6.91025">
        <ele>843</ele>
        <time>2023-05-08T06:35:36Z</time>
      </trkpt>
      <trkpt lat="47.87825" lon="6.91032">
        <ele>843</ele>
        <time>2023-05-08T06:35:44Z</time>
      </trkpt>
      <trkpt lat="47.87802" lon="6.91072">
        <ele>844</ele>
        <time>2023-05-08T06:36:17Z</time>
      </trkpt>
      <trkpt lat="47.87792" lon="6.91087">
        <ele>844</ele>
        <time>2023-05-08T06:36:31Z</time>
      </trkpt>
      <trkpt lat="47.87778" lon="6.91124">
        <ele>845</ele>
        <time>2023-05-08T06:36:58Z</time>
      </trkpt>
      <trkpt lat="47.87769" lon="6.91138">
        <ele>846</ele>
        <time>2023-05-08T06:37:10Z</time>
      </trkpt>
      <trkpt lat="47.87766" lon="6.91144">
        <ele>846</ele>
        <time>2023-05-08T06:37:14Z</time>
      </trkpt>
      <trkpt lat="47.87756" lon="6.91158">
        <ele>847</ele>
        <time>2023-05-08T06:37:26Z</time>
      </trkpt>
      <trkpt lat="47.87753" lon="6.91164">
        <ele>847</ele>
        <time>2023-05-08T06:37:31Z</time>
      </trkpt>
      <trkpt lat="47.87735" lon="6.91189">
        <ele>848</ele>
        <time>2023-05-08T06:37:50Z</time>
      </trkpt>
      <trkpt lat="47.87731" lon="6.91201">
        <ele>848</ele>
        <time>2023-05-08T06:37:58Z</time>
      </trkpt>
      <trkpt lat="47.87729" lon="6.91209">
        <ele>849</ele>
        <time>2023-05-08T06:38:02Z</time>
      </trkpt>
      <trkpt lat="47.87729" lon="6.91236">
        <ele>849</ele>
        <time>2023-05-08T06:38:18Z</time>
      </trkpt>
      <trkpt lat="47.87727" lon="6.91243">
        <ele>849</ele>
        <time>2023-05-08T06:38:22Z</time>
      </trkpt>
      <trkpt lat="47.87722" lon="6.91296">
        <ele>849</ele>
        <time>2023-05-08T06:38:55Z</time>
      </trkpt>
      <trkpt lat="47.87718" lon="6.91318">
        <ele>849</ele>
        <time>2023-05-08T06:39:08Z</time>
      </trkpt>
      <trkpt lat="47.87718" lon="6.91325">
        <ele>850</ele>
        <time>2023-05-08T06:39:12Z</time>
      </trkpt>
      <trkpt lat="47.87713" lon="6.91374">
        <ele>852</ele>
        <time>2023-05-08T06:39:43Z</time>
      </trkpt>
      <trkpt lat="47.87711" lon="6.91381">
        <ele>852</ele>
        <time>2023-05-08T06:39:48Z</time>
      </trkpt>
      <trkpt lat="47.87713" lon="6.91395">
        <ele>853</ele>
        <time>2023-05-08T06:39:57Z</time>
      </trkpt>
      <trkpt lat="47.87712" lon="6.91402">
        <ele>853</ele>
        <time>2023-05-08T06:40:01Z</time>
      </trkpt>
      <trkpt lat="47.87708" lon="6.91414">
        <ele>854</ele>
        <time>2023-05-08T06:40:10Z</time>
      </trkpt>
      <trkpt lat="47.87696" lon="6.91432">
        <ele>856</ele>
        <time>2023-05-08T06:40:28Z</time>
      </trkpt>
      <trkpt lat="47.87689" lon="6.91437">
        <ele>857</ele>
        <time>2023-05-08T06:40:36Z</time>
      </trkpt>
      <trkpt lat="47.87685" lon="6.91438">
        <ele>857</ele>
        <time>2023-05-08T06:40:50Z</time>
      </trkpt>
      <trkpt lat="47.8768" lon="6.91439">
        <ele>858</ele>
        <time>2023-05-08T06:41:08Z</time>
      </trkpt>
      <trkpt lat="47.8768" lon="6.91451">
        <ele>858</ele>
        <time>2023-05-08T06:41:18Z</time>
      </trkpt>
      <trkpt lat="47.87673" lon="6.91458">
        <ele>859</ele>
        <time>2023-05-08T06:41:28Z</time>
      </trkpt>
      <trkpt lat="47.87666" lon="6.91469">
        <ele>860</ele>
        <time>2023-05-08T06:41:40Z</time>
      </trkpt>
      <trkpt lat="47.8766" lon="6.91477">
        <ele>862</ele>
        <time>2023-05-08T06:41:51Z</time>
      </trkpt>
      <trkpt lat="47.87654" lon="6.91481">
        <ele>863</ele>
        <time>2023-05-08T06:41:58Z</time>
      </trkpt>
      <trkpt lat="47.87647" lon="6.91492">
        <ele>864</ele>
        <time>2023-05-08T06:42:10Z</time>
      </trkpt>
      <trkpt lat="47.87629" lon="6.91527">
        <ele>869</ele>
        <time>2023-05-08T06:42:50Z</time>
      </trkpt>
      <trkpt lat="47.87614" lon="6.9156">
        <ele>872</ele>
        <time>2023-05-08T06:43:22Z</time>
      </trkpt>
      <trkpt lat="47.8761" lon="6.91573">
        <ele>873</ele>
        <time>2023-05-08T06:43:32Z</time>
      </trkpt>
      <trkpt lat="47.87606" lon="6.91597">
        <ele>876</ele>
        <time>2023-05-08T06:43:52Z</time>
      </trkpt>
      <trkpt lat="47.87607" lon="6.91605">
        <ele>877</ele>
        <time>2023-05-08T06:43:59Z</time>
      </trkpt>
      <trkpt lat="47.87606" lon="6.91611">
        <ele>878</ele>
        <time>2023-05-08T06:44:05Z</time>
      </trkpt>
      <trkpt lat="47.87607" lon="6.91625">
        <ele>880</ele>
        <time>2023-05-08T06:44:17Z</time>
      </trkpt>
      <trkpt lat="47.87606" lon="6.91633">
        <ele>881</ele>
        <time>2023-05-08T06:44:23Z</time>
      </trkpt>
      <trkpt lat="47.87608" lon="6.91642">
        <ele>881</ele>
        <time>2023-05-08T06:44:30Z</time>
      </trkpt>
      <trkpt lat="47.87607" lon="6.91662">
        <ele>883</ele>
        <time>2023-05-08T06:44:45Z</time>
      </trkpt>
      <trkpt lat="47.87605" lon="6.91668">
        <ele>883</ele>
        <time>2023-05-08T06:44:50Z</time>
      </trkpt>
      <trkpt lat="47.8761" lon="6.91666">
        <ele>884</ele>
        <time>2023-05-08T06:45:50Z</time>
      </trkpt>
      <trkpt lat="47.87615" lon="6.91671">
        <ele>884</ele>
        <time>2023-05-08T06:45:57Z</time>
      </trkpt>
      <trkpt lat="47.87622" lon="6.91665">
        <ele>884</ele>
        <time>2023-05-08T06:46:01Z</time>
      </trkpt>
      <trkpt lat="47.87626" lon="6.91665">
        <ele>884</ele>
        <time>2023-05-08T06:46:08Z</time>
      </trkpt>
      <trkpt lat="47.87624" lon="6.91674">
        <ele>884</ele>
        <time>2023-05-08T06:46:13Z</time>
      </trkpt>
      <trkpt lat="47.87632" lon="6.91668">
        <ele>884</ele>
        <time>2023-05-08T06:46:23Z</time>
      </trkpt>
      <trkpt lat="47.87637" lon="6.91673">
        <ele>884</ele>
        <time>2023-05-08T06:46:25Z</time>
      </trkpt>
      <trkpt lat="47.87631" lon="6.91677">
        <ele>884</ele>
        <time>2023-05-08T06:46:28Z</time>
      </trkpt>
      <trkpt lat="47.87619" lon="6.9168">
        <ele>884</ele>
        <time>2023-05-08T06:46:32Z</time>
      </trkpt>
      <trkpt lat="47.87613" lon="6.91678">
        <ele>884</ele>
        <time>2023-05-08T06:46:37Z</time>
      </trkpt>
      <trkpt lat="47.87608" lon="6.91676">
        <ele>883</ele>
        <time>2023-05-08T06:46:39Z</time>
      </trkpt>
      <trkpt lat="47.87605" lon="6.91679">
        <ele>883</ele>
        <time>2023-05-08T06:46:42Z</time>
      </trkpt>
      <trkpt lat="47.87601" lon="6.91716">
        <ele>882</ele>
        <time>2023-05-08T06:50:43Z</time>
      </trkpt>
      <trkpt lat="47.87598" lon="6.91747">
        <ele>882</ele>
        <time>2023-05-08T06:51:05Z</time>
      </trkpt>
      <trkpt lat="47.876" lon="6.91763">
        <ele>881</ele>
        <time>2023-05-08T06:51:18Z</time>
      </trkpt>
      <trkpt lat="47.876" lon="6.91771">
        <ele>881</ele>
        <time>2023-05-08T06:51:23Z</time>
      </trkpt>
      <trkpt lat="47.87601" lon="6.91778">
        <ele>881</ele>
        <time>2023-05-08T06:51:28Z</time>
      </trkpt>
      <trkpt lat="47.87599" lon="6.91792">
        <ele>881</ele>
        <time>2023-05-08T06:51:37Z</time>
      </trkpt>
      <trkpt lat="47.87602" lon="6.91806">
        <ele>880</ele>
        <time>2023-05-08T06:51:47Z</time>
      </trkpt>
      <trkpt lat="47.87604" lon="6.91812">
        <ele>880</ele>
        <time>2023-05-08T06:51:51Z</time>
      </trkpt>
      <trkpt lat="47.87612" lon="6.91859">
        <ele>878</ele>
        <time>2023-05-08T06:52:23Z</time>
      </trkpt>
      <trkpt lat="47.87611" lon="6.91867">
        <ele>878</ele>
        <time>2023-05-08T06:52:27Z</time>
      </trkpt>
      <trkpt lat="47.87612" lon="6.91873">
        <ele>878</ele>
        <time>2023-05-08T06:52:31Z</time>
      </trkpt>
      <trkpt lat="47.8761" lon="6.91888">
        <ele>877</ele>
        <time>2023-05-08T06:52:41Z</time>
      </trkpt>
      <trkpt lat="47.87612" lon="6.9192">
        <ele>876</ele>
        <time>2023-05-08T06:53:02Z</time>
      </trkpt>
      <trkpt lat="47.87617" lon="6.91947">
        <ele>875</ele>
        <time>2023-05-08T06:53:20Z</time>
      </trkpt>
      <trkpt lat="47.87629" lon="6.91986">
        <ele>873</ele>
        <time>2023-05-08T06:53:51Z</time>
      </trkpt>
      <trkpt lat="47.87638" lon="6.92019">
        <ele>872</ele>
        <time>2023-05-08T06:54:16Z</time>
      </trkpt>
      <trkpt lat="47.8764" lon="6.92066">
        <ele>870</ele>
        <time>2023-05-08T06:54:47Z</time>
      </trkpt>
      <trkpt lat="47.87642" lon="6.92073">
        <ele>870</ele>
        <time>2023-05-08T06:54:51Z</time>
      </trkpt>
      <trkpt lat="47.87647" lon="6.92095">
        <ele>869</ele>
        <time>2023-05-08T06:55:06Z</time>
      </trkpt>
      <trkpt lat="47.87664" lon="6.9214">
        <ele>867</ele>
        <time>2023-05-08T06:55:40Z</time>
      </trkpt>
      <trkpt lat="47.87673" lon="6.92158">
        <ele>866</ele>
        <time>2023-05-08T06:55:53Z</time>
      </trkpt>
      <trkpt lat="47.87676" lon="6.92165">
        <ele>866</ele>
        <time>2023-05-08T06:55:58Z</time>
      </trkpt>
      <trkpt lat="47.87681" lon="6.92176">
        <ele>865</ele>
        <time>2023-05-08T06:56:06Z</time>
      </trkpt>
      <trkpt lat="47.87693" lon="6.9221">
        <ele>865</ele>
        <time>2023-05-08T06:56:30Z</time>
      </trkpt>
      <trkpt lat="47.87705" lon="6.92254">
        <ele>868</ele>
        <time>2023-05-08T06:57:02Z</time>
      </trkpt>
      <trkpt lat="47.8771" lon="6.92274">
        <ele>870</ele>
        <time>2023-05-08T06:57:17Z</time>
      </trkpt>
      <trkpt lat="47.8771" lon="6.92282">
        <ele>871</ele>
        <time>2023-05-08T06:57:24Z</time>
      </trkpt>
      <trkpt lat="47.87713" lon="6.92293">
        <ele>872</ele>
        <time>2023-05-08T06:57:32Z</time>
      </trkpt>
      <trkpt lat="47.87714" lon="6.92299">
        <ele>873</ele>
        <time>2023-05-08T06:57:38Z</time>
      </trkpt>
      <trkpt lat="47.8772" lon="6.92348">
        <ele>877</ele>
        <time>2023-05-08T06:58:14Z</time>
      </trkpt>
      <trkpt lat="47.87721" lon="6.92391">
        <ele>881</ele>
        <time>2023-05-08T06:58:44Z</time>
      </trkpt>
      <trkpt lat="47.87726" lon="6.92442">
        <ele>886</ele>
        <time>2023-05-08T06:59:19Z</time>
      </trkpt>
      <trkpt lat="47.87728" lon="6.92448">
        <ele>886</ele>
        <time>2023-05-08T06:59:24Z</time>
      </trkpt>
      <trkpt lat="47.87728" lon="6.92463">
        <ele>887</ele>
        <time>2023-05-08T06:59:34Z</time>
      </trkpt>
      <trkpt lat="47.8773" lon="6.9247">
        <ele>888</ele>
        <time>2023-05-08T06:59:40Z</time>
      </trkpt>
      <trkpt lat="47.87728" lon="6.92504">
        <ele>891</ele>
        <time>2023-05-08T07:00:04Z</time>
      </trkpt>
      <trkpt lat="47.87721" lon="6.92539">
        <ele>894</ele>
        <time>2023-05-08T07:00:29Z</time>
      </trkpt>
      <trkpt lat="47.87718" lon="6.92545">
        <ele>895</ele>
        <time>2023-05-08T07:00:34Z</time>
      </trkpt>
      <trkpt lat="47.87708" lon="6.92554">
        <ele>896</ele>
        <time>2023-05-08T07:00:44Z</time>
      </trkpt>
      <trkpt lat="47.87703" lon="6.92554">
        <ele>897</ele>
        <time>2023-05-08T07:00:49Z</time>
      </trkpt>
      <trkpt lat="47.87695" lon="6.92547">
        <ele>898</ele>
        <time>2023-05-08T07:00:58Z</time>
      </trkpt>
      <trkpt lat="47.87679" lon="6.92515">
        <ele>902</ele>
        <time>2023-05-08T07:01:26Z</time>
      </trkpt>
      <trkpt lat="47.87676" lon="6.92509">
        <ele>902</ele>
        <time>2023-05-08T07:01:31Z</time>
      </trkpt>
      <trkpt lat="47.87664" lon="6.92489">
        <ele>904</ele>
        <time>2023-05-08T07:01:51Z</time>
      </trkpt>
      <trkpt lat="47.87641" lon="6.92469">
        <ele>907</ele>
        <time>2023-05-08T07:02:20Z</time>
      </trkpt>
      <trkpt lat="47.87636" lon="6.92461">
        <ele>908</ele>
        <time>2023-05-08T07:02:29Z</time>
      </trkpt>
      <trkpt lat="47.87609" lon="6.92431">
        <ele>912</ele>
        <time>2023-05-08T07:03:02Z</time>
      </trkpt>
      <trkpt lat="47.87604" lon="6.92427">
        <ele>913</ele>
        <time>2023-05-08T07:03:07Z</time>
      </trkpt>
      <trkpt lat="47.87601" lon="6.92423">
        <ele>913</ele>
        <time>2023-05-08T07:03:11Z</time>
      </trkpt>
      <trkpt lat="47.87593" lon="6.92417">
        <ele>914</ele>
        <time>2023-05-08T07:03:20Z</time>
      </trkpt>
      <trkpt lat="47.87572" lon="6.9241">
        <ele>917</ele>
        <time>2023-05-08T07:03:42Z</time>
      </trkpt>
      <trkpt lat="47.87567" lon="6.92409">
        <ele>918</ele>
        <time>2023-05-08T07:03:47Z</time>
      </trkpt>
      <trkpt lat="47.87549" lon="6.92401">
        <ele>919</ele>
        <time>2023-05-08T07:04:06Z</time>
      </trkpt>
      <trkpt lat="47.87517" lon="6.92376">
        <ele>922</ele>
        <time>2023-05-08T07:04:40Z</time>
      </trkpt>
      <trkpt lat="47.87488" lon="6.9235">
        <ele>923</ele>
        <time>2023-05-08T07:05:11Z</time>
      </trkpt>
      <trkpt lat="47.87457" lon="6.92324">
        <ele>923</ele>
        <time>2023-05-08T07:05:44Z</time>
      </trkpt>
      <trkpt lat="47.87424" lon="6.92298">
        <ele>924</ele>
        <time>2023-05-08T07:06:18Z</time>
      </trkpt>
      <trkpt lat="47.87396" lon="6.92265">
        <ele>924</ele>
        <time>2023-05-08T07:06:50Z</time>
      </trkpt>
      <trkpt lat="47.87374" lon="6.92232">
        <ele>924</ele>
        <time>2023-05-08T07:07:18Z</time>
      </trkpt>
      <trkpt lat="47.87353" lon="6.9219">
        <ele>925</ele>
        <time>2023-05-08T07:07:49Z</time>
      </trkpt>
      <trkpt lat="47.87326" lon="6.92155">
        <ele>925</ele>
        <time>2023-05-08T07:08:20Z</time>
      </trkpt>
      <trkpt lat="47.87306" lon="6.92125">
        <ele>926</ele>
        <time>2023-05-08T07:08:45Z</time>
      </trkpt>
      <trkpt lat="47.87301" lon="6.92122">
        <ele>926</ele>
        <time>2023-05-08T07:08:50Z</time>
      </trkpt>
      <trkpt lat="47.87298" lon="6.92117">
        <ele>926</ele>
        <time>2023-05-08T07:08:54Z</time>
      </trkpt>
      <trkpt lat="47.87294" lon="6.92113">
        <ele>926</ele>
        <time>2023-05-08T07:08:58Z</time>
      </trkpt>
      <trkpt lat="47.87291" lon="6.92108">
        <ele>926</ele>
        <time>2023-05-08T07:09:03Z</time>
      </trkpt>
      <trkpt lat="47.87287" lon="6.92105">
        <ele>927</ele>
        <time>2023-05-08T07:09:06Z</time>
      </trkpt>
      <trkpt lat="47.87284" lon="6.92098">
        <ele>927</ele>
        <time>2023-05-08T07:09:10Z</time>
      </trkpt>
      <trkpt lat="47.8728" lon="6.92095">
        <ele>927</ele>
        <time>2023-05-08T07:09:14Z</time>
      </trkpt>
      <trkpt lat="47.87276" lon="6.92091">
        <ele>927</ele>
        <time>2023-05-08T07:09:18Z</time>
      </trkpt>
      <trkpt lat="47.8727" lon="6.92081">
        <ele>927</ele>
        <time>2023-05-08T07:09:26Z</time>
      </trkpt>
      <trkpt lat="47.87262" lon="6.92073">
        <ele>928</ele>
        <time>2023-05-08T07:09:34Z</time>
      </trkpt>
      <trkpt lat="47.87245" lon="6.92063">
        <ele>928</ele>
        <time>2023-05-08T07:09:50Z</time>
      </trkpt>
      <trkpt lat="47.87241" lon="6.92058">
        <ele>927</ele>
        <time>2023-05-08T07:09:54Z</time>
      </trkpt>
      <trkpt lat="47.87237" lon="6.92055">
        <ele>928</ele>
        <time>2023-05-08T07:09:58Z</time>
      </trkpt>
      <trkpt lat="47.87198" lon="6.92038">
        <ele>929</ele>
        <time>2023-05-08T07:10:32Z</time>
      </trkpt>
      <trkpt lat="47.87184" lon="6.92023">
        <ele>930</ele>
        <time>2023-05-08T07:10:48Z</time>
      </trkpt>
      <trkpt lat="47.8718" lon="6.92021">
        <ele>930</ele>
        <time>2023-05-08T07:10:52Z</time>
      </trkpt>
      <trkpt lat="47.8717" lon="6.92017">
        <ele>931</ele>
        <time>2023-05-08T07:11:01Z</time>
      </trkpt>
      <trkpt lat="47.87139" lon="6.92034">
        <ele>934</ele>
        <time>2023-05-08T07:11:31Z</time>
      </trkpt>
      <trkpt lat="47.87111" lon="6.92057">
        <ele>937</ele>
        <time>2023-05-08T07:12:02Z</time>
      </trkpt>
      <trkpt lat="47.87091" lon="6.92077">
        <ele>939</ele>
        <time>2023-05-08T07:12:28Z</time>
      </trkpt>
      <trkpt lat="47.87085" lon="6.92084">
        <ele>940</ele>
        <time>2023-05-08T07:12:36Z</time>
      </trkpt>
      <trkpt lat="47.87081" lon="6.92088">
        <ele>940</ele>
        <time>2023-05-08T07:12:41Z</time>
      </trkpt>
      <trkpt lat="47.87059" lon="6.92124">
        <ele>943</ele>
        <time>2023-05-08T07:13:15Z</time>
      </trkpt>
      <trkpt lat="47.8704" lon="6.92161">
        <ele>945</ele>
        <time>2023-05-08T07:13:46Z</time>
      </trkpt>
      <trkpt lat="47.87023" lon="6.92202">
        <ele>948</ele>
        <time>2023-05-08T07:14:18Z</time>
      </trkpt>
      <trkpt lat="47.87011" lon="6.92232">
        <ele>949</ele>
        <time>2023-05-08T07:14:40Z</time>
      </trkpt>
      <trkpt lat="47.8701" lon="6.92239">
        <ele>950</ele>
        <time>2023-05-08T07:14:44Z</time>
      </trkpt>
      <trkpt lat="47.87006" lon="6.92253">
        <ele>950</ele>
        <time>2023-05-08T07:14:53Z</time>
      </trkpt>
      <trkpt lat="47.87003" lon="6.92257">
        <ele>950</ele>
        <time>2023-05-08T07:14:58Z</time>
      </trkpt>
      <trkpt lat="47.87" lon="6.92262">
        <ele>951</ele>
        <time>2023-05-08T07:15:21Z</time>
      </trkpt>
      <trkpt lat="47.87002" lon="6.92268">
        <ele>950</ele>
        <time>2023-05-08T07:15:25Z</time>
      </trkpt>
      <trkpt lat="47.87003" lon="6.92275">
        <ele>950</ele>
        <time>2023-05-08T07:15:30Z</time>
      </trkpt>
      <trkpt lat="47.87001" lon="6.92296">
        <ele>949</ele>
        <time>2023-05-08T07:15:42Z</time>
      </trkpt>
      <trkpt lat="47.87001" lon="6.92303">
        <ele>949</ele>
        <time>2023-05-08T07:15:46Z</time>
      </trkpt>
      <trkpt lat="47.86998" lon="6.9231">
        <ele>949</ele>
        <time>2023-05-08T07:15:51Z</time>
      </trkpt>
      <trkpt lat="47.86999" lon="6.92317">
        <ele>949</ele>
        <time>2023-05-08T07:15:55Z</time>
      </trkpt>
      <trkpt lat="47.86994" lon="6.92351">
        <ele>955</ele>
        <time>2023-05-08T07:16:28Z</time>
      </trkpt>
      <trkpt lat="47.86992" lon="6.9237">
        <ele>957</ele>
        <time>2023-05-08T07:16:45Z</time>
      </trkpt>
      <trkpt lat="47.8699" lon="6.92376">
        <ele>958</ele>
        <time>2023-05-08T07:16:50Z</time>
      </trkpt>
      <trkpt lat="47.86991" lon="6.92383">
        <ele>958</ele>
        <time>2023-05-08T07:16:56Z</time>
      </trkpt>
      <trkpt lat="47.86989" lon="6.92389">
        <ele>958</ele>
        <time>2023-05-08T07:17:08Z</time>
      </trkpt>
      <trkpt lat="47.86983" lon="6.92388">
        <ele>958</ele>
        <time>2023-05-08T07:17:20Z</time>
      </trkpt>
      <trkpt lat="47.86982" lon="6.92383">
        <ele>957</ele>
        <time>2023-05-08T07:18:15Z</time>
      </trkpt>
      <trkpt lat="47.86986" lon="6.9238">
        <ele>958</ele>
        <time>2023-05-08T07:18:20Z</time>
      </trkpt>
      <trkpt lat="47.86989" lon="6.92375">
        <ele>958</ele>
        <time>2023-05-08T07:18:25Z</time>
      </trkpt>
      <trkpt lat="47.86991" lon="6.92366">
        <ele>957</ele>
        <time>2023-05-08T07:18:34Z</time>
      </trkpt>
      <trkpt lat="47.86994" lon="6.92328">
        <ele>951</ele>
        <time>2023-05-08T07:19:01Z</time>
      </trkpt>
      <trkpt lat="47.86995" lon="6.92315">
        <ele>949</ele>
        <time>2023-05-08T07:19:09Z</time>
      </trkpt>
      <trkpt lat="47.86994" lon="6.92309">
        <ele>948</ele>
        <time>2023-05-08T07:19:13Z</time>
      </trkpt>
      <trkpt lat="47.86994" lon="6.92302">
        <ele>947</ele>
        <time>2023-05-08T07:19:16Z</time>
      </trkpt>
      <trkpt lat="47.86997" lon="6.92276">
        <ele>947</ele>
        <time>2023-05-08T07:19:30Z</time>
      </trkpt>
      <trkpt lat="47.86998" lon="6.92262">
        <ele>948</ele>
        <time>2023-05-08T07:19:38Z</time>
      </trkpt>
      <trkpt lat="47.86996" lon="6.92251">
        <ele>948</ele>
        <time>2023-05-08T07:19:46Z</time>
      </trkpt>
      <trkpt lat="47.8699" lon="6.92245">
        <ele>950</ele>
        <time>2023-05-08T07:20:02Z</time>
      </trkpt>
      <trkpt lat="47.86986" lon="6.92241">
        <ele>951</ele>
        <time>2023-05-08T07:20:06Z</time>
      </trkpt>
      <trkpt lat="47.86985" lon="6.92234">
        <ele>951</ele>
        <time>2023-05-08T07:20:13Z</time>
      </trkpt>
      <trkpt lat="47.86989" lon="6.92232">
        <ele>952</ele>
        <time>2023-05-08T07:20:19Z</time>
      </trkpt>
      <trkpt lat="47.86993" lon="6.92227">
        <ele>953</ele>
        <time>2023-05-08T07:20:24Z</time>
      </trkpt>
      <trkpt lat="47.8699" lon="6.92224">
        <ele>955</ele>
        <time>2023-05-08T07:20:40Z</time>
      </trkpt>
      <trkpt lat="47.8698" lon="6.92224">
        <ele>955</ele>
        <time>2023-05-08T07:20:50Z</time>
      </trkpt>
      <trkpt lat="47.86984" lon="6.92219">
        <ele>957</ele>
        <time>2023-05-08T07:21:02Z</time>
      </trkpt>
      <trkpt lat="47.86979" lon="6.9221">
        <ele>959</ele>
        <time>2023-05-08T07:21:16Z</time>
      </trkpt>
      <trkpt lat="47.86975" lon="6.92203">
        <ele>961</ele>
        <time>2023-05-08T07:21:24Z</time>
      </trkpt>
      <trkpt lat="47.8697" lon="6.92177">
        <ele>963</ele>
        <time>2023-05-08T07:21:40Z</time>
      </trkpt>
      <trkpt lat="47.86967" lon="6.92165">
        <ele>964</ele>
        <time>2023-05-08T07:21:49Z</time>
      </trkpt>
      <trkpt lat="47.86967" lon="6.92156">
        <ele>964</ele>
        <time>2023-05-08T07:21:53Z</time>
      </trkpt>
      <trkpt lat="47.86966" lon="6.9215">
        <ele>964</ele>
        <time>2023-05-08T07:21:57Z</time>
      </trkpt>
      <trkpt lat="47.86965" lon="6.9213">
        <ele>966</ele>
        <time>2023-05-08T07:22:09Z</time>
      </trkpt>
      <trkpt lat="47.86962" lon="6.92121">
        <ele>966</ele>
        <time>2023-05-08T07:22:16Z</time>
      </trkpt>
      <trkpt lat="47.8696" lon="6.92109">
        <ele>968</ele>
        <time>2023-05-08T07:22:24Z</time>
      </trkpt>
      <trkpt lat="47.86958" lon="6.92095">
        <ele>969</ele>
        <time>2023-05-08T07:22:35Z</time>
      </trkpt>
      <trkpt lat="47.86958" lon="6.92088">
        <ele>970</ele>
        <time>2023-05-08T07:22:39Z</time>
      </trkpt>
      <trkpt lat="47.8695" lon="6.92045">
        <ele>975</ele>
        <time>2023-05-08T07:23:15Z</time>
      </trkpt>
      <trkpt lat="47.86949" lon="6.92038">
        <ele>975</ele>
        <time>2023-05-08T07:23:20Z</time>
      </trkpt>
      <trkpt lat="47.86957" lon="6.92045">
        <ele>978</ele>
        <time>2023-05-08T07:23:33Z</time>
      </trkpt>
      <trkpt lat="47.86961" lon="6.9205">
        <ele>978</ele>
        <time>2023-05-08T07:23:36Z</time>
      </trkpt>
      <trkpt lat="47.86964" lon="6.92047">
        <ele>981</ele>
        <time>2023-05-08T07:23:52Z</time>
      </trkpt>
      <trkpt lat="47.86962" lon="6.92037">
        <ele>983</ele>
        <time>2023-05-08T07:24:00Z</time>
      </trkpt>
      <trkpt lat="47.8696" lon="6.91996">
        <ele>987</ele>
        <time>2023-05-08T07:24:29Z</time>
      </trkpt>
      <trkpt lat="47.86958" lon="6.9199">
        <ele>987</ele>
        <time>2023-05-08T07:24:33Z</time>
      </trkpt>
      <trkpt lat="47.86956" lon="6.91952">
        <ele>990</ele>
        <time>2023-05-08T07:24:58Z</time>
      </trkpt>
      <trkpt lat="47.8696" lon="6.91929">
        <ele>992</ele>
        <time>2023-05-08T07:25:13Z</time>
      </trkpt>
      <trkpt lat="47.86959" lon="6.91923">
        <ele>993</ele>
        <time>2023-05-08T07:25:18Z</time>
      </trkpt>
      <trkpt lat="47.86959" lon="6.91915">
        <ele>993</ele>
        <time>2023-05-08T07:25:22Z</time>
      </trkpt>
      <trkpt lat="47.86961" lon="6.91903">
        <ele>994</ele>
        <time>2023-05-08T07:25:32Z</time>
      </trkpt>
      <trkpt lat="47.86959" lon="6.91897">
        <ele>996</ele>
        <time>2023-05-08T07:25:39Z</time>
      </trkpt>
      <trkpt lat="47.86959" lon="6.91888">
        <ele>997</ele>
        <time>2023-05-08T07:25:46Z</time>
      </trkpt>
      <trkpt lat="47.86961" lon="6.91881">
        <ele>997</ele>
        <time>2023-05-08T07:25:50Z</time>
      </trkpt>
      <trkpt lat="47.86956" lon="6.91845">
        <ele>999</ele>
        <time>2023-05-08T07:26:17Z</time>
      </trkpt>
      <trkpt lat="47.8696" lon="6.9184">
        <ele>999</ele>
        <time>2023-05-08T07:26:20Z</time>
      </trkpt>
      <trkpt lat="47.86962" lon="6.9183">
        <ele>1000</ele>
        <time>2023-05-08T07:26:27Z</time>
      </trkpt>
      <trkpt lat="47.86966" lon="6.91807">
        <ele>1001</ele>
        <time>2023-05-08T07:26:41Z</time>
      </trkpt>
      <trkpt lat="47.86966" lon="6.91789">
        <ele>1003</ele>
        <time>2023-05-08T07:26:53Z</time>
      </trkpt>
      <trkpt lat="47.86966" lon="6.91782">
        <ele>1003</ele>
        <time>2023-05-08T07:26:56Z</time>
      </trkpt>
      <trkpt lat="47.86965" lon="6.91774">
        <ele>1003</ele>
        <time>2023-05-08T07:27:03Z</time>
      </trkpt>
      <trkpt lat="47.86964" lon="6.91766">
        <ele>1003</ele>
        <time>2023-05-08T07:27:07Z</time>
      </trkpt>
      <trkpt lat="47.86959" lon="6.91751">
        <ele>1005</ele>
        <time>2023-05-08T07:27:20Z</time>
      </trkpt>
      <trkpt lat="47.86959" lon="6.91743">
        <ele>1004</ele>
        <time>2023-05-08T07:27:25Z</time>
      </trkpt>
      <trkpt lat="47.86954" lon="6.91696">
        <ele>1009</ele>
        <time>2023-05-08T07:27:59Z</time>
      </trkpt>
      <trkpt lat="47.86953" lon="6.91686">
        <ele>1010</ele>
        <time>2023-05-08T07:28:06Z</time>
      </trkpt>
      <trkpt lat="47.86949" lon="6.9168">
        <ele>1010</ele>
        <time>2023-05-08T07:28:12Z</time>
      </trkpt>
      <trkpt lat="47.86951" lon="6.91678">
        <ele>1010</ele>
        <time>2023-05-08T07:29:19Z</time>
      </trkpt>
      <trkpt lat="47.86958" lon="6.91674">
        <ele>1010</ele>
        <time>2023-05-08T07:29:30Z</time>
      </trkpt>
      <trkpt lat="47.86962" lon="6.9167">
        <ele>1010</ele>
        <time>2023-05-08T07:29:34Z</time>
      </trkpt>
      <trkpt lat="47.86965" lon="6.91657">
        <ele>1010</ele>
        <time>2023-05-08T07:29:43Z</time>
      </trkpt>
      <trkpt lat="47.86966" lon="6.9164">
        <ele>1009</ele>
        <time>2023-05-08T07:29:53Z</time>
      </trkpt>
      <trkpt lat="47.86964" lon="6.91632">
        <ele>1009</ele>
        <time>2023-05-08T07:29:56Z</time>
      </trkpt>
      <trkpt lat="47.86962" lon="6.9162">
        <ele>1010</ele>
        <time>2023-05-08T07:30:03Z</time>
      </trkpt>
      <trkpt lat="47.86962" lon="6.91612">
        <ele>1010</ele>
        <time>2023-05-08T07:30:07Z</time>
      </trkpt>
      <trkpt lat="47.86963" lon="6.91605">
        <ele>1010</ele>
        <time>2023-05-08T07:30:10Z</time>
      </trkpt>
      <trkpt lat="47.86962" lon="6.91589">
        <ele>1011</ele>
        <time>2023-05-08T07:30:20Z</time>
      </trkpt>
      <trkpt lat="47.86965" lon="6.91584">
        <ele>1011</ele>
        <time>2023-05-08T07:30:24Z</time>
      </trkpt>
      <trkpt lat="47.86967" lon="6.91567">
        <ele>1011</ele>
        <time>2023-05-08T07:30:35Z</time>
      </trkpt>
      <trkpt lat="47.86968" lon="6.91548">
        <ele>1012</ele>
        <time>2023-05-08T07:30:47Z</time>
      </trkpt>
      <trkpt lat="47.86971" lon="6.91533">
        <ele>1013</ele>
        <time>2023-05-08T07:30:57Z</time>
      </trkpt>
      <trkpt lat="47.86971" lon="6.91526">
        <ele>1014</ele>
        <time>2023-05-08T07:31:01Z</time>
      </trkpt>
      <trkpt lat="47.86973" lon="6.91496">
        <ele>1013</ele>
        <time>2023-05-08T07:31:15Z</time>
      </trkpt>
      <trkpt lat="47.86974" lon="6.9149">
        <ele>1013</ele>
        <time>2023-05-08T07:31:20Z</time>
      </trkpt>
      <trkpt lat="47.86972" lon="6.91479">
        <ele>1014</ele>
        <time>2023-05-08T07:31:31Z</time>
      </trkpt>
      <trkpt lat="47.86971" lon="6.91471">
        <ele>1015</ele>
        <time>2023-05-08T07:31:37Z</time>
      </trkpt>
      <trkpt lat="47.86971" lon="6.91465">
        <ele>1015</ele>
        <time>2023-05-08T07:31:41Z</time>
      </trkpt>
      <trkpt lat="47.86968" lon="6.9146">
        <ele>1018</ele>
        <time>2023-05-08T07:31:55Z</time>
      </trkpt>
      <trkpt lat="47.86962" lon="6.91456">
        <ele>1019</ele>
        <time>2023-05-08T07:32:07Z</time>
      </trkpt>
      <trkpt lat="47.86959" lon="6.91453">
        <ele>1019</ele>
        <time>2023-05-08T07:32:11Z</time>
      </trkpt>
      <trkpt lat="47.8695" lon="6.91444">
        <ele>1022</ele>
        <time>2023-05-08T07:32:24Z</time>
      </trkpt>
      <trkpt lat="47.86946" lon="6.91429">
        <ele>1024</ele>
        <time>2023-05-08T07:32:38Z</time>
      </trkpt>
      <trkpt lat="47.86941" lon="6.91425">
        <ele>1025</ele>
        <time>2023-05-08T07:32:42Z</time>
      </trkpt>
      <trkpt lat="47.86937" lon="6.91424">
        <ele>1025</ele>
        <time>2023-05-08T07:32:46Z</time>
      </trkpt>
      <trkpt lat="47.86917" lon="6.91409">
        <ele>1026</ele>
        <time>2023-05-08T07:33:05Z</time>
      </trkpt>
      <trkpt lat="47.86914" lon="6.91404">
        <ele>1027</ele>
        <time>2023-05-08T07:33:10Z</time>
      </trkpt>
      <trkpt lat="47.86912" lon="6.91397">
        <ele>1027</ele>
        <time>2023-05-08T07:33:14Z</time>
      </trkpt>
      <trkpt lat="47.86905" lon="6.91391">
        <ele>1028</ele>
        <time>2023-05-08T07:33:23Z</time>
      </trkpt>
      <trkpt lat="47.86902" lon="6.91387">
        <ele>1028</ele>
        <time>2023-05-08T07:33:27Z</time>
      </trkpt>
      <trkpt lat="47.86897" lon="6.91378">
        <ele>1030</ele>
        <time>2023-05-08T07:33:37Z</time>
      </trkpt>
      <trkpt lat="47.86889" lon="6.91376">
        <ele>1030</ele>
        <time>2023-05-08T07:33:46Z</time>
      </trkpt>
      <trkpt lat="47.86885" lon="6.91369">
        <ele>1031</ele>
        <time>2023-05-08T07:33:52Z</time>
      </trkpt>
      <trkpt lat="47.86881" lon="6.91366">
        <ele>1031</ele>
        <time>2023-05-08T07:33:56Z</time>
      </trkpt>
      <trkpt lat="47.86878" lon="6.91361">
        <ele>1032</ele>
        <time>2023-05-08T07:34:00Z</time>
      </trkpt>
      <trkpt lat="47.86876" lon="6.91356">
        <ele>1032</ele>
        <time>2023-05-08T07:34:04Z</time>
      </trkpt>
      <trkpt lat="47.86873" lon="6.9135">
        <ele>1032</ele>
        <time>2023-05-08T07:34:08Z</time>
      </trkpt>
      <trkpt lat="47.86869" lon="6.9134">
        <ele>1033</ele>
        <time>2023-05-08T07:34:15Z</time>
      </trkpt>
      <trkpt lat="47.86869" lon="6.91324">
        <ele>1034</ele>
        <time>2023-05-08T07:34:25Z</time>
      </trkpt>
      <trkpt lat="47.86865" lon="6.91319">
        <ele>1034</ele>
        <time>2023-05-08T07:34:29Z</time>
      </trkpt>
      <trkpt lat="47.86864" lon="6.91313">
        <ele>1035</ele>
        <time>2023-05-08T07:34:33Z</time>
      </trkpt>
      <trkpt lat="47.8686" lon="6.91309">
        <ele>1035</ele>
        <time>2023-05-08T07:34:36Z</time>
      </trkpt>
      <trkpt lat="47.86855" lon="6.91307">
        <ele>1035</ele>
        <time>2023-05-08T07:34:40Z</time>
      </trkpt>
      <trkpt lat="47.86853" lon="6.913">
        <ele>1036</ele>
        <time>2023-05-08T07:34:45Z</time>
      </trkpt>
      <trkpt lat="47.86848" lon="6.91295">
        <ele>1037</ele>
        <time>2023-05-08T07:34:52Z</time>
      </trkpt>
      <trkpt lat="47.86847" lon="6.91287">
        <ele>1038</ele>
        <time>2023-05-08T07:34:58Z</time>
      </trkpt>
      <trkpt lat="47.86844" lon="6.91281">
        <ele>1038</ele>
        <time>2023-05-08T07:35:03Z</time>
      </trkpt>
      <trkpt lat="47.86842" lon="6.91274">
        <ele>1038</ele>
        <time>2023-05-08T07:35:07Z</time>
      </trkpt>
      <trkpt lat="47.86845" lon="6.91268">
        <ele>1038</ele>
        <time>2023-05-08T07:35:11Z</time>
      </trkpt>
      <trkpt lat="47.86844" lon="6.91259">
        <ele>1038</ele>
        <time>2023-05-08T07:35:15Z</time>
      </trkpt>
      <trkpt lat="47.86844" lon="6.91245">
        <ele>1037</ele>
        <time>2023-05-08T07:35:24Z</time>
      </trkpt>
      <trkpt lat="47.86845" lon="6.91236">
        <ele>1038</ele>
        <time>2023-05-08T07:35:31Z</time>
      </trkpt>
      <trkpt lat="47.86846" lon="6.91225">
        <ele>1038</ele>
        <time>2023-05-08T07:35:40Z</time>
      </trkpt>
      <trkpt lat="47.86844" lon="6.91217">
        <ele>1039</ele>
        <time>2023-05-08T07:35:45Z</time>
      </trkpt>
      <trkpt lat="47.86844" lon="6.91196">
        <ele>1038</ele>
        <time>2023-05-08T07:35:57Z</time>
      </trkpt>
      <trkpt lat="47.86843" lon="6.91189">
        <ele>1039</ele>
        <time>2023-05-08T07:36:01Z</time>
      </trkpt>
      <trkpt lat="47.86843" lon="6.91182">
        <ele>1039</ele>
        <time>2023-05-08T07:36:05Z</time>
      </trkpt>
      <trkpt lat="47.86841" lon="6.91176">
        <ele>1039</ele>
        <time>2023-05-08T07:36:09Z</time>
      </trkpt>
      <trkpt lat="47.8684" lon="6.91168">
        <ele>1039</ele>
        <time>2023-05-08T07:36:14Z</time>
      </trkpt>
      <trkpt lat="47.86834" lon="6.91159">
        <ele>1040</ele>
        <time>2023-05-08T07:36:20Z</time>
      </trkpt>
      <trkpt lat="47.86831" lon="6.91155">
        <ele>1040</ele>
        <time>2023-05-08T07:36:24Z</time>
      </trkpt>
      <trkpt lat="47.8683" lon="6.91149">
        <ele>1040</ele>
        <time>2023-05-08T07:36:28Z</time>
      </trkpt>
      <trkpt lat="47.86827" lon="6.91136">
        <ele>1040</ele>
        <time>2023-05-08T07:36:36Z</time>
      </trkpt>
      <trkpt lat="47.86825" lon="6.91129">
        <ele>1042</ele>
        <time>2023-05-08T07:36:44Z</time>
      </trkpt>
      <trkpt lat="47.86824" lon="6.91122">
        <ele>1041</ele>
        <time>2023-05-08T07:36:49Z</time>
      </trkpt>
      <trkpt lat="47.86823" lon="6.91114">
        <ele>1041</ele>
        <time>2023-05-08T07:36:53Z</time>
      </trkpt>
      <trkpt lat="47.86821" lon="6.91108">
        <ele>1040</ele>
        <time>2023-05-08T07:36:58Z</time>
      </trkpt>
      <trkpt lat="47.86818" lon="6.91101">
        <ele>1042</ele>
        <time>2023-05-08T07:37:05Z</time>
      </trkpt>
      <trkpt lat="47.86809" lon="6.91085">
        <ele>1042</ele>
        <time>2023-05-08T07:37:16Z</time>
      </trkpt>
      <trkpt lat="47.86807" lon="6.91079">
        <ele>1042</ele>
        <time>2023-05-08T07:37:19Z</time>
      </trkpt>
      <trkpt lat="47.86804" lon="6.91074">
        <ele>1044</ele>
        <time>2023-05-08T07:37:28Z</time>
      </trkpt>
      <trkpt lat="47.86802" lon="6.91067">
        <ele>1044</ele>
        <time>2023-05-08T07:37:31Z</time>
      </trkpt>
      <trkpt lat="47.86798" lon="6.91064">
        <ele>1043</ele>
        <time>2023-05-08T07:37:35Z</time>
      </trkpt>
      <trkpt lat="47.86795" lon="6.91057">
        <ele>1043</ele>
        <time>2023-05-08T07:37:39Z</time>
      </trkpt>
      <trkpt lat="47.86789" lon="6.91048">
        <ele>1044</ele>
        <time>2023-05-08T07:37:47Z</time>
      </trkpt>
      <trkpt lat="47.86785" lon="6.91044">
        <ele>1044</ele>
        <time>2023-05-08T07:37:52Z</time>
      </trkpt>
      <trkpt lat="47.8678" lon="6.91044">
        <ele>1044</ele>
        <time>2023-05-08T07:37:57Z</time>
      </trkpt>
      <trkpt lat="47.86775" lon="6.91041">
        <ele>1045</ele>
        <time>2023-05-08T07:38:03Z</time>
      </trkpt>
      <trkpt lat="47.86767" lon="6.91037">
        <ele>1044</ele>
        <time>2023-05-08T07:38:12Z</time>
      </trkpt>
      <trkpt lat="47.86758" lon="6.91033">
        <ele>1045</ele>
        <time>2023-05-08T07:38:21Z</time>
      </trkpt>
      <trkpt lat="47.86753" lon="6.91029">
        <ele>1045</ele>
        <time>2023-05-08T07:38:26Z</time>
      </trkpt>
      <trkpt lat="47.86748" lon="6.91026">
        <ele>1046</ele>
        <time>2023-05-08T07:38:31Z</time>
      </trkpt>
      <trkpt lat="47.86744" lon="6.91022">
        <ele>1046</ele>
        <time>2023-05-08T07:38:35Z</time>
      </trkpt>
      <trkpt lat="47.86736" lon="6.91013">
        <ele>1045</ele>
        <time>2023-05-08T07:38:43Z</time>
      </trkpt>
      <trkpt lat="47.86729" lon="6.90999">
        <ele>1046</ele>
        <time>2023-05-08T07:38:53Z</time>
      </trkpt>
      <trkpt lat="47.86725" lon="6.90995">
        <ele>1045</ele>
        <time>2023-05-08T07:38:57Z</time>
      </trkpt>
      <trkpt lat="47.86719" lon="6.90983">
        <ele>1046</ele>
        <time>2023-05-08T07:39:06Z</time>
      </trkpt>
      <trkpt lat="47.86718" lon="6.90976">
        <ele>1047</ele>
        <time>2023-05-08T07:39:10Z</time>
      </trkpt>
      <trkpt lat="47.86716" lon="6.90969">
        <ele>1046</ele>
        <time>2023-05-08T07:39:14Z</time>
      </trkpt>
      <trkpt lat="47.86718" lon="6.90954">
        <ele>1046</ele>
        <time>2023-05-08T07:39:22Z</time>
      </trkpt>
      <trkpt lat="47.86717" lon="6.90945">
        <ele>1046</ele>
        <time>2023-05-08T07:39:24Z</time>
      </trkpt>
      <trkpt lat="47.86715" lon="6.90939">
        <ele>1046</ele>
        <time>2023-05-08T07:39:26Z</time>
      </trkpt>
      <trkpt lat="47.86712" lon="6.90933">
        <ele>1046</ele>
        <time>2023-05-08T07:39:30Z</time>
      </trkpt>
      <trkpt lat="47.86714" lon="6.90924">
        <ele>1046</ele>
        <time>2023-05-08T07:39:37Z</time>
      </trkpt>
      <trkpt lat="47.86711" lon="6.90915">
        <ele>1048</ele>
        <time>2023-05-08T07:39:47Z</time>
      </trkpt>
      <trkpt lat="47.86707" lon="6.9091">
        <ele>1048</ele>
        <time>2023-05-08T07:39:53Z</time>
      </trkpt>
      <trkpt lat="47.86702" lon="6.90907">
        <ele>1048</ele>
        <time>2023-05-08T07:39:57Z</time>
      </trkpt>
      <trkpt lat="47.86698" lon="6.90906">
        <ele>1047</ele>
        <time>2023-05-08T07:40:01Z</time>
      </trkpt>
      <trkpt lat="47.86693" lon="6.90907">
        <ele>1047</ele>
        <time>2023-05-08T07:40:03Z</time>
      </trkpt>
      <trkpt lat="47.86689" lon="6.90898">
        <ele>1047</ele>
        <time>2023-05-08T07:40:12Z</time>
      </trkpt>
      <trkpt lat="47.86686" lon="6.90894">
        <ele>1047</ele>
        <time>2023-05-08T07:40:16Z</time>
      </trkpt>
      <trkpt lat="47.86679" lon="6.90892">
        <ele>1047</ele>
        <time>2023-05-08T07:40:23Z</time>
      </trkpt>
      <trkpt lat="47.86671" lon="6.90899">
        <ele>1046</ele>
        <time>2023-05-08T07:40:30Z</time>
      </trkpt>
      <trkpt lat="47.86658" lon="6.90902">
        <ele>1047</ele>
        <time>2023-05-08T07:40:42Z</time>
      </trkpt>
      <trkpt lat="47.86654" lon="6.90904">
        <ele>1047</ele>
        <time>2023-05-08T07:40:47Z</time>
      </trkpt>
      <trkpt lat="47.86641" lon="6.90911">
        <ele>1046</ele>
        <time>2023-05-08T07:40:58Z</time>
      </trkpt>
      <trkpt lat="47.86632" lon="6.90916">
        <ele>1047</ele>
        <time>2023-05-08T07:41:07Z</time>
      </trkpt>
      <trkpt lat="47.86627" lon="6.90916">
        <ele>1047</ele>
        <time>2023-05-08T07:41:11Z</time>
      </trkpt>
      <trkpt lat="47.86617" lon="6.90915">
        <ele>1046</ele>
        <time>2023-05-08T07:41:19Z</time>
      </trkpt>
      <trkpt lat="47.86612" lon="6.90912">
        <ele>1046</ele>
        <time>2023-05-08T07:41:23Z</time>
      </trkpt>
      <trkpt lat="47.86608" lon="6.90912">
        <ele>1047</ele>
        <time>2023-05-08T07:41:27Z</time>
      </trkpt>
      <trkpt lat="47.86604" lon="6.90913">
        <ele>1047</ele>
        <time>2023-05-08T07:41:31Z</time>
      </trkpt>
      <trkpt lat="47.86599" lon="6.90916">
        <ele>1047</ele>
        <time>2023-05-08T07:41:35Z</time>
      </trkpt>
      <trkpt lat="47.86592" lon="6.90917">
        <ele>1048</ele>
        <time>2023-05-08T07:41:44Z</time>
      </trkpt>
      <trkpt lat="47.86588" lon="6.90922">
        <ele>1048</ele>
        <time>2023-05-08T07:41:48Z</time>
      </trkpt>
      <trkpt lat="47.86579" lon="6.90926">
        <ele>1046</ele>
        <time>2023-05-08T07:42:00Z</time>
      </trkpt>
      <trkpt lat="47.8657" lon="6.90937">
        <ele>1047</ele>
        <time>2023-05-08T07:42:12Z</time>
      </trkpt>
      <trkpt lat="47.86565" lon="6.9094">
        <ele>1046</ele>
        <time>2023-05-08T07:42:16Z</time>
      </trkpt>
      <trkpt lat="47.8656" lon="6.90942">
        <ele>1046</ele>
        <time>2023-05-08T07:42:20Z</time>
      </trkpt>
      <trkpt lat="47.86555" lon="6.90943">
        <ele>1046</ele>
        <time>2023-05-08T07:42:25Z</time>
      </trkpt>
      <trkpt lat="47.8655" lon="6.9094">
        <ele>1046</ele>
        <time>2023-05-08T07:42:31Z</time>
      </trkpt>
      <trkpt lat="47.86545" lon="6.90938">
        <ele>1046</ele>
        <time>2023-05-08T07:42:44Z</time>
      </trkpt>
      <trkpt lat="47.86539" lon="6.90944">
        <ele>1045</ele>
        <time>2023-05-08T07:43:43Z</time>
      </trkpt>
      <trkpt lat="47.86535" lon="6.9094">
        <ele>1044</ele>
        <time>2023-05-08T07:44:33Z</time>
      </trkpt>
      <trkpt lat="47.86527" lon="6.90939">
        <ele>1040</ele>
        <time>2023-05-08T07:44:41Z</time>
      </trkpt>
      <trkpt lat="47.86523" lon="6.90935">
        <ele>1040</ele>
        <time>2023-05-08T07:44:44Z</time>
      </trkpt>
      <trkpt lat="47.86514" lon="6.9092">
        <ele>1039</ele>
        <time>2023-05-08T07:44:54Z</time>
      </trkpt>
      <trkpt lat="47.8651" lon="6.90912">
        <ele>1040</ele>
        <time>2023-05-08T07:44:59Z</time>
      </trkpt>
      <trkpt lat="47.86507" lon="6.90907">
        <ele>1040</ele>
        <time>2023-05-08T07:45:03Z</time>
      </trkpt>
      <trkpt lat="47.86503" lon="6.90903">
        <ele>1040</ele>
        <time>2023-05-08T07:45:07Z</time>
      </trkpt>
      <trkpt lat="47.86498" lon="6.909">
        <ele>1039</ele>
        <time>2023-05-08T07:45:11Z</time>
      </trkpt>
      <trkpt lat="47.86477" lon="6.90878">
        <ele>1039</ele>
        <time>2023-05-08T07:45:31Z</time>
      </trkpt>
      <trkpt lat="47.86473" lon="6.90874">
        <ele>1040</ele>
        <time>2023-05-08T07:45:35Z</time>
      </trkpt>
      <trkpt lat="47.86468" lon="6.90873">
        <ele>1039</ele>
        <time>2023-05-08T07:45:39Z</time>
      </trkpt>
      <trkpt lat="47.86463" lon="6.90873">
        <ele>1039</ele>
        <time>2023-05-08T07:45:43Z</time>
      </trkpt>
      <trkpt lat="47.86454" lon="6.90878">
        <ele>1040</ele>
        <time>2023-05-08T07:45:52Z</time>
      </trkpt>
      <trkpt lat="47.8645" lon="6.90884">
        <ele>1040</ele>
        <time>2023-05-08T07:45:56Z</time>
      </trkpt>
      <trkpt lat="47.86447" lon="6.90888">
        <ele>1040</ele>
        <time>2023-05-08T07:46:00Z</time>
      </trkpt>
      <trkpt lat="47.86427" lon="6.90906">
        <ele>1040</ele>
        <time>2023-05-08T07:46:20Z</time>
      </trkpt>
      <trkpt lat="47.86414" lon="6.90927">
        <ele>1040</ele>
        <time>2023-05-08T07:46:36Z</time>
      </trkpt>
      <trkpt lat="47.86383" lon="6.9096">
        <ele>1042</ele>
        <time>2023-05-08T07:47:07Z</time>
      </trkpt>
      <trkpt lat="47.86367" lon="6.90975">
        <ele>1043</ele>
        <time>2023-05-08T07:47:23Z</time>
      </trkpt>
      <trkpt lat="47.86353" lon="6.90984">
        <ele>1044</ele>
        <time>2023-05-08T07:47:36Z</time>
      </trkpt>
      <trkpt lat="47.86353" lon="6.9099">
        <ele>1045</ele>
        <time>2023-05-08T07:47:42Z</time>
      </trkpt>
      <trkpt lat="47.86355" lon="6.90999">
        <ele>1045</ele>
        <time>2023-05-08T07:47:49Z</time>
      </trkpt>
      <trkpt lat="47.86355" lon="6.91006">
        <ele>1046</ele>
        <time>2023-05-08T07:47:54Z</time>
      </trkpt>
      <trkpt lat="47.86345" lon="6.91029">
        <ele>1047</ele>
        <time>2023-05-08T07:48:14Z</time>
      </trkpt>
      <trkpt lat="47.86323" lon="6.91054">
        <ele>1049</ele>
        <time>2023-05-08T07:48:39Z</time>
      </trkpt>
      <trkpt lat="47.86288" lon="6.91059">
        <ele>1053</ele>
        <time>2023-05-08T07:49:09Z</time>
      </trkpt>
      <trkpt lat="47.8627" lon="6.91058">
        <ele>1056</ele>
        <time>2023-05-08T07:49:29Z</time>
      </trkpt>
      <trkpt lat="47.86251" lon="6.91047">
        <ele>1058</ele>
        <time>2023-05-08T07:49:50Z</time>
      </trkpt>
      <trkpt lat="47.86235" lon="6.91034">
        <ele>1061</ele>
        <time>2023-05-08T07:50:11Z</time>
      </trkpt>
      <trkpt lat="47.86231" lon="6.91033">
        <ele>1061</ele>
        <time>2023-05-08T07:50:16Z</time>
      </trkpt>
      <trkpt lat="47.86223" lon="6.9103">
        <ele>1062</ele>
        <time>2023-05-08T07:50:24Z</time>
      </trkpt>
      <trkpt lat="47.86218" lon="6.91029">
        <ele>1063</ele>
        <time>2023-05-08T07:50:28Z</time>
      </trkpt>
      <trkpt lat="47.8621" lon="6.9102">
        <ele>1066</ele>
        <time>2023-05-08T07:50:39Z</time>
      </trkpt>
      <trkpt lat="47.862" lon="6.9102">
        <ele>1067</ele>
        <time>2023-05-08T07:50:49Z</time>
      </trkpt>
      <trkpt lat="47.86194" lon="6.91018">
        <ele>1069</ele>
        <time>2023-05-08T07:50:58Z</time>
      </trkpt>
      <trkpt lat="47.86184" lon="6.91003">
        <ele>1072</ele>
        <time>2023-05-08T07:51:16Z</time>
      </trkpt>
      <trkpt lat="47.86179" lon="6.91001">
        <ele>1074</ele>
        <time>2023-05-08T07:51:22Z</time>
      </trkpt>
      <trkpt lat="47.86164" lon="6.91004">
        <ele>1077</ele>
        <time>2023-05-08T07:51:40Z</time>
      </trkpt>
      <trkpt lat="47.86151" lon="6.91001">
        <ele>1080</ele>
        <time>2023-05-08T07:51:56Z</time>
      </trkpt>
      <trkpt lat="47.86145" lon="6.91003">
        <ele>1081</ele>
        <time>2023-05-08T07:52:04Z</time>
      </trkpt>
      <trkpt lat="47.86115" lon="6.90994">
        <ele>1086</ele>
        <time>2023-05-08T07:52:40Z</time>
      </trkpt>
      <trkpt lat="47.86105" lon="6.90988">
        <ele>1087</ele>
        <time>2023-05-08T07:52:49Z</time>
      </trkpt>
      <trkpt lat="47.86101" lon="6.90987">
        <ele>1088</ele>
        <time>2023-05-08T07:52:53Z</time>
      </trkpt>
      <trkpt lat="47.86066" lon="6.90986">
        <ele>1092</ele>
        <time>2023-05-08T07:53:27Z</time>
      </trkpt>
      <trkpt lat="47.86055" lon="6.90992">
        <ele>1094</ele>
        <time>2023-05-08T07:53:39Z</time>
      </trkpt>
      <trkpt lat="47.86024" lon="6.90987">
        <ele>1097</ele>
        <time>2023-05-08T07:54:08Z</time>
      </trkpt>
      <trkpt lat="47.8602" lon="6.90984">
        <ele>1098</ele>
        <time>2023-05-08T07:54:13Z</time>
      </trkpt>
      <trkpt lat="47.86009" lon="6.90985">
        <ele>1101</ele>
        <time>2023-05-08T07:54:30Z</time>
      </trkpt>
      <trkpt lat="47.85984" lon="6.90977">
        <ele>1106</ele>
        <time>2023-05-08T07:55:06Z</time>
      </trkpt>
      <trkpt lat="47.85976" lon="6.90975">
        <ele>1108</ele>
        <time>2023-05-08T07:55:17Z</time>
      </trkpt>
      <trkpt lat="47.8597" lon="6.90976">
        <ele>1110</ele>
        <time>2023-05-08T07:55:29Z</time>
      </trkpt>
      <trkpt lat="47.85959" lon="6.90965">
        <ele>1112</ele>
        <time>2023-05-08T07:55:44Z</time>
      </trkpt>
      <trkpt lat="47.85955" lon="6.90962">
        <ele>1113</ele>
        <time>2023-05-08T07:55:52Z</time>
      </trkpt>
      <trkpt lat="47.85951" lon="6.90958">
        <ele>1114</ele>
        <time>2023-05-08T07:55:57Z</time>
      </trkpt>
      <trkpt lat="47.85932" lon="6.9095">
        <ele>1117</ele>
        <time>2023-05-08T07:56:20Z</time>
      </trkpt>
      <trkpt lat="47.85919" lon="6.9096">
        <ele>1119</ele>
        <time>2023-05-08T07:56:39Z</time>
      </trkpt>
      <trkpt lat="47.85913" lon="6.90968">
        <ele>1120</ele>
        <time>2023-05-08T07:56:47Z</time>
      </trkpt>
      <trkpt lat="47.85902" lon="6.9098">
        <ele>1120</ele>
        <time>2023-05-08T07:57:01Z</time>
      </trkpt>
      <trkpt lat="47.85878" lon="6.91007">
        <ele>1119</ele>
        <time>2023-05-08T07:57:29Z</time>
      </trkpt>
      <trkpt lat="47.85873" lon="6.9101">
        <ele>1119</ele>
        <time>2023-05-08T07:57:34Z</time>
      </trkpt>
      <trkpt lat="47.85869" lon="6.91013">
        <ele>1118</ele>
        <time>2023-05-08T07:57:38Z</time>
      </trkpt>
      <trkpt lat="47.85864" lon="6.91017">
        <ele>1118</ele>
        <time>2023-05-08T07:57:42Z</time>
      </trkpt>
      <trkpt lat="47.85838" lon="6.91047">
        <ele>1119</ele>
        <time>2023-05-08T07:58:14Z</time>
      </trkpt>
      <trkpt lat="47.85826" lon="6.91064">
        <ele>1119</ele>
        <time>2023-05-08T07:58:31Z</time>
      </trkpt>
      <trkpt lat="47.85807" lon="6.911">
        <ele>1120</ele>
        <time>2023-05-08T07:59:00Z</time>
      </trkpt>
      <trkpt lat="47.85804" lon="6.91107">
        <ele>1120</ele>
        <time>2023-05-08T07:59:06Z</time>
      </trkpt>
      <trkpt lat="47.85789" lon="6.91134">
        <ele>1119</ele>
        <time>2023-05-08T07:59:27Z</time>
      </trkpt>
      <trkpt lat="47.85785" lon="6.91139">
        <ele>1120</ele>
        <time>2023-05-08T07:59:31Z</time>
      </trkpt>
      <trkpt lat="47.85783" lon="6.91149">
        <ele>1120</ele>
        <time>2023-05-08T07:59:37Z</time>
      </trkpt>
      <trkpt lat="47.8578" lon="6.91154">
        <ele>1119</ele>
        <time>2023-05-08T07:59:41Z</time>
      </trkpt>
      <trkpt lat="47.85777" lon="6.9116">
        <ele>1119</ele>
        <time>2023-05-08T07:59:45Z</time>
      </trkpt>
      <trkpt lat="47.85774" lon="6.91165">
        <ele>1119</ele>
        <time>2023-05-08T07:59:49Z</time>
      </trkpt>
      <trkpt lat="47.85766" lon="6.91177">
        <ele>1119</ele>
        <time>2023-05-08T08:00:01Z</time>
      </trkpt>
      <trkpt lat="47.85757" lon="6.91194">
        <ele>1118</ele>
        <time>2023-05-08T08:00:14Z</time>
      </trkpt>
      <trkpt lat="47.85754" lon="6.91199">
        <ele>1118</ele>
        <time>2023-05-08T08:00:19Z</time>
      </trkpt>
      <trkpt lat="47.85743" lon="6.91226">
        <ele>1116</ele>
        <time>2023-05-08T08:00:43Z</time>
      </trkpt>
      <trkpt lat="47.85736" lon="6.91255">
        <ele>1113</ele>
        <time>2023-05-08T08:01:07Z</time>
      </trkpt>
      <trkpt lat="47.85733" lon="6.91262">
        <ele>1113</ele>
        <time>2023-05-08T08:01:12Z</time>
      </trkpt>
      <trkpt lat="47.85727" lon="6.91287">
        <ele>1111</ele>
        <time>2023-05-08T08:01:31Z</time>
      </trkpt>
      <trkpt lat="47.85721" lon="6.91304">
        <ele>1109</ele>
        <time>2023-05-08T08:01:45Z</time>
      </trkpt>
      <trkpt lat="47.85712" lon="6.91333">
        <ele>1106</ele>
        <time>2023-05-08T08:02:12Z</time>
      </trkpt>
      <trkpt lat="47.85697" lon="6.91369">
        <ele>1103</ele>
        <time>2023-05-08T08:02:44Z</time>
      </trkpt>
      <trkpt lat="47.85684" lon="6.91396">
        <ele>1101</ele>
        <time>2023-05-08T08:03:09Z</time>
      </trkpt>
      <trkpt lat="47.85675" lon="6.91408">
        <ele>1100</ele>
        <time>2023-05-08T08:03:23Z</time>
      </trkpt>
      <trkpt lat="47.8566" lon="6.91435">
        <ele>1098</ele>
        <time>2023-05-08T08:03:49Z</time>
      </trkpt>
      <trkpt lat="47.85652" lon="6.91452">
        <ele>1097</ele>
        <time>2023-05-08T08:04:03Z</time>
      </trkpt>
      <trkpt lat="47.85645" lon="6.91465">
        <ele>1096</ele>
        <time>2023-05-08T08:04:15Z</time>
      </trkpt>
      <trkpt lat="47.85643" lon="6.91472">
        <ele>1095</ele>
        <time>2023-05-08T08:04:23Z</time>
      </trkpt>
      <trkpt lat="47.85636" lon="6.91486">
        <ele>1095</ele>
        <time>2023-05-08T08:04:33Z</time>
      </trkpt>
      <trkpt lat="47.85635" lon="6.91491">
        <ele>1095</ele>
        <time>2023-05-08T08:04:37Z</time>
      </trkpt>
      <trkpt lat="47.85632" lon="6.91497">
        <ele>1094</ele>
        <time>2023-05-08T08:04:41Z</time>
      </trkpt>
      <trkpt lat="47.85615" lon="6.91547">
        <ele>1094</ele>
        <time>2023-05-08T08:05:15Z</time>
      </trkpt>
      <trkpt lat="47.85607" lon="6.91588">
        <ele>1093</ele>
        <time>2023-05-08T08:05:41Z</time>
      </trkpt>
      <trkpt lat="47.85603" lon="6.91603">
        <ele>1093</ele>
        <time>2023-05-08T08:05:50Z</time>
      </trkpt>
      <trkpt lat="47.85599" lon="6.9163">
        <ele>1092</ele>
        <time>2023-05-08T08:06:08Z</time>
      </trkpt>
      <trkpt lat="47.85597" lon="6.91643">
        <ele>1092</ele>
        <time>2023-05-08T08:06:16Z</time>
      </trkpt>
      <trkpt lat="47.85594" lon="6.91667">
        <ele>1091</ele>
        <time>2023-05-08T08:06:33Z</time>
      </trkpt>
      <trkpt lat="47.85592" lon="6.91676">
        <ele>1091</ele>
        <time>2023-05-08T08:06:40Z</time>
      </trkpt>
      <trkpt lat="47.85588" lon="6.9169">
        <ele>1091</ele>
        <time>2023-05-08T08:06:50Z</time>
      </trkpt>
      <trkpt lat="47.85578" lon="6.91717">
        <ele>1089</ele>
        <time>2023-05-08T08:07:12Z</time>
      </trkpt>
      <trkpt lat="47.85575" lon="6.91722">
        <ele>1089</ele>
        <time>2023-05-08T08:07:17Z</time>
      </trkpt>
      <trkpt lat="47.85562" lon="6.91729">
        <ele>1089</ele>
        <time>2023-05-08T08:07:29Z</time>
      </trkpt>
      <trkpt lat="47.85557" lon="6.9173">
        <ele>1089</ele>
        <time>2023-05-08T08:07:34Z</time>
      </trkpt>
      <trkpt lat="47.85551" lon="6.91733">
        <ele>1089</ele>
        <time>2023-05-08T08:07:40Z</time>
      </trkpt>
      <trkpt lat="47.85546" lon="6.91734">
        <ele>1089</ele>
        <time>2023-05-08T08:07:44Z</time>
      </trkpt>
      <trkpt lat="47.85541" lon="6.91734">
        <ele>1089</ele>
        <time>2023-05-08T08:07:48Z</time>
      </trkpt>
      <trkpt lat="47.85536" lon="6.91734">
        <ele>1089</ele>
        <time>2023-05-08T08:07:51Z</time>
      </trkpt>
      <trkpt lat="47.85532" lon="6.91737">
        <ele>1089</ele>
        <time>2023-05-08T08:07:55Z</time>
      </trkpt>
      <trkpt lat="47.85523" lon="6.91741">
        <ele>1090</ele>
        <time>2023-05-08T08:08:04Z</time>
      </trkpt>
      <trkpt lat="47.8549" lon="6.91762">
        <ele>1094</ele>
        <time>2023-05-08T08:08:41Z</time>
      </trkpt>
      <trkpt lat="47.85486" lon="6.91764">
        <ele>1094</ele>
        <time>2023-05-08T08:08:45Z</time>
      </trkpt>
      <trkpt lat="47.8547" lon="6.91778">
        <ele>1095</ele>
        <time>2023-05-08T08:09:02Z</time>
      </trkpt>
      <trkpt lat="47.85466" lon="6.91779">
        <ele>1095</ele>
        <time>2023-05-08T08:09:06Z</time>
      </trkpt>
      <trkpt lat="47.85461" lon="6.91777">
        <ele>1095</ele>
        <time>2023-05-08T08:09:10Z</time>
      </trkpt>
      <trkpt lat="47.85458" lon="6.91783">
        <ele>1095</ele>
        <time>2023-05-08T08:09:17Z</time>
      </trkpt>
      <trkpt lat="47.85456" lon="6.91789">
        <ele>1096</ele>
        <time>2023-05-08T08:09:22Z</time>
      </trkpt>
      <trkpt lat="47.8545" lon="6.91777">
        <ele>1097</ele>
        <time>2023-05-08T08:09:32Z</time>
      </trkpt>
      <trkpt lat="47.85442" lon="6.9176">
        <ele>1098</ele>
        <time>2023-05-08T08:09:45Z</time>
      </trkpt>
      <trkpt lat="47.85418" lon="6.91711">
        <ele>1099</ele>
        <time>2023-05-08T08:10:15Z</time>
      </trkpt>
      <trkpt lat="47.85413" lon="6.91701">
        <ele>1099</ele>
        <time>2023-05-08T08:10:21Z</time>
      </trkpt>
      <trkpt lat="47.85411" lon="6.91694">
        <ele>1099</ele>
        <time>2023-05-08T08:10:25Z</time>
      </trkpt>
      <trkpt lat="47.85409" lon="6.91687">
        <ele>1098</ele>
        <time>2023-05-08T08:10:29Z</time>
      </trkpt>
      <trkpt lat="47.85405" lon="6.91681">
        <ele>1098</ele>
        <time>2023-05-08T08:10:33Z</time>
      </trkpt>
      <trkpt lat="47.85401" lon="6.91678">
        <ele>1098</ele>
        <time>2023-05-08T08:10:37Z</time>
      </trkpt>
      <trkpt lat="47.85397" lon="6.91677">
        <ele>1098</ele>
        <time>2023-05-08T08:10:41Z</time>
      </trkpt>
      <trkpt lat="47.85381" lon="6.9167">
        <ele>1101</ele>
        <time>2023-05-08T08:10:56Z</time>
      </trkpt>
      <trkpt lat="47.8536" lon="6.91665">
        <ele>1105</ele>
        <time>2023-05-08T08:11:23Z</time>
      </trkpt>
      <trkpt lat="47.85333" lon="6.91654">
        <ele>1111</ele>
        <time>2023-05-08T08:11:58Z</time>
      </trkpt>
      <trkpt lat="47.85309" lon="6.91643">
        <ele>1116</ele>
        <time>2023-05-08T08:12:28Z</time>
      </trkpt>
      <trkpt lat="47.85281" lon="6.9163">
        <ele>1122</ele>
        <time>2023-05-08T08:13:06Z</time>
      </trkpt>
      <trkpt lat="47.85251" lon="6.9162">
        <ele>1128</ele>
        <time>2023-05-08T08:13:47Z</time>
      </trkpt>
      <trkpt lat="47.85225" lon="6.91614">
        <ele>1133</ele>
        <time>2023-05-08T08:14:20Z</time>
      </trkpt>
      <trkpt lat="47.85196" lon="6.91611">
        <ele>1137</ele>
        <time>2023-05-08T08:14:52Z</time>
      </trkpt>
      <trkpt lat="47.85191" lon="6.91611">
        <ele>1138</ele>
        <time>2023-05-08T08:14:58Z</time>
      </trkpt>
      <trkpt lat="47.85171" lon="6.91608">
        <ele>1142</ele>
        <time>2023-05-08T08:15:23Z</time>
      </trkpt>
      <trkpt lat="47.85141" lon="6.91615">
        <ele>1146</ele>
        <time>2023-05-08T08:15:56Z</time>
      </trkpt>
      <trkpt lat="47.85128" lon="6.91618">
        <ele>1148</ele>
        <time>2023-05-08T08:16:12Z</time>
      </trkpt>
      <trkpt lat="47.8512" lon="6.91627">
        <ele>1150</ele>
        <time>2023-05-08T08:16:25Z</time>
      </trkpt>
      <trkpt lat="47.85095" lon="6.91634">
        <ele>1156</ele>
        <time>2023-05-08T08:16:56Z</time>
      </trkpt>
      <trkpt lat="47.85068" lon="6.91644">
        <ele>1160</ele>
        <time>2023-05-08T08:17:29Z</time>
      </trkpt>
      <trkpt lat="47.85037" lon="6.91655">
        <ele>1164</ele>
        <time>2023-05-08T08:18:03Z</time>
      </trkpt>
      <trkpt lat="47.85012" lon="6.91672">
        <ele>1168</ele>
        <time>2023-05-08T08:18:34Z</time>
      </trkpt>
      <trkpt lat="47.84986" lon="6.91693">
        <ele>1175</ele>
        <time>2023-05-08T08:19:11Z</time>
      </trkpt>
      <trkpt lat="47.84981" lon="6.91698">
        <ele>1176</ele>
        <time>2023-05-08T08:19:18Z</time>
      </trkpt>
      <trkpt lat="47.84955" lon="6.91714">
        <ele>1181</ele>
        <time>2023-05-08T08:19:51Z</time>
      </trkpt>
      <trkpt lat="47.84936" lon="6.91721">
        <ele>1183</ele>
        <time>2023-05-08T08:20:13Z</time>
      </trkpt>
      <trkpt lat="47.84932" lon="6.91721">
        <ele>1184</ele>
        <time>2023-05-08T08:20:18Z</time>
      </trkpt>
      <trkpt lat="47.8492" lon="6.91725">
        <ele>1185</ele>
        <time>2023-05-08T08:20:31Z</time>
      </trkpt>
      <trkpt lat="47.84916" lon="6.91727">
        <ele>1185</ele>
        <time>2023-05-08T08:20:34Z</time>
      </trkpt>
      <trkpt lat="47.84884" lon="6.91746">
        <ele>1189</ele>
        <time>2023-05-08T08:21:09Z</time>
      </trkpt>
      <trkpt lat="47.84864" lon="6.91772">
        <ele>1192</ele>
        <time>2023-05-08T08:21:38Z</time>
      </trkpt>
      <trkpt lat="47.84858" lon="6.9178">
        <ele>1193</ele>
        <time>2023-05-08T08:21:47Z</time>
      </trkpt>
      <trkpt lat="47.84849" lon="6.91783">
        <ele>1193</ele>
        <time>2023-05-08T08:21:56Z</time>
      </trkpt>
      <trkpt lat="47.84844" lon="6.91782">
        <ele>1193</ele>
        <time>2023-05-08T08:22:00Z</time>
      </trkpt>
      <trkpt lat="47.84839" lon="6.91784">
        <ele>1193</ele>
        <time>2023-05-08T08:22:05Z</time>
      </trkpt>
      <trkpt lat="47.84839" lon="6.91777">
        <ele>1192</ele>
        <time>2023-05-08T08:22:22Z</time>
      </trkpt>
      <trkpt lat="47.84835" lon="6.91773">
        <ele>1192</ele>
        <time>2023-05-08T08:22:25Z</time>
      </trkpt>
      <trkpt lat="47.84829" lon="6.9177">
        <ele>1193</ele>
        <time>2023-05-08T08:22:31Z</time>
      </trkpt>
      <trkpt lat="47.84826" lon="6.91766">
        <ele>1193</ele>
        <time>2023-05-08T08:22:34Z</time>
      </trkpt>
      <trkpt lat="47.84804" lon="6.9176">
        <ele>1196</ele>
        <time>2023-05-08T08:22:57Z</time>
      </trkpt>
      <trkpt lat="47.84799" lon="6.9176">
        <ele>1197</ele>
        <time>2023-05-08T08:23:03Z</time>
      </trkpt>
      <trkpt lat="47.84793" lon="6.91755">
        <ele>1199</ele>
        <time>2023-05-08T08:23:10Z</time>
      </trkpt>
      <trkpt lat="47.84789" lon="6.9175">
        <ele>1199</ele>
        <time>2023-05-08T08:23:14Z</time>
      </trkpt>
      <trkpt lat="47.84786" lon="6.91743">
        <ele>1199</ele>
        <time>2023-05-08T08:23:19Z</time>
      </trkpt>
      <trkpt lat="47.84775" lon="6.91727">
        <ele>1200</ele>
        <time>2023-05-08T08:23:33Z</time>
      </trkpt>
      <trkpt lat="47.84762" lon="6.91721">
        <ele>1201</ele>
        <time>2023-05-08T08:23:47Z</time>
      </trkpt>
      <trkpt lat="47.84728" lon="6.91711">
        <ele>1204</ele>
        <time>2023-05-08T08:24:23Z</time>
      </trkpt>
      <trkpt lat="47.84721" lon="6.91707">
        <ele>1204</ele>
        <time>2023-05-08T08:24:30Z</time>
      </trkpt>
      <trkpt lat="47.84716" lon="6.91708">
        <ele>1203</ele>
        <time>2023-05-08T08:24:35Z</time>
      </trkpt>
      <trkpt lat="47.8471" lon="6.91706">
        <ele>1205</ele>
        <time>2023-05-08T08:24:39Z</time>
      </trkpt>
      <trkpt lat="47.8469" lon="6.91702">
        <ele>1204</ele>
        <time>2023-05-08T08:24:54Z</time>
      </trkpt>
      <trkpt lat="47.84675" lon="6.91708">
        <ele>1202</ele>
        <time>2023-05-08T08:25:08Z</time>
      </trkpt>
      <trkpt lat="47.84656" lon="6.91707">
        <ele>1201</ele>
        <time>2023-05-08T08:25:25Z</time>
      </trkpt>
      <trkpt lat="47.84652" lon="6.91707">
        <ele>1200</ele>
        <time>2023-05-08T08:25:29Z</time>
      </trkpt>
      <trkpt lat="47.84613" lon="6.91703">
        <ele>1196</ele>
        <time>2023-05-08T08:26:02Z</time>
      </trkpt>
      <trkpt lat="47.84609" lon="6.91702">
        <ele>1195</ele>
        <time>2023-05-08T08:26:05Z</time>
      </trkpt>
      <trkpt lat="47.84605" lon="6.91698">
        <ele>1194</ele>
        <time>2023-05-08T08:26:10Z</time>
      </trkpt>
      <trkpt lat="47.84582" lon="6.91695">
        <ele>1190</ele>
        <time>2023-05-08T08:26:31Z</time>
      </trkpt>
      <trkpt lat="47.84573" lon="6.91698">
        <ele>1189</ele>
        <time>2023-05-08T08:26:39Z</time>
      </trkpt>
      <trkpt lat="47.84563" lon="6.91696">
        <ele>1187</ele>
        <time>2023-05-08T08:26:47Z</time>
      </trkpt>
      <trkpt lat="47.84558" lon="6.91696">
        <ele>1186</ele>
        <time>2023-05-08T08:26:52Z</time>
      </trkpt>
      <trkpt lat="47.84554" lon="6.91695">
        <ele>1186</ele>
        <time>2023-05-08T08:26:54Z</time>
      </trkpt>
      <trkpt lat="47.84547" lon="6.9169">
        <ele>1185</ele>
        <time>2023-05-08T08:27:01Z</time>
      </trkpt>
      <trkpt lat="47.8454" lon="6.91689">
        <ele>1184</ele>
        <time>2023-05-08T08:27:08Z</time>
      </trkpt>
      <trkpt lat="47.84536" lon="6.91688">
        <ele>1183</ele>
        <time>2023-05-08T08:27:12Z</time>
      </trkpt>
      <trkpt lat="47.8452" lon="6.91686">
        <ele>1179</ele>
        <time>2023-05-08T08:27:29Z</time>
      </trkpt>
      <trkpt lat="47.84515" lon="6.91683">
        <ele>1179</ele>
        <time>2023-05-08T08:27:33Z</time>
      </trkpt>
      <trkpt lat="47.84506" lon="6.91682">
        <ele>1177</ele>
        <time>2023-05-08T08:27:42Z</time>
      </trkpt>
      <trkpt lat="47.84498" lon="6.91683">
        <ele>1174</ele>
        <time>2023-05-08T08:27:52Z</time>
      </trkpt>
      <trkpt lat="47.84494" lon="6.9168">
        <ele>1174</ele>
        <time>2023-05-08T08:27:56Z</time>
      </trkpt>
      <trkpt lat="47.84484" lon="6.9168">
        <ele>1171</ele>
        <time>2023-05-08T08:28:05Z</time>
      </trkpt>
      <trkpt lat="47.84453" lon="6.91687">
        <ele>1163</ele>
        <time>2023-05-08T08:28:36Z</time>
      </trkpt>
      <trkpt lat="47.84441" lon="6.91691">
        <ele>1159</ele>
        <time>2023-05-08T08:28:49Z</time>
      </trkpt>
      <trkpt lat="47.84435" lon="6.91689">
        <ele>1157</ele>
        <time>2023-05-08T08:28:55Z</time>
      </trkpt>
      <trkpt lat="47.8443" lon="6.9169">
        <ele>1156</ele>
        <time>2023-05-08T08:28:59Z</time>
      </trkpt>
      <trkpt lat="47.84426" lon="6.91688">
        <ele>1155</ele>
        <time>2023-05-08T08:29:03Z</time>
      </trkpt>
      <trkpt lat="47.84419" lon="6.91686">
        <ele>1154</ele>
        <time>2023-05-08T08:29:11Z</time>
      </trkpt>
      <trkpt lat="47.84415" lon="6.91682">
        <ele>1152</ele>
        <time>2023-05-08T08:29:16Z</time>
      </trkpt>
      <trkpt lat="47.84409" lon="6.91682">
        <ele>1150</ele>
        <time>2023-05-08T08:29:24Z</time>
      </trkpt>
      <trkpt lat="47.84404" lon="6.91681">
        <ele>1149</ele>
        <time>2023-05-08T08:29:29Z</time>
      </trkpt>
      <trkpt lat="47.84391" lon="6.91682">
        <ele>1145</ele>
        <time>2023-05-08T08:30:07Z</time>
      </trkpt>
      <trkpt lat="47.84388" lon="6.91676">
        <ele>1144</ele>
        <time>2023-05-08T08:30:15Z</time>
      </trkpt>
      <trkpt lat="47.84382" lon="6.91677">
        <ele>1142</ele>
        <time>2023-05-08T08:30:20Z</time>
      </trkpt>
      <trkpt lat="47.84379" lon="6.91673">
        <ele>1142</ele>
        <time>2023-05-08T08:30:24Z</time>
      </trkpt>
      <trkpt lat="47.84372" lon="6.91673">
        <ele>1140</ele>
        <time>2023-05-08T08:30:31Z</time>
      </trkpt>
      <trkpt lat="47.84357" lon="6.91666">
        <ele>1135</ele>
        <time>2023-05-08T08:30:52Z</time>
      </trkpt>
      <trkpt lat="47.84344" lon="6.91666">
        <ele>1132</ele>
        <time>2023-05-08T08:31:12Z</time>
      </trkpt>
      <trkpt lat="47.8434" lon="6.91665">
        <ele>1131</ele>
        <time>2023-05-08T08:31:16Z</time>
      </trkpt>
      <trkpt lat="47.84332" lon="6.91657">
        <ele>1129</ele>
        <time>2023-05-08T08:31:24Z</time>
      </trkpt>
      <trkpt lat="47.8433" lon="6.91652">
        <ele>1128</ele>
        <time>2023-05-08T08:31:28Z</time>
      </trkpt>
      <trkpt lat="47.84323" lon="6.9165">
        <ele>1128</ele>
        <time>2023-05-08T08:31:43Z</time>
      </trkpt>
      <trkpt lat="47.84318" lon="6.9165">
        <ele>1126</ele>
        <time>2023-05-08T08:31:48Z</time>
      </trkpt>
      <trkpt lat="47.84309" lon="6.91642">
        <ele>1124</ele>
        <time>2023-05-08T08:32:00Z</time>
      </trkpt>
      <trkpt lat="47.84306" lon="6.91637">
        <ele>1123</ele>
        <time>2023-05-08T08:32:05Z</time>
      </trkpt>
      <trkpt lat="47.84302" lon="6.91634">
        <ele>1122</ele>
        <time>2023-05-08T08:32:09Z</time>
      </trkpt>
      <trkpt lat="47.84298" lon="6.91631">
        <ele>1122</ele>
        <time>2023-05-08T08:32:13Z</time>
      </trkpt>
      <trkpt lat="47.84291" lon="6.91638">
        <ele>1119</ele>
        <time>2023-05-08T08:32:21Z</time>
      </trkpt>
      <trkpt lat="47.84287" lon="6.91633">
        <ele>1119</ele>
        <time>2023-05-08T08:32:25Z</time>
      </trkpt>
      <trkpt lat="47.84283" lon="6.91624">
        <ele>1117</ele>
        <time>2023-05-08T08:32:35Z</time>
      </trkpt>
      <trkpt lat="47.8428" lon="6.91619">
        <ele>1117</ele>
        <time>2023-05-08T08:32:39Z</time>
      </trkpt>
      <trkpt lat="47.84277" lon="6.91613">
        <ele>1117</ele>
        <time>2023-05-08T08:32:43Z</time>
      </trkpt>
      <trkpt lat="47.84269" lon="6.91596">
        <ele>1116</ele>
        <time>2023-05-08T08:32:55Z</time>
      </trkpt>
      <trkpt lat="47.84266" lon="6.91589">
        <ele>1116</ele>
        <time>2023-05-08T08:32:59Z</time>
      </trkpt>
      <trkpt lat="47.84258" lon="6.91564">
        <ele>1115</ele>
        <time>2023-05-08T08:33:14Z</time>
      </trkpt>
      <trkpt lat="47.84255" lon="6.91549">
        <ele>1116</ele>
        <time>2023-05-08T08:33:25Z</time>
      </trkpt>
      <trkpt lat="47.84256" lon="6.91541">
        <ele>1116</ele>
        <time>2023-05-08T08:33:38Z</time>
      </trkpt>
      <trkpt lat="47.84261" lon="6.91543">
        <ele>1116</ele>
        <time>2023-05-08T08:34:20Z</time>
      </trkpt>
      <trkpt lat="47.84265" lon="6.91549">
        <ele>1115</ele>
        <time>2023-05-08T09:39:56Z</time>
      </trkpt>
      <trkpt lat="47.84265" lon="6.9155">
        <ele>1115</ele>
        <time>2023-05-08T09:39:57Z</time>
      </trkpt>
      <trkpt lat="47.84263" lon="6.91559">
        <ele>1115</ele>
        <time>2023-05-08T09:40:05Z</time>
      </trkpt>
      <trkpt lat="47.84264" lon="6.91565">
        <ele>1115</ele>
        <time>2023-05-08T09:40:09Z</time>
      </trkpt>
      <trkpt lat="47.84266" lon="6.91573">
        <ele>1115</ele>
        <time>2023-05-08T09:40:16Z</time>
      </trkpt>
      <trkpt lat="47.8427" lon="6.91581">
        <ele>1116</ele>
        <time>2023-05-08T09:40:27Z</time>
      </trkpt>
      <trkpt lat="47.84272" lon="6.91587">
        <ele>1116</ele>
        <time>2023-05-08T09:40:32Z</time>
      </trkpt>
      <trkpt lat="47.84289" lon="6.91622">
        <ele>1116</ele>
        <time>2023-05-08T09:41:04Z</time>
      </trkpt>
      <trkpt lat="47.84295" lon="6.91632">
        <ele>1118</ele>
        <time>2023-05-08T09:42:07Z</time>
      </trkpt>
      <trkpt lat="47.84301" lon="6.91628">
        <ele>1120</ele>
        <time>2023-05-08T09:42:25Z</time>
      </trkpt>
      <trkpt lat="47.84309" lon="6.91633">
        <ele>1122</ele>
        <time>2023-05-08T09:42:36Z</time>
      </trkpt>
      <trkpt lat="47.84313" lon="6.91638">
        <ele>1123</ele>
        <time>2023-05-08T09:42:41Z</time>
      </trkpt>
      <trkpt lat="47.84324" lon="6.91647">
        <ele>1125</ele>
        <time>2023-05-08T09:42:56Z</time>
      </trkpt>
      <trkpt lat="47.84331" lon="6.91647">
        <ele>1127</ele>
        <time>2023-05-08T09:43:08Z</time>
      </trkpt>
      <trkpt lat="47.84335" lon="6.91649">
        <ele>1128</ele>
        <time>2023-05-08T09:43:14Z</time>
      </trkpt>
      <trkpt lat="47.84343" lon="6.91659">
        <ele>1129</ele>
        <time>2023-05-08T09:43:24Z</time>
      </trkpt>
      <trkpt lat="47.84348" lon="6.91668">
        <ele>1130</ele>
        <time>2023-05-08T09:43:34Z</time>
      </trkpt>
      <trkpt lat="47.84353" lon="6.91681">
        <ele>1130</ele>
        <time>2023-05-08T09:43:43Z</time>
      </trkpt>
      <trkpt lat="47.84356" lon="6.91685">
        <ele>1130</ele>
        <time>2023-05-08T09:43:47Z</time>
      </trkpt>
      <trkpt lat="47.84368" lon="6.91707">
        <ele>1132</ele>
        <time>2023-05-08T09:44:08Z</time>
      </trkpt>
      <trkpt lat="47.84388" lon="6.91736">
        <ele>1134</ele>
        <time>2023-05-08T09:44:37Z</time>
      </trkpt>
      <trkpt lat="47.84404" lon="6.91764">
        <ele>1135</ele>
        <time>2023-05-08T09:45:00Z</time>
      </trkpt>
      <trkpt lat="47.84421" lon="6.91787">
        <ele>1137</ele>
        <time>2023-05-08T09:45:19Z</time>
      </trkpt>
      <trkpt lat="47.84423" lon="6.91793">
        <ele>1137</ele>
        <time>2023-05-08T09:45:24Z</time>
      </trkpt>
      <trkpt lat="47.84435" lon="6.91807">
        <ele>1138</ele>
        <time>2023-05-08T09:45:36Z</time>
      </trkpt>
      <trkpt lat="47.84453" lon="6.91842">
        <ele>1140</ele>
        <time>2023-05-08T09:46:05Z</time>
      </trkpt>
      <trkpt lat="47.84452" lon="6.91854">
        <ele>1140</ele>
        <time>2023-05-08T09:46:14Z</time>
      </trkpt>
      <trkpt lat="47.84453" lon="6.91861">
        <ele>1140</ele>
        <time>2023-05-08T09:46:18Z</time>
      </trkpt>
      <trkpt lat="47.84454" lon="6.91867">
        <ele>1140</ele>
        <time>2023-05-08T09:46:22Z</time>
      </trkpt>
      <trkpt lat="47.84456" lon="6.91891">
        <ele>1139</ele>
        <time>2023-05-08T09:46:39Z</time>
      </trkpt>
      <trkpt lat="47.84457" lon="6.91897">
        <ele>1138</ele>
        <time>2023-05-08T09:46:43Z</time>
      </trkpt>
      <trkpt lat="47.84468" lon="6.91896">
        <ele>1136</ele>
        <time>2023-05-08T09:47:01Z</time>
      </trkpt>
      <trkpt lat="47.84473" lon="6.91892">
        <ele>1135</ele>
        <time>2023-05-08T09:47:06Z</time>
      </trkpt>
      <trkpt lat="47.84476" lon="6.91888">
        <ele>1135</ele>
        <time>2023-05-08T09:47:10Z</time>
      </trkpt>
      <trkpt lat="47.84481" lon="6.91885">
        <ele>1135</ele>
        <time>2023-05-08T09:47:14Z</time>
      </trkpt>
      <trkpt lat="47.84485" lon="6.91881">
        <ele>1134</ele>
        <time>2023-05-08T09:47:19Z</time>
      </trkpt>
      <trkpt lat="47.84487" lon="6.91876">
        <ele>1133</ele>
        <time>2023-05-08T09:47:24Z</time>
      </trkpt>
      <trkpt lat="47.84492" lon="6.91872">
        <ele>1132</ele>
        <time>2023-05-08T09:47:30Z</time>
      </trkpt>
      <trkpt lat="47.84496" lon="6.9187">
        <ele>1132</ele>
        <time>2023-05-08T09:47:35Z</time>
      </trkpt>
      <trkpt lat="47.84514" lon="6.91862">
        <ele>1128</ele>
        <time>2023-05-08T09:47:55Z</time>
      </trkpt>
      <trkpt lat="47.84516" lon="6.91854">
        <ele>1127</ele>
        <time>2023-05-08T09:48:01Z</time>
      </trkpt>
      <trkpt lat="47.84527" lon="6.91839">
        <ele>1125</ele>
        <time>2023-05-08T09:48:14Z</time>
      </trkpt>
      <trkpt lat="47.84531" lon="6.91836">
        <ele>1125</ele>
        <time>2023-05-08T09:48:19Z</time>
      </trkpt>
      <trkpt lat="47.8454" lon="6.91831">
        <ele>1123</ele>
        <time>2023-05-08T09:48:26Z</time>
      </trkpt>
      <trkpt lat="47.84544" lon="6.91828">
        <ele>1123</ele>
        <time>2023-05-08T09:48:29Z</time>
      </trkpt>
      <trkpt lat="47.84554" lon="6.91824">
        <ele>1124</ele>
        <time>2023-05-08T09:48:37Z</time>
      </trkpt>
      <trkpt lat="47.84558" lon="6.91824">
        <ele>1124</ele>
        <time>2023-05-08T09:48:40Z</time>
      </trkpt>
      <trkpt lat="47.84566" lon="6.91819">
        <ele>1124</ele>
        <time>2023-05-08T09:48:48Z</time>
      </trkpt>
      <trkpt lat="47.84593" lon="6.91814">
        <ele>1126</ele>
        <time>2023-05-08T09:49:10Z</time>
      </trkpt>
      <trkpt lat="47.84611" lon="6.9182">
        <ele>1128</ele>
        <time>2023-05-08T09:49:25Z</time>
      </trkpt>
      <trkpt lat="47.84614" lon="6.91819">
        <ele>1128</ele>
        <time>2023-05-08T09:49:28Z</time>
      </trkpt>
      <trkpt lat="47.84621" lon="6.91819">
        <ele>1128</ele>
        <time>2023-05-08T09:49:33Z</time>
      </trkpt>
      <trkpt lat="47.84629" lon="6.91826">
        <ele>1128</ele>
        <time>2023-05-08T09:49:39Z</time>
      </trkpt>
      <trkpt lat="47.84634" lon="6.9184">
        <ele>1129</ele>
        <time>2023-05-08T09:49:47Z</time>
      </trkpt>
      <trkpt lat="47.84642" lon="6.91838">
        <ele>1130</ele>
        <time>2023-05-08T09:50:00Z</time>
      </trkpt>
      <trkpt lat="47.84653" lon="6.91843">
        <ele>1131</ele>
        <time>2023-05-08T09:50:07Z</time>
      </trkpt>
      <trkpt lat="47.84658" lon="6.91848">
        <ele>1132</ele>
        <time>2023-05-08T09:50:12Z</time>
      </trkpt>
      <trkpt lat="47.84658" lon="6.91855">
        <ele>1132</ele>
        <time>2023-05-08T09:50:15Z</time>
      </trkpt>
      <trkpt lat="47.84667" lon="6.91856">
        <ele>1132</ele>
        <time>2023-05-08T09:50:26Z</time>
      </trkpt>
      <trkpt lat="47.84673" lon="6.91854">
        <ele>1131</ele>
        <time>2023-05-08T09:50:32Z</time>
      </trkpt>
      <trkpt lat="47.84679" lon="6.91855">
        <ele>1129</ele>
        <time>2023-05-08T09:50:40Z</time>
      </trkpt>
      <trkpt lat="47.84685" lon="6.91855">
        <ele>1130</ele>
        <time>2023-05-08T09:50:46Z</time>
      </trkpt>
      <trkpt lat="47.8469" lon="6.91854">
        <ele>1130</ele>
        <time>2023-05-08T09:50:50Z</time>
      </trkpt>
      <trkpt lat="47.84695" lon="6.91857">
        <ele>1129</ele>
        <time>2023-05-08T09:50:54Z</time>
      </trkpt>
      <trkpt lat="47.84699" lon="6.91861">
        <ele>1129</ele>
        <time>2023-05-08T09:50:58Z</time>
      </trkpt>
      <trkpt lat="47.84708" lon="6.91867">
        <ele>1128</ele>
        <time>2023-05-08T09:51:07Z</time>
      </trkpt>
      <trkpt lat="47.8471" lon="6.91873">
        <ele>1128</ele>
        <time>2023-05-08T09:51:10Z</time>
      </trkpt>
      <trkpt lat="47.84707" lon="6.91896">
        <ele>1126</ele>
        <time>2023-05-08T09:51:21Z</time>
      </trkpt>
      <trkpt lat="47.84707" lon="6.91902">
        <ele>1126</ele>
        <time>2023-05-08T09:51:24Z</time>
      </trkpt>
      <trkpt lat="47.84711" lon="6.91905">
        <ele>1126</ele>
        <time>2023-05-08T09:51:28Z</time>
      </trkpt>
      <trkpt lat="47.8472" lon="6.91907">
        <ele>1125</ele>
        <time>2023-05-08T09:51:35Z</time>
      </trkpt>
      <trkpt lat="47.84725" lon="6.91913">
        <ele>1125</ele>
        <time>2023-05-08T09:51:41Z</time>
      </trkpt>
      <trkpt lat="47.8473" lon="6.91916">
        <ele>1124</ele>
        <time>2023-05-08T09:51:48Z</time>
      </trkpt>
      <trkpt lat="47.84736" lon="6.91919">
        <ele>1124</ele>
        <time>2023-05-08T09:51:52Z</time>
      </trkpt>
      <trkpt lat="47.84739" lon="6.91923">
        <ele>1124</ele>
        <time>2023-05-08T09:51:57Z</time>
      </trkpt>
      <trkpt lat="47.84744" lon="6.91921">
        <ele>1124</ele>
        <time>2023-05-08T09:52:01Z</time>
      </trkpt>
      <trkpt lat="47.84749" lon="6.91919">
        <ele>1124</ele>
        <time>2023-05-08T09:52:04Z</time>
      </trkpt>
      <trkpt lat="47.84756" lon="6.91919">
        <ele>1124</ele>
        <time>2023-05-08T09:52:11Z</time>
      </trkpt>
      <trkpt lat="47.84758" lon="6.91925">
        <ele>1123</ele>
        <time>2023-05-08T09:52:14Z</time>
      </trkpt>
      <trkpt lat="47.8476" lon="6.9193">
        <ele>1123</ele>
        <time>2023-05-08T09:52:18Z</time>
      </trkpt>
      <trkpt lat="47.84761" lon="6.91937">
        <ele>1122</ele>
        <time>2023-05-08T09:52:22Z</time>
      </trkpt>
      <trkpt lat="47.84759" lon="6.91951">
        <ele>1121</ele>
        <time>2023-05-08T09:52:31Z</time>
      </trkpt>
      <trkpt lat="47.84759" lon="6.91957">
        <ele>1120</ele>
        <time>2023-05-08T09:52:35Z</time>
      </trkpt>
      <trkpt lat="47.84766" lon="6.91966">
        <ele>1119</ele>
        <time>2023-05-08T09:52:43Z</time>
      </trkpt>
      <trkpt lat="47.84771" lon="6.91984">
        <ele>1118</ele>
        <time>2023-05-08T09:52:54Z</time>
      </trkpt>
      <trkpt lat="47.84778" lon="6.91997">
        <ele>1117</ele>
        <time>2023-05-08T09:53:09Z</time>
      </trkpt>
      <trkpt lat="47.84776" lon="6.91997">
        <ele>1117</ele>
        <time>2023-05-08T09:53:45Z</time>
      </trkpt>
      <trkpt lat="47.84776" lon="6.92004">
        <ele>1117</ele>
        <time>2023-05-08T09:53:51Z</time>
      </trkpt>
      <trkpt lat="47.84781" lon="6.91999">
        <ele>1117</ele>
        <time>2023-05-08T09:54:13Z</time>
      </trkpt>
      <trkpt lat="47.84786" lon="6.91997">
        <ele>1117</ele>
        <time>2023-05-08T09:54:17Z</time>
      </trkpt>
      <trkpt lat="47.8479" lon="6.91997">
        <ele>1116</ele>
        <time>2023-05-08T09:54:21Z</time>
      </trkpt>
      <trkpt lat="47.84796" lon="6.91993">
        <ele>1115</ele>
        <time>2023-05-08T09:54:47Z</time>
      </trkpt>
      <trkpt lat="47.84808" lon="6.91998">
        <ele>1112</ele>
        <time>2023-05-08T09:55:01Z</time>
      </trkpt>
      <trkpt lat="47.84825" lon="6.92014">
        <ele>1108</ele>
        <time>2023-05-08T09:55:19Z</time>
      </trkpt>
      <trkpt lat="47.84828" lon="6.9202">
        <ele>1107</ele>
        <time>2023-05-08T09:55:24Z</time>
      </trkpt>
      <trkpt lat="47.8483" lon="6.92032">
        <ele>1106</ele>
        <time>2023-05-08T09:55:31Z</time>
      </trkpt>
      <trkpt lat="47.84838" lon="6.92042">
        <ele>1103</ele>
        <time>2023-05-08T09:55:39Z</time>
      </trkpt>
      <trkpt lat="47.8484" lon="6.92048">
        <ele>1104</ele>
        <time>2023-05-08T09:55:46Z</time>
      </trkpt>
      <trkpt lat="47.84844" lon="6.92049">
        <ele>1104</ele>
        <time>2023-05-08T09:55:52Z</time>
      </trkpt>
      <trkpt lat="47.84853" lon="6.92054">
        <ele>1105</ele>
        <time>2023-05-08T09:56:04Z</time>
      </trkpt>
      <trkpt lat="47.84868" lon="6.92071">
        <ele>1103</ele>
        <time>2023-05-08T09:56:19Z</time>
      </trkpt>
      <trkpt lat="47.84871" lon="6.92077">
        <ele>1102</ele>
        <time>2023-05-08T09:56:24Z</time>
      </trkpt>
      <trkpt lat="47.84872" lon="6.92083">
        <ele>1102</ele>
        <time>2023-05-08T09:56:28Z</time>
      </trkpt>
      <trkpt lat="47.84876" lon="6.92088">
        <ele>1102</ele>
        <time>2023-05-08T09:56:33Z</time>
      </trkpt>
      <trkpt lat="47.84879" lon="6.92096">
        <ele>1103</ele>
        <time>2023-05-08T09:56:40Z</time>
      </trkpt>
      <trkpt lat="47.84879" lon="6.92102">
        <ele>1102</ele>
        <time>2023-05-08T09:56:46Z</time>
      </trkpt>
      <trkpt lat="47.84882" lon="6.92107">
        <ele>1101</ele>
        <time>2023-05-08T09:57:11Z</time>
      </trkpt>
      <trkpt lat="47.84884" lon="6.92114">
        <ele>1102</ele>
        <time>2023-05-08T09:57:16Z</time>
      </trkpt>
      <trkpt lat="47.84885" lon="6.92121">
        <ele>1101</ele>
        <time>2023-05-08T09:57:20Z</time>
      </trkpt>
      <trkpt lat="47.84891" lon="6.9214">
        <ele>1100</ele>
        <time>2023-05-08T09:57:32Z</time>
      </trkpt>
      <trkpt lat="47.84893" lon="6.92151">
        <ele>1099</ele>
        <time>2023-05-08T09:57:40Z</time>
      </trkpt>
      <trkpt lat="47.84895" lon="6.92156">
        <ele>1098</ele>
        <time>2023-05-08T09:57:44Z</time>
      </trkpt>
      <trkpt lat="47.84897" lon="6.92164">
        <ele>1098</ele>
        <time>2023-05-08T09:57:49Z</time>
      </trkpt>
      <trkpt lat="47.84896" lon="6.92177">
        <ele>1097</ele>
        <time>2023-05-08T09:57:57Z</time>
      </trkpt>
      <trkpt lat="47.84895" lon="6.92186">
        <ele>1097</ele>
        <time>2023-05-08T09:58:03Z</time>
      </trkpt>
      <trkpt lat="47.84897" lon="6.92199">
        <ele>1096</ele>
        <time>2023-05-08T09:58:10Z</time>
      </trkpt>
      <trkpt lat="47.84898" lon="6.92211">
        <ele>1094</ele>
        <time>2023-05-08T09:58:18Z</time>
      </trkpt>
      <trkpt lat="47.84899" lon="6.92218">
        <ele>1093</ele>
        <time>2023-05-08T09:58:23Z</time>
      </trkpt>
      <trkpt lat="47.84899" lon="6.92231">
        <ele>1092</ele>
        <time>2023-05-08T09:58:32Z</time>
      </trkpt>
      <trkpt lat="47.849" lon="6.92237">
        <ele>1091</ele>
        <time>2023-05-08T09:58:36Z</time>
      </trkpt>
      <trkpt lat="47.849" lon="6.92246">
        <ele>1091</ele>
        <time>2023-05-08T09:58:46Z</time>
      </trkpt>
      <trkpt lat="47.84893" lon="6.92255">
        <ele>1089</ele>
        <time>2023-05-08T09:59:13Z</time>
      </trkpt>
      <trkpt lat="47.84892" lon="6.92264">
        <ele>1086</ele>
        <time>2023-05-08T09:59:25Z</time>
      </trkpt>
      <trkpt lat="47.84895" lon="6.92269">
        <ele>1086</ele>
        <time>2023-05-08T09:59:30Z</time>
      </trkpt>
      <trkpt lat="47.84893" lon="6.92279">
        <ele>1086</ele>
        <time>2023-05-08T09:59:38Z</time>
      </trkpt>
      <trkpt lat="47.84891" lon="6.92287">
        <ele>1085</ele>
        <time>2023-05-08T09:59:43Z</time>
      </trkpt>
      <trkpt lat="47.84891" lon="6.92293">
        <ele>1084</ele>
        <time>2023-05-08T09:59:46Z</time>
      </trkpt>
      <trkpt lat="47.84895" lon="6.92315">
        <ele>1083</ele>
        <time>2023-05-08T09:59:57Z</time>
      </trkpt>
      <trkpt lat="47.84894" lon="6.92328">
        <ele>1082</ele>
        <time>2023-05-08T10:00:05Z</time>
      </trkpt>
      <trkpt lat="47.84892" lon="6.92343">
        <ele>1081</ele>
        <time>2023-05-08T10:00:18Z</time>
      </trkpt>
      <trkpt lat="47.84891" lon="6.9235">
        <ele>1080</ele>
        <time>2023-05-08T10:00:21Z</time>
      </trkpt>
      <trkpt lat="47.84887" lon="6.92361">
        <ele>1079</ele>
        <time>2023-05-08T10:00:29Z</time>
      </trkpt>
      <trkpt lat="47.84884" lon="6.92367">
        <ele>1078</ele>
        <time>2023-05-08T10:00:33Z</time>
      </trkpt>
      <trkpt lat="47.84882" lon="6.92373">
        <ele>1078</ele>
        <time>2023-05-08T10:00:36Z</time>
      </trkpt>
      <trkpt lat="47.84881" lon="6.92379">
        <ele>1078</ele>
        <time>2023-05-08T10:00:40Z</time>
      </trkpt>
      <trkpt lat="47.8487" lon="6.92413">
        <ele>1076</ele>
        <time>2023-05-08T10:01:03Z</time>
      </trkpt>
      <trkpt lat="47.84869" lon="6.9242">
        <ele>1075</ele>
        <time>2023-05-08T10:01:06Z</time>
      </trkpt>
      <trkpt lat="47.84866" lon="6.92436">
        <ele>1074</ele>
        <time>2023-05-08T10:01:14Z</time>
      </trkpt>
      <trkpt lat="47.84868" lon="6.92443">
        <ele>1074</ele>
        <time>2023-05-08T10:01:19Z</time>
      </trkpt>
      <trkpt lat="47.84869" lon="6.92457">
        <ele>1073</ele>
        <time>2023-05-08T10:01:30Z</time>
      </trkpt>
      <trkpt lat="47.84869" lon="6.92465">
        <ele>1073</ele>
        <time>2023-05-08T10:01:35Z</time>
      </trkpt>
      <trkpt lat="47.84866" lon="6.92473">
        <ele>1073</ele>
        <time>2023-05-08T10:01:46Z</time>
      </trkpt>
      <trkpt lat="47.84867" lon="6.9248">
        <ele>1073</ele>
        <time>2023-05-08T10:01:51Z</time>
      </trkpt>
      <trkpt lat="47.84867" lon="6.9249">
        <ele>1074</ele>
        <time>2023-05-08T10:02:01Z</time>
      </trkpt>
      <trkpt lat="47.84866" lon="6.92497">
        <ele>1075</ele>
        <time>2023-05-08T10:02:12Z</time>
      </trkpt>
      <trkpt lat="47.84867" lon="6.92506">
        <ele>1078</ele>
        <time>2023-05-08T10:02:24Z</time>
      </trkpt>
      <trkpt lat="47.84869" lon="6.92512">
        <ele>1079</ele>
        <time>2023-05-08T10:02:31Z</time>
      </trkpt>
      <trkpt lat="47.84861" lon="6.92515">
        <ele>1081</ele>
        <time>2023-05-08T10:02:43Z</time>
      </trkpt>
      <trkpt lat="47.84855" lon="6.92513">
        <ele>1083</ele>
        <time>2023-05-08T10:02:51Z</time>
      </trkpt>
      <trkpt lat="47.84845" lon="6.92513">
        <ele>1085</ele>
        <time>2023-05-08T10:03:05Z</time>
      </trkpt>
      <trkpt lat="47.8484" lon="6.92514">
        <ele>1087</ele>
        <time>2023-05-08T10:03:17Z</time>
      </trkpt>
      <trkpt lat="47.84835" lon="6.92515">
        <ele>1088</ele>
        <time>2023-05-08T10:03:22Z</time>
      </trkpt>
      <trkpt lat="47.84824" lon="6.92524">
        <ele>1090</ele>
        <time>2023-05-08T10:03:37Z</time>
      </trkpt>
      <trkpt lat="47.84828" lon="6.92525">
        <ele>1092</ele>
        <time>2023-05-08T10:03:46Z</time>
      </trkpt>
      <trkpt lat="47.8484" lon="6.92533">
        <ele>1094</ele>
        <time>2023-05-08T10:04:01Z</time>
      </trkpt>
      <trkpt lat="47.84849" lon="6.92544">
        <ele>1096</ele>
        <time>2023-05-08T10:04:13Z</time>
      </trkpt>
      <trkpt lat="47.84862" lon="6.92584">
        <ele>1101</ele>
        <time>2023-05-08T10:04:42Z</time>
      </trkpt>
      <trkpt lat="47.84863" lon="6.92591">
        <ele>1101</ele>
        <time>2023-05-08T10:04:47Z</time>
      </trkpt>
      <trkpt lat="47.84861" lon="6.92619">
        <ele>1102</ele>
        <time>2023-05-08T10:05:04Z</time>
      </trkpt>
      <trkpt lat="47.84862" lon="6.92626">
        <ele>1102</ele>
        <time>2023-05-08T10:05:09Z</time>
      </trkpt>
      <trkpt lat="47.84861" lon="6.92633">
        <ele>1102</ele>
        <time>2023-05-08T10:05:13Z</time>
      </trkpt>
      <trkpt lat="47.8486" lon="6.92639">
        <ele>1102</ele>
        <time>2023-05-08T10:05:17Z</time>
      </trkpt>
      <trkpt lat="47.84859" lon="6.92649">
        <ele>1103</ele>
        <time>2023-05-08T10:05:23Z</time>
      </trkpt>
      <trkpt lat="47.84859" lon="6.92656">
        <ele>1103</ele>
        <time>2023-05-08T10:05:27Z</time>
      </trkpt>
      <trkpt lat="47.84855" lon="6.92665">
        <ele>1104</ele>
        <time>2023-05-08T10:05:35Z</time>
      </trkpt>
      <trkpt lat="47.84855" lon="6.92672">
        <ele>1105</ele>
        <time>2023-05-08T10:05:39Z</time>
      </trkpt>
      <trkpt lat="47.84852" lon="6.92686">
        <ele>1107</ele>
        <time>2023-05-08T10:05:49Z</time>
      </trkpt>
      <trkpt lat="47.84852" lon="6.92692">
        <ele>1108</ele>
        <time>2023-05-08T10:05:54Z</time>
      </trkpt>
      <trkpt lat="47.84852" lon="6.92699">
        <ele>1108</ele>
        <time>2023-05-08T10:05:59Z</time>
      </trkpt>
      <trkpt lat="47.84853" lon="6.92709">
        <ele>1108</ele>
        <time>2023-05-08T10:06:07Z</time>
      </trkpt>
      <trkpt lat="47.84851" lon="6.92715">
        <ele>1109</ele>
        <time>2023-05-08T10:06:13Z</time>
      </trkpt>
      <trkpt lat="47.84853" lon="6.92728">
        <ele>1110</ele>
        <time>2023-05-08T10:06:26Z</time>
      </trkpt>
      <trkpt lat="47.84855" lon="6.92734">
        <ele>1111</ele>
        <time>2023-05-08T10:06:30Z</time>
      </trkpt>
      <trkpt lat="47.84855" lon="6.92743">
        <ele>1111</ele>
        <time>2023-05-08T10:06:36Z</time>
      </trkpt>
      <trkpt lat="47.84859" lon="6.92756">
        <ele>1112</ele>
        <time>2023-05-08T10:06:45Z</time>
      </trkpt>
      <trkpt lat="47.84858" lon="6.9277">
        <ele>1113</ele>
        <time>2023-05-08T10:06:54Z</time>
      </trkpt>
      <trkpt lat="47.8486" lon="6.92779">
        <ele>1114</ele>
        <time>2023-05-08T10:07:00Z</time>
      </trkpt>
      <trkpt lat="47.84859" lon="6.92795">
        <ele>1116</ele>
        <time>2023-05-08T10:07:13Z</time>
      </trkpt>
      <trkpt lat="47.84863" lon="6.92835">
        <ele>1122</ele>
        <time>2023-05-08T10:07:45Z</time>
      </trkpt>
      <trkpt lat="47.84867" lon="6.92855">
        <ele>1124</ele>
        <time>2023-05-08T10:07:57Z</time>
      </trkpt>
      <trkpt lat="47.84865" lon="6.92868">
        <ele>1125</ele>
        <time>2023-05-08T10:08:05Z</time>
      </trkpt>
      <trkpt lat="47.8486" lon="6.92885">
        <ele>1126</ele>
        <time>2023-05-08T10:08:17Z</time>
      </trkpt>
      <trkpt lat="47.84859" lon="6.92899">
        <ele>1128</ele>
        <time>2023-05-08T10:08:27Z</time>
      </trkpt>
      <trkpt lat="47.84854" lon="6.92914">
        <ele>1130</ele>
        <time>2023-05-08T10:08:40Z</time>
      </trkpt>
      <trkpt lat="47.84852" lon="6.92935">
        <ele>1134</ele>
        <time>2023-05-08T10:08:59Z</time>
      </trkpt>
      <trkpt lat="47.84848" lon="6.92947">
        <ele>1136</ele>
        <time>2023-05-08T10:09:10Z</time>
      </trkpt>
      <trkpt lat="47.84844" lon="6.92961">
        <ele>1139</ele>
        <time>2023-05-08T10:09:28Z</time>
      </trkpt>
      <trkpt lat="47.84844" lon="6.92973">
        <ele>1142</ele>
        <time>2023-05-08T10:09:40Z</time>
      </trkpt>
      <trkpt lat="47.84843" lon="6.92979">
        <ele>1143</ele>
        <time>2023-05-08T10:09:46Z</time>
      </trkpt>
      <trkpt lat="47.84838" lon="6.93001">
        <ele>1147</ele>
        <time>2023-05-08T10:10:10Z</time>
      </trkpt>
      <trkpt lat="47.84837" lon="6.93008">
        <ele>1148</ele>
        <time>2023-05-08T10:10:15Z</time>
      </trkpt>
      <trkpt lat="47.84834" lon="6.93016">
        <ele>1149</ele>
        <time>2023-05-08T10:10:22Z</time>
      </trkpt>
      <trkpt lat="47.84834" lon="6.93025">
        <ele>1151</ele>
        <time>2023-05-08T10:10:29Z</time>
      </trkpt>
      <trkpt lat="47.84835" lon="6.93032">
        <ele>1151</ele>
        <time>2023-05-08T10:10:33Z</time>
      </trkpt>
      <trkpt lat="47.84835" lon="6.93039">
        <ele>1151</ele>
        <time>2023-05-08T10:10:38Z</time>
      </trkpt>
      <trkpt lat="47.84835" lon="6.93048">
        <ele>1153</ele>
        <time>2023-05-08T10:10:45Z</time>
      </trkpt>
      <trkpt lat="47.84834" lon="6.93055">
        <ele>1153</ele>
        <time>2023-05-08T10:10:49Z</time>
      </trkpt>
      <trkpt lat="47.84835" lon="6.93075">
        <ele>1155</ele>
        <time>2023-05-08T10:11:04Z</time>
      </trkpt>
      <trkpt lat="47.84843" lon="6.9309">
        <ele>1158</ele>
        <time>2023-05-08T10:11:21Z</time>
      </trkpt>
      <trkpt lat="47.84846" lon="6.93095">
        <ele>1158</ele>
        <time>2023-05-08T10:11:27Z</time>
      </trkpt>
      <trkpt lat="47.84851" lon="6.93101">
        <ele>1159</ele>
        <time>2023-05-08T10:11:35Z</time>
      </trkpt>
      <trkpt lat="47.84854" lon="6.93108">
        <ele>1160</ele>
        <time>2023-05-08T10:11:41Z</time>
      </trkpt>
      <trkpt lat="47.84858" lon="6.93114">
        <ele>1161</ele>
        <time>2023-05-08T10:11:49Z</time>
      </trkpt>
      <trkpt lat="47.84862" lon="6.9313">
        <ele>1163</ele>
        <time>2023-05-08T10:12:02Z</time>
      </trkpt>
      <trkpt lat="47.84872" lon="6.93145">
        <ele>1166</ele>
        <time>2023-05-08T10:12:17Z</time>
      </trkpt>
      <trkpt lat="47.84884" lon="6.93182">
        <ele>1172</ele>
        <time>2023-05-08T10:12:47Z</time>
      </trkpt>
      <trkpt lat="47.84889" lon="6.93198">
        <ele>1174</ele>
        <time>2023-05-08T10:12:59Z</time>
      </trkpt>
      <trkpt lat="47.84895" lon="6.93231">
        <ele>1177</ele>
        <time>2023-05-08T10:13:21Z</time>
      </trkpt>
      <trkpt lat="47.84899" lon="6.93243">
        <ele>1178</ele>
        <time>2023-05-08T10:13:28Z</time>
      </trkpt>
      <trkpt lat="47.84903" lon="6.93264">
        <ele>1180</ele>
        <time>2023-05-08T10:13:44Z</time>
      </trkpt>
      <trkpt lat="47.84903" lon="6.93272">
        <ele>1181</ele>
        <time>2023-05-08T10:13:49Z</time>
      </trkpt>
      <trkpt lat="47.84916" lon="6.93328">
        <ele>1184</ele>
        <time>2023-05-08T10:14:23Z</time>
      </trkpt>
      <trkpt lat="47.84917" lon="6.93337">
        <ele>1185</ele>
        <time>2023-05-08T10:14:29Z</time>
      </trkpt>
      <trkpt lat="47.84919" lon="6.93344">
        <ele>1185</ele>
        <time>2023-05-08T10:14:32Z</time>
      </trkpt>
      <trkpt lat="47.84921" lon="6.93361">
        <ele>1186</ele>
        <time>2023-05-08T10:14:43Z</time>
      </trkpt>
      <trkpt lat="47.84922" lon="6.93367">
        <ele>1187</ele>
        <time>2023-05-08T10:14:46Z</time>
      </trkpt>
      <trkpt lat="47.84925" lon="6.93376">
        <ele>1187</ele>
        <time>2023-05-08T10:14:52Z</time>
      </trkpt>
      <trkpt lat="47.84925" lon="6.9339">
        <ele>1188</ele>
        <time>2023-05-08T10:15:01Z</time>
      </trkpt>
      <trkpt lat="47.84926" lon="6.93399">
        <ele>1188</ele>
        <time>2023-05-08T10:15:05Z</time>
      </trkpt>
      <trkpt lat="47.84928" lon="6.93405">
        <ele>1187</ele>
        <time>2023-05-08T10:15:10Z</time>
      </trkpt>
      <trkpt lat="47.84929" lon="6.93413">
        <ele>1187</ele>
        <time>2023-05-08T10:15:14Z</time>
      </trkpt>
      <trkpt lat="47.8493" lon="6.93419">
        <ele>1187</ele>
        <time>2023-05-08T10:15:17Z</time>
      </trkpt>
      <trkpt lat="47.8493" lon="6.9343">
        <ele>1186</ele>
        <time>2023-05-08T10:15:23Z</time>
      </trkpt>
      <trkpt lat="47.84937" lon="6.93451">
        <ele>1185</ele>
        <time>2023-05-08T10:15:38Z</time>
      </trkpt>
      <trkpt lat="47.84938" lon="6.93459">
        <ele>1185</ele>
        <time>2023-05-08T10:15:42Z</time>
      </trkpt>
      <trkpt lat="47.84943" lon="6.93471">
        <ele>1184</ele>
        <time>2023-05-08T10:15:50Z</time>
      </trkpt>
      <trkpt lat="47.84946" lon="6.93477">
        <ele>1183</ele>
        <time>2023-05-08T10:15:54Z</time>
      </trkpt>
      <trkpt lat="47.84948" lon="6.93484">
        <ele>1183</ele>
        <time>2023-05-08T10:15:59Z</time>
      </trkpt>
      <trkpt lat="47.8495" lon="6.93489">
        <ele>1183</ele>
        <time>2023-05-08T10:16:03Z</time>
      </trkpt>
      <trkpt lat="47.84954" lon="6.93494">
        <ele>1183</ele>
        <time>2023-05-08T10:16:07Z</time>
      </trkpt>
      <trkpt lat="47.84956" lon="6.935">
        <ele>1183</ele>
        <time>2023-05-08T10:16:11Z</time>
      </trkpt>
      <trkpt lat="47.84965" lon="6.93512">
        <ele>1185</ele>
        <time>2023-05-08T10:16:24Z</time>
      </trkpt>
      <trkpt lat="47.8497" lon="6.93524">
        <ele>1187</ele>
        <time>2023-05-08T10:16:34Z</time>
      </trkpt>
      <trkpt lat="47.84973" lon="6.9353">
        <ele>1187</ele>
        <time>2023-05-08T10:16:37Z</time>
      </trkpt>
      <trkpt lat="47.84974" lon="6.93537">
        <ele>1188</ele>
        <time>2023-05-08T10:16:41Z</time>
      </trkpt>
      <trkpt lat="47.84975" lon="6.93543">
        <ele>1188</ele>
        <time>2023-05-08T10:16:45Z</time>
      </trkpt>
      <trkpt lat="47.84979" lon="6.93547">
        <ele>1187</ele>
        <time>2023-05-08T10:16:50Z</time>
      </trkpt>
      <trkpt lat="47.84979" lon="6.93557">
        <ele>1187</ele>
        <time>2023-05-08T10:16:56Z</time>
      </trkpt>
      <trkpt lat="47.84982" lon="6.93564">
        <ele>1186</ele>
        <time>2023-05-08T10:17:00Z</time>
      </trkpt>
      <trkpt lat="47.84986" lon="6.93575">
        <ele>1184</ele>
        <time>2023-05-08T10:17:06Z</time>
      </trkpt>
      <trkpt lat="47.84993" lon="6.93584">
        <ele>1184</ele>
        <time>2023-05-08T10:17:13Z</time>
      </trkpt>
      <trkpt lat="47.85002" lon="6.93602">
        <ele>1184</ele>
        <time>2023-05-08T10:17:24Z</time>
      </trkpt>
      <trkpt lat="47.85007" lon="6.93608">
        <ele>1184</ele>
        <time>2023-05-08T10:17:30Z</time>
      </trkpt>
      <trkpt lat="47.8501" lon="6.93614">
        <ele>1184</ele>
        <time>2023-05-08T10:17:34Z</time>
      </trkpt>
      <trkpt lat="47.8501" lon="6.9362">
        <ele>1184</ele>
        <time>2023-05-08T10:17:37Z</time>
      </trkpt>
      <trkpt lat="47.85016" lon="6.93634">
        <ele>1185</ele>
        <time>2023-05-08T10:17:51Z</time>
      </trkpt>
      <trkpt lat="47.85029" lon="6.93662">
        <ele>1183</ele>
        <time>2023-05-08T10:18:09Z</time>
      </trkpt>
      <trkpt lat="47.85035" lon="6.93672">
        <ele>1183</ele>
        <time>2023-05-08T10:18:17Z</time>
      </trkpt>
      <trkpt lat="47.85042" lon="6.93681">
        <ele>1183</ele>
        <time>2023-05-08T10:18:25Z</time>
      </trkpt>
      <trkpt lat="47.85046" lon="6.93686">
        <ele>1183</ele>
        <time>2023-05-08T10:18:30Z</time>
      </trkpt>
      <trkpt lat="47.85049" lon="6.93692">
        <ele>1184</ele>
        <time>2023-05-08T10:18:35Z</time>
      </trkpt>
      <trkpt lat="47.85052" lon="6.93696">
        <ele>1185</ele>
        <time>2023-05-08T10:18:39Z</time>
      </trkpt>
      <trkpt lat="47.85053" lon="6.93703">
        <ele>1185</ele>
        <time>2023-05-08T10:18:42Z</time>
      </trkpt>
      <trkpt lat="47.85059" lon="6.93714">
        <ele>1185</ele>
        <time>2023-05-08T10:18:50Z</time>
      </trkpt>
      <trkpt lat="47.85062" lon="6.9372">
        <ele>1185</ele>
        <time>2023-05-08T10:18:54Z</time>
      </trkpt>
      <trkpt lat="47.85072" lon="6.93735">
        <ele>1186</ele>
        <time>2023-05-08T10:19:06Z</time>
      </trkpt>
      <trkpt lat="47.85091" lon="6.93778">
        <ele>1186</ele>
        <time>2023-05-08T10:19:37Z</time>
      </trkpt>
      <trkpt lat="47.85096" lon="6.93796">
        <ele>1187</ele>
        <time>2023-05-08T10:19:50Z</time>
      </trkpt>
      <trkpt lat="47.85097" lon="6.93803">
        <ele>1187</ele>
        <time>2023-05-08T10:19:54Z</time>
      </trkpt>
      <trkpt lat="47.85103" lon="6.93813">
        <ele>1186</ele>
        <time>2023-05-08T10:20:02Z</time>
      </trkpt>
      <trkpt lat="47.85107" lon="6.93818">
        <ele>1186</ele>
        <time>2023-05-08T10:20:06Z</time>
      </trkpt>
      <trkpt lat="47.8511" lon="6.93823">
        <ele>1186</ele>
        <time>2023-05-08T10:20:10Z</time>
      </trkpt>
      <trkpt lat="47.85123" lon="6.93838">
        <ele>1184</ele>
        <time>2023-05-08T10:20:24Z</time>
      </trkpt>
      <trkpt lat="47.85144" lon="6.93875">
        <ele>1181</ele>
        <time>2023-05-08T10:20:51Z</time>
      </trkpt>
      <trkpt lat="47.85146" lon="6.93882">
        <ele>1181</ele>
        <time>2023-05-08T10:20:55Z</time>
      </trkpt>
      <trkpt lat="47.85151" lon="6.93894">
        <ele>1181</ele>
        <time>2023-05-08T10:21:03Z</time>
      </trkpt>
      <trkpt lat="47.85154" lon="6.93899">
        <ele>1181</ele>
        <time>2023-05-08T10:21:06Z</time>
      </trkpt>
      <trkpt lat="47.85156" lon="6.93906">
        <ele>1181</ele>
        <time>2023-05-08T10:21:10Z</time>
      </trkpt>
      <trkpt lat="47.85159" lon="6.93911">
        <ele>1181</ele>
        <time>2023-05-08T10:21:14Z</time>
      </trkpt>
      <trkpt lat="47.85165" lon="6.93923">
        <ele>1180</ele>
        <time>2023-05-08T10:21:22Z</time>
      </trkpt>
      <trkpt lat="47.85167" lon="6.93937">
        <ele>1180</ele>
        <time>2023-05-08T10:21:31Z</time>
      </trkpt>
      <trkpt lat="47.85172" lon="6.9395">
        <ele>1179</ele>
        <time>2023-05-08T10:21:39Z</time>
      </trkpt>
      <trkpt lat="47.85173" lon="6.93966">
        <ele>1179</ele>
        <time>2023-05-08T10:21:48Z</time>
      </trkpt>
      <trkpt lat="47.85179" lon="6.93999">
        <ele>1176</ele>
        <time>2023-05-08T10:22:09Z</time>
      </trkpt>
      <trkpt lat="47.85179" lon="6.94007">
        <ele>1175</ele>
        <time>2023-05-08T10:22:13Z</time>
      </trkpt>
      <trkpt lat="47.85173" lon="6.94032">
        <ele>1174</ele>
        <time>2023-05-08T10:22:28Z</time>
      </trkpt>
      <trkpt lat="47.85161" lon="6.94053">
        <ele>1171</ele>
        <time>2023-05-08T10:22:44Z</time>
      </trkpt>
      <trkpt lat="47.85157" lon="6.94054">
        <ele>1170</ele>
        <time>2023-05-08T10:22:48Z</time>
      </trkpt>
      <trkpt lat="47.85138" lon="6.94078">
        <ele>1165</ele>
        <time>2023-05-08T10:23:07Z</time>
      </trkpt>
      <trkpt lat="47.85134" lon="6.9408">
        <ele>1164</ele>
        <time>2023-05-08T10:23:15Z</time>
      </trkpt>
      <trkpt lat="47.8513" lon="6.94083">
        <ele>1163</ele>
        <time>2023-05-08T10:23:19Z</time>
      </trkpt>
      <trkpt lat="47.85119" lon="6.94105">
        <ele>1160</ele>
        <time>2023-05-08T10:23:35Z</time>
      </trkpt>
      <trkpt lat="47.85114" lon="6.9411">
        <ele>1159</ele>
        <time>2023-05-08T10:23:39Z</time>
      </trkpt>
      <trkpt lat="47.85111" lon="6.94115">
        <ele>1160</ele>
        <time>2023-05-08T10:23:42Z</time>
      </trkpt>
      <trkpt lat="47.85102" lon="6.9413">
        <ele>1157</ele>
        <time>2023-05-08T10:23:55Z</time>
      </trkpt>
      <trkpt lat="47.85098" lon="6.94147">
        <ele>1155</ele>
        <time>2023-05-08T10:24:07Z</time>
      </trkpt>
      <trkpt lat="47.85093" lon="6.94159">
        <ele>1154</ele>
        <time>2023-05-08T10:24:14Z</time>
      </trkpt>
      <trkpt lat="47.8509" lon="6.94166">
        <ele>1153</ele>
        <time>2023-05-08T10:24:18Z</time>
      </trkpt>
      <trkpt lat="47.85084" lon="6.94176">
        <ele>1152</ele>
        <time>2023-05-08T10:24:27Z</time>
      </trkpt>
      <trkpt lat="47.85081" lon="6.9418">
        <ele>1151</ele>
        <time>2023-05-08T10:24:31Z</time>
      </trkpt>
      <trkpt lat="47.85069" lon="6.94188">
        <ele>1148</ele>
        <time>2023-05-08T10:24:42Z</time>
      </trkpt>
      <trkpt lat="47.85036" lon="6.94201">
        <ele>1139</ele>
        <time>2023-05-08T10:25:15Z</time>
      </trkpt>
      <trkpt lat="47.8502" lon="6.94209">
        <ele>1134</ele>
        <time>2023-05-08T10:25:32Z</time>
      </trkpt>
      <trkpt lat="47.85012" lon="6.94209">
        <ele>1133</ele>
        <time>2023-05-08T10:25:39Z</time>
      </trkpt>
      <trkpt lat="47.85008" lon="6.94214">
        <ele>1132</ele>
        <time>2023-05-08T10:25:45Z</time>
      </trkpt>
      <trkpt lat="47.85002" lon="6.94218">
        <ele>1129</ele>
        <time>2023-05-08T10:25:53Z</time>
      </trkpt>
      <trkpt lat="47.84997" lon="6.94219">
        <ele>1128</ele>
        <time>2023-05-08T10:25:57Z</time>
      </trkpt>
      <trkpt lat="47.84992" lon="6.94223">
        <ele>1127</ele>
        <time>2023-05-08T10:26:03Z</time>
      </trkpt>
      <trkpt lat="47.84987" lon="6.94227">
        <ele>1127</ele>
        <time>2023-05-08T10:26:08Z</time>
      </trkpt>
      <trkpt lat="47.84983" lon="6.94229">
        <ele>1127</ele>
        <time>2023-05-08T10:26:12Z</time>
      </trkpt>
      <trkpt lat="47.84979" lon="6.94232">
        <ele>1127</ele>
        <time>2023-05-08T10:26:16Z</time>
      </trkpt>
      <trkpt lat="47.84974" lon="6.94232">
        <ele>1127</ele>
        <time>2023-05-08T10:26:21Z</time>
      </trkpt>
      <trkpt lat="47.8497" lon="6.94235">
        <ele>1127</ele>
        <time>2023-05-08T10:26:25Z</time>
      </trkpt>
      <trkpt lat="47.84965" lon="6.94239">
        <ele>1126</ele>
        <time>2023-05-08T10:26:30Z</time>
      </trkpt>
      <trkpt lat="47.84961" lon="6.94242">
        <ele>1126</ele>
        <time>2023-05-08T10:26:33Z</time>
      </trkpt>
      <trkpt lat="47.84957" lon="6.94246">
        <ele>1126</ele>
        <time>2023-05-08T10:26:37Z</time>
      </trkpt>
      <trkpt lat="47.84953" lon="6.94248">
        <ele>1126</ele>
        <time>2023-05-08T10:26:41Z</time>
      </trkpt>
      <trkpt lat="47.84947" lon="6.94255">
        <ele>1127</ele>
        <time>2023-05-08T10:26:47Z</time>
      </trkpt>
      <trkpt lat="47.84921" lon="6.94293">
        <ele>1124</ele>
        <time>2023-05-08T10:27:17Z</time>
      </trkpt>
      <trkpt lat="47.84915" lon="6.9431">
        <ele>1123</ele>
        <time>2023-05-08T10:27:30Z</time>
      </trkpt>
      <trkpt lat="47.84909" lon="6.94317">
        <ele>1122</ele>
        <time>2023-05-08T10:27:35Z</time>
      </trkpt>
      <trkpt lat="47.84904" lon="6.9432">
        <ele>1122</ele>
        <time>2023-05-08T10:27:38Z</time>
      </trkpt>
      <trkpt lat="47.84901" lon="6.94325">
        <ele>1122</ele>
        <time>2023-05-08T10:27:42Z</time>
      </trkpt>
      <trkpt lat="47.84882" lon="6.94371">
        <ele>1119</ele>
        <time>2023-05-08T10:28:16Z</time>
      </trkpt>
      <trkpt lat="47.8488" lon="6.94383">
        <ele>1118</ele>
        <time>2023-05-08T10:28:24Z</time>
      </trkpt>
      <trkpt lat="47.84871" lon="6.94407">
        <ele>1115</ele>
        <time>2023-05-08T10:28:40Z</time>
      </trkpt>
      <trkpt lat="47.84865" lon="6.94425">
        <ele>1115</ele>
        <time>2023-05-08T10:28:52Z</time>
      </trkpt>
      <trkpt lat="47.84866" lon="6.94432">
        <ele>1115</ele>
        <time>2023-05-08T10:28:56Z</time>
      </trkpt>
      <trkpt lat="47.84863" lon="6.94439">
        <ele>1114</ele>
        <time>2023-05-08T10:29:00Z</time>
      </trkpt>
      <trkpt lat="47.8486" lon="6.94445">
        <ele>1114</ele>
        <time>2023-05-08T10:29:05Z</time>
      </trkpt>
      <trkpt lat="47.84858" lon="6.94451">
        <ele>1114</ele>
        <time>2023-05-08T10:29:08Z</time>
      </trkpt>
      <trkpt lat="47.84854" lon="6.94456">
        <ele>1113</ele>
        <time>2023-05-08T10:29:12Z</time>
      </trkpt>
      <trkpt lat="47.84849" lon="6.94456">
        <ele>1112</ele>
        <time>2023-05-08T10:29:18Z</time>
      </trkpt>
      <trkpt lat="47.84842" lon="6.94459">
        <ele>1113</ele>
        <time>2023-05-08T10:29:25Z</time>
      </trkpt>
      <trkpt lat="47.84837" lon="6.94466">
        <ele>1112</ele>
        <time>2023-05-08T10:29:32Z</time>
      </trkpt>
      <trkpt lat="47.84829" lon="6.9448">
        <ele>1111</ele>
        <time>2023-05-08T10:29:41Z</time>
      </trkpt>
      <trkpt lat="47.84827" lon="6.94488">
        <ele>1110</ele>
        <time>2023-05-08T10:29:48Z</time>
      </trkpt>
      <trkpt lat="47.84823" lon="6.94496">
        <ele>1109</ele>
        <time>2023-05-08T10:29:56Z</time>
      </trkpt>
      <trkpt lat="47.84802" lon="6.94538">
        <ele>1102</ele>
        <time>2023-05-08T10:30:30Z</time>
      </trkpt>
      <trkpt lat="47.84799" lon="6.94542">
        <ele>1101</ele>
        <time>2023-05-08T10:30:33Z</time>
      </trkpt>
      <trkpt lat="47.84796" lon="6.94547">
        <ele>1101</ele>
        <time>2023-05-08T10:30:37Z</time>
      </trkpt>
      <trkpt lat="47.84792" lon="6.94551">
        <ele>1101</ele>
        <time>2023-05-08T10:30:41Z</time>
      </trkpt>
      <trkpt lat="47.84783" lon="6.94586">
        <ele>1095</ele>
        <time>2023-05-08T10:31:09Z</time>
      </trkpt>
      <trkpt lat="47.84779" lon="6.94592">
        <ele>1094</ele>
        <time>2023-05-08T10:31:14Z</time>
      </trkpt>
      <trkpt lat="47.84772" lon="6.94601">
        <ele>1091</ele>
        <time>2023-05-08T10:31:22Z</time>
      </trkpt>
      <trkpt lat="47.84777" lon="6.94601">
        <ele>1090</ele>
        <time>2023-05-08T10:31:29Z</time>
      </trkpt>
      <trkpt lat="47.8478" lon="6.94607">
        <ele>1088</ele>
        <time>2023-05-08T10:31:37Z</time>
      </trkpt>
      <trkpt lat="47.84779" lon="6.94615">
        <ele>1086</ele>
        <time>2023-05-08T10:31:42Z</time>
      </trkpt>
      <trkpt lat="47.84782" lon="6.94618">
        <ele>1080</ele>
        <time>2023-05-08T10:32:05Z</time>
      </trkpt>
      <trkpt lat="47.84786" lon="6.94613">
        <ele>1079</ele>
        <time>2023-05-08T10:32:10Z</time>
      </trkpt>
      <trkpt lat="47.84789" lon="6.94623">
        <ele>1076</ele>
        <time>2023-05-08T10:32:23Z</time>
      </trkpt>
      <trkpt lat="47.84788" lon="6.9463">
        <ele>1075</ele>
        <time>2023-05-08T10:32:28Z</time>
      </trkpt>
      <trkpt lat="47.8479" lon="6.94646">
        <ele>1071</ele>
        <time>2023-05-08T10:32:40Z</time>
      </trkpt>
      <trkpt lat="47.84793" lon="6.94647">
        <ele>1068</ele>
        <time>2023-05-08T10:32:52Z</time>
      </trkpt>
      <trkpt lat="47.84794" lon="6.94657">
        <ele>1065</ele>
        <time>2023-05-08T10:33:04Z</time>
      </trkpt>
      <trkpt lat="47.84789" lon="6.9467">
        <ele>1064</ele>
        <time>2023-05-08T10:33:11Z</time>
      </trkpt>
      <trkpt lat="47.84788" lon="6.94684">
        <ele>1063</ele>
        <time>2023-05-08T10:33:17Z</time>
      </trkpt>
      <trkpt lat="47.84787" lon="6.94707">
        <ele>1060</ele>
        <time>2023-05-08T10:33:34Z</time>
      </trkpt>
      <trkpt lat="47.84784" lon="6.94716">
        <ele>1061</ele>
        <time>2023-05-08T10:33:41Z</time>
      </trkpt>
      <trkpt lat="47.84783" lon="6.94722">
        <ele>1061</ele>
        <time>2023-05-08T10:33:45Z</time>
      </trkpt>
      <trkpt lat="47.84784" lon="6.94731">
        <ele>1061</ele>
        <time>2023-05-08T10:33:52Z</time>
      </trkpt>
      <trkpt lat="47.84783" lon="6.94738">
        <ele>1060</ele>
        <time>2023-05-08T10:33:56Z</time>
      </trkpt>
      <trkpt lat="47.84783" lon="6.94745">
        <ele>1060</ele>
        <time>2023-05-08T10:34:00Z</time>
      </trkpt>
      <trkpt lat="47.84779" lon="6.94764">
        <ele>1059</ele>
        <time>2023-05-08T10:34:12Z</time>
      </trkpt>
      <trkpt lat="47.84776" lon="6.94771">
        <ele>1059</ele>
        <time>2023-05-08T10:34:16Z</time>
      </trkpt>
      <trkpt lat="47.84772" lon="6.94777">
        <ele>1059</ele>
        <time>2023-05-08T10:34:20Z</time>
      </trkpt>
      <trkpt lat="47.8477" lon="6.94784">
        <ele>1059</ele>
        <time>2023-05-08T10:34:25Z</time>
      </trkpt>
      <trkpt lat="47.84767" lon="6.94791">
        <ele>1058</ele>
        <time>2023-05-08T10:34:31Z</time>
      </trkpt>
      <trkpt lat="47.84763" lon="6.94793">
        <ele>1057</ele>
        <time>2023-05-08T10:34:35Z</time>
      </trkpt>
      <trkpt lat="47.84759" lon="6.94797">
        <ele>1057</ele>
        <time>2023-05-08T10:34:39Z</time>
      </trkpt>
      <trkpt lat="47.84755" lon="6.94805">
        <ele>1056</ele>
        <time>2023-05-08T10:34:44Z</time>
      </trkpt>
      <trkpt lat="47.84754" lon="6.94812">
        <ele>1056</ele>
        <time>2023-05-08T10:34:48Z</time>
      </trkpt>
      <trkpt lat="47.8475" lon="6.94817">
        <ele>1056</ele>
        <time>2023-05-08T10:34:51Z</time>
      </trkpt>
      <trkpt lat="47.84746" lon="6.9483">
        <ele>1055</ele>
        <time>2023-05-08T10:34:59Z</time>
      </trkpt>
      <trkpt lat="47.84744" lon="6.94836">
        <ele>1055</ele>
        <time>2023-05-08T10:35:02Z</time>
      </trkpt>
      <trkpt lat="47.84743" lon="6.94844">
        <ele>1056</ele>
        <time>2023-05-08T10:35:09Z</time>
      </trkpt>
      <trkpt lat="47.84743" lon="6.94851">
        <ele>1056</ele>
        <time>2023-05-08T10:35:13Z</time>
      </trkpt>
      <trkpt lat="47.84744" lon="6.94861">
        <ele>1055</ele>
        <time>2023-05-08T10:35:21Z</time>
      </trkpt>
      <trkpt lat="47.84747" lon="6.94866">
        <ele>1055</ele>
        <time>2023-05-08T10:35:25Z</time>
      </trkpt>
      <trkpt lat="47.84749" lon="6.94872">
        <ele>1054</ele>
        <time>2023-05-08T10:35:29Z</time>
      </trkpt>
      <trkpt lat="47.84748" lon="6.9488">
        <ele>1054</ele>
        <time>2023-05-08T10:35:34Z</time>
      </trkpt>
      <trkpt lat="47.8475" lon="6.94887">
        <ele>1055</ele>
        <time>2023-05-08T10:35:39Z</time>
      </trkpt>
      <trkpt lat="47.84751" lon="6.94894">
        <ele>1054</ele>
        <time>2023-05-08T10:35:43Z</time>
      </trkpt>
      <trkpt lat="47.8475" lon="6.94901">
        <ele>1053</ele>
        <time>2023-05-08T10:35:47Z</time>
      </trkpt>
      <trkpt lat="47.84747" lon="6.94907">
        <ele>1055</ele>
        <time>2023-05-08T10:35:55Z</time>
      </trkpt>
      <trkpt lat="47.84748" lon="6.94913">
        <ele>1055</ele>
        <time>2023-05-08T10:36:00Z</time>
      </trkpt>
      <trkpt lat="47.84751" lon="6.94925">
        <ele>1054</ele>
        <time>2023-05-08T10:36:08Z</time>
      </trkpt>
      <trkpt lat="47.84752" lon="6.94938">
        <ele>1055</ele>
        <time>2023-05-08T10:36:17Z</time>
      </trkpt>
      <trkpt lat="47.84754" lon="6.94952">
        <ele>1054</ele>
        <time>2023-05-08T10:36:24Z</time>
      </trkpt>
      <trkpt lat="47.84755" lon="6.94959">
        <ele>1054</ele>
        <time>2023-05-08T10:36:28Z</time>
      </trkpt>
      <trkpt lat="47.84754" lon="6.94979">
        <ele>1056</ele>
        <time>2023-05-08T10:36:42Z</time>
      </trkpt>
      <trkpt lat="47.84756" lon="6.94987">
        <ele>1056</ele>
        <time>2023-05-08T10:36:47Z</time>
      </trkpt>
      <trkpt lat="47.84758" lon="6.95001">
        <ele>1056</ele>
        <time>2023-05-08T10:36:55Z</time>
      </trkpt>
      <trkpt lat="47.84758" lon="6.95015">
        <ele>1055</ele>
        <time>2023-05-08T10:37:04Z</time>
      </trkpt>
      <trkpt lat="47.84756" lon="6.95022">
        <ele>1056</ele>
        <time>2023-05-08T10:37:08Z</time>
      </trkpt>
      <trkpt lat="47.84755" lon="6.95028">
        <ele>1055</ele>
        <time>2023-05-08T10:37:12Z</time>
      </trkpt>
      <trkpt lat="47.84754" lon="6.95036">
        <ele>1055</ele>
        <time>2023-05-08T10:37:16Z</time>
      </trkpt>
      <trkpt lat="47.84749" lon="6.95048">
        <ele>1055</ele>
        <time>2023-05-08T10:37:23Z</time>
      </trkpt>
      <trkpt lat="47.84749" lon="6.95055">
        <ele>1054</ele>
        <time>2023-05-08T10:37:27Z</time>
      </trkpt>
      <trkpt lat="47.84747" lon="6.95062">
        <ele>1054</ele>
        <time>2023-05-08T10:37:30Z</time>
      </trkpt>
      <trkpt lat="47.84744" lon="6.95067">
        <ele>1054</ele>
        <time>2023-05-08T10:37:34Z</time>
      </trkpt>
      <trkpt lat="47.84743" lon="6.95075">
        <ele>1054</ele>
        <time>2023-05-08T10:37:38Z</time>
      </trkpt>
      <trkpt lat="47.8474" lon="6.9508">
        <ele>1054</ele>
        <time>2023-05-08T10:37:42Z</time>
      </trkpt>
      <trkpt lat="47.84738" lon="6.95085">
        <ele>1054</ele>
        <time>2023-05-08T10:37:47Z</time>
      </trkpt>
      <trkpt lat="47.84735" lon="6.95094">
        <ele>1054</ele>
        <time>2023-05-08T10:37:55Z</time>
      </trkpt>
      <trkpt lat="47.84723" lon="6.9511">
        <ele>1053</ele>
        <time>2023-05-08T10:38:08Z</time>
      </trkpt>
      <trkpt lat="47.84721" lon="6.95119">
        <ele>1052</ele>
        <time>2023-05-08T10:38:15Z</time>
      </trkpt>
      <trkpt lat="47.84718" lon="6.95124">
        <ele>1051</ele>
        <time>2023-05-08T10:38:19Z</time>
      </trkpt>
      <trkpt lat="47.84715" lon="6.9513">
        <ele>1051</ele>
        <time>2023-05-08T10:38:23Z</time>
      </trkpt>
      <trkpt lat="47.84714" lon="6.95136">
        <ele>1051</ele>
        <time>2023-05-08T10:38:27Z</time>
      </trkpt>
      <trkpt lat="47.8471" lon="6.95142">
        <ele>1051</ele>
        <time>2023-05-08T10:38:31Z</time>
      </trkpt>
      <trkpt lat="47.84708" lon="6.95148">
        <ele>1052</ele>
        <time>2023-05-08T10:38:35Z</time>
      </trkpt>
      <trkpt lat="47.84705" lon="6.95153">
        <ele>1052</ele>
        <time>2023-05-08T10:38:40Z</time>
      </trkpt>
      <trkpt lat="47.84702" lon="6.95166">
        <ele>1053</ele>
        <time>2023-05-08T10:38:51Z</time>
      </trkpt>
      <trkpt lat="47.84699" lon="6.9517">
        <ele>1053</ele>
        <time>2023-05-08T10:38:55Z</time>
      </trkpt>
      <trkpt lat="47.84698" lon="6.95184">
        <ele>1053</ele>
        <time>2023-05-08T10:39:04Z</time>
      </trkpt>
      <trkpt lat="47.84701" lon="6.95191">
        <ele>1053</ele>
        <time>2023-05-08T10:39:09Z</time>
      </trkpt>
      <trkpt lat="47.84703" lon="6.95197">
        <ele>1053</ele>
        <time>2023-05-08T10:39:13Z</time>
      </trkpt>
      <trkpt lat="47.84702" lon="6.95204">
        <ele>1054</ele>
        <time>2023-05-08T10:39:18Z</time>
      </trkpt>
      <trkpt lat="47.84701" lon="6.95211">
        <ele>1055</ele>
        <time>2023-05-08T10:39:23Z</time>
      </trkpt>
      <trkpt lat="47.847" lon="6.95218">
        <ele>1055</ele>
        <time>2023-05-08T10:39:27Z</time>
      </trkpt>
      <trkpt lat="47.84699" lon="6.95234">
        <ele>1054</ele>
        <time>2023-05-08T10:39:36Z</time>
      </trkpt>
      <trkpt lat="47.84699" lon="6.9525">
        <ele>1055</ele>
        <time>2023-05-08T10:39:45Z</time>
      </trkpt>
      <trkpt lat="47.84696" lon="6.95259">
        <ele>1055</ele>
        <time>2023-05-08T10:39:52Z</time>
      </trkpt>
      <trkpt lat="47.84695" lon="6.95275">
        <ele>1056</ele>
        <time>2023-05-08T10:40:00Z</time>
      </trkpt>
      <trkpt lat="47.84693" lon="6.95282">
        <ele>1056</ele>
        <time>2023-05-08T10:40:04Z</time>
      </trkpt>
      <trkpt lat="47.84693" lon="6.9529">
        <ele>1056</ele>
        <time>2023-05-08T10:40:09Z</time>
      </trkpt>
      <trkpt lat="47.84692" lon="6.95296">
        <ele>1056</ele>
        <time>2023-05-08T10:40:12Z</time>
      </trkpt>
      <trkpt lat="47.84693" lon="6.95303">
        <ele>1056</ele>
        <time>2023-05-08T10:40:17Z</time>
      </trkpt>
      <trkpt lat="47.84693" lon="6.9531">
        <ele>1055</ele>
        <time>2023-05-08T10:40:22Z</time>
      </trkpt>
      <trkpt lat="47.8469" lon="6.95319">
        <ele>1057</ele>
        <time>2023-05-08T10:40:30Z</time>
      </trkpt>
      <trkpt lat="47.84688" lon="6.95325">
        <ele>1057</ele>
        <time>2023-05-08T10:40:34Z</time>
      </trkpt>
      <trkpt lat="47.84684" lon="6.9533">
        <ele>1057</ele>
        <time>2023-05-08T10:40:39Z</time>
      </trkpt>
      <trkpt lat="47.84683" lon="6.95337">
        <ele>1057</ele>
        <time>2023-05-08T10:40:43Z</time>
      </trkpt>
      <trkpt lat="47.84683" lon="6.95343">
        <ele>1057</ele>
        <time>2023-05-08T10:40:47Z</time>
      </trkpt>
      <trkpt lat="47.8468" lon="6.95357">
        <ele>1055</ele>
        <time>2023-05-08T10:40:58Z</time>
      </trkpt>
      <trkpt lat="47.84674" lon="6.95373">
        <ele>1056</ele>
        <time>2023-05-08T10:41:09Z</time>
      </trkpt>
      <trkpt lat="47.84673" lon="6.95381">
        <ele>1056</ele>
        <time>2023-05-08T10:41:13Z</time>
      </trkpt>
      <trkpt lat="47.84673" lon="6.95409">
        <ele>1059</ele>
        <time>2023-05-08T10:41:31Z</time>
      </trkpt>
      <trkpt lat="47.84669" lon="6.95438">
        <ele>1061</ele>
        <time>2023-05-08T10:41:49Z</time>
      </trkpt>
      <trkpt lat="47.84667" lon="6.95444">
        <ele>1062</ele>
        <time>2023-05-08T10:41:53Z</time>
      </trkpt>
      <trkpt lat="47.84674" lon="6.95477">
        <ele>1066</ele>
        <time>2023-05-08T10:42:18Z</time>
      </trkpt>
      <trkpt lat="47.84675" lon="6.95484">
        <ele>1066</ele>
        <time>2023-05-08T10:42:23Z</time>
      </trkpt>
      <trkpt lat="47.84675" lon="6.95506">
        <ele>1069</ele>
        <time>2023-05-08T10:42:40Z</time>
      </trkpt>
      <trkpt lat="47.84676" lon="6.95526">
        <ele>1071</ele>
        <time>2023-05-08T10:42:56Z</time>
      </trkpt>
      <trkpt lat="47.84676" lon="6.95539">
        <ele>1072</ele>
        <time>2023-05-08T10:43:08Z</time>
      </trkpt>
      <trkpt lat="47.84674" lon="6.95548">
        <ele>1072</ele>
        <time>2023-05-08T10:43:13Z</time>
      </trkpt>
      <trkpt lat="47.84674" lon="6.95562">
        <ele>1072</ele>
        <time>2023-05-08T10:43:21Z</time>
      </trkpt>
      <trkpt lat="47.84673" lon="6.95574">
        <ele>1073</ele>
        <time>2023-05-08T10:43:29Z</time>
      </trkpt>
      <trkpt lat="47.84675" lon="6.9558">
        <ele>1073</ele>
        <time>2023-05-08T10:43:33Z</time>
      </trkpt>
      <trkpt lat="47.84673" lon="6.95605">
        <ele>1074</ele>
        <time>2023-05-08T10:43:48Z</time>
      </trkpt>
      <trkpt lat="47.84675" lon="6.95611">
        <ele>1074</ele>
        <time>2023-05-08T10:43:52Z</time>
      </trkpt>
      <trkpt lat="47.84682" lon="6.95631">
        <ele>1073</ele>
        <time>2023-05-08T10:44:05Z</time>
      </trkpt>
      <trkpt lat="47.84685" lon="6.95648">
        <ele>1073</ele>
        <time>2023-05-08T10:44:16Z</time>
      </trkpt>
      <trkpt lat="47.84687" lon="6.95653">
        <ele>1073</ele>
        <time>2023-05-08T10:44:21Z</time>
      </trkpt>
      <trkpt lat="47.84691" lon="6.95667">
        <ele>1071</ele>
        <time>2023-05-08T10:44:30Z</time>
      </trkpt>
      <trkpt lat="47.84694" lon="6.95674">
        <ele>1071</ele>
        <time>2023-05-08T10:44:35Z</time>
      </trkpt>
      <trkpt lat="47.84695" lon="6.9568">
        <ele>1071</ele>
        <time>2023-05-08T10:44:39Z</time>
      </trkpt>
      <trkpt lat="47.84699" lon="6.95684">
        <ele>1070</ele>
        <time>2023-05-08T10:44:47Z</time>
      </trkpt>
      <trkpt lat="47.847" lon="6.95696">
        <ele>1070</ele>
        <time>2023-05-08T10:44:58Z</time>
      </trkpt>
      <trkpt lat="47.847" lon="6.95704">
        <ele>1070</ele>
        <time>2023-05-08T10:45:13Z</time>
      </trkpt>
      <trkpt lat="47.847" lon="6.95712">
        <ele>1070</ele>
        <time>2023-05-08T10:45:17Z</time>
      </trkpt>
      <trkpt lat="47.84702" lon="6.9572">
        <ele>1071</ele>
        <time>2023-05-08T10:45:22Z</time>
      </trkpt>
      <trkpt lat="47.84714" lon="6.95754">
        <ele>1067</ele>
        <time>2023-05-08T10:45:42Z</time>
      </trkpt>
      <trkpt lat="47.84723" lon="6.95771">
        <ele>1068</ele>
        <time>2023-05-08T10:45:54Z</time>
      </trkpt>
      <trkpt lat="47.84724" lon="6.95782">
        <ele>1069</ele>
        <time>2023-05-08T10:46:02Z</time>
      </trkpt>
      <trkpt lat="47.84728" lon="6.95787">
        <ele>1069</ele>
        <time>2023-05-08T10:46:07Z</time>
      </trkpt>
      <trkpt lat="47.84732" lon="6.95792">
        <ele>1069</ele>
        <time>2023-05-08T10:46:11Z</time>
      </trkpt>
      <trkpt lat="47.84741" lon="6.95812">
        <ele>1068</ele>
        <time>2023-05-08T10:46:26Z</time>
      </trkpt>
      <trkpt lat="47.84745" lon="6.95818">
        <ele>1067</ele>
        <time>2023-05-08T10:46:33Z</time>
      </trkpt>
      <trkpt lat="47.84745" lon="6.95824">
        <ele>1066</ele>
        <time>2023-05-08T10:46:36Z</time>
      </trkpt>
      <trkpt lat="47.84746" lon="6.95832">
        <ele>1066</ele>
        <time>2023-05-08T10:46:43Z</time>
      </trkpt>
      <trkpt lat="47.8475" lon="6.95846">
        <ele>1065</ele>
        <time>2023-05-08T10:46:51Z</time>
      </trkpt>
      <trkpt lat="47.84751" lon="6.95852">
        <ele>1065</ele>
        <time>2023-05-08T10:46:55Z</time>
      </trkpt>
      <trkpt lat="47.84754" lon="6.95863">
        <ele>1065</ele>
        <time>2023-05-08T10:47:03Z</time>
      </trkpt>
      <trkpt lat="47.84754" lon="6.95871">
        <ele>1065</ele>
        <time>2023-05-08T10:47:09Z</time>
      </trkpt>
      <trkpt lat="47.84756" lon="6.95877">
        <ele>1065</ele>
        <time>2023-05-08T10:47:20Z</time>
      </trkpt>
      <trkpt lat="47.84753" lon="6.95885">
        <ele>1065</ele>
        <time>2023-05-08T10:47:31Z</time>
      </trkpt>
      <trkpt lat="47.84751" lon="6.95891">
        <ele>1064</ele>
        <time>2023-05-08T10:47:36Z</time>
      </trkpt>
      <trkpt lat="47.84747" lon="6.95897">
        <ele>1063</ele>
        <time>2023-05-08T10:47:45Z</time>
      </trkpt>
      <trkpt lat="47.84742" lon="6.95898">
        <ele>1060</ele>
        <time>2023-05-08T10:48:09Z</time>
      </trkpt>
      <trkpt lat="47.84737" lon="6.959">
        <ele>1060</ele>
        <time>2023-05-08T10:48:13Z</time>
      </trkpt>
      <trkpt lat="47.84733" lon="6.95903">
        <ele>1061</ele>
        <time>2023-05-08T10:48:18Z</time>
      </trkpt>
      <trkpt lat="47.84727" lon="6.95905">
        <ele>1060</ele>
        <time>2023-05-08T10:48:23Z</time>
      </trkpt>
      <trkpt lat="47.84711" lon="6.95917">
        <ele>1057</ele>
        <time>2023-05-08T10:48:43Z</time>
      </trkpt>
      <trkpt lat="47.84706" lon="6.95916">
        <ele>1057</ele>
        <time>2023-05-08T10:48:47Z</time>
      </trkpt>
      <trkpt lat="47.84702" lon="6.95918">
        <ele>1057</ele>
        <time>2023-05-08T10:48:50Z</time>
      </trkpt>
      <trkpt lat="47.84694" lon="6.9592">
        <ele>1059</ele>
        <time>2023-05-08T10:49:00Z</time>
      </trkpt>
      <trkpt lat="47.8469" lon="6.95919">
        <ele>1059</ele>
        <time>2023-05-08T10:49:04Z</time>
      </trkpt>
      <trkpt lat="47.84685" lon="6.95922">
        <ele>1059</ele>
        <time>2023-05-08T10:49:07Z</time>
      </trkpt>
      <trkpt lat="47.84681" lon="6.95923">
        <ele>1059</ele>
        <time>2023-05-08T10:49:11Z</time>
      </trkpt>
      <trkpt lat="47.84671" lon="6.95928">
        <ele>1059</ele>
        <time>2023-05-08T10:49:19Z</time>
      </trkpt>
      <trkpt lat="47.84668" lon="6.95932">
        <ele>1060</ele>
        <time>2023-05-08T10:49:24Z</time>
      </trkpt>
      <trkpt lat="47.84663" lon="6.95935">
        <ele>1059</ele>
        <time>2023-05-08T10:49:28Z</time>
      </trkpt>
      <trkpt lat="47.84658" lon="6.95939">
        <ele>1059</ele>
        <time>2023-05-08T10:49:32Z</time>
      </trkpt>
      <trkpt lat="47.84647" lon="6.95947">
        <ele>1060</ele>
        <time>2023-05-08T10:49:45Z</time>
      </trkpt>
      <trkpt lat="47.84646" lon="6.95955">
        <ele>1059</ele>
        <time>2023-05-08T10:49:50Z</time>
      </trkpt>
      <trkpt lat="47.84643" lon="6.9596">
        <ele>1058</ele>
        <time>2023-05-08T10:49:54Z</time>
      </trkpt>
      <trkpt lat="47.8464" lon="6.95965">
        <ele>1058</ele>
        <time>2023-05-08T10:49:57Z</time>
      </trkpt>
      <trkpt lat="47.84636" lon="6.9597">
        <ele>1058</ele>
        <time>2023-05-08T10:50:00Z</time>
      </trkpt>
      <trkpt lat="47.84632" lon="6.95976">
        <ele>1059</ele>
        <time>2023-05-08T10:50:06Z</time>
      </trkpt>
      <trkpt lat="47.84629" lon="6.95984">
        <ele>1058</ele>
        <time>2023-05-08T10:50:12Z</time>
      </trkpt>
      <trkpt lat="47.84625" lon="6.95988">
        <ele>1058</ele>
        <time>2023-05-08T10:50:16Z</time>
      </trkpt>
      <trkpt lat="47.84622" lon="6.95993">
        <ele>1058</ele>
        <time>2023-05-08T10:50:20Z</time>
      </trkpt>
      <trkpt lat="47.84619" lon="6.96">
        <ele>1057</ele>
        <time>2023-05-08T10:50:30Z</time>
      </trkpt>
      <trkpt lat="47.84614" lon="6.96014">
        <ele>1056</ele>
        <time>2023-05-08T10:50:40Z</time>
      </trkpt>
      <trkpt lat="47.8461" lon="6.9602">
        <ele>1055</ele>
        <time>2023-05-08T10:50:44Z</time>
      </trkpt>
      <trkpt lat="47.84609" lon="6.96026">
        <ele>1054</ele>
        <time>2023-05-08T10:50:48Z</time>
      </trkpt>
      <trkpt lat="47.84597" lon="6.96048">
        <ele>1053</ele>
        <time>2023-05-08T10:51:03Z</time>
      </trkpt>
      <trkpt lat="47.8458" lon="6.96059">
        <ele>1052</ele>
        <time>2023-05-08T10:51:19Z</time>
      </trkpt>
      <trkpt lat="47.84575" lon="6.96061">
        <ele>1051</ele>
        <time>2023-05-08T10:51:23Z</time>
      </trkpt>
      <trkpt lat="47.84539" lon="6.96083">
        <ele>1047</ele>
        <time>2023-05-08T10:51:55Z</time>
      </trkpt>
      <trkpt lat="47.84535" lon="6.96086">
        <ele>1046</ele>
        <time>2023-05-08T10:51:59Z</time>
      </trkpt>
      <trkpt lat="47.84527" lon="6.96086">
        <ele>1044</ele>
        <time>2023-05-08T10:52:08Z</time>
      </trkpt>
      <trkpt lat="47.84517" lon="6.96093">
        <ele>1043</ele>
        <time>2023-05-08T10:52:15Z</time>
      </trkpt>
      <trkpt lat="47.84514" lon="6.96099">
        <ele>1042</ele>
        <time>2023-05-08T10:52:19Z</time>
      </trkpt>
      <trkpt lat="47.84504" lon="6.96104">
        <ele>1041</ele>
        <time>2023-05-08T10:52:27Z</time>
      </trkpt>
      <trkpt lat="47.84488" lon="6.96119">
        <ele>1039</ele>
        <time>2023-05-08T10:52:43Z</time>
      </trkpt>
      <trkpt lat="47.84469" lon="6.96161">
        <ele>1035</ele>
        <time>2023-05-08T10:53:14Z</time>
      </trkpt>
      <trkpt lat="47.84452" lon="6.962">
        <ele>1031</ele>
        <time>2023-05-08T10:53:44Z</time>
      </trkpt>
      <trkpt lat="47.84433" lon="6.96246">
        <ele>1025</ele>
        <time>2023-05-08T10:54:16Z</time>
      </trkpt>
      <trkpt lat="47.84424" lon="6.96268">
        <ele>1023</ele>
        <time>2023-05-08T10:54:33Z</time>
      </trkpt>
      <trkpt lat="47.84416" lon="6.9628">
        <ele>1022</ele>
        <time>2023-05-08T10:54:43Z</time>
      </trkpt>
      <trkpt lat="47.84413" lon="6.9629">
        <ele>1022</ele>
        <time>2023-05-08T10:54:50Z</time>
      </trkpt>
      <trkpt lat="47.84397" lon="6.96327">
        <ele>1018</ele>
        <time>2023-05-08T10:55:22Z</time>
      </trkpt>
      <trkpt lat="47.84388" lon="6.96369">
        <ele>1015</ele>
        <time>2023-05-08T10:55:54Z</time>
      </trkpt>
      <trkpt lat="47.84385" lon="6.96375">
        <ele>1014</ele>
        <time>2023-05-08T10:55:59Z</time>
      </trkpt>
      <trkpt lat="47.84384" lon="6.9639">
        <ele>1013</ele>
        <time>2023-05-08T10:56:10Z</time>
      </trkpt>
      <trkpt lat="47.84384" lon="6.96396">
        <ele>1012</ele>
        <time>2023-05-08T10:56:16Z</time>
      </trkpt>
      <trkpt lat="47.84382" lon="6.96402">
        <ele>1012</ele>
        <time>2023-05-08T10:56:21Z</time>
      </trkpt>
      <trkpt lat="47.84376" lon="6.9644">
        <ele>1009</ele>
        <time>2023-05-08T10:56:47Z</time>
      </trkpt>
      <trkpt lat="47.84373" lon="6.9645">
        <ele>1008</ele>
        <time>2023-05-08T10:56:55Z</time>
      </trkpt>
      <trkpt lat="47.84373" lon="6.96458">
        <ele>1008</ele>
        <time>2023-05-08T10:57:02Z</time>
      </trkpt>
      <trkpt lat="47.84363" lon="6.96491">
        <ele>1005</ele>
        <time>2023-05-08T10:57:25Z</time>
      </trkpt>
      <trkpt lat="47.84363" lon="6.965">
        <ele>1004</ele>
        <time>2023-05-08T10:57:31Z</time>
      </trkpt>
      <trkpt lat="47.84358" lon="6.96506">
        <ele>1003</ele>
        <time>2023-05-08T10:57:39Z</time>
      </trkpt>
      <trkpt lat="47.84355" lon="6.96512">
        <ele>1002</ele>
        <time>2023-05-08T10:57:45Z</time>
      </trkpt>
      <trkpt lat="47.84344" lon="6.96521">
        <ele>1000</ele>
        <time>2023-05-08T10:57:57Z</time>
      </trkpt>
      <trkpt lat="47.84341" lon="6.96526">
        <ele>999</ele>
        <time>2023-05-08T10:58:02Z</time>
      </trkpt>
      <trkpt lat="47.84326" lon="6.96537">
        <ele>996</ele>
        <time>2023-05-08T10:58:19Z</time>
      </trkpt>
      <trkpt lat="47.84318" lon="6.96544">
        <ele>995</ele>
        <time>2023-05-08T10:58:26Z</time>
      </trkpt>
      <trkpt lat="47.84301" lon="6.96554">
        <ele>994</ele>
        <time>2023-05-08T10:58:40Z</time>
      </trkpt>
      <trkpt lat="47.84296" lon="6.96558">
        <ele>994</ele>
        <time>2023-05-08T10:58:46Z</time>
      </trkpt>
      <trkpt lat="47.84275" lon="6.9657">
        <ele>992</ele>
        <time>2023-05-08T10:59:06Z</time>
      </trkpt>
      <trkpt lat="47.84263" lon="6.96577">
        <ele>991</ele>
        <time>2023-05-08T10:59:21Z</time>
      </trkpt>
      <trkpt lat="47.84254" lon="6.96583">
        <ele>990</ele>
        <time>2023-05-08T10:59:29Z</time>
      </trkpt>
      <trkpt lat="47.8425" lon="6.96587">
        <ele>990</ele>
        <time>2023-05-08T10:59:32Z</time>
      </trkpt>
      <trkpt lat="47.84243" lon="6.96596">
        <ele>991</ele>
        <time>2023-05-08T10:59:40Z</time>
      </trkpt>
      <trkpt lat="47.84238" lon="6.96599">
        <ele>991</ele>
        <time>2023-05-08T10:59:45Z</time>
      </trkpt>
      <trkpt lat="47.84233" lon="6.96602">
        <ele>992</ele>
        <time>2023-05-08T10:59:53Z</time>
      </trkpt>
      <trkpt lat="47.84228" lon="6.96605">
        <ele>992</ele>
        <time>2023-05-08T11:00:01Z</time>
      </trkpt>
      <trkpt lat="47.84221" lon="6.96609">
        <ele>993</ele>
        <time>2023-05-08T11:00:09Z</time>
      </trkpt>
      <trkpt lat="47.84209" lon="6.96619">
        <ele>995</ele>
        <time>2023-05-08T11:00:28Z</time>
      </trkpt>
      <trkpt lat="47.84206" lon="6.96626">
        <ele>996</ele>
        <time>2023-05-08T11:00:33Z</time>
      </trkpt>
      <trkpt lat="47.842" lon="6.96637">
        <ele>997</ele>
        <time>2023-05-08T11:00:45Z</time>
      </trkpt>
      <trkpt lat="47.84189" lon="6.96644">
        <ele>999</ele>
        <time>2023-05-08T11:00:59Z</time>
      </trkpt>
      <trkpt lat="47.84186" lon="6.96662">
        <ele>1002</ele>
        <time>2023-05-08T11:01:18Z</time>
      </trkpt>
      <trkpt lat="47.84179" lon="6.96694">
        <ele>1003</ele>
        <time>2023-05-08T11:01:41Z</time>
      </trkpt>
      <trkpt lat="47.84177" lon="6.96707">
        <ele>1002</ele>
        <time>2023-05-08T11:01:49Z</time>
      </trkpt>
      <trkpt lat="47.84174" lon="6.96713">
        <ele>1002</ele>
        <time>2023-05-08T11:01:54Z</time>
      </trkpt>
      <trkpt lat="47.84172" lon="6.96719">
        <ele>1002</ele>
        <time>2023-05-08T11:01:58Z</time>
      </trkpt>
      <trkpt lat="47.84169" lon="6.96727">
        <ele>1002</ele>
        <time>2023-05-08T11:02:04Z</time>
      </trkpt>
      <trkpt lat="47.84153" lon="6.96786">
        <ele>998</ele>
        <time>2023-05-08T11:02:37Z</time>
      </trkpt>
      <trkpt lat="47.84151" lon="6.96793">
        <ele>998</ele>
        <time>2023-05-08T11:02:41Z</time>
      </trkpt>
      <trkpt lat="47.84144" lon="6.96814">
        <ele>997</ele>
        <time>2023-05-08T11:02:54Z</time>
      </trkpt>
      <trkpt lat="47.84139" lon="6.96843">
        <ele>996</ele>
        <time>2023-05-08T11:03:12Z</time>
      </trkpt>
      <trkpt lat="47.84139" lon="6.9687">
        <ele>994</ele>
        <time>2023-05-08T11:03:28Z</time>
      </trkpt>
      <trkpt lat="47.84128" lon="6.96916">
        <ele>990</ele>
        <time>2023-05-08T11:03:58Z</time>
      </trkpt>
      <trkpt lat="47.84125" lon="6.96961">
        <ele>988</ele>
        <time>2023-05-08T11:04:23Z</time>
      </trkpt>
      <trkpt lat="47.84122" lon="6.96974">
        <ele>987</ele>
        <time>2023-05-08T11:04:30Z</time>
      </trkpt>
      <trkpt lat="47.84119" lon="6.96996">
        <ele>985</ele>
        <time>2023-05-08T11:04:44Z</time>
      </trkpt>
      <trkpt lat="47.84119" lon="6.97007">
        <ele>984</ele>
        <time>2023-05-08T11:04:52Z</time>
      </trkpt>
      <trkpt lat="47.84118" lon="6.97013">
        <ele>983</ele>
        <time>2023-05-08T11:04:57Z</time>
      </trkpt>
      <trkpt lat="47.8412" lon="6.97027">
        <ele>982</ele>
        <time>2023-05-08T11:05:05Z</time>
      </trkpt>
      <trkpt lat="47.84119" lon="6.97085">
        <ele>978</ele>
        <time>2023-05-08T11:05:37Z</time>
      </trkpt>
      <trkpt lat="47.84115" lon="6.97127">
        <ele>977</ele>
        <time>2023-05-08T11:06:03Z</time>
      </trkpt>
      <trkpt lat="47.84112" lon="6.97148">
        <ele>976</ele>
        <time>2023-05-08T11:06:15Z</time>
      </trkpt>
      <trkpt lat="47.84114" lon="6.97192">
        <ele>974</ele>
        <time>2023-05-08T11:06:39Z</time>
      </trkpt>
      <trkpt lat="47.84113" lon="6.97213">
        <ele>973</ele>
        <time>2023-05-08T11:06:51Z</time>
      </trkpt>
      <trkpt lat="47.84115" lon="6.97255">
        <ele>972</ele>
        <time>2023-05-08T11:07:15Z</time>
      </trkpt>
      <trkpt lat="47.84116" lon="6.9727">
        <ele>972</ele>
        <time>2023-05-08T11:07:23Z</time>
      </trkpt>
      <trkpt lat="47.8412" lon="6.97297">
        <ele>971</ele>
        <time>2023-05-08T11:07:39Z</time>
      </trkpt>
      <trkpt lat="47.84121" lon="6.97326">
        <ele>969</ele>
        <time>2023-05-08T11:07:56Z</time>
      </trkpt>
      <trkpt lat="47.8413" lon="6.97367">
        <ele>966</ele>
        <time>2023-05-08T11:08:23Z</time>
      </trkpt>
      <trkpt lat="47.84143" lon="6.97409">
        <ele>965</ele>
        <time>2023-05-08T11:08:46Z</time>
      </trkpt>
      <trkpt lat="47.84151" lon="6.97427">
        <ele>963</ele>
        <time>2023-05-08T11:08:57Z</time>
      </trkpt>
      <trkpt lat="47.84154" lon="6.97441">
        <ele>963</ele>
        <time>2023-05-08T11:09:05Z</time>
      </trkpt>
      <trkpt lat="47.84163" lon="6.97458">
        <ele>962</ele>
        <time>2023-05-08T11:09:15Z</time>
      </trkpt>
      <trkpt lat="47.84172" lon="6.97492">
        <ele>959</ele>
        <time>2023-05-08T11:09:34Z</time>
      </trkpt>
      <trkpt lat="47.84173" lon="6.97506">
        <ele>959</ele>
        <time>2023-05-08T11:09:42Z</time>
      </trkpt>
      <trkpt lat="47.84175" lon="6.97514">
        <ele>958</ele>
        <time>2023-05-08T11:09:46Z</time>
      </trkpt>
      <trkpt lat="47.8418" lon="6.97525">
        <ele>958</ele>
        <time>2023-05-08T11:09:53Z</time>
      </trkpt>
      <trkpt lat="47.8419" lon="6.97552">
        <ele>958</ele>
        <time>2023-05-08T11:10:09Z</time>
      </trkpt>
      <trkpt lat="47.84191" lon="6.97559">
        <ele>958</ele>
        <time>2023-05-08T11:10:13Z</time>
      </trkpt>
      <trkpt lat="47.84198" lon="6.97577">
        <ele>957</ele>
        <time>2023-05-08T11:10:25Z</time>
      </trkpt>
      <trkpt lat="47.842" lon="6.97591">
        <ele>957</ele>
        <time>2023-05-08T11:10:33Z</time>
      </trkpt>
      <trkpt lat="47.84203" lon="6.97596">
        <ele>956</ele>
        <time>2023-05-08T11:10:37Z</time>
      </trkpt>
      <trkpt lat="47.84204" lon="6.97618">
        <ele>955</ele>
        <time>2023-05-08T11:10:49Z</time>
      </trkpt>
      <trkpt lat="47.842" lon="6.9766">
        <ele>954</ele>
        <time>2023-05-08T11:11:11Z</time>
      </trkpt>
      <trkpt lat="47.84204" lon="6.97674">
        <ele>952</ele>
        <time>2023-05-08T11:11:18Z</time>
      </trkpt>
      <trkpt lat="47.84204" lon="6.97681">
        <ele>951</ele>
        <time>2023-05-08T11:11:21Z</time>
      </trkpt>
      <trkpt lat="47.84203" lon="6.97688">
        <ele>950</ele>
        <time>2023-05-08T11:11:25Z</time>
      </trkpt>
      <trkpt lat="47.84196" lon="6.97699">
        <ele>950</ele>
        <time>2023-05-08T11:11:31Z</time>
      </trkpt>
      <trkpt lat="47.84188" lon="6.97725">
        <ele>950</ele>
        <time>2023-05-08T11:11:47Z</time>
      </trkpt>
      <trkpt lat="47.84184" lon="6.97741">
        <ele>949</ele>
        <time>2023-05-08T11:11:58Z</time>
      </trkpt>
      <trkpt lat="47.84185" lon="6.97769">
        <ele>948</ele>
        <time>2023-05-08T11:12:14Z</time>
      </trkpt>
      <trkpt lat="47.8419" lon="6.97779">
        <ele>948</ele>
        <time>2023-05-08T11:12:23Z</time>
      </trkpt>
      <trkpt lat="47.84192" lon="6.9781">
        <ele>947</ele>
        <time>2023-05-08T11:12:40Z</time>
      </trkpt>
      <trkpt lat="47.84189" lon="6.97813">
        <ele>948</ele>
        <time>2023-05-08T11:12:48Z</time>
      </trkpt>
      <trkpt lat="47.84185" lon="6.97822">
        <ele>949</ele>
        <time>2023-05-08T11:13:05Z</time>
      </trkpt>
      <trkpt lat="47.84183" lon="6.97837">
        <ele>949</ele>
        <time>2023-05-08T11:13:17Z</time>
      </trkpt>
      <trkpt lat="47.84174" lon="6.97889">
        <ele>953</ele>
        <time>2023-05-08T11:13:55Z</time>
      </trkpt>
      <trkpt lat="47.84171" lon="6.97901">
        <ele>955</ele>
        <time>2023-05-08T11:14:03Z</time>
      </trkpt>
      <trkpt lat="47.84168" lon="6.9791">
        <ele>956</ele>
        <time>2023-05-08T11:14:11Z</time>
      </trkpt>
      <trkpt lat="47.84167" lon="6.97927">
        <ele>958</ele>
        <time>2023-05-08T11:14:28Z</time>
      </trkpt>
      <trkpt lat="47.84163" lon="6.97935">
        <ele>959</ele>
        <time>2023-05-08T11:14:34Z</time>
      </trkpt>
      <trkpt lat="47.84152" lon="6.97969">
        <ele>964</ele>
        <time>2023-05-08T11:15:08Z</time>
      </trkpt>
      <trkpt lat="47.8414" lon="6.97987">
        <ele>966</ele>
        <time>2023-05-08T11:15:22Z</time>
      </trkpt>
      <trkpt lat="47.84138" lon="6.97993">
        <ele>966</ele>
        <time>2023-05-08T11:15:27Z</time>
      </trkpt>
      <trkpt lat="47.84131" lon="6.98003">
        <ele>968</ele>
        <time>2023-05-08T11:15:37Z</time>
      </trkpt>
      <trkpt lat="47.84117" lon="6.98029">
        <ele>969</ele>
        <time>2023-05-08T11:15:58Z</time>
      </trkpt>
      <trkpt lat="47.8411" lon="6.9804">
        <ele>970</ele>
        <time>2023-05-08T11:16:07Z</time>
      </trkpt>
      <trkpt lat="47.84098" lon="6.98069">
        <ele>973</ele>
        <time>2023-05-08T11:16:31Z</time>
      </trkpt>
      <trkpt lat="47.84096" lon="6.98082">
        <ele>974</ele>
        <time>2023-05-08T11:16:41Z</time>
      </trkpt>
      <trkpt lat="47.84093" lon="6.98088">
        <ele>975</ele>
        <time>2023-05-08T11:16:46Z</time>
      </trkpt>
      <trkpt lat="47.84091" lon="6.98095">
        <ele>975</ele>
        <time>2023-05-08T11:16:50Z</time>
      </trkpt>
      <trkpt lat="47.84091" lon="6.98103">
        <ele>976</ele>
        <time>2023-05-08T11:16:55Z</time>
      </trkpt>
      <trkpt lat="47.8409" lon="6.98112">
        <ele>977</ele>
        <time>2023-05-08T11:17:02Z</time>
      </trkpt>
      <trkpt lat="47.8409" lon="6.98126">
        <ele>978</ele>
        <time>2023-05-08T11:17:10Z</time>
      </trkpt>
      <trkpt lat="47.84095" lon="6.98155">
        <ele>979</ele>
        <time>2023-05-08T11:17:29Z</time>
      </trkpt>
      <trkpt lat="47.84105" lon="6.98178">
        <ele>981</ele>
        <time>2023-05-08T11:17:45Z</time>
      </trkpt>
      <trkpt lat="47.84106" lon="6.98187">
        <ele>982</ele>
        <time>2023-05-08T11:17:50Z</time>
      </trkpt>
      <trkpt lat="47.84109" lon="6.98202">
        <ele>982</ele>
        <time>2023-05-08T11:17:59Z</time>
      </trkpt>
      <trkpt lat="47.84109" lon="6.98209">
        <ele>981</ele>
        <time>2023-05-08T11:18:03Z</time>
      </trkpt>
      <trkpt lat="47.84113" lon="6.98222">
        <ele>981</ele>
        <time>2023-05-08T11:18:09Z</time>
      </trkpt>
      <trkpt lat="47.84114" lon="6.98229">
        <ele>981</ele>
        <time>2023-05-08T11:18:13Z</time>
      </trkpt>
      <trkpt lat="47.84114" lon="6.98235">
        <ele>981</ele>
        <time>2023-05-08T11:18:16Z</time>
      </trkpt>
      <trkpt lat="47.84114" lon="6.98242">
        <ele>980</ele>
        <time>2023-05-08T11:18:20Z</time>
      </trkpt>
      <trkpt lat="47.84114" lon="6.98249">
        <ele>980</ele>
        <time>2023-05-08T11:18:24Z</time>
      </trkpt>
      <trkpt lat="47.84113" lon="6.98256">
        <ele>980</ele>
        <time>2023-05-08T11:18:28Z</time>
      </trkpt>
      <trkpt lat="47.84112" lon="6.9827">
        <ele>979</ele>
        <time>2023-05-08T11:18:37Z</time>
      </trkpt>
      <trkpt lat="47.8411" lon="6.9831">
        <ele>980</ele>
        <time>2023-05-08T11:19:01Z</time>
      </trkpt>
      <trkpt lat="47.84109" lon="6.98318">
        <ele>979</ele>
        <time>2023-05-08T11:19:05Z</time>
      </trkpt>
      <trkpt lat="47.84111" lon="6.98331">
        <ele>979</ele>
        <time>2023-05-08T11:19:13Z</time>
      </trkpt>
      <trkpt lat="47.84113" lon="6.98338">
        <ele>980</ele>
        <time>2023-05-08T11:19:18Z</time>
      </trkpt>
      <trkpt lat="47.84112" lon="6.98345">
        <ele>981</ele>
        <time>2023-05-08T11:19:22Z</time>
      </trkpt>
      <trkpt lat="47.84116" lon="6.98386">
        <ele>982</ele>
        <time>2023-05-08T11:19:45Z</time>
      </trkpt>
      <trkpt lat="47.84119" lon="6.98392">
        <ele>982</ele>
        <time>2023-05-08T11:19:50Z</time>
      </trkpt>
      <trkpt lat="47.84121" lon="6.98401">
        <ele>982</ele>
        <time>2023-05-08T11:19:57Z</time>
      </trkpt>
      <trkpt lat="47.84147" lon="6.98432">
        <ele>978</ele>
        <time>2023-05-08T11:20:25Z</time>
      </trkpt>
      <trkpt lat="47.84152" lon="6.98444">
        <ele>977</ele>
        <time>2023-05-08T11:20:33Z</time>
      </trkpt>
      <trkpt lat="47.84156" lon="6.98457">
        <ele>976</ele>
        <time>2023-05-08T11:20:41Z</time>
      </trkpt>
      <trkpt lat="47.84158" lon="6.98479">
        <ele>974</ele>
        <time>2023-05-08T11:20:54Z</time>
      </trkpt>
      <trkpt lat="47.84161" lon="6.98538">
        <ele>976</ele>
        <time>2023-05-08T11:21:27Z</time>
      </trkpt>
      <trkpt lat="47.84161" lon="6.98551">
        <ele>977</ele>
        <time>2023-05-08T11:21:35Z</time>
      </trkpt>
      <trkpt lat="47.84157" lon="6.9857">
        <ele>977</ele>
        <time>2023-05-08T11:21:46Z</time>
      </trkpt>
      <trkpt lat="47.84148" lon="6.98586">
        <ele>979</ele>
        <time>2023-05-08T11:21:58Z</time>
      </trkpt>
      <trkpt lat="47.84143" lon="6.9859">
        <ele>979</ele>
        <time>2023-05-08T11:22:02Z</time>
      </trkpt>
      <trkpt lat="47.84136" lon="6.98599">
        <ele>979</ele>
        <time>2023-05-08T11:22:10Z</time>
      </trkpt>
      <trkpt lat="47.84113" lon="6.98638">
        <ele>980</ele>
        <time>2023-05-08T11:22:38Z</time>
      </trkpt>
      <trkpt lat="47.84103" lon="6.98664">
        <ele>978</ele>
        <time>2023-05-08T11:22:56Z</time>
      </trkpt>
      <trkpt lat="47.84094" lon="6.9872">
        <ele>979</ele>
        <time>2023-05-08T11:23:28Z</time>
      </trkpt>
      <trkpt lat="47.84089" lon="6.9878">
        <ele>980</ele>
        <time>2023-05-08T11:23:59Z</time>
      </trkpt>
      <trkpt lat="47.84087" lon="6.98795">
        <ele>981</ele>
        <time>2023-05-08T11:24:07Z</time>
      </trkpt>
      <trkpt lat="47.84082" lon="6.98809">
        <ele>982</ele>
        <time>2023-05-08T11:24:17Z</time>
      </trkpt>
      <trkpt lat="47.84077" lon="6.9882">
        <ele>983</ele>
        <time>2023-05-08T11:24:25Z</time>
      </trkpt>
      <trkpt lat="47.84071" lon="6.98832">
        <ele>983</ele>
        <time>2023-05-08T11:24:33Z</time>
      </trkpt>
      <trkpt lat="47.84067" lon="6.98836">
        <ele>983</ele>
        <time>2023-05-08T11:24:37Z</time>
      </trkpt>
      <trkpt lat="47.84059" lon="6.98842">
        <ele>983</ele>
        <time>2023-05-08T11:24:44Z</time>
      </trkpt>
      <trkpt lat="47.84055" lon="6.98846">
        <ele>984</ele>
        <time>2023-05-08T11:24:48Z</time>
      </trkpt>
      <trkpt lat="47.84051" lon="6.98849">
        <ele>984</ele>
        <time>2023-05-08T11:24:52Z</time>
      </trkpt>
      <trkpt lat="47.84031" lon="6.98873">
        <ele>986</ele>
        <time>2023-05-08T11:25:18Z</time>
      </trkpt>
      <trkpt lat="47.84032" lon="6.9888">
        <ele>985</ele>
        <time>2023-05-08T11:26:22Z</time>
      </trkpt>
      <trkpt lat="47.84034" lon="6.98893">
        <ele>985</ele>
        <time>2023-05-08T11:26:30Z</time>
      </trkpt>
      <trkpt lat="47.84034" lon="6.989">
        <ele>985</ele>
        <time>2023-05-08T11:26:34Z</time>
      </trkpt>
      <trkpt lat="47.84032" lon="6.98909">
        <ele>985</ele>
        <time>2023-05-08T11:26:38Z</time>
      </trkpt>
      <trkpt lat="47.84029" lon="6.98912">
        <ele>985</ele>
        <time>2023-05-08T11:26:43Z</time>
      </trkpt>
      <trkpt lat="47.84026" lon="6.98919">
        <ele>985</ele>
        <time>2023-05-08T11:26:47Z</time>
      </trkpt>
      <trkpt lat="47.83995" lon="6.98938">
        <ele>985</ele>
        <time>2023-05-08T11:30:14Z</time>
      </trkpt>
      <trkpt lat="47.83972" lon="6.98948">
        <ele>987</ele>
        <time>2023-05-08T11:30:44Z</time>
      </trkpt>
      <trkpt lat="47.8394" lon="6.98944">
        <ele>989</ele>
        <time>2023-05-08T11:31:17Z</time>
      </trkpt>
      <trkpt lat="47.83905" lon="6.9894">
        <ele>991</ele>
        <time>2023-05-08T11:31:51Z</time>
      </trkpt>
      <trkpt lat="47.8389" lon="6.98943">
        <ele>992</ele>
        <time>2023-05-08T11:32:06Z</time>
      </trkpt>
      <trkpt lat="47.83872" lon="6.98956">
        <ele>994</ele>
        <time>2023-05-08T11:32:25Z</time>
      </trkpt>
      <trkpt lat="47.83847" lon="6.98977">
        <ele>997</ele>
        <time>2023-05-08T11:32:53Z</time>
      </trkpt>
      <trkpt lat="47.83833" lon="6.98981">
        <ele>998</ele>
        <time>2023-05-08T11:33:07Z</time>
      </trkpt>
      <trkpt lat="47.83829" lon="6.98981">
        <ele>998</ele>
        <time>2023-05-08T11:33:12Z</time>
      </trkpt>
      <trkpt lat="47.83802" lon="6.98967">
        <ele>1000</ele>
        <time>2023-05-08T11:33:43Z</time>
      </trkpt>
      <trkpt lat="47.8377" lon="6.98946">
        <ele>1002</ele>
        <time>2023-05-08T11:34:17Z</time>
      </trkpt>
      <trkpt lat="47.83743" lon="6.98942">
        <ele>1004</ele>
        <time>2023-05-08T11:34:43Z</time>
      </trkpt>
      <trkpt lat="47.83737" lon="6.98943">
        <ele>1005</ele>
        <time>2023-05-08T11:34:48Z</time>
      </trkpt>
      <trkpt lat="47.83713" lon="6.98956">
        <ele>1008</ele>
        <time>2023-05-08T11:35:19Z</time>
      </trkpt>
      <trkpt lat="47.83683" lon="6.9897">
        <ele>1010</ele>
        <time>2023-05-08T11:35:50Z</time>
      </trkpt>
      <trkpt lat="47.83678" lon="6.98973">
        <ele>1010</ele>
        <time>2023-05-08T11:35:55Z</time>
      </trkpt>
      <trkpt lat="47.83674" lon="6.98976">
        <ele>1011</ele>
        <time>2023-05-08T11:36:00Z</time>
      </trkpt>
      <trkpt lat="47.8367" lon="6.9898">
        <ele>1011</ele>
        <time>2023-05-08T11:36:15Z</time>
      </trkpt>
      <trkpt lat="47.83661" lon="6.98985">
        <ele>1012</ele>
        <time>2023-05-08T11:36:26Z</time>
      </trkpt>
      <trkpt lat="47.83657" lon="6.98989">
        <ele>1012</ele>
        <time>2023-05-08T11:36:29Z</time>
      </trkpt>
      <trkpt lat="47.83648" lon="6.99009">
        <ele>1013</ele>
        <time>2023-05-08T11:36:45Z</time>
      </trkpt>
      <trkpt lat="47.83647" lon="6.99015">
        <ele>1013</ele>
        <time>2023-05-08T11:36:48Z</time>
      </trkpt>
      <trkpt lat="47.83632" lon="6.99058">
        <ele>1016</ele>
        <time>2023-05-08T11:37:20Z</time>
      </trkpt>
      <trkpt lat="47.8363" lon="6.99065">
        <ele>1017</ele>
        <time>2023-05-08T11:37:25Z</time>
      </trkpt>
      <trkpt lat="47.83613" lon="6.99085">
        <ele>1019</ele>
        <time>2023-05-08T11:37:47Z</time>
      </trkpt>
      <trkpt lat="47.83584" lon="6.99113">
        <ele>1021</ele>
        <time>2023-05-08T11:38:22Z</time>
      </trkpt>
      <trkpt lat="47.83579" lon="6.99115">
        <ele>1022</ele>
        <time>2023-05-08T11:38:27Z</time>
      </trkpt>
      <trkpt lat="47.83548" lon="6.99146">
        <ele>1024</ele>
        <time>2023-05-08T11:39:03Z</time>
      </trkpt>
      <trkpt lat="47.83544" lon="6.99153">
        <ele>1025</ele>
        <time>2023-05-08T11:39:10Z</time>
      </trkpt>
      <trkpt lat="47.83538" lon="6.99169">
        <ele>1026</ele>
        <time>2023-05-08T11:39:21Z</time>
      </trkpt>
      <trkpt lat="47.83538" lon="6.99177">
        <ele>1026</ele>
        <time>2023-05-08T11:39:26Z</time>
      </trkpt>
      <trkpt lat="47.83529" lon="6.99222">
        <ele>1029</ele>
        <time>2023-05-08T11:39:57Z</time>
      </trkpt>
      <trkpt lat="47.83522" lon="6.99236">
        <ele>1030</ele>
        <time>2023-05-08T11:40:09Z</time>
      </trkpt>
      <trkpt lat="47.83503" lon="6.99243">
        <ele>1031</ele>
        <time>2023-05-08T11:40:26Z</time>
      </trkpt>
      <trkpt lat="47.83494" lon="6.99241">
        <ele>1032</ele>
        <time>2023-05-08T11:40:34Z</time>
      </trkpt>
      <trkpt lat="47.83485" lon="6.99246">
        <ele>1032</ele>
        <time>2023-05-08T11:40:43Z</time>
      </trkpt>
      <trkpt lat="47.83481" lon="6.99251">
        <ele>1032</ele>
        <time>2023-05-08T11:40:47Z</time>
      </trkpt>
      <trkpt lat="47.83476" lon="6.99265">
        <ele>1032</ele>
        <time>2023-05-08T11:41:00Z</time>
      </trkpt>
      <trkpt lat="47.83479" lon="6.99287">
        <ele>1033</ele>
        <time>2023-05-08T11:41:13Z</time>
      </trkpt>
      <trkpt lat="47.83478" lon="6.99333">
        <ele>1035</ele>
        <time>2023-05-08T11:41:43Z</time>
      </trkpt>
      <trkpt lat="47.83475" lon="6.99354">
        <ele>1036</ele>
        <time>2023-05-08T11:41:55Z</time>
      </trkpt>
      <trkpt lat="47.83475" lon="6.9936">
        <ele>1037</ele>
        <time>2023-05-08T11:41:59Z</time>
      </trkpt>
      <trkpt lat="47.83474" lon="6.99375">
        <ele>1038</ele>
        <time>2023-05-08T11:42:09Z</time>
      </trkpt>
      <trkpt lat="47.83472" lon="6.9939">
        <ele>1039</ele>
        <time>2023-05-08T11:42:18Z</time>
      </trkpt>
      <trkpt lat="47.83459" lon="6.99414">
        <ele>1041</ele>
        <time>2023-05-08T11:42:40Z</time>
      </trkpt>
      <trkpt lat="47.83428" lon="6.99424">
        <ele>1042</ele>
        <time>2023-05-08T11:43:10Z</time>
      </trkpt>
      <trkpt lat="47.8342" lon="6.99427">
        <ele>1043</ele>
        <time>2023-05-08T11:43:19Z</time>
      </trkpt>
      <trkpt lat="47.83415" lon="6.99427">
        <ele>1044</ele>
        <time>2023-05-08T11:43:29Z</time>
      </trkpt>
      <trkpt lat="47.83409" lon="6.99425">
        <ele>1044</ele>
        <time>2023-05-08T11:43:34Z</time>
      </trkpt>
      <trkpt lat="47.83392" lon="6.9943">
        <ele>1046</ele>
        <time>2023-05-08T11:43:52Z</time>
      </trkpt>
      <trkpt lat="47.83386" lon="6.99431">
        <ele>1046</ele>
        <time>2023-05-08T11:43:59Z</time>
      </trkpt>
      <trkpt lat="47.83382" lon="6.99435">
        <ele>1046</ele>
        <time>2023-05-08T11:44:04Z</time>
      </trkpt>
      <trkpt lat="47.83378" lon="6.99442">
        <ele>1047</ele>
        <time>2023-05-08T11:44:09Z</time>
      </trkpt>
      <trkpt lat="47.83376" lon="6.99448">
        <ele>1047</ele>
        <time>2023-05-08T11:44:12Z</time>
      </trkpt>
      <trkpt lat="47.83359" lon="6.9946">
        <ele>1049</ele>
        <time>2023-05-08T11:44:29Z</time>
      </trkpt>
      <trkpt lat="47.83355" lon="6.99466">
        <ele>1049</ele>
        <time>2023-05-08T11:44:35Z</time>
      </trkpt>
      <trkpt lat="47.83342" lon="6.99471">
        <ele>1050</ele>
        <time>2023-05-08T11:44:50Z</time>
      </trkpt>
      <trkpt lat="47.83335" lon="6.99484">
        <ele>1051</ele>
        <time>2023-05-08T11:45:01Z</time>
      </trkpt>
      <trkpt lat="47.83327" lon="6.99491">
        <ele>1052</ele>
        <time>2023-05-08T11:45:11Z</time>
      </trkpt>
      <trkpt lat="47.83314" lon="6.99497">
        <ele>1052</ele>
        <time>2023-05-08T11:45:22Z</time>
      </trkpt>
      <trkpt lat="47.83308" lon="6.99498">
        <ele>1053</ele>
        <time>2023-05-08T11:45:29Z</time>
      </trkpt>
      <trkpt lat="47.83302" lon="6.99501">
        <ele>1053</ele>
        <time>2023-05-08T11:45:39Z</time>
      </trkpt>
      <trkpt lat="47.83294" lon="6.99505">
        <ele>1054</ele>
        <time>2023-05-08T11:45:49Z</time>
      </trkpt>
      <trkpt lat="47.8329" lon="6.99512">
        <ele>1055</ele>
        <time>2023-05-08T11:45:57Z</time>
      </trkpt>
      <trkpt lat="47.83286" lon="6.99516">
        <ele>1055</ele>
        <time>2023-05-08T11:46:01Z</time>
      </trkpt>
      <trkpt lat="47.83274" lon="6.99519">
        <ele>1055</ele>
        <time>2023-05-08T11:46:11Z</time>
      </trkpt>
      <trkpt lat="47.8327" lon="6.99521">
        <ele>1055</ele>
        <time>2023-05-08T11:46:15Z</time>
      </trkpt>
      <trkpt lat="47.8325" lon="6.99538">
        <ele>1056</ele>
        <time>2023-05-08T11:46:35Z</time>
      </trkpt>
      <trkpt lat="47.83247" lon="6.99542">
        <ele>1057</ele>
        <time>2023-05-08T11:46:40Z</time>
      </trkpt>
      <trkpt lat="47.83239" lon="6.9955">
        <ele>1057</ele>
        <time>2023-05-08T11:46:48Z</time>
      </trkpt>
      <trkpt lat="47.83229" lon="6.99568">
        <ele>1058</ele>
        <time>2023-05-08T11:47:03Z</time>
      </trkpt>
      <trkpt lat="47.83224" lon="6.99582">
        <ele>1059</ele>
        <time>2023-05-08T11:47:13Z</time>
      </trkpt>
      <trkpt lat="47.8322" lon="6.99595">
        <ele>1060</ele>
        <time>2023-05-08T11:47:23Z</time>
      </trkpt>
      <trkpt lat="47.83216" lon="6.996">
        <ele>1061</ele>
        <time>2023-05-08T11:47:28Z</time>
      </trkpt>
      <trkpt lat="47.83214" lon="6.99605">
        <ele>1061</ele>
        <time>2023-05-08T11:47:32Z</time>
      </trkpt>
      <trkpt lat="47.83206" lon="6.99613">
        <ele>1061</ele>
        <time>2023-05-08T11:47:41Z</time>
      </trkpt>
      <trkpt lat="47.83182" lon="6.99657">
        <ele>1062</ele>
        <time>2023-05-08T11:48:15Z</time>
      </trkpt>
      <trkpt lat="47.83179" lon="6.99662">
        <ele>1062</ele>
        <time>2023-05-08T11:48:19Z</time>
      </trkpt>
      <trkpt lat="47.83169" lon="6.99698">
        <ele>1066</ele>
        <time>2023-05-08T11:48:50Z</time>
      </trkpt>
      <trkpt lat="47.83169" lon="6.99705">
        <ele>1067</ele>
        <time>2023-05-08T11:48:56Z</time>
      </trkpt>
      <trkpt lat="47.83171" lon="6.99713">
        <ele>1068</ele>
        <time>2023-05-08T11:49:02Z</time>
      </trkpt>
      <trkpt lat="47.8318" lon="6.99728">
        <ele>1070</ele>
        <time>2023-05-08T11:49:15Z</time>
      </trkpt>
      <trkpt lat="47.8318" lon="6.99736">
        <ele>1071</ele>
        <time>2023-05-08T11:49:23Z</time>
      </trkpt>
      <trkpt lat="47.83184" lon="6.99742">
        <ele>1072</ele>
        <time>2023-05-08T11:49:27Z</time>
      </trkpt>
      <trkpt lat="47.83189" lon="6.9976">
        <ele>1074</ele>
        <time>2023-05-08T11:49:42Z</time>
      </trkpt>
      <trkpt lat="47.83188" lon="6.99767">
        <ele>1074</ele>
        <time>2023-05-08T11:49:47Z</time>
      </trkpt>
      <trkpt lat="47.83189" lon="6.99776">
        <ele>1076</ele>
        <time>2023-05-08T11:49:55Z</time>
      </trkpt>
      <trkpt lat="47.83189" lon="6.99785">
        <ele>1078</ele>
        <time>2023-05-08T11:50:07Z</time>
      </trkpt>
      <trkpt lat="47.83189" lon="6.99795">
        <ele>1081</ele>
        <time>2023-05-08T11:50:29Z</time>
      </trkpt>
      <trkpt lat="47.83189" lon="6.99805">
        <ele>1083</ele>
        <time>2023-05-08T11:50:41Z</time>
      </trkpt>
      <trkpt lat="47.83185" lon="6.99815">
        <ele>1085</ele>
        <time>2023-05-08T11:50:52Z</time>
      </trkpt>
      <trkpt lat="47.83176" lon="6.99836">
        <ele>1089</ele>
        <time>2023-05-08T11:51:17Z</time>
      </trkpt>
      <trkpt lat="47.83171" lon="6.9984">
        <ele>1090</ele>
        <time>2023-05-08T11:51:20Z</time>
      </trkpt>
      <trkpt lat="47.83164" lon="6.99847">
        <ele>1091</ele>
        <time>2023-05-08T11:51:29Z</time>
      </trkpt>
      <trkpt lat="47.83149" lon="6.99878">
        <ele>1095</ele>
        <time>2023-05-08T11:52:03Z</time>
      </trkpt>
      <trkpt lat="47.83148" lon="6.99885">
        <ele>1096</ele>
        <time>2023-05-08T11:52:08Z</time>
      </trkpt>
      <trkpt lat="47.83143" lon="6.99893">
        <ele>1097</ele>
        <time>2023-05-08T11:52:13Z</time>
      </trkpt>
      <trkpt lat="47.83138" lon="6.99898">
        <ele>1098</ele>
        <time>2023-05-08T11:52:22Z</time>
      </trkpt>
      <trkpt lat="47.83123" lon="6.99926">
        <ele>1102</ele>
        <time>2023-05-08T11:52:48Z</time>
      </trkpt>
      <trkpt lat="47.83121" lon="6.99932">
        <ele>1102</ele>
        <time>2023-05-08T11:52:52Z</time>
      </trkpt>
      <trkpt lat="47.8311" lon="6.99956">
        <ele>1105</ele>
        <time>2023-05-08T11:53:13Z</time>
      </trkpt>
      <trkpt lat="47.83104" lon="6.99985">
        <ele>1111</ele>
        <time>2023-05-08T11:53:47Z</time>
      </trkpt>
      <trkpt lat="47.83105" lon="6.99997">
        <ele>1113</ele>
        <time>2023-05-08T11:53:58Z</time>
      </trkpt>
      <trkpt lat="47.83103" lon="7.00004">
        <ele>1114</ele>
        <time>2023-05-08T11:54:05Z</time>
      </trkpt>
      <trkpt lat="47.83101" lon="7.00009">
        <ele>1117</ele>
        <time>2023-05-08T11:54:24Z</time>
      </trkpt>
      <trkpt lat="47.83096" lon="7.00019">
        <ele>1119</ele>
        <time>2023-05-08T11:54:34Z</time>
      </trkpt>
      <trkpt lat="47.83099" lon="7.00025">
        <ele>1121</ele>
        <time>2023-05-08T11:54:47Z</time>
      </trkpt>
      <trkpt lat="47.83096" lon="7.00034">
        <ele>1123</ele>
        <time>2023-05-08T11:55:06Z</time>
      </trkpt>
      <trkpt lat="47.83096" lon="7.00044">
        <ele>1125</ele>
        <time>2023-05-08T11:55:18Z</time>
      </trkpt>
      <trkpt lat="47.83099" lon="7.00051">
        <ele>1127</ele>
        <time>2023-05-08T11:55:31Z</time>
      </trkpt>
      <trkpt lat="47.83103" lon="7.0006">
        <ele>1128</ele>
        <time>2023-05-08T11:55:41Z</time>
      </trkpt>
      <trkpt lat="47.83101" lon="7.00077">
        <ele>1129</ele>
        <time>2023-05-08T11:55:54Z</time>
      </trkpt>
      <trkpt lat="47.831" lon="7.00094">
        <ele>1131</ele>
        <time>2023-05-08T11:56:13Z</time>
      </trkpt>
      <trkpt lat="47.83098" lon="7.0011">
        <ele>1132</ele>
        <time>2023-05-08T11:56:27Z</time>
      </trkpt>
      <trkpt lat="47.83092" lon="7.00115">
        <ele>1133</ele>
        <time>2023-05-08T11:56:34Z</time>
      </trkpt>
      <trkpt lat="47.83093" lon="7.00133">
        <ele>1134</ele>
        <time>2023-05-08T11:56:43Z</time>
      </trkpt>
      <trkpt lat="47.83086" lon="7.00146">
        <ele>1136</ele>
        <time>2023-05-08T11:56:55Z</time>
      </trkpt>
      <trkpt lat="47.83083" lon="7.00171">
        <ele>1140</ele>
        <time>2023-05-08T11:57:21Z</time>
      </trkpt>
      <trkpt lat="47.83074" lon="7.00181">
        <ele>1141</ele>
        <time>2023-05-08T11:57:28Z</time>
      </trkpt>
      <trkpt lat="47.83072" lon="7.00193">
        <ele>1143</ele>
        <time>2023-05-08T11:57:37Z</time>
      </trkpt>
      <trkpt lat="47.83064" lon="7.00202">
        <ele>1144</ele>
        <time>2023-05-08T11:57:46Z</time>
      </trkpt>
      <trkpt lat="47.8306" lon="7.00192">
        <ele>1146</ele>
        <time>2023-05-08T11:57:52Z</time>
      </trkpt>
      <trkpt lat="47.8306" lon="7.00173">
        <ele>1146</ele>
        <time>2023-05-08T11:58:00Z</time>
      </trkpt>
      <trkpt lat="47.83056" lon="7.00155">
        <ele>1149</ele>
        <time>2023-05-08T11:58:18Z</time>
      </trkpt>
      <trkpt lat="47.83051" lon="7.00146">
        <ele>1151</ele>
        <time>2023-05-08T11:58:31Z</time>
      </trkpt>
      <trkpt lat="47.83051" lon="7.00127">
        <ele>1154</ele>
        <time>2023-05-08T11:58:46Z</time>
      </trkpt>
      <trkpt lat="47.83049" lon="7.00126">
        <ele>1157</ele>
        <time>2023-05-08T11:59:15Z</time>
      </trkpt>
      <trkpt lat="47.83046" lon="7.00136">
        <ele>1159</ele>
        <time>2023-05-08T11:59:28Z</time>
      </trkpt>
      <trkpt lat="47.83041" lon="7.00138">
        <ele>1160</ele>
        <time>2023-05-08T11:59:32Z</time>
      </trkpt>
      <trkpt lat="47.83036" lon="7.00135">
        <ele>1160</ele>
        <time>2023-05-08T11:59:35Z</time>
      </trkpt>
      <trkpt lat="47.83037" lon="7.00119">
        <ele>1165</ele>
        <time>2023-05-08T11:59:55Z</time>
      </trkpt>
      <trkpt lat="47.83028" lon="7.00163">
        <ele>1161</ele>
        <time>2023-05-08T12:13:13Z</time>
      </trkpt>
      <trkpt lat="47.8301" lon="7.00203">
        <ele>1164</ele>
        <time>2023-05-08T12:13:44Z</time>
      </trkpt>
      <trkpt lat="47.83006" lon="7.00208">
        <ele>1164</ele>
        <time>2023-05-08T12:13:49Z</time>
      </trkpt>
      <trkpt lat="47.82998" lon="7.00224">
        <ele>1164</ele>
        <time>2023-05-08T12:14:01Z</time>
      </trkpt>
      <trkpt lat="47.82985" lon="7.00246">
        <ele>1163</ele>
        <time>2023-05-08T12:14:17Z</time>
      </trkpt>
      <trkpt lat="47.82975" lon="7.00268">
        <ele>1163</ele>
        <time>2023-05-08T12:14:33Z</time>
      </trkpt>
      <trkpt lat="47.82966" lon="7.00291">
        <ele>1164</ele>
        <time>2023-05-08T12:14:51Z</time>
      </trkpt>
      <trkpt lat="47.82952" lon="7.00313">
        <ele>1165</ele>
        <time>2023-05-08T12:15:12Z</time>
      </trkpt>
      <trkpt lat="47.82938" lon="7.00353">
        <ele>1167</ele>
        <time>2023-05-08T12:15:45Z</time>
      </trkpt>
      <trkpt lat="47.82935" lon="7.00359">
        <ele>1168</ele>
        <time>2023-05-08T12:15:50Z</time>
      </trkpt>
      <trkpt lat="47.82922" lon="7.00397">
        <ele>1172</ele>
        <time>2023-05-08T12:16:25Z</time>
      </trkpt>
      <trkpt lat="47.82908" lon="7.00437">
        <ele>1175</ele>
        <time>2023-05-08T12:17:00Z</time>
      </trkpt>
      <trkpt lat="47.82904" lon="7.00444">
        <ele>1177</ele>
        <time>2023-05-08T12:17:12Z</time>
      </trkpt>
      <trkpt lat="47.82899" lon="7.0045">
        <ele>1180</ele>
        <time>2023-05-08T12:17:25Z</time>
      </trkpt>
      <trkpt lat="47.82895" lon="7.0045">
        <ele>1182</ele>
        <time>2023-05-08T12:17:37Z</time>
      </trkpt>
      <trkpt lat="47.82891" lon="7.00459">
        <ele>1182</ele>
        <time>2023-05-08T12:18:24Z</time>
      </trkpt>
      <trkpt lat="47.82883" lon="7.00469">
        <ele>1180</ele>
        <time>2023-05-08T12:18:33Z</time>
      </trkpt>
      <trkpt lat="47.82865" lon="7.00483">
        <ele>1179</ele>
        <time>2023-05-08T12:18:49Z</time>
      </trkpt>
      <trkpt lat="47.82858" lon="7.00492">
        <ele>1178</ele>
        <time>2023-05-08T12:18:57Z</time>
      </trkpt>
      <trkpt lat="47.82826" lon="7.00523">
        <ele>1174</ele>
        <time>2023-05-08T12:19:28Z</time>
      </trkpt>
      <trkpt lat="47.82823" lon="7.00526">
        <ele>1174</ele>
        <time>2023-05-08T12:19:33Z</time>
      </trkpt>
      <trkpt lat="47.82818" lon="7.00528">
        <ele>1174</ele>
        <time>2023-05-08T12:19:41Z</time>
      </trkpt>
      <trkpt lat="47.82785" lon="7.00557">
        <ele>1171</ele>
        <time>2023-05-08T12:20:13Z</time>
      </trkpt>
      <trkpt lat="47.82766" lon="7.00576">
        <ele>1171</ele>
        <time>2023-05-08T12:20:33Z</time>
      </trkpt>
      <trkpt lat="47.82762" lon="7.0058">
        <ele>1171</ele>
        <time>2023-05-08T12:20:37Z</time>
      </trkpt>
      <trkpt lat="47.82758" lon="7.00583">
        <ele>1171</ele>
        <time>2023-05-08T12:20:41Z</time>
      </trkpt>
      <trkpt lat="47.82754" lon="7.00586">
        <ele>1171</ele>
        <time>2023-05-08T12:20:45Z</time>
      </trkpt>
      <trkpt lat="47.82745" lon="7.00595">
        <ele>1171</ele>
        <time>2023-05-08T12:20:54Z</time>
      </trkpt>
      <trkpt lat="47.82741" lon="7.00598">
        <ele>1171</ele>
        <time>2023-05-08T12:20:58Z</time>
      </trkpt>
      <trkpt lat="47.82737" lon="7.00601">
        <ele>1171</ele>
        <time>2023-05-08T12:21:02Z</time>
      </trkpt>
      <trkpt lat="47.82707" lon="7.0062">
        <ele>1168</ele>
        <time>2023-05-08T12:21:31Z</time>
      </trkpt>
      <trkpt lat="47.8268" lon="7.00631">
        <ele>1166</ele>
        <time>2023-05-08T12:21:58Z</time>
      </trkpt>
      <trkpt lat="47.82656" lon="7.00658">
        <ele>1163</ele>
        <time>2023-05-08T12:22:29Z</time>
      </trkpt>
      <trkpt lat="47.8263" lon="7.00695">
        <ele>1160</ele>
        <time>2023-05-08T12:22:59Z</time>
      </trkpt>
      <trkpt lat="47.82622" lon="7.00703">
        <ele>1158</ele>
        <time>2023-05-08T12:23:07Z</time>
      </trkpt>
      <trkpt lat="47.82618" lon="7.00705">
        <ele>1158</ele>
        <time>2023-05-08T12:23:11Z</time>
      </trkpt>
      <trkpt lat="47.82614" lon="7.00708">
        <ele>1158</ele>
        <time>2023-05-08T12:23:15Z</time>
      </trkpt>
      <trkpt lat="47.82611" lon="7.00714">
        <ele>1157</ele>
        <time>2023-05-08T12:23:19Z</time>
      </trkpt>
      <trkpt lat="47.82603" lon="7.00722">
        <ele>1156</ele>
        <time>2023-05-08T12:23:27Z</time>
      </trkpt>
      <trkpt lat="47.826" lon="7.00726">
        <ele>1156</ele>
        <time>2023-05-08T12:23:31Z</time>
      </trkpt>
      <trkpt lat="47.82592" lon="7.00735">
        <ele>1155</ele>
        <time>2023-05-08T12:23:39Z</time>
      </trkpt>
      <trkpt lat="47.82574" lon="7.00756">
        <ele>1153</ele>
        <time>2023-05-08T12:24:01Z</time>
      </trkpt>
      <trkpt lat="47.82569" lon="7.00768">
        <ele>1153</ele>
        <time>2023-05-08T12:24:09Z</time>
      </trkpt>
      <trkpt lat="47.82566" lon="7.00774">
        <ele>1153</ele>
        <time>2023-05-08T12:24:13Z</time>
      </trkpt>
      <trkpt lat="47.82556" lon="7.00791">
        <ele>1152</ele>
        <time>2023-05-08T12:24:27Z</time>
      </trkpt>
      <trkpt lat="47.82553" lon="7.00796">
        <ele>1152</ele>
        <time>2023-05-08T12:24:31Z</time>
      </trkpt>
      <trkpt lat="47.82531" lon="7.00823">
        <ele>1151</ele>
        <time>2023-05-08T12:24:55Z</time>
      </trkpt>
      <trkpt lat="47.82497" lon="7.00856">
        <ele>1149</ele>
        <time>2023-05-08T12:25:31Z</time>
      </trkpt>
      <trkpt lat="47.82494" lon="7.0086">
        <ele>1148</ele>
        <time>2023-05-08T12:25:35Z</time>
      </trkpt>
      <trkpt lat="47.82467" lon="7.00898">
        <ele>1146</ele>
        <time>2023-05-08T12:26:09Z</time>
      </trkpt>
      <trkpt lat="47.82464" lon="7.00903">
        <ele>1146</ele>
        <time>2023-05-08T12:26:13Z</time>
      </trkpt>
      <trkpt lat="47.82438" lon="7.00944">
        <ele>1143</ele>
        <time>2023-05-08T12:26:45Z</time>
      </trkpt>
      <trkpt lat="47.82409" lon="7.00982">
        <ele>1140</ele>
        <time>2023-05-08T12:27:17Z</time>
      </trkpt>
      <trkpt lat="47.82406" lon="7.00987">
        <ele>1140</ele>
        <time>2023-05-08T12:27:21Z</time>
      </trkpt>
      <trkpt lat="47.8239" lon="7.01028">
        <ele>1137</ele>
        <time>2023-05-08T12:27:49Z</time>
      </trkpt>
      <trkpt lat="47.82377" lon="7.01054">
        <ele>1137</ele>
        <time>2023-05-08T12:28:10Z</time>
      </trkpt>
      <trkpt lat="47.82373" lon="7.01067">
        <ele>1137</ele>
        <time>2023-05-08T12:28:20Z</time>
      </trkpt>
      <trkpt lat="47.82366" lon="7.0108">
        <ele>1136</ele>
        <time>2023-05-08T12:28:31Z</time>
      </trkpt>
      <trkpt lat="47.82362" lon="7.01094">
        <ele>1135</ele>
        <time>2023-05-08T12:28:39Z</time>
      </trkpt>
      <trkpt lat="47.82359" lon="7.01107">
        <ele>1135</ele>
        <time>2023-05-08T12:28:47Z</time>
      </trkpt>
      <trkpt lat="47.82356" lon="7.01115">
        <ele>1135</ele>
        <time>2023-05-08T12:28:54Z</time>
      </trkpt>
      <trkpt lat="47.82355" lon="7.01122">
        <ele>1135</ele>
        <time>2023-05-08T12:28:58Z</time>
      </trkpt>
      <trkpt lat="47.82353" lon="7.01129">
        <ele>1135</ele>
        <time>2023-05-08T12:29:02Z</time>
      </trkpt>
      <trkpt lat="47.82348" lon="7.01143">
        <ele>1135</ele>
        <time>2023-05-08T12:29:09Z</time>
      </trkpt>
      <trkpt lat="47.82343" lon="7.01156">
        <ele>1134</ele>
        <time>2023-05-08T12:29:17Z</time>
      </trkpt>
      <trkpt lat="47.82327" lon="7.0119">
        <ele>1134</ele>
        <time>2023-05-08T12:29:41Z</time>
      </trkpt>
      <trkpt lat="47.82324" lon="7.01195">
        <ele>1134</ele>
        <time>2023-05-08T12:29:45Z</time>
      </trkpt>
      <trkpt lat="47.82319" lon="7.01207">
        <ele>1135</ele>
        <time>2023-05-08T12:29:55Z</time>
      </trkpt>
      <trkpt lat="47.82317" lon="7.01214">
        <ele>1135</ele>
        <time>2023-05-08T12:29:59Z</time>
      </trkpt>
      <trkpt lat="47.82318" lon="7.01226">
        <ele>1135</ele>
        <time>2023-05-08T12:30:08Z</time>
      </trkpt>
      <trkpt lat="47.82308" lon="7.01257">
        <ele>1134</ele>
        <time>2023-05-08T12:30:29Z</time>
      </trkpt>
      <trkpt lat="47.82306" lon="7.01265">
        <ele>1133</ele>
        <time>2023-05-08T12:30:34Z</time>
      </trkpt>
      <trkpt lat="47.82298" lon="7.01302">
        <ele>1132</ele>
        <time>2023-05-08T12:31:04Z</time>
      </trkpt>
      <trkpt lat="47.82289" lon="7.01342">
        <ele>1127</ele>
        <time>2023-05-08T12:32:00Z</time>
      </trkpt>
      <trkpt lat="47.82288" lon="7.01349">
        <ele>1127</ele>
        <time>2023-05-08T12:32:04Z</time>
      </trkpt>
      <trkpt lat="47.82286" lon="7.01366">
        <ele>1125</ele>
        <time>2023-05-08T12:32:17Z</time>
      </trkpt>
      <trkpt lat="47.8228" lon="7.01385">
        <ele>1123</ele>
        <time>2023-05-08T12:32:29Z</time>
      </trkpt>
      <trkpt lat="47.8227" lon="7.01398">
        <ele>1122</ele>
        <time>2023-05-08T12:32:42Z</time>
      </trkpt>
      <trkpt lat="47.82266" lon="7.01403">
        <ele>1121</ele>
        <time>2023-05-08T12:34:23Z</time>
      </trkpt>
      <trkpt lat="47.82251" lon="7.01446">
        <ele>1117</ele>
        <time>2023-05-08T12:34:56Z</time>
      </trkpt>
      <trkpt lat="47.82249" lon="7.0145">
        <ele>1117</ele>
        <time>2023-05-08T12:34:59Z</time>
      </trkpt>
      <trkpt lat="47.82246" lon="7.01465">
        <ele>1116</ele>
        <time>2023-05-08T12:35:07Z</time>
      </trkpt>
      <trkpt lat="47.82242" lon="7.01466">
        <ele>1115</ele>
        <time>2023-05-08T12:35:15Z</time>
      </trkpt>
      <trkpt lat="47.82236" lon="7.01466">
        <ele>1115</ele>
        <time>2023-05-08T12:35:50Z</time>
      </trkpt>
      <trkpt lat="47.82234" lon="7.01473">
        <ele>1115</ele>
        <time>2023-05-08T12:35:56Z</time>
      </trkpt>
      <trkpt lat="47.82234" lon="7.01502">
        <ele>1113</ele>
        <time>2023-05-08T12:36:13Z</time>
      </trkpt>
      <trkpt lat="47.82235" lon="7.0151">
        <ele>1112</ele>
        <time>2023-05-08T12:36:19Z</time>
      </trkpt>
      <trkpt lat="47.82233" lon="7.01532">
        <ele>1110</ele>
        <time>2023-05-08T12:36:32Z</time>
      </trkpt>
      <trkpt lat="47.82234" lon="7.01589">
        <ele>1109</ele>
        <time>2023-05-08T12:37:04Z</time>
      </trkpt>
      <trkpt lat="47.82234" lon="7.01646">
        <ele>1108</ele>
        <time>2023-05-08T12:37:38Z</time>
      </trkpt>
      <trkpt lat="47.82235" lon="7.01652">
        <ele>1108</ele>
        <time>2023-05-08T12:37:42Z</time>
      </trkpt>
      <trkpt lat="47.82234" lon="7.01668">
        <ele>1108</ele>
        <time>2023-05-08T12:37:52Z</time>
      </trkpt>
      <trkpt lat="47.82236" lon="7.01725">
        <ele>1109</ele>
        <time>2023-05-08T12:38:27Z</time>
      </trkpt>
      <trkpt lat="47.82235" lon="7.01732">
        <ele>1109</ele>
        <time>2023-05-08T12:38:31Z</time>
      </trkpt>
      <trkpt lat="47.82247" lon="7.01787">
        <ele>1109</ele>
        <time>2023-05-08T12:39:06Z</time>
      </trkpt>
      <trkpt lat="47.82254" lon="7.01842">
        <ele>1107</ele>
        <time>2023-05-08T12:39:39Z</time>
      </trkpt>
      <trkpt lat="47.8226" lon="7.01892">
        <ele>1106</ele>
        <time>2023-05-08T12:40:13Z</time>
      </trkpt>
      <trkpt lat="47.82267" lon="7.0194">
        <ele>1104</ele>
        <time>2023-05-08T12:40:46Z</time>
      </trkpt>
      <trkpt lat="47.82271" lon="7.01968">
        <ele>1104</ele>
        <time>2023-05-08T12:41:05Z</time>
      </trkpt>
      <trkpt lat="47.8227" lon="7.01975">
        <ele>1104</ele>
        <time>2023-05-08T12:41:09Z</time>
      </trkpt>
      <trkpt lat="47.82262" lon="7.01993">
        <ele>1103</ele>
        <time>2023-05-08T12:41:21Z</time>
      </trkpt>
      <trkpt lat="47.82255" lon="7.02">
        <ele>1103</ele>
        <time>2023-05-08T12:41:29Z</time>
      </trkpt>
      <trkpt lat="47.82252" lon="7.02006">
        <ele>1102</ele>
        <time>2023-05-08T12:41:34Z</time>
      </trkpt>
      <trkpt lat="47.82248" lon="7.02019">
        <ele>1101</ele>
        <time>2023-05-08T12:41:41Z</time>
      </trkpt>
      <trkpt lat="47.82236" lon="7.02029">
        <ele>1100</ele>
        <time>2023-05-08T12:41:52Z</time>
      </trkpt>
      <trkpt lat="47.82233" lon="7.02034">
        <ele>1099</ele>
        <time>2023-05-08T12:41:56Z</time>
      </trkpt>
      <trkpt lat="47.82229" lon="7.02038">
        <ele>1098</ele>
        <time>2023-05-08T12:42:01Z</time>
      </trkpt>
      <trkpt lat="47.82212" lon="7.02078">
        <ele>1094</ele>
        <time>2023-05-08T12:42:32Z</time>
      </trkpt>
      <trkpt lat="47.82193" lon="7.02123">
        <ele>1091</ele>
        <time>2023-05-08T12:43:05Z</time>
      </trkpt>
      <trkpt lat="47.82189" lon="7.02131">
        <ele>1090</ele>
        <time>2023-05-08T12:43:11Z</time>
      </trkpt>
      <trkpt lat="47.82188" lon="7.02137">
        <ele>1090</ele>
        <time>2023-05-08T12:43:15Z</time>
      </trkpt>
      <trkpt lat="47.82175" lon="7.02167">
        <ele>1088</ele>
        <time>2023-05-08T12:43:39Z</time>
      </trkpt>
      <trkpt lat="47.82165" lon="7.022">
        <ele>1085</ele>
        <time>2023-05-08T12:44:01Z</time>
      </trkpt>
      <trkpt lat="47.82143" lon="7.02246">
        <ele>1082</ele>
        <time>2023-05-08T12:44:33Z</time>
      </trkpt>
      <trkpt lat="47.82118" lon="7.02286">
        <ele>1081</ele>
        <time>2023-05-08T12:45:05Z</time>
      </trkpt>
      <trkpt lat="47.82094" lon="7.0233">
        <ele>1079</ele>
        <time>2023-05-08T12:45:36Z</time>
      </trkpt>
      <trkpt lat="47.82069" lon="7.02363">
        <ele>1078</ele>
        <time>2023-05-08T12:46:07Z</time>
      </trkpt>
      <trkpt lat="47.8206" lon="7.02374">
        <ele>1078</ele>
        <time>2023-05-08T12:46:18Z</time>
      </trkpt>
      <trkpt lat="47.82054" lon="7.02386">
        <ele>1077</ele>
        <time>2023-05-08T12:46:28Z</time>
      </trkpt>
      <trkpt lat="47.82027" lon="7.02416">
        <ele>1074</ele>
        <time>2023-05-08T12:47:01Z</time>
      </trkpt>
      <trkpt lat="47.82023" lon="7.02418">
        <ele>1074</ele>
        <time>2023-05-08T12:47:05Z</time>
      </trkpt>
      <trkpt lat="47.82019" lon="7.02421">
        <ele>1074</ele>
        <time>2023-05-08T12:47:12Z</time>
      </trkpt>
      <trkpt lat="47.82015" lon="7.02425">
        <ele>1074</ele>
        <time>2023-05-08T12:47:16Z</time>
      </trkpt>
      <trkpt lat="47.82007" lon="7.0243">
        <ele>1073</ele>
        <time>2023-05-08T12:47:25Z</time>
      </trkpt>
      <trkpt lat="47.81977" lon="7.02445">
        <ele>1071</ele>
        <time>2023-05-08T12:47:56Z</time>
      </trkpt>
      <trkpt lat="47.81957" lon="7.02461">
        <ele>1069</ele>
        <time>2023-05-08T12:48:15Z</time>
      </trkpt>
      <trkpt lat="47.81953" lon="7.02462">
        <ele>1068</ele>
        <time>2023-05-08T12:48:19Z</time>
      </trkpt>
      <trkpt lat="47.81919" lon="7.02485">
        <ele>1066</ele>
        <time>2023-05-08T12:48:51Z</time>
      </trkpt>
      <trkpt lat="47.8191" lon="7.02493">
        <ele>1065</ele>
        <time>2023-05-08T12:49:03Z</time>
      </trkpt>
      <trkpt lat="47.81906" lon="7.02494">
        <ele>1065</ele>
        <time>2023-05-08T12:49:14Z</time>
      </trkpt>
      <trkpt lat="47.81903" lon="7.02487">
        <ele>1065</ele>
        <time>2023-05-08T12:49:18Z</time>
      </trkpt>
      <trkpt lat="47.81899" lon="7.02484">
        <ele>1064</ele>
        <time>2023-05-08T12:49:25Z</time>
      </trkpt>
      <trkpt lat="47.81877" lon="7.02482">
        <ele>1061</ele>
        <time>2023-05-08T12:49:47Z</time>
      </trkpt>
      <trkpt lat="47.81873" lon="7.02483">
        <ele>1060</ele>
        <time>2023-05-08T12:49:49Z</time>
      </trkpt>
      <trkpt lat="47.81862" lon="7.02479">
        <ele>1059</ele>
        <time>2023-05-08T12:49:57Z</time>
      </trkpt>
      <trkpt lat="47.81855" lon="7.02479">
        <ele>1058</ele>
        <time>2023-05-08T12:50:04Z</time>
      </trkpt>
      <trkpt lat="47.81849" lon="7.02476">
        <ele>1058</ele>
        <time>2023-05-08T12:50:09Z</time>
      </trkpt>
      <trkpt lat="47.81845" lon="7.02473">
        <ele>1057</ele>
        <time>2023-05-08T12:50:13Z</time>
      </trkpt>
      <trkpt lat="47.81836" lon="7.02464">
        <ele>1055</ele>
        <time>2023-05-08T12:50:22Z</time>
      </trkpt>
      <trkpt lat="47.81832" lon="7.02466">
        <ele>1055</ele>
        <time>2023-05-08T12:50:26Z</time>
      </trkpt>
      <trkpt lat="47.81826" lon="7.02465">
        <ele>1054</ele>
        <time>2023-05-08T12:50:31Z</time>
      </trkpt>
      <trkpt lat="47.81817" lon="7.02455">
        <ele>1052</ele>
        <time>2023-05-08T12:50:44Z</time>
      </trkpt>
      <trkpt lat="47.81813" lon="7.02453">
        <ele>1051</ele>
        <time>2023-05-08T12:50:49Z</time>
      </trkpt>
      <trkpt lat="47.81801" lon="7.02454">
        <ele>1050</ele>
        <time>2023-05-08T12:50:56Z</time>
      </trkpt>
      <trkpt lat="47.81797" lon="7.02452">
        <ele>1049</ele>
        <time>2023-05-08T12:51:02Z</time>
      </trkpt>
      <trkpt lat="47.81792" lon="7.02458">
        <ele>1049</ele>
        <time>2023-05-08T12:51:07Z</time>
      </trkpt>
      <trkpt lat="47.81786" lon="7.02453">
        <ele>1048</ele>
        <time>2023-05-08T12:51:13Z</time>
      </trkpt>
      <trkpt lat="47.81781" lon="7.02452">
        <ele>1047</ele>
        <time>2023-05-08T12:51:17Z</time>
      </trkpt>
      <trkpt lat="47.81775" lon="7.02456">
        <ele>1046</ele>
        <time>2023-05-08T12:51:25Z</time>
      </trkpt>
      <trkpt lat="47.81771" lon="7.02453">
        <ele>1045</ele>
        <time>2023-05-08T12:51:29Z</time>
      </trkpt>
      <trkpt lat="47.81766" lon="7.02455">
        <ele>1044</ele>
        <time>2023-05-08T12:51:35Z</time>
      </trkpt>
      <trkpt lat="47.81759" lon="7.02455">
        <ele>1043</ele>
        <time>2023-05-08T12:51:42Z</time>
      </trkpt>
      <trkpt lat="47.81756" lon="7.02462">
        <ele>1042</ele>
        <time>2023-05-08T12:51:49Z</time>
      </trkpt>
      <trkpt lat="47.81749" lon="7.02462">
        <ele>1041</ele>
        <time>2023-05-08T12:51:56Z</time>
      </trkpt>
      <trkpt lat="47.81745" lon="7.02463">
        <ele>1041</ele>
        <time>2023-05-08T12:51:58Z</time>
      </trkpt>
      <trkpt lat="47.81729" lon="7.02468">
        <ele>1038</ele>
        <time>2023-05-08T12:52:14Z</time>
      </trkpt>
      <trkpt lat="47.81724" lon="7.02467">
        <ele>1037</ele>
        <time>2023-05-08T12:52:17Z</time>
      </trkpt>
      <trkpt lat="47.8172" lon="7.02463">
        <ele>1036</ele>
        <time>2023-05-08T12:52:20Z</time>
      </trkpt>
      <trkpt lat="47.81709" lon="7.0247">
        <ele>1034</ele>
        <time>2023-05-08T12:52:32Z</time>
      </trkpt>
      <trkpt lat="47.81706" lon="7.02474">
        <ele>1034</ele>
        <time>2023-05-08T12:52:36Z</time>
      </trkpt>
      <trkpt lat="47.81701" lon="7.02472">
        <ele>1033</ele>
        <time>2023-05-08T12:52:40Z</time>
      </trkpt>
      <trkpt lat="47.81693" lon="7.02473">
        <ele>1031</ele>
        <time>2023-05-08T12:52:49Z</time>
      </trkpt>
      <trkpt lat="47.81688" lon="7.02474">
        <ele>1031</ele>
        <time>2023-05-08T12:52:54Z</time>
      </trkpt>
      <trkpt lat="47.81679" lon="7.02469">
        <ele>1029</ele>
        <time>2023-05-08T12:53:03Z</time>
      </trkpt>
      <trkpt lat="47.81674" lon="7.02472">
        <ele>1028</ele>
        <time>2023-05-08T12:53:11Z</time>
      </trkpt>
      <trkpt lat="47.8167" lon="7.02471">
        <ele>1027</ele>
        <time>2023-05-08T12:53:14Z</time>
      </trkpt>
      <trkpt lat="47.81665" lon="7.02476">
        <ele>1026</ele>
        <time>2023-05-08T12:53:20Z</time>
      </trkpt>
      <trkpt lat="47.81653" lon="7.02479">
        <ele>1024</ele>
        <time>2023-05-08T12:53:34Z</time>
      </trkpt>
      <trkpt lat="47.8165" lon="7.02477">
        <ele>1023</ele>
        <time>2023-05-08T12:53:37Z</time>
      </trkpt>
      <trkpt lat="47.81645" lon="7.02476">
        <ele>1022</ele>
        <time>2023-05-08T12:53:41Z</time>
      </trkpt>
      <trkpt lat="47.81632" lon="7.02481">
        <ele>1020</ele>
        <time>2023-05-08T12:53:57Z</time>
      </trkpt>
      <trkpt lat="47.81628" lon="7.02487">
        <ele>1019</ele>
        <time>2023-05-08T12:54:01Z</time>
      </trkpt>
      <trkpt lat="47.81618" lon="7.02492">
        <ele>1016</ele>
        <time>2023-05-08T12:54:13Z</time>
      </trkpt>
      <trkpt lat="47.81612" lon="7.02504">
        <ele>1015</ele>
        <time>2023-05-08T12:54:21Z</time>
      </trkpt>
      <trkpt lat="47.81604" lon="7.02515">
        <ele>1014</ele>
        <time>2023-05-08T12:54:35Z</time>
      </trkpt>
      <trkpt lat="47.81597" lon="7.02514">
        <ele>1013</ele>
        <time>2023-05-08T12:54:40Z</time>
      </trkpt>
      <trkpt lat="47.81594" lon="7.0252">
        <ele>1013</ele>
        <time>2023-05-08T12:54:44Z</time>
      </trkpt>
      <trkpt lat="47.81589" lon="7.02524">
        <ele>1012</ele>
        <time>2023-05-08T12:54:48Z</time>
      </trkpt>
      <trkpt lat="47.81581" lon="7.02531">
        <ele>1011</ele>
        <time>2023-05-08T12:55:01Z</time>
      </trkpt>
      <trkpt lat="47.81577" lon="7.02532">
        <ele>1010</ele>
        <time>2023-05-08T12:55:05Z</time>
      </trkpt>
      <trkpt lat="47.81573" lon="7.02535">
        <ele>1010</ele>
        <time>2023-05-08T12:55:09Z</time>
      </trkpt>
      <trkpt lat="47.81568" lon="7.02543">
        <ele>1008</ele>
        <time>2023-05-08T12:55:18Z</time>
      </trkpt>
      <trkpt lat="47.81564" lon="7.02549">
        <ele>1008</ele>
        <time>2023-05-08T12:55:25Z</time>
      </trkpt>
      <trkpt lat="47.81554" lon="7.02564">
        <ele>1005</ele>
        <time>2023-05-08T12:55:38Z</time>
      </trkpt>
      <trkpt lat="47.81548" lon="7.02569">
        <ele>1003</ele>
        <time>2023-05-08T12:55:48Z</time>
      </trkpt>
      <trkpt lat="47.81525" lon="7.0259">
        <ele>998</ele>
        <time>2023-05-08T12:56:13Z</time>
      </trkpt>
      <trkpt lat="47.8152" lon="7.02602">
        <ele>996</ele>
        <time>2023-05-08T12:56:22Z</time>
      </trkpt>
      <trkpt lat="47.81509" lon="7.02616">
        <ele>993</ele>
        <time>2023-05-08T12:56:40Z</time>
      </trkpt>
      <trkpt lat="47.81503" lon="7.02633">
        <ele>990</ele>
        <time>2023-05-08T12:56:53Z</time>
      </trkpt>
      <trkpt lat="47.81501" lon="7.02643">
        <ele>989</ele>
        <time>2023-05-08T12:57:01Z</time>
      </trkpt>
      <trkpt lat="47.81504" lon="7.0265">
        <ele>988</ele>
        <time>2023-05-08T12:57:05Z</time>
      </trkpt>
      <trkpt lat="47.815" lon="7.02655">
        <ele>987</ele>
        <time>2023-05-08T12:57:09Z</time>
      </trkpt>
      <trkpt lat="47.81497" lon="7.02659">
        <ele>986</ele>
        <time>2023-05-08T12:57:12Z</time>
      </trkpt>
      <trkpt lat="47.81493" lon="7.02666">
        <ele>985</ele>
        <time>2023-05-08T12:57:28Z</time>
      </trkpt>
      <trkpt lat="47.81494" lon="7.02669">
        <ele>985</ele>
        <time>2023-05-08T12:58:02Z</time>
      </trkpt>
      <trkpt lat="47.81496" lon="7.02659">
        <ele>985</ele>
        <time>2023-05-08T12:58:18Z</time>
      </trkpt>
      <trkpt lat="47.81501" lon="7.02674">
        <ele>984</ele>
        <time>2023-05-08T12:58:38Z</time>
      </trkpt>
      <trkpt lat="47.81502" lon="7.02687">
        <ele>981</ele>
        <time>2023-05-08T12:58:52Z</time>
      </trkpt>
      <trkpt lat="47.81512" lon="7.02715">
        <ele>978</ele>
        <time>2023-05-08T12:59:10Z</time>
      </trkpt>
      <trkpt lat="47.81517" lon="7.02722">
        <ele>977</ele>
        <time>2023-05-08T12:59:17Z</time>
      </trkpt>
      <trkpt lat="47.81519" lon="7.0273">
        <ele>976</ele>
        <time>2023-05-08T12:59:21Z</time>
      </trkpt>
      <trkpt lat="47.81524" lon="7.02732">
        <ele>976</ele>
        <time>2023-05-08T12:59:25Z</time>
      </trkpt>
      <trkpt lat="47.8153" lon="7.02749">
        <ele>974</ele>
        <time>2023-05-08T12:59:39Z</time>
      </trkpt>
      <trkpt lat="47.81533" lon="7.02755">
        <ele>973</ele>
        <time>2023-05-08T12:59:43Z</time>
      </trkpt>
      <trkpt lat="47.81536" lon="7.02766">
        <ele>971</ele>
        <time>2023-05-08T12:59:52Z</time>
      </trkpt>
      <trkpt lat="47.81543" lon="7.02777">
        <ele>970</ele>
        <time>2023-05-08T13:00:00Z</time>
      </trkpt>
      <trkpt lat="47.81548" lon="7.02787">
        <ele>969</ele>
        <time>2023-05-08T13:00:08Z</time>
      </trkpt>
      <trkpt lat="47.81552" lon="7.02791">
        <ele>968</ele>
        <time>2023-05-08T13:00:13Z</time>
      </trkpt>
      <trkpt lat="47.81557" lon="7.02793">
        <ele>968</ele>
        <time>2023-05-08T13:00:18Z</time>
      </trkpt>
      <trkpt lat="47.81559" lon="7.02807">
        <ele>967</ele>
        <time>2023-05-08T13:00:28Z</time>
      </trkpt>
      <trkpt lat="47.81562" lon="7.02813">
        <ele>967</ele>
        <time>2023-05-08T13:00:31Z</time>
      </trkpt>
      <trkpt lat="47.81569" lon="7.02817">
        <ele>966</ele>
        <time>2023-05-08T13:00:38Z</time>
      </trkpt>
      <trkpt lat="47.81574" lon="7.02823">
        <ele>965</ele>
        <time>2023-05-08T13:00:42Z</time>
      </trkpt>
      <trkpt lat="47.81571" lon="7.0283">
        <ele>964</ele>
        <time>2023-05-08T13:00:46Z</time>
      </trkpt>
      <trkpt lat="47.81578" lon="7.02829">
        <ele>964</ele>
        <time>2023-05-08T13:00:51Z</time>
      </trkpt>
      <trkpt lat="47.81583" lon="7.02833">
        <ele>963</ele>
        <time>2023-05-08T13:00:57Z</time>
      </trkpt>
      <trkpt lat="47.81594" lon="7.02839">
        <ele>960</ele>
        <time>2023-05-08T13:01:07Z</time>
      </trkpt>
      <trkpt lat="47.81598" lon="7.02844">
        <ele>960</ele>
        <time>2023-05-08T13:01:11Z</time>
      </trkpt>
      <trkpt lat="47.81601" lon="7.02858">
        <ele>957</ele>
        <time>2023-05-08T13:01:25Z</time>
      </trkpt>
      <trkpt lat="47.81606" lon="7.02863">
        <ele>957</ele>
        <time>2023-05-08T13:01:28Z</time>
      </trkpt>
      <trkpt lat="47.81608" lon="7.02869">
        <ele>956</ele>
        <time>2023-05-08T13:01:33Z</time>
      </trkpt>
      <trkpt lat="47.81614" lon="7.02879">
        <ele>956</ele>
        <time>2023-05-08T13:01:40Z</time>
      </trkpt>
      <trkpt lat="47.81616" lon="7.02886">
        <ele>955</ele>
        <time>2023-05-08T13:01:44Z</time>
      </trkpt>
      <trkpt lat="47.8162" lon="7.0289">
        <ele>954</ele>
        <time>2023-05-08T13:01:46Z</time>
      </trkpt>
      <trkpt lat="47.81625" lon="7.02889">
        <ele>953</ele>
        <time>2023-05-08T13:01:54Z</time>
      </trkpt>
      <trkpt lat="47.81631" lon="7.02888">
        <ele>953</ele>
        <time>2023-05-08T13:01:59Z</time>
      </trkpt>
      <trkpt lat="47.8164" lon="7.02893">
        <ele>952</ele>
        <time>2023-05-08T13:02:03Z</time>
      </trkpt>
      <trkpt lat="47.81645" lon="7.02892">
        <ele>952</ele>
        <time>2023-05-08T13:02:05Z</time>
      </trkpt>
      <trkpt lat="47.8165" lon="7.02887">
        <ele>952</ele>
        <time>2023-05-08T13:02:07Z</time>
      </trkpt>
      <trkpt lat="47.81651" lon="7.02898">
        <ele>951</ele>
        <time>2023-05-08T13:02:09Z</time>
      </trkpt>
      <trkpt lat="47.81646" lon="7.02903">
        <ele>950</ele>
        <time>2023-05-08T13:02:12Z</time>
      </trkpt>
      <trkpt lat="47.81648" lon="7.02914">
        <ele>950</ele>
        <time>2023-05-08T13:02:14Z</time>
      </trkpt>
      <trkpt lat="47.81644" lon="7.02933">
        <ele>949</ele>
        <time>2023-05-08T13:02:30Z</time>
      </trkpt>
      <trkpt lat="47.81642" lon="7.02939">
        <ele>948</ele>
        <time>2023-05-08T13:02:33Z</time>
      </trkpt>
      <trkpt lat="47.81634" lon="7.02951">
        <ele>948</ele>
        <time>2023-05-08T13:02:40Z</time>
      </trkpt>
      <trkpt lat="47.81628" lon="7.02962">
        <ele>945</ele>
        <time>2023-05-08T13:03:05Z</time>
      </trkpt>
      <trkpt lat="47.81622" lon="7.02982">
        <ele>943</ele>
        <time>2023-05-08T13:03:15Z</time>
      </trkpt>
      <trkpt lat="47.81627" lon="7.02987">
        <ele>943</ele>
        <time>2023-05-08T13:03:19Z</time>
      </trkpt>
      <trkpt lat="47.81623" lon="7.03">
        <ele>943</ele>
        <time>2023-05-08T13:03:23Z</time>
      </trkpt>
      <trkpt lat="47.8162" lon="7.03011">
        <ele>941</ele>
        <time>2023-05-08T13:03:34Z</time>
      </trkpt>
      <trkpt lat="47.81617" lon="7.03018">
        <ele>940</ele>
        <time>2023-05-08T13:03:39Z</time>
      </trkpt>
      <trkpt lat="47.81616" lon="7.03026">
        <ele>940</ele>
        <time>2023-05-08T13:03:41Z</time>
      </trkpt>
      <trkpt lat="47.81609" lon="7.03041">
        <ele>937</ele>
        <time>2023-05-08T13:03:53Z</time>
      </trkpt>
      <trkpt lat="47.81603" lon="7.03052">
        <ele>935</ele>
        <time>2023-05-08T13:04:04Z</time>
      </trkpt>
      <trkpt lat="47.81603" lon="7.0306">
        <ele>934</ele>
        <time>2023-05-08T13:04:08Z</time>
      </trkpt>
      <trkpt lat="47.81599" lon="7.03065">
        <ele>932</ele>
        <time>2023-05-08T13:04:11Z</time>
      </trkpt>
      <trkpt lat="47.81599" lon="7.03078">
        <ele>929</ele>
        <time>2023-05-08T13:04:22Z</time>
      </trkpt>
      <trkpt lat="47.81598" lon="7.03087">
        <ele>929</ele>
        <time>2023-05-08T13:04:29Z</time>
      </trkpt>
      <trkpt lat="47.81594" lon="7.03093">
        <ele>928</ele>
        <time>2023-05-08T13:04:31Z</time>
      </trkpt>
      <trkpt lat="47.81591" lon="7.03096">
        <ele>928</ele>
        <time>2023-05-08T13:04:35Z</time>
      </trkpt>
      <trkpt lat="47.81591" lon="7.03104">
        <ele>927</ele>
        <time>2023-05-08T13:04:38Z</time>
      </trkpt>
      <trkpt lat="47.81584" lon="7.03114">
        <ele>926</ele>
        <time>2023-05-08T13:04:44Z</time>
      </trkpt>
      <trkpt lat="47.81583" lon="7.03121">
        <ele>924</ele>
        <time>2023-05-08T13:04:52Z</time>
      </trkpt>
      <trkpt lat="47.81577" lon="7.03128">
        <ele>923</ele>
        <time>2023-05-08T13:04:56Z</time>
      </trkpt>
      <trkpt lat="47.81576" lon="7.03135">
        <ele>923</ele>
        <time>2023-05-08T13:05:00Z</time>
      </trkpt>
      <trkpt lat="47.81569" lon="7.03144">
        <ele>921</ele>
        <time>2023-05-08T13:05:08Z</time>
      </trkpt>
      <trkpt lat="47.81563" lon="7.0316">
        <ele>919</ele>
        <time>2023-05-08T13:05:18Z</time>
      </trkpt>
      <trkpt lat="47.81559" lon="7.03163">
        <ele>919</ele>
        <time>2023-05-08T13:05:23Z</time>
      </trkpt>
      <trkpt lat="47.81556" lon="7.03169">
        <ele>918</ele>
        <time>2023-05-08T13:05:27Z</time>
      </trkpt>
      <trkpt lat="47.81548" lon="7.03173">
        <ele>917</ele>
        <time>2023-05-08T13:05:32Z</time>
      </trkpt>
      <trkpt lat="47.81544" lon="7.03177">
        <ele>917</ele>
        <time>2023-05-08T13:05:35Z</time>
      </trkpt>
      <trkpt lat="47.81525" lon="7.03198">
        <ele>914</ele>
        <time>2023-05-08T13:05:58Z</time>
      </trkpt>
      <trkpt lat="47.81517" lon="7.03207">
        <ele>914</ele>
        <time>2023-05-08T13:06:06Z</time>
      </trkpt>
      <trkpt lat="47.81514" lon="7.03211">
        <ele>914</ele>
        <time>2023-05-08T13:06:10Z</time>
      </trkpt>
      <trkpt lat="47.81505" lon="7.0322">
        <ele>913</ele>
        <time>2023-05-08T13:06:20Z</time>
      </trkpt>
      <trkpt lat="47.81497" lon="7.03226">
        <ele>912</ele>
        <time>2023-05-08T13:06:28Z</time>
      </trkpt>
      <trkpt lat="47.81492" lon="7.03227">
        <ele>911</ele>
        <time>2023-05-08T13:06:32Z</time>
      </trkpt>
      <trkpt lat="47.81472" lon="7.03227">
        <ele>908</ele>
        <time>2023-05-08T13:06:49Z</time>
      </trkpt>
      <trkpt lat="47.81463" lon="7.03229">
        <ele>906</ele>
        <time>2023-05-08T13:06:58Z</time>
      </trkpt>
      <trkpt lat="47.81445" lon="7.03237">
        <ele>904</ele>
        <time>2023-05-08T13:07:14Z</time>
      </trkpt>
      <trkpt lat="47.81436" lon="7.03237">
        <ele>903</ele>
        <time>2023-05-08T13:07:22Z</time>
      </trkpt>
      <trkpt lat="47.81432" lon="7.03239">
        <ele>902</ele>
        <time>2023-05-08T13:07:26Z</time>
      </trkpt>
      <trkpt lat="47.81418" lon="7.03237">
        <ele>901</ele>
        <time>2023-05-08T13:07:38Z</time>
      </trkpt>
      <trkpt lat="47.81411" lon="7.03235">
        <ele>900</ele>
        <time>2023-05-08T13:07:44Z</time>
      </trkpt>
      <trkpt lat="47.81406" lon="7.03236">
        <ele>900</ele>
        <time>2023-05-08T13:07:47Z</time>
      </trkpt>
      <trkpt lat="47.81402" lon="7.03239">
        <ele>899</ele>
        <time>2023-05-08T13:07:52Z</time>
      </trkpt>
      <trkpt lat="47.81392" lon="7.03237">
        <ele>898</ele>
        <time>2023-05-08T13:08:02Z</time>
      </trkpt>
      <trkpt lat="47.81382" lon="7.03233">
        <ele>896</ele>
        <time>2023-05-08T13:08:11Z</time>
      </trkpt>
      <trkpt lat="47.81366" lon="7.03235">
        <ele>894</ele>
        <time>2023-05-08T13:08:25Z</time>
      </trkpt>
      <trkpt lat="47.81362" lon="7.03238">
        <ele>893</ele>
        <time>2023-05-08T13:08:29Z</time>
      </trkpt>
      <trkpt lat="47.81348" lon="7.0324">
        <ele>892</ele>
        <time>2023-05-08T13:08:40Z</time>
      </trkpt>
      <trkpt lat="47.81337" lon="7.03239">
        <ele>890</ele>
        <time>2023-05-08T13:08:50Z</time>
      </trkpt>
      <trkpt lat="47.81316" lon="7.03244">
        <ele>888</ele>
        <time>2023-05-08T13:09:09Z</time>
      </trkpt>
      <trkpt lat="47.81297" lon="7.03243">
        <ele>886</ele>
        <time>2023-05-08T13:09:25Z</time>
      </trkpt>
      <trkpt lat="47.81286" lon="7.03238">
        <ele>885</ele>
        <time>2023-05-08T13:09:36Z</time>
      </trkpt>
      <trkpt lat="47.81282" lon="7.03236">
        <ele>884</ele>
        <time>2023-05-08T13:09:39Z</time>
      </trkpt>
      <trkpt lat="47.81277" lon="7.03234">
        <ele>883</ele>
        <time>2023-05-08T13:09:44Z</time>
      </trkpt>
      <trkpt lat="47.81243" lon="7.03238">
        <ele>879</ele>
        <time>2023-05-08T13:10:15Z</time>
      </trkpt>
      <trkpt lat="47.8124" lon="7.03241">
        <ele>879</ele>
        <time>2023-05-08T13:10:19Z</time>
      </trkpt>
      <trkpt lat="47.81229" lon="7.03243">
        <ele>878</ele>
        <time>2023-05-08T13:10:28Z</time>
      </trkpt>
      <trkpt lat="47.81216" lon="7.03251">
        <ele>877</ele>
        <time>2023-05-08T13:10:39Z</time>
      </trkpt>
      <trkpt lat="47.81212" lon="7.03251">
        <ele>876</ele>
        <time>2023-05-08T13:10:43Z</time>
      </trkpt>
      <trkpt lat="47.81193" lon="7.03256">
        <ele>874</ele>
        <time>2023-05-08T13:11:00Z</time>
      </trkpt>
      <trkpt lat="47.81188" lon="7.0326">
        <ele>874</ele>
        <time>2023-05-08T13:11:04Z</time>
      </trkpt>
      <trkpt lat="47.81186" lon="7.03265">
        <ele>874</ele>
        <time>2023-05-08T13:11:09Z</time>
      </trkpt>
      <trkpt lat="47.81184" lon="7.03272">
        <ele>874</ele>
        <time>2023-05-08T13:11:13Z</time>
      </trkpt>
      <trkpt lat="47.8118" lon="7.03293">
        <ele>872</ele>
        <time>2023-05-08T13:11:25Z</time>
      </trkpt>
      <trkpt lat="47.81169" lon="7.03323">
        <ele>869</ele>
        <time>2023-05-08T13:11:43Z</time>
      </trkpt>
      <trkpt lat="47.81166" lon="7.03338">
        <ele>867</ele>
        <time>2023-05-08T13:11:52Z</time>
      </trkpt>
      <trkpt lat="47.81167" lon="7.03345">
        <ele>866</ele>
        <time>2023-05-08T13:11:56Z</time>
      </trkpt>
      <trkpt lat="47.8117" lon="7.03359">
        <ele>865</ele>
        <time>2023-05-08T13:12:06Z</time>
      </trkpt>
      <trkpt lat="47.81174" lon="7.03388">
        <ele>862</ele>
        <time>2023-05-08T13:12:26Z</time>
      </trkpt>
      <trkpt lat="47.81174" lon="7.03396">
        <ele>861</ele>
        <time>2023-05-08T13:12:30Z</time>
      </trkpt>
      <trkpt lat="47.81175" lon="7.03402">
        <ele>860</ele>
        <time>2023-05-08T13:12:34Z</time>
      </trkpt>
      <trkpt lat="47.81173" lon="7.03411">
        <ele>860</ele>
        <time>2023-05-08T13:12:38Z</time>
      </trkpt>
      <trkpt lat="47.8117" lon="7.03417">
        <ele>860</ele>
        <time>2023-05-08T13:12:41Z</time>
      </trkpt>
      <trkpt lat="47.81169" lon="7.03424">
        <ele>859</ele>
        <time>2023-05-08T13:12:45Z</time>
      </trkpt>
      <trkpt lat="47.81169" lon="7.03433">
        <ele>859</ele>
        <time>2023-05-08T13:12:49Z</time>
      </trkpt>
      <trkpt lat="47.81164" lon="7.0346">
        <ele>859</ele>
        <time>2023-05-08T13:13:05Z</time>
      </trkpt>
      <trkpt lat="47.81165" lon="7.03476">
        <ele>859</ele>
        <time>2023-05-08T13:13:14Z</time>
      </trkpt>
      <trkpt lat="47.81163" lon="7.03483">
        <ele>858</ele>
        <time>2023-05-08T13:13:18Z</time>
      </trkpt>
      <trkpt lat="47.81156" lon="7.035">
        <ele>857</ele>
        <time>2023-05-08T13:13:28Z</time>
      </trkpt>
      <trkpt lat="47.81153" lon="7.03511">
        <ele>856</ele>
        <time>2023-05-08T13:13:35Z</time>
      </trkpt>
      <trkpt lat="47.81142" lon="7.03527">
        <ele>855</ele>
        <time>2023-05-08T13:13:45Z</time>
      </trkpt>
      <trkpt lat="47.81141" lon="7.03553">
        <ele>852</ele>
        <time>2023-05-08T13:14:03Z</time>
      </trkpt>
      <trkpt lat="47.81142" lon="7.03572">
        <ele>850</ele>
        <time>2023-05-08T13:14:17Z</time>
      </trkpt>
      <trkpt lat="47.81138" lon="7.03576">
        <ele>849</ele>
        <time>2023-05-08T13:14:21Z</time>
      </trkpt>
      <trkpt lat="47.81134" lon="7.03585">
        <ele>849</ele>
        <time>2023-05-08T13:14:23Z</time>
      </trkpt>
      <trkpt lat="47.8113" lon="7.0359">
        <ele>849</ele>
        <time>2023-05-08T13:14:27Z</time>
      </trkpt>
      <trkpt lat="47.81126" lon="7.03594">
        <ele>848</ele>
        <time>2023-05-08T13:14:30Z</time>
      </trkpt>
      <trkpt lat="47.81122" lon="7.03597">
        <ele>848</ele>
        <time>2023-05-08T13:14:33Z</time>
      </trkpt>
      <trkpt lat="47.81113" lon="7.03601">
        <ele>847</ele>
        <time>2023-05-08T13:14:40Z</time>
      </trkpt>
      <trkpt lat="47.81108" lon="7.03601">
        <ele>846</ele>
        <time>2023-05-08T13:14:44Z</time>
      </trkpt>
      <trkpt lat="47.81104" lon="7.03605">
        <ele>846</ele>
        <time>2023-05-08T13:14:48Z</time>
      </trkpt>
      <trkpt lat="47.81101" lon="7.03611">
        <ele>845</ele>
        <time>2023-05-08T13:14:52Z</time>
      </trkpt>
      <trkpt lat="47.81095" lon="7.03615">
        <ele>844</ele>
        <time>2023-05-08T13:14:58Z</time>
      </trkpt>
      <trkpt lat="47.81092" lon="7.03621">
        <ele>843</ele>
        <time>2023-05-08T13:15:02Z</time>
      </trkpt>
      <trkpt lat="47.81088" lon="7.03624">
        <ele>843</ele>
        <time>2023-05-08T13:15:05Z</time>
      </trkpt>
      <trkpt lat="47.81085" lon="7.03634">
        <ele>842</ele>
        <time>2023-05-08T13:15:11Z</time>
      </trkpt>
      <trkpt lat="47.81081" lon="7.03639">
        <ele>841</ele>
        <time>2023-05-08T13:15:16Z</time>
      </trkpt>
      <trkpt lat="47.8107" lon="7.03673">
        <ele>837</ele>
        <time>2023-05-08T13:15:38Z</time>
      </trkpt>
      <trkpt lat="47.81068" lon="7.03686">
        <ele>835</ele>
        <time>2023-05-08T13:15:47Z</time>
      </trkpt>
      <trkpt lat="47.81063" lon="7.03703">
        <ele>834</ele>
        <time>2023-05-08T13:15:57Z</time>
      </trkpt>
      <trkpt lat="47.81058" lon="7.0371">
        <ele>833</ele>
        <time>2023-05-08T13:16:01Z</time>
      </trkpt>
      <trkpt lat="47.81056" lon="7.03719">
        <ele>833</ele>
        <time>2023-05-08T13:16:07Z</time>
      </trkpt>
      <trkpt lat="47.81051" lon="7.03731">
        <ele>832</ele>
        <time>2023-05-08T13:16:15Z</time>
      </trkpt>
      <trkpt lat="47.81049" lon="7.03738">
        <ele>831</ele>
        <time>2023-05-08T13:16:19Z</time>
      </trkpt>
      <trkpt lat="47.8104" lon="7.03755">
        <ele>830</ele>
        <time>2023-05-08T13:16:30Z</time>
      </trkpt>
      <trkpt lat="47.81035" lon="7.03764">
        <ele>829</ele>
        <time>2023-05-08T13:16:39Z</time>
      </trkpt>
      <trkpt lat="47.81023" lon="7.03773">
        <ele>826</ele>
        <time>2023-05-08T13:16:52Z</time>
      </trkpt>
      <trkpt lat="47.81018" lon="7.03775">
        <ele>824</ele>
        <time>2023-05-08T13:16:57Z</time>
      </trkpt>
      <trkpt lat="47.81011" lon="7.03776">
        <ele>824</ele>
        <time>2023-05-08T13:17:04Z</time>
      </trkpt>
      <trkpt lat="47.81001" lon="7.03774">
        <ele>823</ele>
        <time>2023-05-08T13:17:11Z</time>
      </trkpt>
      <trkpt lat="47.80987" lon="7.03767">
        <ele>821</ele>
        <time>2023-05-08T13:17:23Z</time>
      </trkpt>
      <trkpt lat="47.80955" lon="7.03777">
        <ele>816</ele>
        <time>2023-05-08T13:17:53Z</time>
      </trkpt>
      <trkpt lat="47.80948" lon="7.03775">
        <ele>815</ele>
        <time>2023-05-08T13:18:01Z</time>
      </trkpt>
      <trkpt lat="47.80943" lon="7.03778">
        <ele>815</ele>
        <time>2023-05-08T13:18:05Z</time>
      </trkpt>
      <trkpt lat="47.80938" lon="7.03776">
        <ele>814</ele>
        <time>2023-05-08T13:18:10Z</time>
      </trkpt>
      <trkpt lat="47.80929" lon="7.03782">
        <ele>812</ele>
        <time>2023-05-08T13:18:19Z</time>
      </trkpt>
      <trkpt lat="47.80923" lon="7.03789">
        <ele>810</ele>
        <time>2023-05-08T13:18:25Z</time>
      </trkpt>
      <trkpt lat="47.80918" lon="7.03791">
        <ele>810</ele>
        <time>2023-05-08T13:18:29Z</time>
      </trkpt>
      <trkpt lat="47.80914" lon="7.03795">
        <ele>810</ele>
        <time>2023-05-08T13:18:34Z</time>
      </trkpt>
      <trkpt lat="47.809" lon="7.03803">
        <ele>809</ele>
        <time>2023-05-08T13:18:47Z</time>
      </trkpt>
      <trkpt lat="47.80896" lon="7.03809">
        <ele>809</ele>
        <time>2023-05-08T13:18:50Z</time>
      </trkpt>
      <trkpt lat="47.80895" lon="7.03817">
        <ele>807</ele>
        <time>2023-05-08T13:18:59Z</time>
      </trkpt>
      <trkpt lat="47.8089" lon="7.03822">
        <ele>806</ele>
        <time>2023-05-08T13:19:02Z</time>
      </trkpt>
      <trkpt lat="47.80885" lon="7.03833">
        <ele>804</ele>
        <time>2023-05-08T13:19:09Z</time>
      </trkpt>
      <trkpt lat="47.80884" lon="7.0384">
        <ele>804</ele>
        <time>2023-05-08T13:19:14Z</time>
      </trkpt>
      <trkpt lat="47.80879" lon="7.03856">
        <ele>804</ele>
        <time>2023-05-08T13:19:25Z</time>
      </trkpt>
      <trkpt lat="47.80869" lon="7.03877">
        <ele>801</ele>
        <time>2023-05-08T13:19:40Z</time>
      </trkpt>
      <trkpt lat="47.80864" lon="7.03883">
        <ele>800</ele>
        <time>2023-05-08T13:19:44Z</time>
      </trkpt>
      <trkpt lat="47.80861" lon="7.03889">
        <ele>800</ele>
        <time>2023-05-08T13:19:47Z</time>
      </trkpt>
      <trkpt lat="47.8086" lon="7.03895">
        <ele>799</ele>
        <time>2023-05-08T13:19:51Z</time>
      </trkpt>
      <trkpt lat="47.80856" lon="7.03908">
        <ele>797</ele>
        <time>2023-05-08T13:20:00Z</time>
      </trkpt>
      <trkpt lat="47.80853" lon="7.03933">
        <ele>793</ele>
        <time>2023-05-08T13:20:16Z</time>
      </trkpt>
      <trkpt lat="47.80856" lon="7.0394">
        <ele>793</ele>
        <time>2023-05-08T13:20:20Z</time>
      </trkpt>
      <trkpt lat="47.80856" lon="7.03949">
        <ele>793</ele>
        <time>2023-05-08T13:20:25Z</time>
      </trkpt>
      <trkpt lat="47.80854" lon="7.03963">
        <ele>792</ele>
        <time>2023-05-08T13:20:32Z</time>
      </trkpt>
      <trkpt lat="47.80856" lon="7.03969">
        <ele>791</ele>
        <time>2023-05-08T13:20:36Z</time>
      </trkpt>
      <trkpt lat="47.80858" lon="7.03981">
        <ele>790</ele>
        <time>2023-05-08T13:20:46Z</time>
      </trkpt>
      <trkpt lat="47.80856" lon="7.03991">
        <ele>789</ele>
        <time>2023-05-08T13:20:53Z</time>
      </trkpt>
      <trkpt lat="47.80849" lon="7.04005">
        <ele>788</ele>
        <time>2023-05-08T13:21:03Z</time>
      </trkpt>
      <trkpt lat="47.80848" lon="7.04013">
        <ele>787</ele>
        <time>2023-05-08T13:21:07Z</time>
      </trkpt>
      <trkpt lat="47.80846" lon="7.04018">
        <ele>787</ele>
        <time>2023-05-08T13:21:11Z</time>
      </trkpt>
      <trkpt lat="47.80823" lon="7.04045">
        <ele>783</ele>
        <time>2023-05-08T13:21:35Z</time>
      </trkpt>
      <trkpt lat="47.80804" lon="7.04056">
        <ele>780</ele>
        <time>2023-05-08T13:21:51Z</time>
      </trkpt>
      <trkpt lat="47.80801" lon="7.04061">
        <ele>779</ele>
        <time>2023-05-08T13:21:55Z</time>
      </trkpt>
      <trkpt lat="47.80795" lon="7.04065">
        <ele>778</ele>
        <time>2023-05-08T13:22:02Z</time>
      </trkpt>
      <trkpt lat="47.80789" lon="7.04077">
        <ele>777</ele>
        <time>2023-05-08T13:22:12Z</time>
      </trkpt>
      <trkpt lat="47.80776" lon="7.04089">
        <ele>775</ele>
        <time>2023-05-08T13:22:25Z</time>
      </trkpt>
      <trkpt lat="47.80775" lon="7.04095">
        <ele>775</ele>
        <time>2023-05-08T13:22:28Z</time>
      </trkpt>
      <trkpt lat="47.8077" lon="7.04106">
        <ele>773</ele>
        <time>2023-05-08T13:22:37Z</time>
      </trkpt>
      <trkpt lat="47.80766" lon="7.0411">
        <ele>772</ele>
        <time>2023-05-08T13:22:41Z</time>
      </trkpt>
      <trkpt lat="47.80764" lon="7.04116">
        <ele>772</ele>
        <time>2023-05-08T13:22:44Z</time>
      </trkpt>
      <trkpt lat="47.8076" lon="7.04119">
        <ele>771</ele>
        <time>2023-05-08T13:22:49Z</time>
      </trkpt>
      <trkpt lat="47.80747" lon="7.04151">
        <ele>767</ele>
        <time>2023-05-08T13:23:15Z</time>
      </trkpt>
      <trkpt lat="47.80743" lon="7.04155">
        <ele>767</ele>
        <time>2023-05-08T13:23:18Z</time>
      </trkpt>
      <trkpt lat="47.80739" lon="7.04162">
        <ele>766</ele>
        <time>2023-05-08T13:23:24Z</time>
      </trkpt>
      <trkpt lat="47.80734" lon="7.04167">
        <ele>766</ele>
        <time>2023-05-08T13:23:27Z</time>
      </trkpt>
      <trkpt lat="47.80733" lon="7.04173">
        <ele>765</ele>
        <time>2023-05-08T13:23:31Z</time>
      </trkpt>
      <trkpt lat="47.80729" lon="7.04179">
        <ele>764</ele>
        <time>2023-05-08T13:23:36Z</time>
      </trkpt>
      <trkpt lat="47.80726" lon="7.04185">
        <ele>764</ele>
        <time>2023-05-08T13:23:39Z</time>
      </trkpt>
      <trkpt lat="47.80726" lon="7.04191">
        <ele>763</ele>
        <time>2023-05-08T13:23:43Z</time>
      </trkpt>
      <trkpt lat="47.80722" lon="7.04199">
        <ele>762</ele>
        <time>2023-05-08T13:23:46Z</time>
      </trkpt>
      <trkpt lat="47.80719" lon="7.04202">
        <ele>762</ele>
        <time>2023-05-08T13:23:50Z</time>
      </trkpt>
      <trkpt lat="47.80714" lon="7.04208">
        <ele>761</ele>
        <time>2023-05-08T13:23:54Z</time>
      </trkpt>
      <trkpt lat="47.80712" lon="7.04215">
        <ele>759</ele>
        <time>2023-05-08T13:24:02Z</time>
      </trkpt>
      <trkpt lat="47.80709" lon="7.04221">
        <ele>758</ele>
        <time>2023-05-08T13:24:07Z</time>
      </trkpt>
      <trkpt lat="47.80688" lon="7.04237">
        <ele>754</ele>
        <time>2023-05-08T13:24:25Z</time>
      </trkpt>
      <trkpt lat="47.80684" lon="7.04239">
        <ele>754</ele>
        <time>2023-05-08T13:24:29Z</time>
      </trkpt>
      <trkpt lat="47.80677" lon="7.04244">
        <ele>752</ele>
        <time>2023-05-08T13:24:39Z</time>
      </trkpt>
      <trkpt lat="47.80672" lon="7.04246">
        <ele>751</ele>
        <time>2023-05-08T13:24:44Z</time>
      </trkpt>
      <trkpt lat="47.80668" lon="7.04249">
        <ele>751</ele>
        <time>2023-05-08T13:24:47Z</time>
      </trkpt>
      <trkpt lat="47.80665" lon="7.04254">
        <ele>750</ele>
        <time>2023-05-08T13:24:50Z</time>
      </trkpt>
      <trkpt lat="47.80658" lon="7.04261">
        <ele>749</ele>
        <time>2023-05-08T13:24:57Z</time>
      </trkpt>
      <trkpt lat="47.80654" lon="7.04265">
        <ele>749</ele>
        <time>2023-05-08T13:25:00Z</time>
      </trkpt>
      <trkpt lat="47.80647" lon="7.04263">
        <ele>749</ele>
        <time>2023-05-08T13:25:13Z</time>
      </trkpt>
      <trkpt lat="47.80636" lon="7.04265">
        <ele>749</ele>
        <time>2023-05-08T13:25:21Z</time>
      </trkpt>
      <trkpt lat="47.80631" lon="7.04262">
        <ele>749</ele>
        <time>2023-05-08T13:25:25Z</time>
      </trkpt>
      <trkpt lat="47.80626" lon="7.04262">
        <ele>749</ele>
        <time>2023-05-08T13:25:29Z</time>
      </trkpt>
      <trkpt lat="47.80616" lon="7.04266">
        <ele>750</ele>
        <time>2023-05-08T13:25:38Z</time>
      </trkpt>
      <trkpt lat="47.80612" lon="7.04269">
        <ele>750</ele>
        <time>2023-05-08T13:25:42Z</time>
      </trkpt>
      <trkpt lat="47.80608" lon="7.04273">
        <ele>750</ele>
        <time>2023-05-08T13:25:46Z</time>
      </trkpt>
      <trkpt lat="47.80584" lon="7.04317">
        <ele>754</ele>
        <time>2023-05-08T13:26:20Z</time>
      </trkpt>
      <trkpt lat="47.80577" lon="7.04326">
        <ele>755</ele>
        <time>2023-05-08T13:26:29Z</time>
      </trkpt>
      <trkpt lat="47.80565" lon="7.04338">
        <ele>757</ele>
        <time>2023-05-08T13:26:43Z</time>
      </trkpt>
      <trkpt lat="47.80562" lon="7.04343">
        <ele>757</ele>
        <time>2023-05-08T13:26:47Z</time>
      </trkpt>
      <trkpt lat="47.80559" lon="7.04347">
        <ele>758</ele>
        <time>2023-05-08T13:26:51Z</time>
      </trkpt>
      <trkpt lat="47.80554" lon="7.04351">
        <ele>759</ele>
        <time>2023-05-08T13:26:57Z</time>
      </trkpt>
      <trkpt lat="47.8054" lon="7.04369">
        <ele>761</ele>
        <time>2023-05-08T13:27:13Z</time>
      </trkpt>
      <trkpt lat="47.80525" lon="7.04381">
        <ele>763</ele>
        <time>2023-05-08T13:27:29Z</time>
      </trkpt>
      <trkpt lat="47.80498" lon="7.04416">
        <ele>767</ele>
        <time>2023-05-08T13:28:00Z</time>
      </trkpt>
      <trkpt lat="47.80476" lon="7.04433">
        <ele>770</ele>
        <time>2023-05-08T13:28:24Z</time>
      </trkpt>
      <trkpt lat="47.80467" lon="7.04437">
        <ele>771</ele>
        <time>2023-05-08T13:28:34Z</time>
      </trkpt>
      <trkpt lat="47.8044" lon="7.04461">
        <ele>775</ele>
        <time>2023-05-08T13:29:07Z</time>
      </trkpt>
      <trkpt lat="47.80429" lon="7.04476">
        <ele>776</ele>
        <time>2023-05-08T13:29:20Z</time>
      </trkpt>
      <trkpt lat="47.80426" lon="7.04482">
        <ele>776</ele>
        <time>2023-05-08T13:29:24Z</time>
      </trkpt>
      <trkpt lat="47.80423" lon="7.04496">
        <ele>777</ele>
        <time>2023-05-08T13:29:34Z</time>
      </trkpt>
      <trkpt lat="47.80424" lon="7.0451">
        <ele>778</ele>
        <time>2023-05-08T13:29:42Z</time>
      </trkpt>
      <trkpt lat="47.8043" lon="7.04537">
        <ele>777</ele>
        <time>2023-05-08T13:29:59Z</time>
      </trkpt>
      <trkpt lat="47.80434" lon="7.04539">
        <ele>776</ele>
        <time>2023-05-08T13:30:03Z</time>
      </trkpt>
      <trkpt lat="47.80445" lon="7.04565">
        <ele>775</ele>
        <time>2023-05-08T13:30:19Z</time>
      </trkpt>
      <trkpt lat="47.80449" lon="7.04579">
        <ele>775</ele>
        <time>2023-05-08T13:30:27Z</time>
      </trkpt>
      <trkpt lat="47.80453" lon="7.04596">
        <ele>774</ele>
        <time>2023-05-08T13:30:37Z</time>
      </trkpt>
      <trkpt lat="47.80457" lon="7.046">
        <ele>773</ele>
        <time>2023-05-08T13:30:40Z</time>
      </trkpt>
      <trkpt lat="47.8047" lon="7.04623">
        <ele>772</ele>
        <time>2023-05-08T13:30:58Z</time>
      </trkpt>
      <trkpt lat="47.80477" lon="7.04644">
        <ele>771</ele>
        <time>2023-05-08T13:31:11Z</time>
      </trkpt>
      <trkpt lat="47.8048" lon="7.04649">
        <ele>771</ele>
        <time>2023-05-08T13:31:16Z</time>
      </trkpt>
      <trkpt lat="47.80482" lon="7.04657">
        <ele>771</ele>
        <time>2023-05-08T13:31:20Z</time>
      </trkpt>
      <trkpt lat="47.80488" lon="7.04669">
        <ele>770</ele>
        <time>2023-05-08T13:31:28Z</time>
      </trkpt>
      <trkpt lat="47.8049" lon="7.04676">
        <ele>770</ele>
        <time>2023-05-08T13:31:32Z</time>
      </trkpt>
      <trkpt lat="47.80489" lon="7.04682">
        <ele>770</ele>
        <time>2023-05-08T13:31:36Z</time>
      </trkpt>
      <trkpt lat="47.8049" lon="7.04691">
        <ele>770</ele>
        <time>2023-05-08T13:31:41Z</time>
      </trkpt>
      <trkpt lat="47.80493" lon="7.04706">
        <ele>769</ele>
        <time>2023-05-08T13:31:51Z</time>
      </trkpt>
      <trkpt lat="47.80493" lon="7.04713">
        <ele>768</ele>
        <time>2023-05-08T13:31:55Z</time>
      </trkpt>
      <trkpt lat="47.805" lon="7.04741">
        <ele>767</ele>
        <time>2023-05-08T13:32:11Z</time>
      </trkpt>
      <trkpt lat="47.80504" lon="7.04751">
        <ele>767</ele>
        <time>2023-05-08T13:32:18Z</time>
      </trkpt>
      <trkpt lat="47.80514" lon="7.04805">
        <ele>765</ele>
        <time>2023-05-08T13:32:53Z</time>
      </trkpt>
      <trkpt lat="47.80514" lon="7.04813">
        <ele>765</ele>
        <time>2023-05-08T13:32:58Z</time>
      </trkpt>
      <trkpt lat="47.80514" lon="7.0482">
        <ele>764</ele>
        <time>2023-05-08T13:33:03Z</time>
      </trkpt>
      <trkpt lat="47.80516" lon="7.04826">
        <ele>764</ele>
        <time>2023-05-08T13:33:07Z</time>
      </trkpt>
      <trkpt lat="47.80518" lon="7.04849">
        <ele>763</ele>
        <time>2023-05-08T13:33:21Z</time>
      </trkpt>
      <trkpt lat="47.80522" lon="7.04867">
        <ele>763</ele>
        <time>2023-05-08T13:33:29Z</time>
      </trkpt>
      <trkpt lat="47.80521" lon="7.04876">
        <ele>763</ele>
        <time>2023-05-08T13:33:34Z</time>
      </trkpt>
      <trkpt lat="47.80521" lon="7.04895">
        <ele>762</ele>
        <time>2023-05-08T13:33:40Z</time>
      </trkpt>
      <trkpt lat="47.80517" lon="7.04903">
        <ele>762</ele>
        <time>2023-05-08T13:33:47Z</time>
      </trkpt>
      <trkpt lat="47.80513" lon="7.04923">
        <ele>761</ele>
        <time>2023-05-08T13:33:57Z</time>
      </trkpt>
      <trkpt lat="47.8051" lon="7.0493">
        <ele>760</ele>
        <time>2023-05-08T13:34:01Z</time>
      </trkpt>
      <trkpt lat="47.80504" lon="7.0494">
        <ele>760</ele>
        <time>2023-05-08T13:34:09Z</time>
      </trkpt>
      <trkpt lat="47.805" lon="7.04948">
        <ele>759</ele>
        <time>2023-05-08T13:34:17Z</time>
      </trkpt>
      <trkpt lat="47.80498" lon="7.04958">
        <ele>759</ele>
        <time>2023-05-08T13:34:24Z</time>
      </trkpt>
      <trkpt lat="47.80499" lon="7.04965">
        <ele>759</ele>
        <time>2023-05-08T13:34:27Z</time>
      </trkpt>
      <trkpt lat="47.80491" lon="7.04977">
        <ele>759</ele>
        <time>2023-05-08T13:34:37Z</time>
      </trkpt>
      <trkpt lat="47.80489" lon="7.04982">
        <ele>758</ele>
        <time>2023-05-08T13:34:41Z</time>
      </trkpt>
      <trkpt lat="47.80474" lon="7.04993">
        <ele>758</ele>
        <time>2023-05-08T13:34:56Z</time>
      </trkpt>
      <trkpt lat="47.80471" lon="7.05">
        <ele>757</ele>
        <time>2023-05-08T13:35:00Z</time>
      </trkpt>
      <trkpt lat="47.80466" lon="7.05004">
        <ele>757</ele>
        <time>2023-05-08T13:35:04Z</time>
      </trkpt>
      <trkpt lat="47.80446" lon="7.05006">
        <ele>756</ele>
        <time>2023-05-08T13:35:17Z</time>
      </trkpt>
      <trkpt lat="47.80428" lon="7.04994">
        <ele>755</ele>
        <time>2023-05-08T13:35:35Z</time>
      </trkpt>
      <trkpt lat="47.80423" lon="7.04996">
        <ele>755</ele>
        <time>2023-05-08T13:35:40Z</time>
      </trkpt>
      <trkpt lat="47.80419" lon="7.05007">
        <ele>754</ele>
        <time>2023-05-08T13:35:48Z</time>
      </trkpt>
      <trkpt lat="47.80416" lon="7.05036">
        <ele>752</ele>
        <time>2023-05-08T13:36:04Z</time>
      </trkpt>
      <trkpt lat="47.80415" lon="7.05042">
        <ele>752</ele>
        <time>2023-05-08T13:36:06Z</time>
      </trkpt>
      <trkpt lat="47.80411" lon="7.05047">
        <ele>752</ele>
        <time>2023-05-08T13:36:11Z</time>
      </trkpt>
      <trkpt lat="47.80406" lon="7.05056">
        <ele>752</ele>
        <time>2023-05-08T13:36:19Z</time>
      </trkpt>
      <trkpt lat="47.80398" lon="7.05066">
        <ele>751</ele>
        <time>2023-05-08T13:36:28Z</time>
      </trkpt>
      <trkpt lat="47.80394" lon="7.0507">
        <ele>751</ele>
        <time>2023-05-08T13:36:33Z</time>
      </trkpt>
      <trkpt lat="47.80389" lon="7.05083">
        <ele>751</ele>
        <time>2023-05-08T13:36:41Z</time>
      </trkpt>
      <trkpt lat="47.80384" lon="7.05087">
        <ele>751</ele>
        <time>2023-05-08T13:36:45Z</time>
      </trkpt>
      <trkpt lat="47.80382" lon="7.05094">
        <ele>750</ele>
        <time>2023-05-08T13:36:49Z</time>
      </trkpt>
      <trkpt lat="47.80372" lon="7.05109">
        <ele>750</ele>
        <time>2023-05-08T13:37:01Z</time>
      </trkpt>
      <trkpt lat="47.80366" lon="7.05128">
        <ele>749</ele>
        <time>2023-05-08T13:37:13Z</time>
      </trkpt>
      <trkpt lat="47.80363" lon="7.05133">
        <ele>749</ele>
        <time>2023-05-08T13:37:17Z</time>
      </trkpt>
      <trkpt lat="47.80358" lon="7.05137">
        <ele>749</ele>
        <time>2023-05-08T13:37:22Z</time>
      </trkpt>
      <trkpt lat="47.80347" lon="7.05154">
        <ele>748</ele>
        <time>2023-05-08T13:37:34Z</time>
      </trkpt>
      <trkpt lat="47.80343" lon="7.05163">
        <ele>748</ele>
        <time>2023-05-08T13:37:41Z</time>
      </trkpt>
      <trkpt lat="47.8034" lon="7.05168">
        <ele>748</ele>
        <time>2023-05-08T13:37:45Z</time>
      </trkpt>
      <trkpt lat="47.80335" lon="7.0517">
        <ele>747</ele>
        <time>2023-05-08T13:37:48Z</time>
      </trkpt>
      <trkpt lat="47.80331" lon="7.05175">
        <ele>747</ele>
        <time>2023-05-08T13:37:53Z</time>
      </trkpt>
      <trkpt lat="47.80316" lon="7.05183">
        <ele>747</ele>
        <time>2023-05-08T13:38:05Z</time>
      </trkpt>
      <trkpt lat="47.80308" lon="7.0519">
        <ele>746</ele>
        <time>2023-05-08T13:38:12Z</time>
      </trkpt>
      <trkpt lat="47.80291" lon="7.052">
        <ele>746</ele>
        <time>2023-05-08T13:38:29Z</time>
      </trkpt>
      <trkpt lat="47.80282" lon="7.0521">
        <ele>745</ele>
        <time>2023-05-08T13:38:39Z</time>
      </trkpt>
      <trkpt lat="47.80279" lon="7.05215">
        <ele>745</ele>
        <time>2023-05-08T13:38:43Z</time>
      </trkpt>
      <trkpt lat="47.80275" lon="7.05219">
        <ele>745</ele>
        <time>2023-05-08T13:38:47Z</time>
      </trkpt>
      <trkpt lat="47.80273" lon="7.05226">
        <ele>745</ele>
        <time>2023-05-08T13:38:52Z</time>
      </trkpt>
      <trkpt lat="47.80269" lon="7.0523">
        <ele>745</ele>
        <time>2023-05-08T13:38:56Z</time>
      </trkpt>
      <trkpt lat="47.80264" lon="7.05243">
        <ele>745</ele>
        <time>2023-05-08T13:39:05Z</time>
      </trkpt>
      <trkpt lat="47.80261" lon="7.05247">
        <ele>745</ele>
        <time>2023-05-08T13:39:09Z</time>
      </trkpt>
      <trkpt lat="47.80253" lon="7.05255">
        <ele>745</ele>
        <time>2023-05-08T13:39:19Z</time>
      </trkpt>
      <trkpt lat="47.80251" lon="7.05262">
        <ele>745</ele>
        <time>2023-05-08T13:39:24Z</time>
      </trkpt>
      <trkpt lat="47.80243" lon="7.05274">
        <ele>745</ele>
        <time>2023-05-08T13:39:34Z</time>
      </trkpt>
      <trkpt lat="47.80242" lon="7.05279">
        <ele>745</ele>
        <time>2023-05-08T13:39:37Z</time>
      </trkpt>
      <trkpt lat="47.80228" lon="7.05303">
        <ele>746</ele>
        <time>2023-05-08T13:39:54Z</time>
      </trkpt>
      <trkpt lat="47.80228" lon="7.05311">
        <ele>746</ele>
        <time>2023-05-08T13:39:58Z</time>
      </trkpt>
      <trkpt lat="47.80228" lon="7.05317">
        <ele>747</ele>
        <time>2023-05-08T13:40:03Z</time>
      </trkpt>
      <trkpt lat="47.80232" lon="7.05328">
        <ele>748</ele>
        <time>2023-05-08T13:40:14Z</time>
      </trkpt>
      <trkpt lat="47.80245" lon="7.0535">
        <ele>748</ele>
        <time>2023-05-08T13:40:31Z</time>
      </trkpt>
      <trkpt lat="47.80249" lon="7.05363">
        <ele>748</ele>
        <time>2023-05-08T13:40:40Z</time>
      </trkpt>
      <trkpt lat="47.80252" lon="7.05374">
        <ele>748</ele>
        <time>2023-05-08T13:40:50Z</time>
      </trkpt>
      <trkpt lat="47.80261" lon="7.05385">
        <ele>747</ele>
        <time>2023-05-08T13:41:01Z</time>
      </trkpt>
      <trkpt lat="47.80266" lon="7.0539">
        <ele>746</ele>
        <time>2023-05-08T13:41:07Z</time>
      </trkpt>
      <trkpt lat="47.8027" lon="7.05397">
        <ele>745</ele>
        <time>2023-05-08T13:41:15Z</time>
      </trkpt>
      <trkpt lat="47.80284" lon="7.0541">
        <ele>744</ele>
        <time>2023-05-08T13:41:31Z</time>
      </trkpt>
      <trkpt lat="47.80288" lon="7.05414">
        <ele>744</ele>
        <time>2023-05-08T13:41:34Z</time>
      </trkpt>
      <trkpt lat="47.80288" lon="7.05422">
        <ele>744</ele>
        <time>2023-05-08T13:41:38Z</time>
      </trkpt>
      <trkpt lat="47.80292" lon="7.05426">
        <ele>744</ele>
        <time>2023-05-08T13:41:42Z</time>
      </trkpt>
      <trkpt lat="47.80303" lon="7.05434">
        <ele>744</ele>
        <time>2023-05-08T13:41:50Z</time>
      </trkpt>
      <trkpt lat="47.80305" lon="7.05445">
        <ele>742</ele>
        <time>2023-05-08T13:41:59Z</time>
      </trkpt>
      <trkpt lat="47.80309" lon="7.05455">
        <ele>740</ele>
        <time>2023-05-08T13:42:08Z</time>
      </trkpt>
      <trkpt lat="47.80311" lon="7.05462">
        <ele>738</ele>
        <time>2023-05-08T13:42:17Z</time>
      </trkpt>
      <trkpt lat="47.80351" lon="7.05453">
        <ele>732</ele>
        <time>2023-05-08T13:42:55Z</time>
      </trkpt>
      <trkpt lat="47.80356" lon="7.05455">
        <ele>731</ele>
        <time>2023-05-08T13:42:58Z</time>
      </trkpt>
      <trkpt lat="47.80369" lon="7.05465">
        <ele>729</ele>
        <time>2023-05-08T13:43:15Z</time>
      </trkpt>
      <trkpt lat="47.80381" lon="7.05466">
        <ele>730</ele>
        <time>2023-05-08T13:43:21Z</time>
      </trkpt>
      <trkpt lat="47.80383" lon="7.05472">
        <ele>729</ele>
        <time>2023-05-08T13:43:24Z</time>
      </trkpt>
      <trkpt lat="47.80386" lon="7.05477">
        <ele>728</ele>
        <time>2023-05-08T13:43:29Z</time>
      </trkpt>
      <trkpt lat="47.80391" lon="7.0548">
        <ele>727</ele>
        <time>2023-05-08T13:43:38Z</time>
      </trkpt>
      <trkpt lat="47.80396" lon="7.05481">
        <ele>726</ele>
        <time>2023-05-08T13:43:42Z</time>
      </trkpt>
      <trkpt lat="47.80406" lon="7.05487">
        <ele>725</ele>
        <time>2023-05-08T13:43:48Z</time>
      </trkpt>
      <trkpt lat="47.80413" lon="7.05486">
        <ele>723</ele>
        <time>2023-05-08T13:43:58Z</time>
      </trkpt>
      <trkpt lat="47.80416" lon="7.05479">
        <ele>723</ele>
        <time>2023-05-08T13:44:04Z</time>
      </trkpt>
      <trkpt lat="47.80424" lon="7.0548">
        <ele>722</ele>
        <time>2023-05-08T13:44:11Z</time>
      </trkpt>
      <trkpt lat="47.80429" lon="7.05482">
        <ele>721</ele>
        <time>2023-05-08T13:44:15Z</time>
      </trkpt>
      <trkpt lat="47.80434" lon="7.05481">
        <ele>721</ele>
        <time>2023-05-08T13:44:18Z</time>
      </trkpt>
      <trkpt lat="47.8044" lon="7.05486">
        <ele>720</ele>
        <time>2023-05-08T13:44:21Z</time>
      </trkpt>
      <trkpt lat="47.80442" lon="7.05493">
        <ele>719</ele>
        <time>2023-05-08T13:44:26Z</time>
      </trkpt>
      <trkpt lat="47.80446" lon="7.05508">
        <ele>717</ele>
        <time>2023-05-08T13:44:33Z</time>
      </trkpt>
      <trkpt lat="47.80447" lon="7.05522">
        <ele>714</ele>
        <time>2023-05-08T13:44:42Z</time>
      </trkpt>
      <trkpt lat="47.80454" lon="7.05536">
        <ele>713</ele>
        <time>2023-05-08T13:44:54Z</time>
      </trkpt>
      <trkpt lat="47.80452" lon="7.0555">
        <ele>713</ele>
        <time>2023-05-08T13:45:01Z</time>
      </trkpt>
      <trkpt lat="47.80449" lon="7.05558">
        <ele>713</ele>
        <time>2023-05-08T13:45:05Z</time>
      </trkpt>
      <trkpt lat="47.80449" lon="7.05566">
        <ele>713</ele>
        <time>2023-05-08T13:45:09Z</time>
      </trkpt>
      <trkpt lat="47.80448" lon="7.05572">
        <ele>713</ele>
        <time>2023-05-08T13:45:13Z</time>
      </trkpt>
      <trkpt lat="47.80449" lon="7.0558">
        <ele>713</ele>
        <time>2023-05-08T13:45:16Z</time>
      </trkpt>
      <trkpt lat="47.80447" lon="7.05586">
        <ele>712</ele>
        <time>2023-05-08T13:45:20Z</time>
      </trkpt>
      <trkpt lat="47.80445" lon="7.05596">
        <ele>712</ele>
        <time>2023-05-08T13:45:26Z</time>
      </trkpt>
      <trkpt lat="47.80445" lon="7.05611">
        <ele>712</ele>
        <time>2023-05-08T13:45:34Z</time>
      </trkpt>
      <trkpt lat="47.80443" lon="7.0562">
        <ele>712</ele>
        <time>2023-05-08T13:45:41Z</time>
      </trkpt>
      <trkpt lat="47.80442" lon="7.05627">
        <ele>713</ele>
        <time>2023-05-08T13:45:46Z</time>
      </trkpt>
      <trkpt lat="47.8044" lon="7.05635">
        <ele>714</ele>
        <time>2023-05-08T13:45:51Z</time>
      </trkpt>
      <trkpt lat="47.80438" lon="7.05642">
        <ele>714</ele>
        <time>2023-05-08T13:45:57Z</time>
      </trkpt>
      <trkpt lat="47.80437" lon="7.05648">
        <ele>714</ele>
        <time>2023-05-08T13:46:02Z</time>
      </trkpt>
      <trkpt lat="47.8044" lon="7.05654">
        <ele>713</ele>
        <time>2023-05-08T13:46:08Z</time>
      </trkpt>
      <trkpt lat="47.80435" lon="7.05661">
        <ele>713</ele>
        <time>2023-05-08T13:46:12Z</time>
      </trkpt>
      <trkpt lat="47.80436" lon="7.05668">
        <ele>712</ele>
        <time>2023-05-08T13:46:18Z</time>
      </trkpt>
      <trkpt lat="47.80435" lon="7.05686">
        <ele>711</ele>
        <time>2023-05-08T13:46:29Z</time>
      </trkpt>
      <trkpt lat="47.80437" lon="7.05694">
        <ele>711</ele>
        <time>2023-05-08T13:46:33Z</time>
      </trkpt>
      <trkpt lat="47.80438" lon="7.05701">
        <ele>710</ele>
        <time>2023-05-08T13:46:39Z</time>
      </trkpt>
      <trkpt lat="47.80438" lon="7.05708">
        <ele>710</ele>
        <time>2023-05-08T13:46:42Z</time>
      </trkpt>
      <trkpt lat="47.80439" lon="7.05736">
        <ele>705</ele>
        <time>2023-05-08T13:47:04Z</time>
      </trkpt>
      <trkpt lat="47.80444" lon="7.0574">
        <ele>703</ele>
        <time>2023-05-08T13:47:12Z</time>
      </trkpt>
      <trkpt lat="47.80446" lon="7.05747">
        <ele>702</ele>
        <time>2023-05-08T13:47:17Z</time>
      </trkpt>
      <trkpt lat="47.80449" lon="7.05758">
        <ele>699</ele>
        <time>2023-05-08T13:47:27Z</time>
      </trkpt>
      <trkpt lat="47.80454" lon="7.05768">
        <ele>697</ele>
        <time>2023-05-08T13:47:36Z</time>
      </trkpt>
      <trkpt lat="47.80458" lon="7.05782">
        <ele>695</ele>
        <time>2023-05-08T13:47:43Z</time>
      </trkpt>
      <trkpt lat="47.80467" lon="7.05789">
        <ele>695</ele>
        <time>2023-05-08T13:47:50Z</time>
      </trkpt>
      <trkpt lat="47.80469" lon="7.05796">
        <ele>695</ele>
        <time>2023-05-08T13:47:55Z</time>
      </trkpt>
      <trkpt lat="47.80472" lon="7.05806">
        <ele>695</ele>
        <time>2023-05-08T13:48:01Z</time>
      </trkpt>
      <trkpt lat="47.80473" lon="7.05815">
        <ele>695</ele>
        <time>2023-05-08T13:48:07Z</time>
      </trkpt>
      <trkpt lat="47.80473" lon="7.05836">
        <ele>694</ele>
        <time>2023-05-08T13:48:19Z</time>
      </trkpt>
      <trkpt lat="47.80473" lon="7.05847">
        <ele>694</ele>
        <time>2023-05-08T13:48:24Z</time>
      </trkpt>
      <trkpt lat="47.80477" lon="7.05855">
        <ele>696</ele>
        <time>2023-05-08T13:48:32Z</time>
      </trkpt>
      <trkpt lat="47.80475" lon="7.05862">
        <ele>696</ele>
        <time>2023-05-08T13:48:34Z</time>
      </trkpt>
      <trkpt lat="47.8047" lon="7.05862">
        <ele>696</ele>
        <time>2023-05-08T13:48:36Z</time>
      </trkpt>
      <trkpt lat="47.80461" lon="7.05872">
        <ele>697</ele>
        <time>2023-05-08T13:48:41Z</time>
      </trkpt>
      <trkpt lat="47.80461" lon="7.05881">
        <ele>698</ele>
        <time>2023-05-08T13:48:50Z</time>
      </trkpt>
      <trkpt lat="47.80451" lon="7.05889">
        <ele>701</ele>
        <time>2023-05-08T13:49:02Z</time>
      </trkpt>
      <trkpt lat="47.80442" lon="7.05889">
        <ele>703</ele>
        <time>2023-05-08T13:49:09Z</time>
      </trkpt>
      <trkpt lat="47.80439" lon="7.05892">
        <ele>703</ele>
        <time>2023-05-08T13:49:12Z</time>
      </trkpt>
      <trkpt lat="47.80434" lon="7.05893">
        <ele>703</ele>
        <time>2023-05-08T13:49:16Z</time>
      </trkpt>
      <trkpt lat="47.80426" lon="7.05899">
        <ele>704</ele>
        <time>2023-05-08T13:49:26Z</time>
      </trkpt>
      <trkpt lat="47.80413" lon="7.05911">
        <ele>705</ele>
        <time>2023-05-08T13:49:38Z</time>
      </trkpt>
      <trkpt lat="47.80407" lon="7.05915">
        <ele>705</ele>
        <time>2023-05-08T13:49:45Z</time>
      </trkpt>
      <trkpt lat="47.80403" lon="7.05919">
        <ele>706</ele>
        <time>2023-05-08T13:49:50Z</time>
      </trkpt>
      <trkpt lat="47.80398" lon="7.05919">
        <ele>706</ele>
        <time>2023-05-08T13:49:53Z</time>
      </trkpt>
      <trkpt lat="47.80395" lon="7.05925">
        <ele>706</ele>
        <time>2023-05-08T13:49:57Z</time>
      </trkpt>
      <trkpt lat="47.80392" lon="7.05931">
        <ele>707</ele>
        <time>2023-05-08T13:50:01Z</time>
      </trkpt>
      <trkpt lat="47.80381" lon="7.05952">
        <ele>710</ele>
        <time>2023-05-08T13:50:21Z</time>
      </trkpt>
      <trkpt lat="47.80379" lon="7.05958">
        <ele>710</ele>
        <time>2023-05-08T13:50:25Z</time>
      </trkpt>
      <trkpt lat="47.80375" lon="7.05965">
        <ele>711</ele>
        <time>2023-05-08T13:50:30Z</time>
      </trkpt>
      <trkpt lat="47.8037" lon="7.0597">
        <ele>711</ele>
        <time>2023-05-08T13:50:35Z</time>
      </trkpt>
      <trkpt lat="47.80368" lon="7.05976">
        <ele>712</ele>
        <time>2023-05-08T13:50:38Z</time>
      </trkpt>
      <trkpt lat="47.80369" lon="7.05983">
        <ele>712</ele>
        <time>2023-05-08T13:50:41Z</time>
      </trkpt>
      <trkpt lat="47.80368" lon="7.0599">
        <ele>712</ele>
        <time>2023-05-08T13:50:45Z</time>
      </trkpt>
      <trkpt lat="47.80373" lon="7.06003">
        <ele>713</ele>
        <time>2023-05-08T13:50:52Z</time>
      </trkpt>
      <trkpt lat="47.80374" lon="7.0601">
        <ele>714</ele>
        <time>2023-05-08T13:50:55Z</time>
      </trkpt>
      <trkpt lat="47.80377" lon="7.06016">
        <ele>714</ele>
        <time>2023-05-08T13:50:58Z</time>
      </trkpt>
      <trkpt lat="47.80381" lon="7.06029">
        <ele>714</ele>
        <time>2023-05-08T13:51:06Z</time>
      </trkpt>
      <trkpt lat="47.80381" lon="7.06039">
        <ele>715</ele>
        <time>2023-05-08T13:51:12Z</time>
      </trkpt>
      <trkpt lat="47.80379" lon="7.06046">
        <ele>715</ele>
        <time>2023-05-08T13:51:19Z</time>
      </trkpt>
      <trkpt lat="47.80378" lon="7.06062">
        <ele>715</ele>
        <time>2023-05-08T13:51:25Z</time>
      </trkpt>
      <trkpt lat="47.80374" lon="7.06084">
        <ele>715</ele>
        <time>2023-05-08T13:51:37Z</time>
      </trkpt>
      <trkpt lat="47.80374" lon="7.06091">
        <ele>715</ele>
        <time>2023-05-08T13:51:41Z</time>
      </trkpt>
      <trkpt lat="47.80377" lon="7.061">
        <ele>715</ele>
        <time>2023-05-08T13:51:47Z</time>
      </trkpt>
      <trkpt lat="47.80387" lon="7.06118">
        <ele>713</ele>
        <time>2023-05-08T13:52:03Z</time>
      </trkpt>
      <trkpt lat="47.80387" lon="7.06125">
        <ele>713</ele>
        <time>2023-05-08T13:52:08Z</time>
      </trkpt>
      <trkpt lat="47.80375" lon="7.06153">
        <ele>711</ele>
        <time>2023-05-08T13:52:24Z</time>
      </trkpt>
      <trkpt lat="47.80374" lon="7.06166">
        <ele>711</ele>
        <time>2023-05-08T13:52:30Z</time>
      </trkpt>
      <trkpt lat="47.80378" lon="7.06221">
        <ele>708</ele>
        <time>2023-05-08T13:53:01Z</time>
      </trkpt>
      <trkpt lat="47.8038" lon="7.06258">
        <ele>706</ele>
        <time>2023-05-08T13:53:22Z</time>
      </trkpt>
      <trkpt lat="47.8038" lon="7.06287">
        <ele>706</ele>
        <time>2023-05-08T13:53:39Z</time>
      </trkpt>
      <trkpt lat="47.8038" lon="7.063">
        <ele>706</ele>
        <time>2023-05-08T13:53:47Z</time>
      </trkpt>
      <trkpt lat="47.80379" lon="7.06306">
        <ele>707</ele>
        <time>2023-05-08T13:53:51Z</time>
      </trkpt>
      <trkpt lat="47.8038" lon="7.06314">
        <ele>707</ele>
        <time>2023-05-08T13:53:54Z</time>
      </trkpt>
      <trkpt lat="47.80375" lon="7.06345">
        <ele>706</ele>
        <time>2023-05-08T13:54:15Z</time>
      </trkpt>
      <trkpt lat="47.80372" lon="7.0635">
        <ele>706</ele>
        <time>2023-05-08T13:54:19Z</time>
      </trkpt>
      <trkpt lat="47.80368" lon="7.06363">
        <ele>705</ele>
        <time>2023-05-08T13:54:27Z</time>
      </trkpt>
      <trkpt lat="47.80344" lon="7.06417">
        <ele>704</ele>
        <time>2023-05-08T13:55:03Z</time>
      </trkpt>
      <trkpt lat="47.80342" lon="7.06423">
        <ele>704</ele>
        <time>2023-05-08T13:55:07Z</time>
      </trkpt>
      <trkpt lat="47.80334" lon="7.06438">
        <ele>704</ele>
        <time>2023-05-08T13:55:18Z</time>
      </trkpt>
      <trkpt lat="47.80332" lon="7.0645">
        <ele>705</ele>
        <time>2023-05-08T13:55:26Z</time>
      </trkpt>
      <trkpt lat="47.80325" lon="7.06482">
        <ele>706</ele>
        <time>2023-05-08T13:55:46Z</time>
      </trkpt>
      <trkpt lat="47.8032" lon="7.06501">
        <ele>707</ele>
        <time>2023-05-08T13:55:59Z</time>
      </trkpt>
      <trkpt lat="47.80318" lon="7.065">
        <ele>706</ele>
        <time>2023-05-08T13:56:24Z</time>
      </trkpt>
      <trkpt lat="47.80318" lon="7.06506">
        <ele>706</ele>
        <time>2023-05-08T13:56:28Z</time>
      </trkpt>
      <trkpt lat="47.80316" lon="7.06513">
        <ele>707</ele>
        <time>2023-05-08T13:56:33Z</time>
      </trkpt>
      <trkpt lat="47.80315" lon="7.0652">
        <ele>706</ele>
        <time>2023-05-08T13:56:37Z</time>
      </trkpt>
      <trkpt lat="47.80315" lon="7.06526">
        <ele>706</ele>
        <time>2023-05-08T13:56:41Z</time>
      </trkpt>
      <trkpt lat="47.80313" lon="7.06547">
        <ele>705</ele>
        <time>2023-05-08T13:56:53Z</time>
      </trkpt>
      <trkpt lat="47.80316" lon="7.06582">
        <ele>705</ele>
        <time>2023-05-08T13:57:12Z</time>
      </trkpt>
      <trkpt lat="47.80319" lon="7.0659">
        <ele>706</ele>
        <time>2023-05-08T13:57:18Z</time>
      </trkpt>
      <trkpt lat="47.80328" lon="7.06614">
        <ele>705</ele>
        <time>2023-05-08T13:57:34Z</time>
      </trkpt>
      <trkpt lat="47.80339" lon="7.06629">
        <ele>705</ele>
        <time>2023-05-08T13:57:48Z</time>
      </trkpt>
      <trkpt lat="47.80343" lon="7.06632">
        <ele>705</ele>
        <time>2023-05-08T13:57:52Z</time>
      </trkpt>
      <trkpt lat="47.80345" lon="7.06639">
        <ele>704</ele>
        <time>2023-05-08T13:57:59Z</time>
      </trkpt>
      <trkpt lat="47.80367" lon="7.06675">
        <ele>698</ele>
        <time>2023-05-08T13:58:37Z</time>
      </trkpt>
      <trkpt lat="47.80377" lon="7.06699">
        <ele>695</ele>
        <time>2023-05-08T13:59:01Z</time>
      </trkpt>
      <trkpt lat="47.80376" lon="7.06707">
        <ele>694</ele>
        <time>2023-05-08T13:59:05Z</time>
      </trkpt>
      <trkpt lat="47.80378" lon="7.06748">
        <ele>690</ele>
        <time>2023-05-08T13:59:36Z</time>
      </trkpt>
      <trkpt lat="47.80378" lon="7.06756">
        <ele>689</ele>
        <time>2023-05-08T13:59:41Z</time>
      </trkpt>
      <trkpt lat="47.80374" lon="7.06762">
        <ele>689</ele>
        <time>2023-05-08T13:59:45Z</time>
      </trkpt>
      <trkpt lat="47.8037" lon="7.06768">
        <ele>688</ele>
        <time>2023-05-08T13:59:51Z</time>
      </trkpt>
      <trkpt lat="47.80366" lon="7.06775">
        <ele>687</ele>
        <time>2023-05-08T13:59:58Z</time>
      </trkpt>
      <trkpt lat="47.80359" lon="7.06783">
        <ele>685</ele>
        <time>2023-05-08T14:00:07Z</time>
      </trkpt>
      <trkpt lat="47.80354" lon="7.06787">
        <ele>684</ele>
        <time>2023-05-08T14:00:14Z</time>
      </trkpt>
      <trkpt lat="47.80327" lon="7.06812">
        <ele>680</ele>
        <time>2023-05-08T14:00:47Z</time>
      </trkpt>
      <trkpt lat="47.80316" lon="7.06821">
        <ele>677</ele>
        <time>2023-05-08T14:01:03Z</time>
      </trkpt>
      <trkpt lat="47.80303" lon="7.06835">
        <ele>674</ele>
        <time>2023-05-08T14:01:18Z</time>
      </trkpt>
      <trkpt lat="47.80296" lon="7.06847">
        <ele>673</ele>
        <time>2023-05-08T14:01:29Z</time>
      </trkpt>
      <trkpt lat="47.80277" lon="7.06867">
        <ele>670</ele>
        <time>2023-05-08T14:01:55Z</time>
      </trkpt>
      <trkpt lat="47.80272" lon="7.06873">
        <ele>669</ele>
        <time>2023-05-08T14:02:03Z</time>
      </trkpt>
      <trkpt lat="47.80268" lon="7.06886">
        <ele>667</ele>
        <time>2023-05-08T14:02:11Z</time>
      </trkpt>
      <trkpt lat="47.80267" lon="7.06893">
        <ele>667</ele>
        <time>2023-05-08T14:02:16Z</time>
      </trkpt>
      <trkpt lat="47.80269" lon="7.06904">
        <ele>665</ele>
        <time>2023-05-08T14:02:27Z</time>
      </trkpt>
      <trkpt lat="47.80272" lon="7.0691">
        <ele>664</ele>
        <time>2023-05-08T14:02:33Z</time>
      </trkpt>
      <trkpt lat="47.80274" lon="7.06921">
        <ele>662</ele>
        <time>2023-05-08T14:02:44Z</time>
      </trkpt>
      <trkpt lat="47.80277" lon="7.06928">
        <ele>661</ele>
        <time>2023-05-08T14:02:49Z</time>
      </trkpt>
      <trkpt lat="47.80281" lon="7.06956">
        <ele>657</ele>
        <time>2023-05-08T14:03:06Z</time>
      </trkpt>
      <trkpt lat="47.8028" lon="7.06986">
        <ele>654</ele>
        <time>2023-05-08T14:03:32Z</time>
      </trkpt>
      <trkpt lat="47.80278" lon="7.07">
        <ele>653</ele>
        <time>2023-05-08T14:03:41Z</time>
      </trkpt>
      <trkpt lat="47.80279" lon="7.07006">
        <ele>652</ele>
        <time>2023-05-08T14:03:45Z</time>
      </trkpt>
      <trkpt lat="47.80276" lon="7.07021">
        <ele>651</ele>
        <time>2023-05-08T14:03:54Z</time>
      </trkpt>
      <trkpt lat="47.80265" lon="7.07044">
        <ele>648</ele>
        <time>2023-05-08T14:04:10Z</time>
      </trkpt>
      <trkpt lat="47.80255" lon="7.07057">
        <ele>645</ele>
        <time>2023-05-08T14:04:22Z</time>
      </trkpt>
      <trkpt lat="47.8024" lon="7.07086">
        <ele>642</ele>
        <time>2023-05-08T14:04:44Z</time>
      </trkpt>
      <trkpt lat="47.80239" lon="7.07094">
        <ele>641</ele>
        <time>2023-05-08T14:04:49Z</time>
      </trkpt>
      <trkpt lat="47.80216" lon="7.07127">
        <ele>634</ele>
        <time>2023-05-08T14:05:20Z</time>
      </trkpt>
      <trkpt lat="47.80212" lon="7.07134">
        <ele>633</ele>
        <time>2023-05-08T14:05:26Z</time>
      </trkpt>
      <trkpt lat="47.80202" lon="7.07167">
        <ele>628</ele>
        <time>2023-05-08T14:05:47Z</time>
      </trkpt>
      <trkpt lat="47.80197" lon="7.07173">
        <ele>628</ele>
        <time>2023-05-08T14:05:54Z</time>
      </trkpt>
      <trkpt lat="47.80192" lon="7.07174">
        <ele>627</ele>
        <time>2023-05-08T14:05:58Z</time>
      </trkpt>
      <trkpt lat="47.80188" lon="7.07172">
        <ele>626</ele>
        <time>2023-05-08T14:06:02Z</time>
      </trkpt>
      <trkpt lat="47.80184" lon="7.07169">
        <ele>626</ele>
        <time>2023-05-08T14:06:05Z</time>
      </trkpt>
      <trkpt lat="47.80179" lon="7.07167">
        <ele>626</ele>
        <time>2023-05-08T14:06:09Z</time>
      </trkpt>
      <trkpt lat="47.80175" lon="7.0717">
        <ele>625</ele>
        <time>2023-05-08T14:06:13Z</time>
      </trkpt>
      <trkpt lat="47.80169" lon="7.0717">
        <ele>624</ele>
        <time>2023-05-08T14:06:18Z</time>
      </trkpt>
      <trkpt lat="47.80156" lon="7.07193">
        <ele>620</ele>
        <time>2023-05-08T14:06:39Z</time>
      </trkpt>
      <trkpt lat="47.80152" lon="7.07196">
        <ele>619</ele>
        <time>2023-05-08T14:06:43Z</time>
      </trkpt>
      <trkpt lat="47.80149" lon="7.07202">
        <ele>618</ele>
        <time>2023-05-08T14:06:46Z</time>
      </trkpt>
      <trkpt lat="47.80143" lon="7.07217">
        <ele>616</ele>
        <time>2023-05-08T14:06:55Z</time>
      </trkpt>
      <trkpt lat="47.80145" lon="7.0723">
        <ele>615</ele>
        <time>2023-05-08T14:07:04Z</time>
      </trkpt>
      <trkpt lat="47.80143" lon="7.07236">
        <ele>614</ele>
        <time>2023-05-08T14:07:08Z</time>
      </trkpt>
      <trkpt lat="47.80138" lon="7.07244">
        <ele>615</ele>
        <time>2023-05-08T14:07:16Z</time>
      </trkpt>
      <trkpt lat="47.80127" lon="7.07264">
        <ele>618</ele>
        <time>2023-05-08T14:07:37Z</time>
      </trkpt>
      <trkpt lat="47.8012" lon="7.07289">
        <ele>620</ele>
        <time>2023-05-08T14:07:58Z</time>
      </trkpt>
      <trkpt lat="47.80121" lon="7.07295">
        <ele>621</ele>
        <time>2023-05-08T14:08:06Z</time>
      </trkpt>
      <trkpt lat="47.80114" lon="7.0733">
        <ele>626</ele>
        <time>2023-05-08T14:08:35Z</time>
      </trkpt>
      <trkpt lat="47.80113" lon="7.07338">
        <ele>627</ele>
        <time>2023-05-08T14:08:43Z</time>
      </trkpt>
      <trkpt lat="47.80111" lon="7.07344">
        <ele>628</ele>
        <time>2023-05-08T14:08:48Z</time>
      </trkpt>
      <trkpt lat="47.80104" lon="7.07357">
        <ele>630</ele>
        <time>2023-05-08T14:08:59Z</time>
      </trkpt>
      <trkpt lat="47.80103" lon="7.07363">
        <ele>631</ele>
        <time>2023-05-08T14:09:03Z</time>
      </trkpt>
      <trkpt lat="47.80103" lon="7.0737">
        <ele>632</ele>
        <time>2023-05-08T14:09:08Z</time>
      </trkpt>
      <trkpt lat="47.80094" lon="7.07398">
        <ele>636</ele>
        <time>2023-05-08T14:09:32Z</time>
      </trkpt>
      <trkpt lat="47.80092" lon="7.07418">
        <ele>639</ele>
        <time>2023-05-08T14:09:47Z</time>
      </trkpt>
      <trkpt lat="47.80089" lon="7.07425">
        <ele>640</ele>
        <time>2023-05-08T14:09:53Z</time>
      </trkpt>
      <trkpt lat="47.80081" lon="7.07468">
        <ele>649</ele>
        <time>2023-05-08T14:10:35Z</time>
      </trkpt>
      <trkpt lat="47.80079" lon="7.07507">
        <ele>655</ele>
        <time>2023-05-08T14:11:09Z</time>
      </trkpt>
      <trkpt lat="47.80078" lon="7.07527">
        <ele>657</ele>
        <time>2023-05-08T14:11:25Z</time>
      </trkpt>
      <trkpt lat="47.80075" lon="7.07534">
        <ele>657</ele>
        <time>2023-05-08T14:11:30Z</time>
      </trkpt>
      <trkpt lat="47.80075" lon="7.0755">
        <ele>659</ele>
        <time>2023-05-08T14:11:42Z</time>
      </trkpt>
      <trkpt lat="47.80069" lon="7.07571">
        <ele>663</ele>
        <time>2023-05-08T14:12:00Z</time>
      </trkpt>
      <trkpt lat="47.80069" lon="7.07584">
        <ele>665</ele>
        <time>2023-05-08T14:12:12Z</time>
      </trkpt>
      <trkpt lat="47.80067" lon="7.0759">
        <ele>666</ele>
        <time>2023-05-08T14:12:18Z</time>
      </trkpt>
      <trkpt lat="47.80066" lon="7.07598">
        <ele>667</ele>
        <time>2023-05-08T14:12:24Z</time>
      </trkpt>
      <trkpt lat="47.80067" lon="7.07607">
        <ele>667</ele>
        <time>2023-05-08T14:12:31Z</time>
      </trkpt>
      <trkpt lat="47.80071" lon="7.07612">
        <ele>667</ele>
        <time>2023-05-08T14:12:35Z</time>
      </trkpt>
      <trkpt lat="47.80076" lon="7.07625">
        <ele>667</ele>
        <time>2023-05-08T14:12:44Z</time>
      </trkpt>
      <trkpt lat="47.80076" lon="7.07636">
        <ele>667</ele>
        <time>2023-05-08T14:12:51Z</time>
      </trkpt>
      <trkpt lat="47.80083" lon="7.07655">
        <ele>666</ele>
        <time>2023-05-08T14:13:05Z</time>
      </trkpt>
      <trkpt lat="47.80086" lon="7.07659">
        <ele>666</ele>
        <time>2023-05-08T14:13:09Z</time>
      </trkpt>
      <trkpt lat="47.80108" lon="7.07705">
        <ele>663</ele>
        <time>2023-05-08T14:13:43Z</time>
      </trkpt>
      <trkpt lat="47.80109" lon="7.07712">
        <ele>662</ele>
        <time>2023-05-08T14:13:48Z</time>
      </trkpt>
      <trkpt lat="47.80112" lon="7.07717">
        <ele>662</ele>
        <time>2023-05-08T14:13:52Z</time>
      </trkpt>
      <trkpt lat="47.80116" lon="7.07729">
        <ele>660</ele>
        <time>2023-05-08T14:14:00Z</time>
      </trkpt>
      <trkpt lat="47.80142" lon="7.07771">
        <ele>655</ele>
        <time>2023-05-08T14:14:35Z</time>
      </trkpt>
      <trkpt lat="47.80175" lon="7.0779">
        <ele>648</ele>
        <time>2023-05-08T14:15:11Z</time>
      </trkpt>
      <trkpt lat="47.80188" lon="7.07796">
        <ele>646</ele>
        <time>2023-05-08T14:15:22Z</time>
      </trkpt>
      <trkpt lat="47.80195" lon="7.07799">
        <ele>645</ele>
        <time>2023-05-08T14:15:26Z</time>
      </trkpt>
      <trkpt lat="47.80197" lon="7.07805">
        <ele>645</ele>
        <time>2023-05-08T14:15:30Z</time>
      </trkpt>
      <trkpt lat="47.80205" lon="7.0784">
        <ele>650</ele>
        <time>2023-05-08T14:15:59Z</time>
      </trkpt>
      <trkpt lat="47.80209" lon="7.07846">
        <ele>651</ele>
        <time>2023-05-08T14:16:06Z</time>
      </trkpt>
      <trkpt lat="47.80213" lon="7.07856">
        <ele>653</ele>
        <time>2023-05-08T14:16:17Z</time>
      </trkpt>
      <trkpt lat="47.8022" lon="7.0787">
        <ele>655</ele>
        <time>2023-05-08T14:16:32Z</time>
      </trkpt>
      <trkpt lat="47.80223" lon="7.07881">
        <ele>656</ele>
        <time>2023-05-08T14:16:40Z</time>
      </trkpt>
      <trkpt lat="47.80226" lon="7.07888">
        <ele>656</ele>
        <time>2023-05-08T14:16:45Z</time>
      </trkpt>
      <trkpt lat="47.80227" lon="7.07898">
        <ele>656</ele>
        <time>2023-05-08T14:16:53Z</time>
      </trkpt>
      <trkpt lat="47.80231" lon="7.07905">
        <ele>656</ele>
        <time>2023-05-08T14:16:58Z</time>
      </trkpt>
      <trkpt lat="47.80231" lon="7.07913">
        <ele>655</ele>
        <time>2023-05-08T14:17:04Z</time>
      </trkpt>
      <trkpt lat="47.80238" lon="7.07933">
        <ele>655</ele>
        <time>2023-05-08T14:17:18Z</time>
      </trkpt>
      <trkpt lat="47.80241" lon="7.07947">
        <ele>654</ele>
        <time>2023-05-08T14:17:27Z</time>
      </trkpt>
      <trkpt lat="47.80244" lon="7.07959">
        <ele>653</ele>
        <time>2023-05-08T14:17:35Z</time>
      </trkpt>
      <trkpt lat="47.80248" lon="7.07995">
        <ele>652</ele>
        <time>2023-05-08T14:17:57Z</time>
      </trkpt>
      <trkpt lat="47.80251" lon="7.08008">
        <ele>652</ele>
        <time>2023-05-08T14:18:05Z</time>
      </trkpt>
      <trkpt lat="47.8025" lon="7.08015">
        <ele>651</ele>
        <time>2023-05-08T14:18:09Z</time>
      </trkpt>
      <trkpt lat="47.8025" lon="7.08038">
        <ele>649</ele>
        <time>2023-05-08T14:18:20Z</time>
      </trkpt>
      <trkpt lat="47.80252" lon="7.08046">
        <ele>649</ele>
        <time>2023-05-08T14:18:24Z</time>
      </trkpt>
      <trkpt lat="47.80255" lon="7.08059">
        <ele>649</ele>
        <time>2023-05-08T14:18:32Z</time>
      </trkpt>
      <trkpt lat="47.80255" lon="7.08066">
        <ele>649</ele>
        <time>2023-05-08T14:18:36Z</time>
      </trkpt>
      <trkpt lat="47.80255" lon="7.08074">
        <ele>649</ele>
        <time>2023-05-08T14:18:40Z</time>
      </trkpt>
      <trkpt lat="47.80259" lon="7.08086">
        <ele>649</ele>
        <time>2023-05-08T14:18:48Z</time>
      </trkpt>
      <trkpt lat="47.80262" lon="7.08092">
        <ele>649</ele>
        <time>2023-05-08T14:18:53Z</time>
      </trkpt>
      <trkpt lat="47.80267" lon="7.08097">
        <ele>650</ele>
        <time>2023-05-08T14:18:59Z</time>
      </trkpt>
      <trkpt lat="47.80269" lon="7.08109">
        <ele>652</ele>
        <time>2023-05-08T14:19:09Z</time>
      </trkpt>
      <trkpt lat="47.80275" lon="7.08113">
        <ele>653</ele>
        <time>2023-05-08T14:19:21Z</time>
      </trkpt>
      <trkpt lat="47.80268" lon="7.08121">
        <ele>652</ele>
        <time>2023-05-08T14:19:56Z</time>
      </trkpt>
      <trkpt lat="47.80265" lon="7.08133">
        <ele>652</ele>
        <time>2023-05-08T14:20:05Z</time>
      </trkpt>
      <trkpt lat="47.80254" lon="7.08105">
        <ele>648</ele>
        <time>2023-05-08T14:20:26Z</time>
      </trkpt>
      <trkpt lat="47.80248" lon="7.08094">
        <ele>646</ele>
        <time>2023-05-08T14:20:33Z</time>
      </trkpt>
      <trkpt lat="47.80239" lon="7.08072">
        <ele>643</ele>
        <time>2023-05-08T14:20:50Z</time>
      </trkpt>
      <trkpt lat="47.80234" lon="7.08059">
        <ele>642</ele>
        <time>2023-05-08T14:20:57Z</time>
      </trkpt>
      <trkpt lat="47.80232" lon="7.08053">
        <ele>641</ele>
        <time>2023-05-08T14:21:01Z</time>
      </trkpt>
      <trkpt lat="47.80218" lon="7.0803">
        <ele>637</ele>
        <time>2023-05-08T14:21:20Z</time>
      </trkpt>
      <trkpt lat="47.80216" lon="7.08023">
        <ele>637</ele>
        <time>2023-05-08T14:21:23Z</time>
      </trkpt>
      <trkpt lat="47.80214" lon="7.0801">
        <ele>635</ele>
        <time>2023-05-08T14:21:30Z</time>
      </trkpt>
      <trkpt lat="47.802" lon="7.07989">
        <ele>632</ele>
        <time>2023-05-08T14:21:48Z</time>
      </trkpt>
      <trkpt lat="47.80193" lon="7.07966">
        <ele>629</ele>
        <time>2023-05-08T14:22:02Z</time>
      </trkpt>
      <trkpt lat="47.80191" lon="7.0796">
        <ele>629</ele>
        <time>2023-05-08T14:22:05Z</time>
      </trkpt>
      <trkpt lat="47.80183" lon="7.07947">
        <ele>627</ele>
        <time>2023-05-08T14:22:16Z</time>
      </trkpt>
      <trkpt lat="47.80178" lon="7.07932">
        <ele>625</ele>
        <time>2023-05-08T14:22:25Z</time>
      </trkpt>
      <trkpt lat="47.80176" lon="7.07924">
        <ele>624</ele>
        <time>2023-05-08T14:22:32Z</time>
      </trkpt>
      <trkpt lat="47.80173" lon="7.07919">
        <ele>624</ele>
        <time>2023-05-08T14:22:36Z</time>
      </trkpt>
      <trkpt lat="47.80171" lon="7.07928">
        <ele>622</ele>
        <time>2023-05-08T14:22:43Z</time>
      </trkpt>
      <trkpt lat="47.80173" lon="7.07934">
        <ele>621</ele>
        <time>2023-05-08T14:22:47Z</time>
      </trkpt>
      <trkpt lat="47.80172" lon="7.07945">
        <ele>620</ele>
        <time>2023-05-08T14:22:54Z</time>
      </trkpt>
      <trkpt lat="47.80173" lon="7.07951">
        <ele>620</ele>
        <time>2023-05-08T14:22:57Z</time>
      </trkpt>
      <trkpt lat="47.80171" lon="7.07959">
        <ele>618</ele>
        <time>2023-05-08T14:23:02Z</time>
      </trkpt>
      <trkpt lat="47.80174" lon="7.08012">
        <ele>613</ele>
        <time>2023-05-08T14:23:36Z</time>
      </trkpt>
      <trkpt lat="47.8017" lon="7.08064">
        <ele>607</ele>
        <time>2023-05-08T14:24:07Z</time>
      </trkpt>
      <trkpt lat="47.80165" lon="7.08118">
        <ele>602</ele>
        <time>2023-05-08T14:24:38Z</time>
      </trkpt>
      <trkpt lat="47.80162" lon="7.08145">
        <ele>599</ele>
        <time>2023-05-08T14:24:56Z</time>
      </trkpt>
      <trkpt lat="47.80153" lon="7.08187">
        <ele>594</ele>
        <time>2023-05-08T14:25:25Z</time>
      </trkpt>
      <trkpt lat="47.80133" lon="7.08227">
        <ele>589</ele>
        <time>2023-05-08T14:25:54Z</time>
      </trkpt>
      <trkpt lat="47.80132" lon="7.08233">
        <ele>588</ele>
        <time>2023-05-08T14:25:58Z</time>
      </trkpt>
      <trkpt lat="47.80126" lon="7.08245">
        <ele>587</ele>
        <time>2023-05-08T14:26:08Z</time>
      </trkpt>
      <trkpt lat="47.8013" lon="7.08249">
        <ele>585</ele>
        <time>2023-05-08T14:28:31Z</time>
      </trkpt>
      <trkpt lat="47.80127" lon="7.08272">
        <ele>583</ele>
        <time>2023-05-08T14:28:45Z</time>
      </trkpt>
      <trkpt lat="47.80123" lon="7.08287">
        <ele>581</ele>
        <time>2023-05-08T14:28:54Z</time>
      </trkpt>
      <trkpt lat="47.80122" lon="7.08294">
        <ele>580</ele>
        <time>2023-05-08T14:28:58Z</time>
      </trkpt>
      <trkpt lat="47.80123" lon="7.083">
        <ele>580</ele>
        <time>2023-05-08T14:29:02Z</time>
      </trkpt>
      <trkpt lat="47.8012" lon="7.08308">
        <ele>578</ele>
        <time>2023-05-08T14:29:08Z</time>
      </trkpt>
      <trkpt lat="47.80118" lon="7.08317">
        <ele>577</ele>
        <time>2023-05-08T14:29:15Z</time>
      </trkpt>
      <trkpt lat="47.80115" lon="7.08342">
        <ele>574</ele>
        <time>2023-05-08T14:29:32Z</time>
      </trkpt>
      <trkpt lat="47.80107" lon="7.08366">
        <ele>571</ele>
        <time>2023-05-08T14:29:50Z</time>
      </trkpt>
      <trkpt lat="47.80098" lon="7.08323">
        <ele>567</ele>
        <time>2023-05-08T14:30:20Z</time>
      </trkpt>
      <trkpt lat="47.80093" lon="7.08328">
        <ele>564</ele>
        <time>2023-05-08T14:30:33Z</time>
      </trkpt>
      <trkpt lat="47.80093" lon="7.08335">
        <ele>563</ele>
        <time>2023-05-08T14:30:38Z</time>
      </trkpt>
      <trkpt lat="47.80089" lon="7.08341">
        <ele>562</ele>
        <time>2023-05-08T14:30:43Z</time>
      </trkpt>
      <trkpt lat="47.80088" lon="7.08351">
        <ele>561</ele>
        <time>2023-05-08T14:30:49Z</time>
      </trkpt>
      <trkpt lat="47.80086" lon="7.08368">
        <ele>560</ele>
        <time>2023-05-08T14:30:59Z</time>
      </trkpt>
      <trkpt lat="47.80079" lon="7.08387">
        <ele>558</ele>
        <time>2023-05-08T14:31:12Z</time>
      </trkpt>
      <trkpt lat="47.80077" lon="7.08409">
        <ele>556</ele>
        <time>2023-05-08T14:31:25Z</time>
      </trkpt>
      <trkpt lat="47.80071" lon="7.08446">
        <ele>552</ele>
        <time>2023-05-08T14:31:49Z</time>
      </trkpt>
      <trkpt lat="47.80071" lon="7.08453">
        <ele>551</ele>
        <time>2023-05-08T14:31:53Z</time>
      </trkpt>
      <trkpt lat="47.80069" lon="7.0846">
        <ele>550</ele>
        <time>2023-05-08T14:31:58Z</time>
      </trkpt>
      <trkpt lat="47.80067" lon="7.08466">
        <ele>549</ele>
        <time>2023-05-08T14:32:03Z</time>
      </trkpt>
      <trkpt lat="47.80065" lon="7.08473">
        <ele>548</ele>
        <time>2023-05-08T14:32:08Z</time>
      </trkpt>
      <trkpt lat="47.80065" lon="7.08493">
        <ele>546</ele>
        <time>2023-05-08T14:32:20Z</time>
      </trkpt>
      <trkpt lat="47.80066" lon="7.085">
        <ele>545</ele>
        <time>2023-05-08T14:32:24Z</time>
      </trkpt>
      <trkpt lat="47.80067" lon="7.08517">
        <ele>543</ele>
        <time>2023-05-08T14:32:34Z</time>
      </trkpt>
      <trkpt lat="47.80074" lon="7.08548">
        <ele>540</ele>
        <time>2023-05-08T14:32:53Z</time>
      </trkpt>
      <trkpt lat="47.80075" lon="7.08565">
        <ele>538</ele>
        <time>2023-05-08T14:33:04Z</time>
      </trkpt>
      <trkpt lat="47.80077" lon="7.08571">
        <ele>537</ele>
        <time>2023-05-08T14:33:08Z</time>
      </trkpt>
      <trkpt lat="47.8008" lon="7.08592">
        <ele>535</ele>
        <time>2023-05-08T14:33:22Z</time>
      </trkpt>
      <trkpt lat="47.80082" lon="7.08598">
        <ele>534</ele>
        <time>2023-05-08T14:33:26Z</time>
      </trkpt>
      <trkpt lat="47.80083" lon="7.08619">
        <ele>533</ele>
        <time>2023-05-08T14:33:36Z</time>
      </trkpt>
      <trkpt lat="47.80088" lon="7.08641">
        <ele>530</ele>
        <time>2023-05-08T14:33:51Z</time>
      </trkpt>
      <trkpt lat="47.80091" lon="7.08657">
        <ele>529</ele>
        <time>2023-05-08T14:34:02Z</time>
      </trkpt>
      <trkpt lat="47.80095" lon="7.0867">
        <ele>527</ele>
        <time>2023-05-08T14:34:10Z</time>
      </trkpt>
      <trkpt lat="47.80098" lon="7.08715">
        <ele>523</ele>
        <time>2023-05-08T14:34:37Z</time>
      </trkpt>
      <trkpt lat="47.80101" lon="7.08728">
        <ele>522</ele>
        <time>2023-05-08T14:34:46Z</time>
      </trkpt>
      <trkpt lat="47.80099" lon="7.08735">
        <ele>521</ele>
        <time>2023-05-08T14:34:51Z</time>
      </trkpt>
      <trkpt lat="47.8009" lon="7.08751">
        <ele>518</ele>
        <time>2023-05-08T14:35:04Z</time>
      </trkpt>
      <trkpt lat="47.80088" lon="7.08758">
        <ele>517</ele>
        <time>2023-05-08T14:35:09Z</time>
      </trkpt>
      <trkpt lat="47.80085" lon="7.08762">
        <ele>516</ele>
        <time>2023-05-08T14:35:14Z</time>
      </trkpt>
      <trkpt lat="47.80084" lon="7.08769">
        <ele>515</ele>
        <time>2023-05-08T14:35:19Z</time>
      </trkpt>
      <trkpt lat="47.80064" lon="7.0881">
        <ele>507</ele>
        <time>2023-05-08T14:35:56Z</time>
      </trkpt>
      <trkpt lat="47.80062" lon="7.08816">
        <ele>506</ele>
        <time>2023-05-08T14:36:02Z</time>
      </trkpt>
      <trkpt lat="47.80059" lon="7.08822">
        <ele>505</ele>
        <time>2023-05-08T14:36:07Z</time>
      </trkpt>
      <trkpt lat="47.80055" lon="7.08837">
        <ele>503</ele>
        <time>2023-05-08T14:36:18Z</time>
      </trkpt>
      <trkpt lat="47.80057" lon="7.08846">
        <ele>501</ele>
        <time>2023-05-08T14:36:25Z</time>
      </trkpt>
      <trkpt lat="47.80056" lon="7.08853">
        <ele>500</ele>
        <time>2023-05-08T14:36:31Z</time>
      </trkpt>
      <trkpt lat="47.80056" lon="7.08871">
        <ele>498</ele>
        <time>2023-05-08T14:36:43Z</time>
      </trkpt>
      <trkpt lat="47.80054" lon="7.08878">
        <ele>497</ele>
        <time>2023-05-08T14:36:48Z</time>
      </trkpt>
      <trkpt lat="47.80055" lon="7.08885">
        <ele>496</ele>
        <time>2023-05-08T14:36:52Z</time>
      </trkpt>
      <trkpt lat="47.80056" lon="7.08892">
        <ele>496</ele>
        <time>2023-05-08T14:36:57Z</time>
      </trkpt>
      <trkpt lat="47.80051" lon="7.08898">
        <ele>494</ele>
        <time>2023-05-08T14:37:02Z</time>
      </trkpt>
      <trkpt lat="47.80035" lon="7.08943">
        <ele>489</ele>
        <time>2023-05-08T14:37:35Z</time>
      </trkpt>
      <trkpt lat="47.80028" lon="7.08962">
        <ele>487</ele>
        <time>2023-05-08T14:37:49Z</time>
      </trkpt>
      <trkpt lat="47.80028" lon="7.08969">
        <ele>486</ele>
        <time>2023-05-08T14:37:55Z</time>
      </trkpt>
      <trkpt lat="47.80019" lon="7.09011">
        <ele>479</ele>
        <time>2023-05-08T14:38:26Z</time>
      </trkpt>
      <trkpt lat="47.80018" lon="7.09017">
        <ele>478</ele>
        <time>2023-05-08T14:38:31Z</time>
      </trkpt>
      <trkpt lat="47.80018" lon="7.09026">
        <ele>477</ele>
        <time>2023-05-08T14:38:41Z</time>
      </trkpt>
      <trkpt lat="47.80017" lon="7.09033">
        <ele>476</ele>
        <time>2023-05-08T14:38:45Z</time>
      </trkpt>
      <trkpt lat="47.80014" lon="7.09068">
        <ele>472</ele>
        <time>2023-05-08T14:39:06Z</time>
      </trkpt>
      <trkpt lat="47.80005" lon="7.09105">
        <ele>468</ele>
        <time>2023-05-08T14:39:29Z</time>
      </trkpt>
      <trkpt lat="47.80005" lon="7.09113">
        <ele>467</ele>
        <time>2023-05-08T14:39:34Z</time>
      </trkpt>
      <trkpt lat="47.80003" lon="7.09121">
        <ele>466</ele>
        <time>2023-05-08T14:39:40Z</time>
      </trkpt>
      <trkpt lat="47.8" lon="7.09151">
        <ele>463</ele>
        <time>2023-05-08T14:39:58Z</time>
      </trkpt>
      <trkpt lat="47.79998" lon="7.09158">
        <ele>463</ele>
        <time>2023-05-08T14:40:03Z</time>
      </trkpt>
      <trkpt lat="47.79996" lon="7.09176">
        <ele>461</ele>
        <time>2023-05-08T14:40:17Z</time>
      </trkpt>
      <trkpt lat="47.79997" lon="7.09183">
        <ele>461</ele>
        <time>2023-05-08T14:40:21Z</time>
      </trkpt>
      <trkpt lat="47.79996" lon="7.0919">
        <ele>460</ele>
        <time>2023-05-08T14:40:25Z</time>
      </trkpt>
      <trkpt lat="47.79994" lon="7.09197">
        <ele>460</ele>
        <time>2023-05-08T14:40:30Z</time>
      </trkpt>
      <trkpt lat="47.79981" lon="7.09231">
        <ele>458</ele>
        <time>2023-05-08T14:40:55Z</time>
      </trkpt>
      <trkpt lat="47.79967" lon="7.09261">
        <ele>455</ele>
        <time>2023-05-08T14:41:19Z</time>
      </trkpt>
      <trkpt lat="47.79965" lon="7.09267">
        <ele>454</ele>
        <time>2023-05-08T14:41:23Z</time>
      </trkpt>
      <trkpt lat="47.79967" lon="7.09274">
        <ele>454</ele>
        <time>2023-05-08T14:41:27Z</time>
      </trkpt>
      <trkpt lat="47.79976" lon="7.09288">
        <ele>454</ele>
        <time>2023-05-08T14:41:38Z</time>
      </trkpt>
      <trkpt lat="47.7998" lon="7.09293">
        <ele>454</ele>
        <time>2023-05-08T14:41:43Z</time>
      </trkpt>
      <trkpt lat="47.79985" lon="7.09305">
        <ele>454</ele>
        <time>2023-05-08T14:41:51Z</time>
      </trkpt>
      <trkpt lat="47.79989" lon="7.09325">
        <ele>455</ele>
        <time>2023-05-08T14:42:03Z</time>
      </trkpt>
      <trkpt lat="47.79987" lon="7.09331">
        <ele>455</ele>
        <time>2023-05-08T14:42:07Z</time>
      </trkpt>
      <trkpt lat="47.79984" lon="7.09337">
        <ele>455</ele>
        <time>2023-05-08T14:42:11Z</time>
      </trkpt>
      <trkpt lat="47.79981" lon="7.09351">
        <ele>455</ele>
        <time>2023-05-08T14:42:20Z</time>
      </trkpt>
      <trkpt lat="47.79978" lon="7.09386">
        <ele>454</ele>
        <time>2023-05-08T14:42:40Z</time>
      </trkpt>
      <trkpt lat="47.79975" lon="7.09391">
        <ele>454</ele>
        <time>2023-05-08T14:42:43Z</time>
      </trkpt>
      <trkpt lat="47.79971" lon="7.09395">
        <ele>454</ele>
        <time>2023-05-08T14:42:46Z</time>
      </trkpt>
      <trkpt lat="47.79963" lon="7.09413">
        <ele>453</ele>
        <time>2023-05-08T14:42:57Z</time>
      </trkpt>
      <trkpt lat="47.79958" lon="7.09433">
        <ele>452</ele>
        <time>2023-05-08T14:43:10Z</time>
      </trkpt>
      <trkpt lat="47.79956" lon="7.09438">
        <ele>452</ele>
        <time>2023-05-08T14:43:14Z</time>
      </trkpt>
      <trkpt lat="47.79955" lon="7.09446">
        <ele>452</ele>
        <time>2023-05-08T14:43:18Z</time>
      </trkpt>
      <trkpt lat="47.79949" lon="7.09458">
        <ele>452</ele>
        <time>2023-05-08T14:43:26Z</time>
      </trkpt>
      <trkpt lat="47.79948" lon="7.09465">
        <ele>451</ele>
        <time>2023-05-08T14:43:29Z</time>
      </trkpt>
      <trkpt lat="47.79937" lon="7.09495">
        <ele>449</ele>
        <time>2023-05-08T14:43:49Z</time>
      </trkpt>
      <trkpt lat="47.79937" lon="7.09503">
        <ele>449</ele>
        <time>2023-05-08T14:43:53Z</time>
      </trkpt>
      <trkpt lat="47.79935" lon="7.09509">
        <ele>448</ele>
        <time>2023-05-08T14:43:57Z</time>
      </trkpt>
      <trkpt lat="47.79925" lon="7.09524">
        <ele>447</ele>
        <time>2023-05-08T14:44:10Z</time>
      </trkpt>
      <trkpt lat="47.79919" lon="7.0953">
        <ele>446</ele>
        <time>2023-05-08T14:44:16Z</time>
      </trkpt>
      <trkpt lat="47.79903" lon="7.09583">
        <ele>442</ele>
        <time>2023-05-08T14:44:49Z</time>
      </trkpt>
      <trkpt lat="47.799" lon="7.09604">
        <ele>442</ele>
        <time>2023-05-08T14:45:00Z</time>
      </trkpt>
      <trkpt lat="47.79897" lon="7.09608">
        <ele>441</ele>
        <time>2023-05-08T14:45:04Z</time>
      </trkpt>
      <trkpt lat="47.79888" lon="7.09617">
        <ele>440</ele>
        <time>2023-05-08T14:45:11Z</time>
      </trkpt>
      <trkpt lat="47.79883" lon="7.09619">
        <ele>439</ele>
        <time>2023-05-08T14:45:16Z</time>
      </trkpt>
      <trkpt lat="47.79866" lon="7.09634">
        <ele>436</ele>
        <time>2023-05-08T14:45:31Z</time>
      </trkpt>
      <trkpt lat="47.79851" lon="7.09628">
        <ele>434</ele>
        <time>2023-05-08T14:45:44Z</time>
      </trkpt>
      <trkpt lat="47.79811" lon="7.09629">
        <ele>428</ele>
        <time>2023-05-08T14:46:18Z</time>
      </trkpt>
      <trkpt lat="47.79778" lon="7.09624">
        <ele>424</ele>
        <time>2023-05-08T14:46:46Z</time>
      </trkpt>
      <trkpt lat="47.79769" lon="7.09621">
        <ele>423</ele>
        <time>2023-05-08T14:46:55Z</time>
      </trkpt>
      <trkpt lat="47.79764" lon="7.09623">
        <ele>422</ele>
        <time>2023-05-08T14:47:00Z</time>
      </trkpt>
      <trkpt lat="47.79752" lon="7.09637">
        <ele>420</ele>
        <time>2023-05-08T14:47:13Z</time>
      </trkpt>
      <trkpt lat="47.79735" lon="7.09649">
        <ele>418</ele>
        <time>2023-05-08T14:47:29Z</time>
      </trkpt>
      <trkpt lat="47.79726" lon="7.09651">
        <ele>417</ele>
        <time>2023-05-08T14:47:37Z</time>
      </trkpt>
      <trkpt lat="47.79691" lon="7.09644">
        <ele>413</ele>
        <time>2023-05-08T14:48:07Z</time>
      </trkpt>
      <trkpt lat="47.7966" lon="7.09679">
        <ele>410</ele>
        <time>2023-05-08T14:48:41Z</time>
      </trkpt>
      <trkpt lat="47.79652" lon="7.09688">
        <ele>409</ele>
        <time>2023-05-08T14:48:49Z</time>
      </trkpt>
      <trkpt lat="47.79643" lon="7.09693">
        <ele>408</ele>
        <time>2023-05-08T14:48:58Z</time>
      </trkpt>
      <trkpt lat="47.79635" lon="7.097">
        <ele>408</ele>
        <time>2023-05-08T14:49:05Z</time>
      </trkpt>
      <trkpt lat="47.79626" lon="7.09704">
        <ele>407</ele>
        <time>2023-05-08T14:49:12Z</time>
      </trkpt>
      <trkpt lat="47.79609" lon="7.09717">
        <ele>406</ele>
        <time>2023-05-08T14:49:28Z</time>
      </trkpt>
      <trkpt lat="47.79604" lon="7.09718">
        <ele>406</ele>
        <time>2023-05-08T14:49:32Z</time>
      </trkpt>
      <trkpt lat="47.79582" lon="7.09732">
        <ele>405</ele>
        <time>2023-05-08T14:49:52Z</time>
      </trkpt>
      <trkpt lat="47.79579" lon="7.09737">
        <ele>405</ele>
        <time>2023-05-08T14:49:56Z</time>
      </trkpt>
      <trkpt lat="47.79573" lon="7.09747">
        <ele>405</ele>
        <time>2023-05-08T14:50:05Z</time>
      </trkpt>
      <trkpt lat="47.7957" lon="7.09752">
        <ele>405</ele>
        <time>2023-05-08T14:50:09Z</time>
      </trkpt>
      <trkpt lat="47.79565" lon="7.09752">
        <ele>405</ele>
        <time>2023-05-08T14:50:13Z</time>
      </trkpt>
      <trkpt lat="47.79554" lon="7.09747">
        <ele>402</ele>
        <time>2023-05-08T14:50:23Z</time>
      </trkpt>
      <trkpt lat="47.79549" lon="7.09744">
        <ele>402</ele>
        <time>2023-05-08T14:50:27Z</time>
      </trkpt>
      <trkpt lat="47.79545" lon="7.09744">
        <ele>403</ele>
        <time>2023-05-08T14:50:31Z</time>
      </trkpt>
      <trkpt lat="47.79535" lon="7.09745">
        <ele>402</ele>
        <time>2023-05-08T14:50:38Z</time>
      </trkpt>
      <trkpt lat="47.79502" lon="7.09738">
        <ele>399</ele>
        <time>2023-05-08T14:51:10Z</time>
      </trkpt>
      <trkpt lat="47.79468" lon="7.09723">
        <ele>393</ele>
        <time>2023-05-08T14:51:42Z</time>
      </trkpt>
      <trkpt lat="47.79457" lon="7.09721">
        <ele>392</ele>
        <time>2023-05-08T14:51:52Z</time>
      </trkpt>
      <trkpt lat="47.79444" lon="7.09712">
        <ele>388</ele>
        <time>2023-05-08T14:52:06Z</time>
      </trkpt>
      <trkpt lat="47.79408" lon="7.097">
        <ele>383</ele>
        <time>2023-05-08T14:52:39Z</time>
      </trkpt>
      <trkpt lat="47.79371" lon="7.09689">
        <ele>379</ele>
        <time>2023-05-08T14:53:14Z</time>
      </trkpt>
      <trkpt lat="47.79367" lon="7.09686">
        <ele>378</ele>
        <time>2023-05-08T14:53:19Z</time>
      </trkpt>
      <trkpt lat="47.79362" lon="7.09684">
        <ele>378</ele>
        <time>2023-05-08T14:53:23Z</time>
      </trkpt>
      <trkpt lat="47.79357" lon="7.09681">
        <ele>377</ele>
        <time>2023-05-08T14:53:27Z</time>
      </trkpt>
      <trkpt lat="47.79352" lon="7.09681">
        <ele>377</ele>
        <time>2023-05-08T14:53:31Z</time>
      </trkpt>
      <trkpt lat="47.79347" lon="7.09682">
        <ele>376</ele>
        <time>2023-05-08T14:53:35Z</time>
      </trkpt>
      <trkpt lat="47.79343" lon="7.09688">
        <ele>375</ele>
        <time>2023-05-08T14:53:39Z</time>
      </trkpt>
      <trkpt lat="47.79334" lon="7.09743">
        <ele>374</ele>
        <time>2023-05-08T14:54:11Z</time>
      </trkpt>
      <trkpt lat="47.79324" lon="7.09788">
        <ele>372</ele>
        <time>2023-05-08T14:54:39Z</time>
      </trkpt>
      <trkpt lat="47.79319" lon="7.09788">
        <ele>371</ele>
        <time>2023-05-08T14:54:48Z</time>
      </trkpt>
    </trkseg>
  </trk>
</gpx>